<?xml version="1.0" encoding="UTF-8" standalone="no" ?>
<gpx xmlns="http://www.topografix.com/GPX/1/1" xmlns:xsi="http://www.w3.org/2001/XMLSchema-instance" xsi:schemaLocation="http://www.topografix.com/GPX/1/1 http://www.topografix.com/GPX/1/1/gpx.xsd" version="1.1" creator="VisuGPX - https://www.visugpx.com">
  <metadata>
    <name>Enduro des merveilles</name>
    <desc><![CDATA[3 belles speciales]]></desc>
  </metadata>
  <trk>
    <name><![CDATA[Enduro des merveilles]]></name>
    <trkseg>
      <trkpt lat="44.09231" lon="7.60146">
        <ele>826</ele>
        <time>2012-10-21T07:54:41Z</time>
      </trkpt>
      <trkpt lat="44.09246" lon="7.6018">
        <ele>829</ele>
        <time>2012-10-21T07:54:54Z</time>
      </trkpt>
      <trkpt lat="44.09256" lon="7.60199">
        <ele>829</ele>
        <time>2012-10-21T07:54:59Z</time>
      </trkpt>
      <trkpt lat="44.09261" lon="7.60219">
        <ele>829</ele>
        <time>2012-10-21T07:55:04Z</time>
      </trkpt>
      <trkpt lat="44.09266" lon="7.60241">
        <ele>829</ele>
        <time>2012-10-21T07:55:09Z</time>
      </trkpt>
      <trkpt lat="44.09274" lon="7.60262">
        <ele>829</ele>
        <time>2012-10-21T07:55:14Z</time>
      </trkpt>
      <trkpt lat="44.09285" lon="7.60286">
        <ele>829</ele>
        <time>2012-10-21T07:55:19Z</time>
      </trkpt>
      <trkpt lat="44.09299" lon="7.60308">
        <ele>829</ele>
        <time>2012-10-21T07:55:24Z</time>
      </trkpt>
      <trkpt lat="44.09316" lon="7.60322">
        <ele>829</ele>
        <time>2012-10-21T07:55:29Z</time>
      </trkpt>
      <trkpt lat="44.09333" lon="7.60332">
        <ele>829</ele>
        <time>2012-10-21T07:55:34Z</time>
      </trkpt>
      <trkpt lat="44.0935" lon="7.60343">
        <ele>829</ele>
        <time>2012-10-21T07:55:39Z</time>
      </trkpt>
      <trkpt lat="44.09366" lon="7.60354">
        <ele>829</ele>
        <time>2012-10-21T07:55:44Z</time>
      </trkpt>
      <trkpt lat="44.09381" lon="7.60367">
        <ele>829</ele>
        <time>2012-10-21T07:55:49Z</time>
      </trkpt>
      <trkpt lat="44.09395" lon="7.60382">
        <ele>829</ele>
        <time>2012-10-21T07:55:54Z</time>
      </trkpt>
      <trkpt lat="44.09411" lon="7.60396">
        <ele>829</ele>
        <time>2012-10-21T07:55:59Z</time>
      </trkpt>
      <trkpt lat="44.09425" lon="7.60411">
        <ele>829</ele>
        <time>2012-10-21T07:56:04Z</time>
      </trkpt>
      <trkpt lat="44.09439" lon="7.60427">
        <ele>829</ele>
        <time>2012-10-21T07:56:09Z</time>
      </trkpt>
      <trkpt lat="44.09451" lon="7.60445">
        <ele>829</ele>
        <time>2012-10-21T07:56:14Z</time>
      </trkpt>
      <trkpt lat="44.09465" lon="7.60461">
        <ele>829</ele>
        <time>2012-10-21T07:56:19Z</time>
      </trkpt>
      <trkpt lat="44.09478" lon="7.60479">
        <ele>829</ele>
        <time>2012-10-21T07:56:24Z</time>
      </trkpt>
      <trkpt lat="44.09489" lon="7.60503">
        <ele>829</ele>
        <time>2012-10-21T07:56:29Z</time>
      </trkpt>
      <trkpt lat="44.09501" lon="7.60526">
        <ele>829</ele>
        <time>2012-10-21T07:56:34Z</time>
      </trkpt>
      <trkpt lat="44.09514" lon="7.60552">
        <ele>829</ele>
        <time>2012-10-21T07:56:39Z</time>
      </trkpt>
      <trkpt lat="44.09531" lon="7.60576">
        <ele>829</ele>
        <time>2012-10-21T07:56:44Z</time>
      </trkpt>
      <trkpt lat="44.09555" lon="7.60587">
        <ele>829</ele>
        <time>2012-10-21T07:56:49Z</time>
      </trkpt>
      <trkpt lat="44.09578" lon="7.60593">
        <ele>829</ele>
        <time>2012-10-21T07:56:54Z</time>
      </trkpt>
      <trkpt lat="44.096" lon="7.60601">
        <ele>829</ele>
        <time>2012-10-21T07:56:59Z</time>
      </trkpt>
      <trkpt lat="44.09621" lon="7.6061">
        <ele>829</ele>
        <time>2012-10-21T07:57:04Z</time>
      </trkpt>
      <trkpt lat="44.09643" lon="7.60618">
        <ele>829</ele>
        <time>2012-10-21T07:57:09Z</time>
      </trkpt>
      <trkpt lat="44.09666" lon="7.60628">
        <ele>829</ele>
        <time>2012-10-21T07:57:14Z</time>
      </trkpt>
      <trkpt lat="44.09683" lon="7.60642">
        <ele>832</ele>
        <time>2012-10-21T07:57:19Z</time>
      </trkpt>
      <trkpt lat="44.097" lon="7.60653">
        <ele>833</ele>
        <time>2012-10-21T07:57:24Z</time>
      </trkpt>
      <trkpt lat="44.09714" lon="7.60663">
        <ele>835</ele>
        <time>2012-10-21T07:57:29Z</time>
      </trkpt>
      <trkpt lat="44.09728" lon="7.60674">
        <ele>839</ele>
        <time>2012-10-21T07:57:34Z</time>
      </trkpt>
      <trkpt lat="44.09737" lon="7.60687">
        <ele>841</ele>
        <time>2012-10-21T07:57:40Z</time>
      </trkpt>
      <trkpt lat="44.09745" lon="7.60699">
        <ele>841</ele>
        <time>2012-10-21T07:57:45Z</time>
      </trkpt>
      <trkpt lat="44.09757" lon="7.60711">
        <ele>841</ele>
        <time>2012-10-21T07:57:50Z</time>
      </trkpt>
      <trkpt lat="44.0977" lon="7.60724">
        <ele>846</ele>
        <time>2012-10-21T07:57:55Z</time>
      </trkpt>
      <trkpt lat="44.09782" lon="7.60738">
        <ele>848</ele>
        <time>2012-10-21T07:58:00Z</time>
      </trkpt>
      <trkpt lat="44.09792" lon="7.60753">
        <ele>850</ele>
        <time>2012-10-21T07:58:05Z</time>
      </trkpt>
      <trkpt lat="44.09803" lon="7.6077">
        <ele>854</ele>
        <time>2012-10-21T07:58:10Z</time>
      </trkpt>
      <trkpt lat="44.09817" lon="7.60789">
        <ele>859</ele>
        <time>2012-10-21T07:58:15Z</time>
      </trkpt>
      <trkpt lat="44.09825" lon="7.60807">
        <ele>864</ele>
        <time>2012-10-21T07:58:20Z</time>
      </trkpt>
      <trkpt lat="44.09857" lon="7.60845">
        <ele>864</ele>
        <time>2012-10-21T07:58:31Z</time>
      </trkpt>
      <trkpt lat="44.09874" lon="7.60858">
        <ele>864</ele>
        <time>2012-10-21T07:58:36Z</time>
      </trkpt>
      <trkpt lat="44.09983" lon="7.60861">
        <ele>863</ele>
        <time>2012-10-21T07:59:06Z</time>
      </trkpt>
      <trkpt lat="44.09994" lon="7.60858">
        <ele>863</ele>
        <time>2012-10-21T07:59:11Z</time>
      </trkpt>
      <trkpt lat="44.09998" lon="7.60863">
        <ele>863</ele>
        <time>2012-10-21T07:59:16Z</time>
      </trkpt>
      <trkpt lat="44.10014" lon="7.60861">
        <ele>863</ele>
        <time>2012-10-21T07:59:21Z</time>
      </trkpt>
      <trkpt lat="44.10038" lon="7.60861">
        <ele>864</ele>
        <time>2012-10-21T07:59:26Z</time>
      </trkpt>
      <trkpt lat="44.10065" lon="7.6086">
        <ele>872</ele>
        <time>2012-10-21T07:59:31Z</time>
      </trkpt>
      <trkpt lat="44.10075" lon="7.60858">
        <ele>878</ele>
        <time>2012-10-21T07:59:36Z</time>
      </trkpt>
      <trkpt lat="44.10087" lon="7.60857">
        <ele>879</ele>
        <time>2012-10-21T07:59:41Z</time>
      </trkpt>
      <trkpt lat="44.10102" lon="7.60857">
        <ele>875</ele>
        <time>2012-10-21T07:59:46Z</time>
      </trkpt>
      <trkpt lat="44.10117" lon="7.60868">
        <ele>871</ele>
        <time>2012-10-21T07:59:51Z</time>
      </trkpt>
      <trkpt lat="44.10132" lon="7.60876">
        <ele>870</ele>
        <time>2012-10-21T07:59:56Z</time>
      </trkpt>
      <trkpt lat="44.10146" lon="7.60887">
        <ele>869</ele>
        <time>2012-10-21T08:00:01Z</time>
      </trkpt>
      <trkpt lat="44.10159" lon="7.60909">
        <ele>869</ele>
        <time>2012-10-21T08:00:07Z</time>
      </trkpt>
      <trkpt lat="44.10168" lon="7.60927">
        <ele>869</ele>
        <time>2012-10-21T08:00:12Z</time>
      </trkpt>
      <trkpt lat="44.10176" lon="7.60946">
        <ele>869</ele>
        <time>2012-10-21T08:00:17Z</time>
      </trkpt>
      <trkpt lat="44.10186" lon="7.60964">
        <ele>869</ele>
        <time>2012-10-21T08:00:22Z</time>
      </trkpt>
      <trkpt lat="44.10197" lon="7.60982">
        <ele>869</ele>
        <time>2012-10-21T08:00:27Z</time>
      </trkpt>
      <trkpt lat="44.10209" lon="7.60998">
        <ele>869</ele>
        <time>2012-10-21T08:00:32Z</time>
      </trkpt>
      <trkpt lat="44.10222" lon="7.61009">
        <ele>869</ele>
        <time>2012-10-21T08:00:37Z</time>
      </trkpt>
      <trkpt lat="44.10233" lon="7.61018">
        <ele>869</ele>
        <time>2012-10-21T08:00:42Z</time>
      </trkpt>
      <trkpt lat="44.10244" lon="7.61027">
        <ele>869</ele>
        <time>2012-10-21T08:00:47Z</time>
      </trkpt>
      <trkpt lat="44.10256" lon="7.61037">
        <ele>869</ele>
        <time>2012-10-21T08:00:52Z</time>
      </trkpt>
      <trkpt lat="44.10267" lon="7.61047">
        <ele>869</ele>
        <time>2012-10-21T08:00:57Z</time>
      </trkpt>
      <trkpt lat="44.10278" lon="7.61053">
        <ele>869</ele>
        <time>2012-10-21T08:01:02Z</time>
      </trkpt>
      <trkpt lat="44.10281" lon="7.61043">
        <ele>869</ele>
        <time>2012-10-21T08:01:07Z</time>
      </trkpt>
      <trkpt lat="44.10271" lon="7.61034">
        <ele>869</ele>
        <time>2012-10-21T08:01:12Z</time>
      </trkpt>
      <trkpt lat="44.10263" lon="7.61029">
        <ele>869</ele>
        <time>2012-10-21T08:01:17Z</time>
      </trkpt>
      <trkpt lat="44.10249" lon="7.61019">
        <ele>869</ele>
        <time>2012-10-21T08:01:22Z</time>
      </trkpt>
      <trkpt lat="44.10241" lon="7.61011">
        <ele>869</ele>
        <time>2012-10-21T08:01:27Z</time>
      </trkpt>
      <trkpt lat="44.10235" lon="7.61004">
        <ele>869</ele>
        <time>2012-10-21T08:01:32Z</time>
      </trkpt>
      <trkpt lat="44.10228" lon="7.60997">
        <ele>869</ele>
        <time>2012-10-21T08:01:37Z</time>
      </trkpt>
      <trkpt lat="44.10219" lon="7.60989">
        <ele>869</ele>
        <time>2012-10-21T08:01:42Z</time>
      </trkpt>
      <trkpt lat="44.10212" lon="7.60983">
        <ele>870</ele>
        <time>2012-10-21T08:01:47Z</time>
      </trkpt>
      <trkpt lat="44.10205" lon="7.60975">
        <ele>871</ele>
        <time>2012-10-21T08:01:52Z</time>
      </trkpt>
      <trkpt lat="44.102" lon="7.60965">
        <ele>871</ele>
        <time>2012-10-21T08:01:57Z</time>
      </trkpt>
      <trkpt lat="44.10198" lon="7.60955">
        <ele>873</ele>
        <time>2012-10-21T08:02:02Z</time>
      </trkpt>
      <trkpt lat="44.10195" lon="7.60946">
        <ele>875</ele>
        <time>2012-10-21T08:02:07Z</time>
      </trkpt>
      <trkpt lat="44.10193" lon="7.60934">
        <ele>876</ele>
        <time>2012-10-21T08:02:12Z</time>
      </trkpt>
      <trkpt lat="44.10194" lon="7.60922">
        <ele>878</ele>
        <time>2012-10-21T08:02:17Z</time>
      </trkpt>
      <trkpt lat="44.10195" lon="7.60909">
        <ele>879</ele>
        <time>2012-10-21T08:02:22Z</time>
      </trkpt>
      <trkpt lat="44.10195" lon="7.60897">
        <ele>880</ele>
        <time>2012-10-21T08:02:27Z</time>
      </trkpt>
      <trkpt lat="44.10193" lon="7.60886">
        <ele>881</ele>
        <time>2012-10-21T08:02:32Z</time>
      </trkpt>
      <trkpt lat="44.1019" lon="7.60876">
        <ele>882</ele>
        <time>2012-10-21T08:02:37Z</time>
      </trkpt>
      <trkpt lat="44.10186" lon="7.60865">
        <ele>883</ele>
        <time>2012-10-21T08:02:42Z</time>
      </trkpt>
      <trkpt lat="44.10181" lon="7.60856">
        <ele>884</ele>
        <time>2012-10-21T08:02:47Z</time>
      </trkpt>
      <trkpt lat="44.10179" lon="7.60844">
        <ele>885</ele>
        <time>2012-10-21T08:02:52Z</time>
      </trkpt>
      <trkpt lat="44.10178" lon="7.60832">
        <ele>885</ele>
        <time>2012-10-21T08:02:57Z</time>
      </trkpt>
      <trkpt lat="44.10177" lon="7.60821">
        <ele>885</ele>
        <time>2012-10-21T08:03:02Z</time>
      </trkpt>
      <trkpt lat="44.1017" lon="7.60813">
        <ele>886</ele>
        <time>2012-10-21T08:03:07Z</time>
      </trkpt>
      <trkpt lat="44.10161" lon="7.6081">
        <ele>887</ele>
        <time>2012-10-21T08:03:12Z</time>
      </trkpt>
      <trkpt lat="44.10151" lon="7.60807">
        <ele>888</ele>
        <time>2012-10-21T08:03:17Z</time>
      </trkpt>
      <trkpt lat="44.10143" lon="7.60803">
        <ele>888</ele>
        <time>2012-10-21T08:03:22Z</time>
      </trkpt>
      <trkpt lat="44.10135" lon="7.60798">
        <ele>888</ele>
        <time>2012-10-21T08:03:27Z</time>
      </trkpt>
      <trkpt lat="44.10128" lon="7.60791">
        <ele>888</ele>
        <time>2012-10-21T08:03:32Z</time>
      </trkpt>
      <trkpt lat="44.10122" lon="7.60786">
        <ele>890</ele>
        <time>2012-10-21T08:03:37Z</time>
      </trkpt>
      <trkpt lat="44.10114" lon="7.60781">
        <ele>891</ele>
        <time>2012-10-21T08:03:42Z</time>
      </trkpt>
      <trkpt lat="44.10106" lon="7.60776">
        <ele>892</ele>
        <time>2012-10-21T08:03:47Z</time>
      </trkpt>
      <trkpt lat="44.10098" lon="7.60773">
        <ele>892</ele>
        <time>2012-10-21T08:03:52Z</time>
      </trkpt>
      <trkpt lat="44.10089" lon="7.6077">
        <ele>893</ele>
        <time>2012-10-21T08:03:57Z</time>
      </trkpt>
      <trkpt lat="44.1008" lon="7.60768">
        <ele>894</ele>
        <time>2012-10-21T08:04:02Z</time>
      </trkpt>
      <trkpt lat="44.10071" lon="7.60768">
        <ele>895</ele>
        <time>2012-10-21T08:04:07Z</time>
      </trkpt>
      <trkpt lat="44.10062" lon="7.60768">
        <ele>896</ele>
        <time>2012-10-21T08:04:12Z</time>
      </trkpt>
      <trkpt lat="44.10053" lon="7.60762">
        <ele>897</ele>
        <time>2012-10-21T08:04:17Z</time>
      </trkpt>
      <trkpt lat="44.10045" lon="7.60752">
        <ele>897</ele>
        <time>2012-10-21T08:04:22Z</time>
      </trkpt>
      <trkpt lat="44.10036" lon="7.60743">
        <ele>897</ele>
        <time>2012-10-21T08:04:27Z</time>
      </trkpt>
      <trkpt lat="44.10025" lon="7.60735">
        <ele>898</ele>
        <time>2012-10-21T08:04:32Z</time>
      </trkpt>
      <trkpt lat="44.10014" lon="7.60728">
        <ele>898</ele>
        <time>2012-10-21T08:04:37Z</time>
      </trkpt>
      <trkpt lat="44.10003" lon="7.60725">
        <ele>899</ele>
        <time>2012-10-21T08:04:42Z</time>
      </trkpt>
      <trkpt lat="44.09991" lon="7.60728">
        <ele>900</ele>
        <time>2012-10-21T08:04:47Z</time>
      </trkpt>
      <trkpt lat="44.09978" lon="7.60732">
        <ele>900</ele>
        <time>2012-10-21T08:04:52Z</time>
      </trkpt>
      <trkpt lat="44.09964" lon="7.60732">
        <ele>900</ele>
        <time>2012-10-21T08:04:57Z</time>
      </trkpt>
      <trkpt lat="44.09951" lon="7.6073">
        <ele>900</ele>
        <time>2012-10-21T08:05:02Z</time>
      </trkpt>
      <trkpt lat="44.09938" lon="7.60726">
        <ele>901</ele>
        <time>2012-10-21T08:05:07Z</time>
      </trkpt>
      <trkpt lat="44.09925" lon="7.6072">
        <ele>902</ele>
        <time>2012-10-21T08:05:12Z</time>
      </trkpt>
      <trkpt lat="44.09912" lon="7.6071">
        <ele>902</ele>
        <time>2012-10-21T08:05:17Z</time>
      </trkpt>
      <trkpt lat="44.09901" lon="7.60691">
        <ele>902</ele>
        <time>2012-10-21T08:05:22Z</time>
      </trkpt>
      <trkpt lat="44.0989" lon="7.6067">
        <ele>902</ele>
        <time>2012-10-21T08:05:27Z</time>
      </trkpt>
      <trkpt lat="44.09874" lon="7.60655">
        <ele>902</ele>
        <time>2012-10-21T08:05:32Z</time>
      </trkpt>
      <trkpt lat="44.09857" lon="7.60644">
        <ele>902</ele>
        <time>2012-10-21T08:05:37Z</time>
      </trkpt>
      <trkpt lat="44.09842" lon="7.60625">
        <ele>902</ele>
        <time>2012-10-21T08:05:42Z</time>
      </trkpt>
      <trkpt lat="44.09834" lon="7.606">
        <ele>902</ele>
        <time>2012-10-21T08:05:47Z</time>
      </trkpt>
      <trkpt lat="44.09829" lon="7.60578">
        <ele>902</ele>
        <time>2012-10-21T08:05:52Z</time>
      </trkpt>
      <trkpt lat="44.09824" lon="7.6056">
        <ele>904</ele>
        <time>2012-10-21T08:05:57Z</time>
      </trkpt>
      <trkpt lat="44.09816" lon="7.60546">
        <ele>906</ele>
        <time>2012-10-21T08:06:02Z</time>
      </trkpt>
      <trkpt lat="44.09808" lon="7.60536">
        <ele>907</ele>
        <time>2012-10-21T08:06:07Z</time>
      </trkpt>
      <trkpt lat="44.098" lon="7.60524">
        <ele>908</ele>
        <time>2012-10-21T08:06:12Z</time>
      </trkpt>
      <trkpt lat="44.09796" lon="7.6051">
        <ele>909</ele>
        <time>2012-10-21T08:06:17Z</time>
      </trkpt>
      <trkpt lat="44.09794" lon="7.60497">
        <ele>910</ele>
        <time>2012-10-21T08:06:22Z</time>
      </trkpt>
      <trkpt lat="44.09791" lon="7.60483">
        <ele>911</ele>
        <time>2012-10-21T08:06:27Z</time>
      </trkpt>
      <trkpt lat="44.09789" lon="7.60469">
        <ele>913</ele>
        <time>2012-10-21T08:06:32Z</time>
      </trkpt>
      <trkpt lat="44.09785" lon="7.60456">
        <ele>915</ele>
        <time>2012-10-21T08:06:37Z</time>
      </trkpt>
      <trkpt lat="44.09783" lon="7.60443">
        <ele>916</ele>
        <time>2012-10-21T08:06:42Z</time>
      </trkpt>
      <trkpt lat="44.09782" lon="7.60427">
        <ele>917</ele>
        <time>2012-10-21T08:06:47Z</time>
      </trkpt>
      <trkpt lat="44.09782" lon="7.60414">
        <ele>918</ele>
        <time>2012-10-21T08:06:52Z</time>
      </trkpt>
      <trkpt lat="44.09776" lon="7.60404">
        <ele>918</ele>
        <time>2012-10-21T08:06:57Z</time>
      </trkpt>
      <trkpt lat="44.09768" lon="7.60404">
        <ele>919</ele>
        <time>2012-10-21T08:07:02Z</time>
      </trkpt>
      <trkpt lat="44.09757" lon="7.60404">
        <ele>921</ele>
        <time>2012-10-21T08:07:07Z</time>
      </trkpt>
      <trkpt lat="44.09748" lon="7.60401">
        <ele>921</ele>
        <time>2012-10-21T08:07:12Z</time>
      </trkpt>
      <trkpt lat="44.09739" lon="7.60403">
        <ele>922</ele>
        <time>2012-10-21T08:07:17Z</time>
      </trkpt>
      <trkpt lat="44.09731" lon="7.60407">
        <ele>923</ele>
        <time>2012-10-21T08:07:22Z</time>
      </trkpt>
      <trkpt lat="44.09721" lon="7.6041">
        <ele>923</ele>
        <time>2012-10-21T08:07:27Z</time>
      </trkpt>
      <trkpt lat="44.09712" lon="7.60408">
        <ele>924</ele>
        <time>2012-10-21T08:07:32Z</time>
      </trkpt>
      <trkpt lat="44.09703" lon="7.60401">
        <ele>925</ele>
        <time>2012-10-21T08:07:37Z</time>
      </trkpt>
      <trkpt lat="44.09695" lon="7.60392">
        <ele>925</ele>
        <time>2012-10-21T08:07:42Z</time>
      </trkpt>
      <trkpt lat="44.09689" lon="7.60382">
        <ele>927</ele>
        <time>2012-10-21T08:07:47Z</time>
      </trkpt>
      <trkpt lat="44.09681" lon="7.60374">
        <ele>928</ele>
        <time>2012-10-21T08:07:52Z</time>
      </trkpt>
      <trkpt lat="44.09673" lon="7.60367">
        <ele>929</ele>
        <time>2012-10-21T08:07:57Z</time>
      </trkpt>
      <trkpt lat="44.09667" lon="7.60359">
        <ele>929</ele>
        <time>2012-10-21T08:08:02Z</time>
      </trkpt>
      <trkpt lat="44.09661" lon="7.60349">
        <ele>930</ele>
        <time>2012-10-21T08:08:07Z</time>
      </trkpt>
      <trkpt lat="44.09658" lon="7.60337">
        <ele>931</ele>
        <time>2012-10-21T08:08:12Z</time>
      </trkpt>
      <trkpt lat="44.09656" lon="7.60325">
        <ele>932</ele>
        <time>2012-10-21T08:08:17Z</time>
      </trkpt>
      <trkpt lat="44.09654" lon="7.60312">
        <ele>933</ele>
        <time>2012-10-21T08:08:22Z</time>
      </trkpt>
      <trkpt lat="44.09652" lon="7.60298">
        <ele>934</ele>
        <time>2012-10-21T08:08:27Z</time>
      </trkpt>
      <trkpt lat="44.09652" lon="7.60285">
        <ele>935</ele>
        <time>2012-10-21T08:08:32Z</time>
      </trkpt>
      <trkpt lat="44.0965" lon="7.60271">
        <ele>935</ele>
        <time>2012-10-21T08:08:37Z</time>
      </trkpt>
      <trkpt lat="44.09648" lon="7.6026">
        <ele>936</ele>
        <time>2012-10-21T08:08:42Z</time>
      </trkpt>
      <trkpt lat="44.09645" lon="7.60249">
        <ele>937</ele>
        <time>2012-10-21T08:08:47Z</time>
      </trkpt>
      <trkpt lat="44.0965" lon="7.6024">
        <ele>938</ele>
        <time>2012-10-21T08:08:52Z</time>
      </trkpt>
      <trkpt lat="44.09657" lon="7.6025">
        <ele>939</ele>
        <time>2012-10-21T08:08:57Z</time>
      </trkpt>
      <trkpt lat="44.0966" lon="7.60263">
        <ele>940</ele>
        <time>2012-10-21T08:09:02Z</time>
      </trkpt>
      <trkpt lat="44.09664" lon="7.60274">
        <ele>941</ele>
        <time>2012-10-21T08:09:07Z</time>
      </trkpt>
      <trkpt lat="44.09669" lon="7.60286">
        <ele>941</ele>
        <time>2012-10-21T08:09:12Z</time>
      </trkpt>
      <trkpt lat="44.09673" lon="7.60298">
        <ele>942</ele>
        <time>2012-10-21T08:09:17Z</time>
      </trkpt>
      <trkpt lat="44.09678" lon="7.6031">
        <ele>943</ele>
        <time>2012-10-21T08:09:22Z</time>
      </trkpt>
      <trkpt lat="44.09686" lon="7.60321">
        <ele>943</ele>
        <time>2012-10-21T08:09:27Z</time>
      </trkpt>
      <trkpt lat="44.09695" lon="7.60332">
        <ele>944</ele>
        <time>2012-10-21T08:09:32Z</time>
      </trkpt>
      <trkpt lat="44.09708" lon="7.60345">
        <ele>945</ele>
        <time>2012-10-21T08:09:37Z</time>
      </trkpt>
      <trkpt lat="44.0972" lon="7.60354">
        <ele>945</ele>
        <time>2012-10-21T08:09:42Z</time>
      </trkpt>
      <trkpt lat="44.09733" lon="7.60353">
        <ele>945</ele>
        <time>2012-10-21T08:09:47Z</time>
      </trkpt>
      <trkpt lat="44.09747" lon="7.60349">
        <ele>945</ele>
        <time>2012-10-21T08:09:52Z</time>
      </trkpt>
      <trkpt lat="44.09758" lon="7.60342">
        <ele>946</ele>
        <time>2012-10-21T08:09:57Z</time>
      </trkpt>
      <trkpt lat="44.09768" lon="7.60335">
        <ele>948</ele>
        <time>2012-10-21T08:10:02Z</time>
      </trkpt>
      <trkpt lat="44.09778" lon="7.60327">
        <ele>948</ele>
        <time>2012-10-21T08:10:07Z</time>
      </trkpt>
      <trkpt lat="44.09779" lon="7.60328">
        <ele>952</ele>
        <time>2012-10-21T08:10:27Z</time>
      </trkpt>
      <trkpt lat="44.0978" lon="7.6033">
        <ele>952</ele>
        <time>2012-10-21T08:10:32Z</time>
      </trkpt>
      <trkpt lat="44.09779" lon="7.60329">
        <ele>956</ele>
        <time>2012-10-21T08:10:48Z</time>
      </trkpt>
      <trkpt lat="44.09779" lon="7.60327">
        <ele>956</ele>
        <time>2012-10-21T08:10:53Z</time>
      </trkpt>
      <trkpt lat="44.09777" lon="7.60327">
        <ele>956</ele>
        <time>2012-10-21T08:11:01Z</time>
      </trkpt>
      <trkpt lat="44.09775" lon="7.60326">
        <ele>956</ele>
        <time>2012-10-21T08:11:07Z</time>
      </trkpt>
      <trkpt lat="44.09776" lon="7.60327">
        <ele>954</ele>
        <time>2012-10-21T08:11:14Z</time>
      </trkpt>
      <trkpt lat="44.09778" lon="7.60328">
        <ele>954</ele>
        <time>2012-10-21T08:11:20Z</time>
      </trkpt>
      <trkpt lat="44.0978" lon="7.60329">
        <ele>954</ele>
        <time>2012-10-21T08:11:33Z</time>
      </trkpt>
      <trkpt lat="44.0979" lon="7.60331">
        <ele>954</ele>
        <time>2012-10-21T08:11:38Z</time>
      </trkpt>
      <trkpt lat="44.09801" lon="7.60333">
        <ele>954</ele>
        <time>2012-10-21T08:11:43Z</time>
      </trkpt>
      <trkpt lat="44.09815" lon="7.60334">
        <ele>954</ele>
        <time>2012-10-21T08:11:48Z</time>
      </trkpt>
      <trkpt lat="44.09827" lon="7.60345">
        <ele>954</ele>
        <time>2012-10-21T08:11:53Z</time>
      </trkpt>
      <trkpt lat="44.09832" lon="7.60364">
        <ele>954</ele>
        <time>2012-10-21T08:11:58Z</time>
      </trkpt>
      <trkpt lat="44.09836" lon="7.60384">
        <ele>954</ele>
        <time>2012-10-21T08:12:03Z</time>
      </trkpt>
      <trkpt lat="44.09844" lon="7.604">
        <ele>954</ele>
        <time>2012-10-21T08:12:08Z</time>
      </trkpt>
      <trkpt lat="44.09855" lon="7.60414">
        <ele>955</ele>
        <time>2012-10-21T08:12:13Z</time>
      </trkpt>
      <trkpt lat="44.09866" lon="7.60423">
        <ele>956</ele>
        <time>2012-10-21T08:12:18Z</time>
      </trkpt>
      <trkpt lat="44.09878" lon="7.60425">
        <ele>956</ele>
        <time>2012-10-21T08:12:23Z</time>
      </trkpt>
      <trkpt lat="44.0989" lon="7.60426">
        <ele>957</ele>
        <time>2012-10-21T08:12:28Z</time>
      </trkpt>
      <trkpt lat="44.09901" lon="7.60427">
        <ele>958</ele>
        <time>2012-10-21T08:12:33Z</time>
      </trkpt>
      <trkpt lat="44.09911" lon="7.60429">
        <ele>959</ele>
        <time>2012-10-21T08:12:38Z</time>
      </trkpt>
      <trkpt lat="44.0992" lon="7.60435">
        <ele>960</ele>
        <time>2012-10-21T08:12:43Z</time>
      </trkpt>
      <trkpt lat="44.09929" lon="7.60443">
        <ele>961</ele>
        <time>2012-10-21T08:12:48Z</time>
      </trkpt>
      <trkpt lat="44.09937" lon="7.60456">
        <ele>961</ele>
        <time>2012-10-21T08:12:53Z</time>
      </trkpt>
      <trkpt lat="44.09944" lon="7.60469">
        <ele>962</ele>
        <time>2012-10-21T08:12:58Z</time>
      </trkpt>
      <trkpt lat="44.09953" lon="7.6048">
        <ele>963</ele>
        <time>2012-10-21T08:13:03Z</time>
      </trkpt>
      <trkpt lat="44.09963" lon="7.60488">
        <ele>963</ele>
        <time>2012-10-21T08:13:08Z</time>
      </trkpt>
      <trkpt lat="44.09975" lon="7.60494">
        <ele>963</ele>
        <time>2012-10-21T08:13:13Z</time>
      </trkpt>
      <trkpt lat="44.09985" lon="7.60498">
        <ele>964</ele>
        <time>2012-10-21T08:13:18Z</time>
      </trkpt>
      <trkpt lat="44.09996" lon="7.605">
        <ele>966</ele>
        <time>2012-10-21T08:13:23Z</time>
      </trkpt>
      <trkpt lat="44.10005" lon="7.60495">
        <ele>967</ele>
        <time>2012-10-21T08:13:28Z</time>
      </trkpt>
      <trkpt lat="44.10014" lon="7.60489">
        <ele>968</ele>
        <time>2012-10-21T08:13:33Z</time>
      </trkpt>
      <trkpt lat="44.10026" lon="7.60484">
        <ele>969</ele>
        <time>2012-10-21T08:13:38Z</time>
      </trkpt>
      <trkpt lat="44.10036" lon="7.60484">
        <ele>970</ele>
        <time>2012-10-21T08:13:43Z</time>
      </trkpt>
      <trkpt lat="44.10048" lon="7.60486">
        <ele>971</ele>
        <time>2012-10-21T08:13:48Z</time>
      </trkpt>
      <trkpt lat="44.10059" lon="7.60488">
        <ele>972</ele>
        <time>2012-10-21T08:13:53Z</time>
      </trkpt>
      <trkpt lat="44.1007" lon="7.60491">
        <ele>973</ele>
        <time>2012-10-21T08:13:58Z</time>
      </trkpt>
      <trkpt lat="44.1008" lon="7.60495">
        <ele>974</ele>
        <time>2012-10-21T08:14:03Z</time>
      </trkpt>
      <trkpt lat="44.10091" lon="7.605">
        <ele>975</ele>
        <time>2012-10-21T08:14:08Z</time>
      </trkpt>
      <trkpt lat="44.10101" lon="7.60505">
        <ele>976</ele>
        <time>2012-10-21T08:14:13Z</time>
      </trkpt>
      <trkpt lat="44.10113" lon="7.60508">
        <ele>976</ele>
        <time>2012-10-21T08:14:18Z</time>
      </trkpt>
      <trkpt lat="44.10124" lon="7.60511">
        <ele>977</ele>
        <time>2012-10-21T08:14:23Z</time>
      </trkpt>
      <trkpt lat="44.10136" lon="7.60514">
        <ele>978</ele>
        <time>2012-10-21T08:14:28Z</time>
      </trkpt>
      <trkpt lat="44.10147" lon="7.60519">
        <ele>979</ele>
        <time>2012-10-21T08:14:33Z</time>
      </trkpt>
      <trkpt lat="44.10157" lon="7.60524">
        <ele>981</ele>
        <time>2012-10-21T08:14:38Z</time>
      </trkpt>
      <trkpt lat="44.10167" lon="7.60531">
        <ele>982</ele>
        <time>2012-10-21T08:14:43Z</time>
      </trkpt>
      <trkpt lat="44.10176" lon="7.60536">
        <ele>983</ele>
        <time>2012-10-21T08:14:48Z</time>
      </trkpt>
      <trkpt lat="44.10186" lon="7.60542">
        <ele>985</ele>
        <time>2012-10-21T08:14:53Z</time>
      </trkpt>
      <trkpt lat="44.10196" lon="7.60545">
        <ele>986</ele>
        <time>2012-10-21T08:14:58Z</time>
      </trkpt>
      <trkpt lat="44.10206" lon="7.60546">
        <ele>987</ele>
        <time>2012-10-21T08:15:03Z</time>
      </trkpt>
      <trkpt lat="44.10214" lon="7.6055">
        <ele>988</ele>
        <time>2012-10-21T08:15:08Z</time>
      </trkpt>
      <trkpt lat="44.10224" lon="7.60559">
        <ele>988</ele>
        <time>2012-10-21T08:15:13Z</time>
      </trkpt>
      <trkpt lat="44.10234" lon="7.60566">
        <ele>989</ele>
        <time>2012-10-21T08:15:18Z</time>
      </trkpt>
      <trkpt lat="44.10242" lon="7.60573">
        <ele>990</ele>
        <time>2012-10-21T08:15:23Z</time>
      </trkpt>
      <trkpt lat="44.1025" lon="7.60579">
        <ele>991</ele>
        <time>2012-10-21T08:15:28Z</time>
      </trkpt>
      <trkpt lat="44.10258" lon="7.60587">
        <ele>992</ele>
        <time>2012-10-21T08:15:33Z</time>
      </trkpt>
      <trkpt lat="44.10266" lon="7.60594">
        <ele>994</ele>
        <time>2012-10-21T08:15:38Z</time>
      </trkpt>
      <trkpt lat="44.10274" lon="7.606">
        <ele>995</ele>
        <time>2012-10-21T08:15:43Z</time>
      </trkpt>
      <trkpt lat="44.10282" lon="7.60606">
        <ele>996</ele>
        <time>2012-10-21T08:15:48Z</time>
      </trkpt>
      <trkpt lat="44.10291" lon="7.60611">
        <ele>997</ele>
        <time>2012-10-21T08:15:53Z</time>
      </trkpt>
      <trkpt lat="44.10299" lon="7.60616">
        <ele>998</ele>
        <time>2012-10-21T08:15:58Z</time>
      </trkpt>
      <trkpt lat="44.10308" lon="7.6062">
        <ele>998</ele>
        <time>2012-10-21T08:16:03Z</time>
      </trkpt>
      <trkpt lat="44.10316" lon="7.60623">
        <ele>999</ele>
        <time>2012-10-21T08:16:08Z</time>
      </trkpt>
      <trkpt lat="44.10325" lon="7.60627">
        <ele>1000</ele>
        <time>2012-10-21T08:16:13Z</time>
      </trkpt>
      <trkpt lat="44.10334" lon="7.6063">
        <ele>1001</ele>
        <time>2012-10-21T08:16:18Z</time>
      </trkpt>
      <trkpt lat="44.10344" lon="7.60632">
        <ele>1002</ele>
        <time>2012-10-21T08:16:23Z</time>
      </trkpt>
      <trkpt lat="44.10355" lon="7.60634">
        <ele>1003</ele>
        <time>2012-10-21T08:16:28Z</time>
      </trkpt>
      <trkpt lat="44.10365" lon="7.60636">
        <ele>1004</ele>
        <time>2012-10-21T08:16:33Z</time>
      </trkpt>
      <trkpt lat="44.10374" lon="7.60639">
        <ele>1005</ele>
        <time>2012-10-21T08:16:38Z</time>
      </trkpt>
      <trkpt lat="44.10384" lon="7.60642">
        <ele>1006</ele>
        <time>2012-10-21T08:16:43Z</time>
      </trkpt>
      <trkpt lat="44.10392" lon="7.60646">
        <ele>1007</ele>
        <time>2012-10-21T08:16:48Z</time>
      </trkpt>
      <trkpt lat="44.10402" lon="7.6065">
        <ele>1007</ele>
        <time>2012-10-21T08:16:53Z</time>
      </trkpt>
      <trkpt lat="44.10411" lon="7.60656">
        <ele>1008</ele>
        <time>2012-10-21T08:16:58Z</time>
      </trkpt>
      <trkpt lat="44.1042" lon="7.60659">
        <ele>1009</ele>
        <time>2012-10-21T08:17:03Z</time>
      </trkpt>
      <trkpt lat="44.10429" lon="7.60661">
        <ele>1010</ele>
        <time>2012-10-21T08:17:08Z</time>
      </trkpt>
      <trkpt lat="44.10438" lon="7.60662">
        <ele>1011</ele>
        <time>2012-10-21T08:17:13Z</time>
      </trkpt>
      <trkpt lat="44.10446" lon="7.60663">
        <ele>1012</ele>
        <time>2012-10-21T08:17:18Z</time>
      </trkpt>
      <trkpt lat="44.10453" lon="7.60664">
        <ele>1013</ele>
        <time>2012-10-21T08:17:23Z</time>
      </trkpt>
      <trkpt lat="44.10462" lon="7.60665">
        <ele>1014</ele>
        <time>2012-10-21T08:17:28Z</time>
      </trkpt>
      <trkpt lat="44.1047" lon="7.60666">
        <ele>1015</ele>
        <time>2012-10-21T08:17:33Z</time>
      </trkpt>
      <trkpt lat="44.10479" lon="7.60668">
        <ele>1016</ele>
        <time>2012-10-21T08:17:38Z</time>
      </trkpt>
      <trkpt lat="44.10487" lon="7.60669">
        <ele>1018</ele>
        <time>2012-10-21T08:17:43Z</time>
      </trkpt>
      <trkpt lat="44.10495" lon="7.60672">
        <ele>1020</ele>
        <time>2012-10-21T08:17:48Z</time>
      </trkpt>
      <trkpt lat="44.10502" lon="7.60677">
        <ele>1021</ele>
        <time>2012-10-21T08:17:53Z</time>
      </trkpt>
      <trkpt lat="44.10509" lon="7.60682">
        <ele>1022</ele>
        <time>2012-10-21T08:17:58Z</time>
      </trkpt>
      <trkpt lat="44.10516" lon="7.60687">
        <ele>1023</ele>
        <time>2012-10-21T08:18:03Z</time>
      </trkpt>
      <trkpt lat="44.10521" lon="7.60692">
        <ele>1024</ele>
        <time>2012-10-21T08:18:08Z</time>
      </trkpt>
      <trkpt lat="44.10529" lon="7.60697">
        <ele>1025</ele>
        <time>2012-10-21T08:18:13Z</time>
      </trkpt>
      <trkpt lat="44.10535" lon="7.60703">
        <ele>1026</ele>
        <time>2012-10-21T08:18:18Z</time>
      </trkpt>
      <trkpt lat="44.10541" lon="7.60708">
        <ele>1027</ele>
        <time>2012-10-21T08:18:23Z</time>
      </trkpt>
      <trkpt lat="44.10547" lon="7.60713">
        <ele>1028</ele>
        <time>2012-10-21T08:18:28Z</time>
      </trkpt>
      <trkpt lat="44.10553" lon="7.60718">
        <ele>1029</ele>
        <time>2012-10-21T08:18:33Z</time>
      </trkpt>
      <trkpt lat="44.1056" lon="7.60722">
        <ele>1030</ele>
        <time>2012-10-21T08:18:38Z</time>
      </trkpt>
      <trkpt lat="44.10567" lon="7.60726">
        <ele>1032</ele>
        <time>2012-10-21T08:18:43Z</time>
      </trkpt>
      <trkpt lat="44.10573" lon="7.6073">
        <ele>1033</ele>
        <time>2012-10-21T08:18:48Z</time>
      </trkpt>
      <trkpt lat="44.10579" lon="7.60731">
        <ele>1034</ele>
        <time>2012-10-21T08:18:53Z</time>
      </trkpt>
      <trkpt lat="44.10581" lon="7.60723">
        <ele>1035</ele>
        <time>2012-10-21T08:18:58Z</time>
      </trkpt>
      <trkpt lat="44.10576" lon="7.60716">
        <ele>1036</ele>
        <time>2012-10-21T08:19:03Z</time>
      </trkpt>
      <trkpt lat="44.10571" lon="7.60709">
        <ele>1037</ele>
        <time>2012-10-21T08:19:08Z</time>
      </trkpt>
      <trkpt lat="44.10565" lon="7.607">
        <ele>1038</ele>
        <time>2012-10-21T08:19:14Z</time>
      </trkpt>
      <trkpt lat="44.1056" lon="7.60691">
        <ele>1039</ele>
        <time>2012-10-21T08:19:19Z</time>
      </trkpt>
      <trkpt lat="44.10556" lon="7.60682">
        <ele>1040</ele>
        <time>2012-10-21T08:19:24Z</time>
      </trkpt>
      <trkpt lat="44.10552" lon="7.60673">
        <ele>1041</ele>
        <time>2012-10-21T08:19:29Z</time>
      </trkpt>
      <trkpt lat="44.10548" lon="7.60665">
        <ele>1041</ele>
        <time>2012-10-21T08:19:34Z</time>
      </trkpt>
      <trkpt lat="44.10544" lon="7.60655">
        <ele>1042</ele>
        <time>2012-10-21T08:19:39Z</time>
      </trkpt>
      <trkpt lat="44.1054" lon="7.60647">
        <ele>1043</ele>
        <time>2012-10-21T08:19:44Z</time>
      </trkpt>
      <trkpt lat="44.10536" lon="7.60638">
        <ele>1044</ele>
        <time>2012-10-21T08:19:49Z</time>
      </trkpt>
      <trkpt lat="44.10531" lon="7.60629">
        <ele>1044</ele>
        <time>2012-10-21T08:19:54Z</time>
      </trkpt>
      <trkpt lat="44.10526" lon="7.6062">
        <ele>1045</ele>
        <time>2012-10-21T08:19:59Z</time>
      </trkpt>
      <trkpt lat="44.1052" lon="7.60612">
        <ele>1046</ele>
        <time>2012-10-21T08:20:04Z</time>
      </trkpt>
      <trkpt lat="44.10514" lon="7.60605">
        <ele>1047</ele>
        <time>2012-10-21T08:20:09Z</time>
      </trkpt>
      <trkpt lat="44.10508" lon="7.60597">
        <ele>1048</ele>
        <time>2012-10-21T08:20:14Z</time>
      </trkpt>
      <trkpt lat="44.10502" lon="7.60589">
        <ele>1048</ele>
        <time>2012-10-21T08:20:19Z</time>
      </trkpt>
      <trkpt lat="44.10496" lon="7.6058">
        <ele>1048</ele>
        <time>2012-10-21T08:20:24Z</time>
      </trkpt>
      <trkpt lat="44.1049" lon="7.60571">
        <ele>1049</ele>
        <time>2012-10-21T08:20:29Z</time>
      </trkpt>
      <trkpt lat="44.10484" lon="7.60564">
        <ele>1050</ele>
        <time>2012-10-21T08:20:34Z</time>
      </trkpt>
      <trkpt lat="44.10478" lon="7.60555">
        <ele>1050</ele>
        <time>2012-10-21T08:20:40Z</time>
      </trkpt>
      <trkpt lat="44.10472" lon="7.60549">
        <ele>1050</ele>
        <time>2012-10-21T08:20:45Z</time>
      </trkpt>
      <trkpt lat="44.10466" lon="7.60542">
        <ele>1050</ele>
        <time>2012-10-21T08:20:50Z</time>
      </trkpt>
      <trkpt lat="44.1046" lon="7.60536">
        <ele>1051</ele>
        <time>2012-10-21T08:20:55Z</time>
      </trkpt>
      <trkpt lat="44.10454" lon="7.60526">
        <ele>1051</ele>
        <time>2012-10-21T08:21:00Z</time>
      </trkpt>
      <trkpt lat="44.10448" lon="7.60516">
        <ele>1053</ele>
        <time>2012-10-21T08:21:05Z</time>
      </trkpt>
      <trkpt lat="44.10442" lon="7.60506">
        <ele>1053</ele>
        <time>2012-10-21T08:21:10Z</time>
      </trkpt>
      <trkpt lat="44.10435" lon="7.60496">
        <ele>1055</ele>
        <time>2012-10-21T08:21:15Z</time>
      </trkpt>
      <trkpt lat="44.1043" lon="7.60487">
        <ele>1056</ele>
        <time>2012-10-21T08:21:20Z</time>
      </trkpt>
      <trkpt lat="44.10424" lon="7.60476">
        <ele>1056</ele>
        <time>2012-10-21T08:21:25Z</time>
      </trkpt>
      <trkpt lat="44.10419" lon="7.60467">
        <ele>1056</ele>
        <time>2012-10-21T08:21:30Z</time>
      </trkpt>
      <trkpt lat="44.10413" lon="7.60458">
        <ele>1056</ele>
        <time>2012-10-21T08:21:35Z</time>
      </trkpt>
      <trkpt lat="44.10408" lon="7.6045">
        <ele>1056</ele>
        <time>2012-10-21T08:21:40Z</time>
      </trkpt>
      <trkpt lat="44.10402" lon="7.60441">
        <ele>1056</ele>
        <time>2012-10-21T08:21:45Z</time>
      </trkpt>
      <trkpt lat="44.10395" lon="7.60432">
        <ele>1056</ele>
        <time>2012-10-21T08:21:50Z</time>
      </trkpt>
      <trkpt lat="44.10388" lon="7.60425">
        <ele>1056</ele>
        <time>2012-10-21T08:21:55Z</time>
      </trkpt>
      <trkpt lat="44.10379" lon="7.60417">
        <ele>1056</ele>
        <time>2012-10-21T08:22:00Z</time>
      </trkpt>
      <trkpt lat="44.10371" lon="7.6041">
        <ele>1056</ele>
        <time>2012-10-21T08:22:05Z</time>
      </trkpt>
      <trkpt lat="44.10364" lon="7.60402">
        <ele>1057</ele>
        <time>2012-10-21T08:22:10Z</time>
      </trkpt>
      <trkpt lat="44.10356" lon="7.60394">
        <ele>1057</ele>
        <time>2012-10-21T08:22:15Z</time>
      </trkpt>
      <trkpt lat="44.10347" lon="7.60383">
        <ele>1059</ele>
        <time>2012-10-21T08:22:20Z</time>
      </trkpt>
      <trkpt lat="44.10337" lon="7.60372">
        <ele>1061</ele>
        <time>2012-10-21T08:22:25Z</time>
      </trkpt>
      <trkpt lat="44.1033" lon="7.60362">
        <ele>1063</ele>
        <time>2012-10-21T08:22:30Z</time>
      </trkpt>
      <trkpt lat="44.10324" lon="7.60354">
        <ele>1064</ele>
        <time>2012-10-21T08:22:35Z</time>
      </trkpt>
      <trkpt lat="44.10317" lon="7.60343">
        <ele>1065</ele>
        <time>2012-10-21T08:22:40Z</time>
      </trkpt>
      <trkpt lat="44.10309" lon="7.60333">
        <ele>1066</ele>
        <time>2012-10-21T08:22:45Z</time>
      </trkpt>
      <trkpt lat="44.10302" lon="7.60325">
        <ele>1066</ele>
        <time>2012-10-21T08:22:50Z</time>
      </trkpt>
      <trkpt lat="44.10294" lon="7.60319">
        <ele>1066</ele>
        <time>2012-10-21T08:22:55Z</time>
      </trkpt>
      <trkpt lat="44.10284" lon="7.60314">
        <ele>1066</ele>
        <time>2012-10-21T08:23:00Z</time>
      </trkpt>
      <trkpt lat="44.10274" lon="7.6031">
        <ele>1066</ele>
        <time>2012-10-21T08:23:05Z</time>
      </trkpt>
      <trkpt lat="44.10262" lon="7.60306">
        <ele>1066</ele>
        <time>2012-10-21T08:23:10Z</time>
      </trkpt>
      <trkpt lat="44.10248" lon="7.60297">
        <ele>1067</ele>
        <time>2012-10-21T08:23:15Z</time>
      </trkpt>
      <trkpt lat="44.10236" lon="7.60281">
        <ele>1067</ele>
        <time>2012-10-21T08:23:20Z</time>
      </trkpt>
      <trkpt lat="44.1022" lon="7.60251">
        <ele>1067</ele>
        <time>2012-10-21T08:23:25Z</time>
      </trkpt>
      <trkpt lat="44.10194" lon="7.60219">
        <ele>1067</ele>
        <time>2012-10-21T08:23:30Z</time>
      </trkpt>
      <trkpt lat="44.10161" lon="7.60201">
        <ele>1067</ele>
        <time>2012-10-21T08:23:35Z</time>
      </trkpt>
      <trkpt lat="44.10128" lon="7.60187">
        <ele>1067</ele>
        <time>2012-10-21T08:23:40Z</time>
      </trkpt>
      <trkpt lat="44.10101" lon="7.60168">
        <ele>1067</ele>
        <time>2012-10-21T08:23:45Z</time>
      </trkpt>
      <trkpt lat="44.1008" lon="7.60158">
        <ele>1067</ele>
        <time>2012-10-21T08:23:50Z</time>
      </trkpt>
      <trkpt lat="44.1006" lon="7.60145">
        <ele>1067</ele>
        <time>2012-10-21T08:23:55Z</time>
      </trkpt>
      <trkpt lat="44.10043" lon="7.60127">
        <ele>1067</ele>
        <time>2012-10-21T08:24:00Z</time>
      </trkpt>
      <trkpt lat="44.1003" lon="7.60108">
        <ele>1067</ele>
        <time>2012-10-21T08:24:05Z</time>
      </trkpt>
      <trkpt lat="44.10016" lon="7.60092">
        <ele>1067</ele>
        <time>2012-10-21T08:24:10Z</time>
      </trkpt>
      <trkpt lat="44.09999" lon="7.60081">
        <ele>1067</ele>
        <time>2012-10-21T08:24:15Z</time>
      </trkpt>
      <trkpt lat="44.09983" lon="7.60071">
        <ele>1068</ele>
        <time>2012-10-21T08:24:20Z</time>
      </trkpt>
      <trkpt lat="44.09965" lon="7.6006">
        <ele>1069</ele>
        <time>2012-10-21T08:24:25Z</time>
      </trkpt>
      <trkpt lat="44.09948" lon="7.60048">
        <ele>1069</ele>
        <time>2012-10-21T08:24:30Z</time>
      </trkpt>
      <trkpt lat="44.0993" lon="7.60031">
        <ele>1069</ele>
        <time>2012-10-21T08:24:35Z</time>
      </trkpt>
      <trkpt lat="44.09915" lon="7.60013">
        <ele>1069</ele>
        <time>2012-10-21T08:24:40Z</time>
      </trkpt>
      <trkpt lat="44.09902" lon="7.59996">
        <ele>1069</ele>
        <time>2012-10-21T08:24:45Z</time>
      </trkpt>
      <trkpt lat="44.09889" lon="7.5998">
        <ele>1069</ele>
        <time>2012-10-21T08:24:50Z</time>
      </trkpt>
      <trkpt lat="44.0988" lon="7.5997">
        <ele>1072</ele>
        <time>2012-10-21T08:24:55Z</time>
      </trkpt>
      <trkpt lat="44.09874" lon="7.59959">
        <ele>1074</ele>
        <time>2012-10-21T08:25:00Z</time>
      </trkpt>
      <trkpt lat="44.09866" lon="7.59949">
        <ele>1075</ele>
        <time>2012-10-21T08:25:05Z</time>
      </trkpt>
      <trkpt lat="44.09858" lon="7.59941">
        <ele>1076</ele>
        <time>2012-10-21T08:25:10Z</time>
      </trkpt>
      <trkpt lat="44.09851" lon="7.59931">
        <ele>1076</ele>
        <time>2012-10-21T08:25:15Z</time>
      </trkpt>
      <trkpt lat="44.09847" lon="7.5992">
        <ele>1076</ele>
        <time>2012-10-21T08:25:20Z</time>
      </trkpt>
      <trkpt lat="44.09843" lon="7.59911">
        <ele>1077</ele>
        <time>2012-10-21T08:25:25Z</time>
      </trkpt>
      <trkpt lat="44.09837" lon="7.59902">
        <ele>1078</ele>
        <time>2012-10-21T08:25:30Z</time>
      </trkpt>
      <trkpt lat="44.09833" lon="7.59894">
        <ele>1079</ele>
        <time>2012-10-21T08:25:35Z</time>
      </trkpt>
      <trkpt lat="44.09828" lon="7.59885">
        <ele>1079</ele>
        <time>2012-10-21T08:25:40Z</time>
      </trkpt>
      <trkpt lat="44.09824" lon="7.59878">
        <ele>1079</ele>
        <time>2012-10-21T08:25:45Z</time>
      </trkpt>
      <trkpt lat="44.09819" lon="7.59871">
        <ele>1080</ele>
        <time>2012-10-21T08:25:50Z</time>
      </trkpt>
      <trkpt lat="44.09814" lon="7.59862">
        <ele>1081</ele>
        <time>2012-10-21T08:25:55Z</time>
      </trkpt>
      <trkpt lat="44.09809" lon="7.59854">
        <ele>1082</ele>
        <time>2012-10-21T08:26:00Z</time>
      </trkpt>
      <trkpt lat="44.09803" lon="7.59846">
        <ele>1082</ele>
        <time>2012-10-21T08:26:05Z</time>
      </trkpt>
      <trkpt lat="44.09798" lon="7.59837">
        <ele>1083</ele>
        <time>2012-10-21T08:26:10Z</time>
      </trkpt>
      <trkpt lat="44.09792" lon="7.59828">
        <ele>1084</ele>
        <time>2012-10-21T08:26:15Z</time>
      </trkpt>
      <trkpt lat="44.09787" lon="7.59818">
        <ele>1085</ele>
        <time>2012-10-21T08:26:20Z</time>
      </trkpt>
      <trkpt lat="44.09784" lon="7.59808">
        <ele>1087</ele>
        <time>2012-10-21T08:26:25Z</time>
      </trkpt>
      <trkpt lat="44.0978" lon="7.59797">
        <ele>1087</ele>
        <time>2012-10-21T08:26:30Z</time>
      </trkpt>
      <trkpt lat="44.09776" lon="7.59787">
        <ele>1087</ele>
        <time>2012-10-21T08:26:35Z</time>
      </trkpt>
      <trkpt lat="44.09771" lon="7.59778">
        <ele>1088</ele>
        <time>2012-10-21T08:26:40Z</time>
      </trkpt>
      <trkpt lat="44.09766" lon="7.59767">
        <ele>1090</ele>
        <time>2012-10-21T08:26:45Z</time>
      </trkpt>
      <trkpt lat="44.09762" lon="7.59758">
        <ele>1091</ele>
        <time>2012-10-21T08:26:50Z</time>
      </trkpt>
      <trkpt lat="44.09758" lon="7.59747">
        <ele>1092</ele>
        <time>2012-10-21T08:26:55Z</time>
      </trkpt>
      <trkpt lat="44.09754" lon="7.59732">
        <ele>1094</ele>
        <time>2012-10-21T08:27:00Z</time>
      </trkpt>
      <trkpt lat="44.09751" lon="7.59718">
        <ele>1096</ele>
        <time>2012-10-21T08:27:05Z</time>
      </trkpt>
      <trkpt lat="44.0975" lon="7.59704">
        <ele>1097</ele>
        <time>2012-10-21T08:27:10Z</time>
      </trkpt>
      <trkpt lat="44.09749" lon="7.5969">
        <ele>1099</ele>
        <time>2012-10-21T08:27:15Z</time>
      </trkpt>
      <trkpt lat="44.09753" lon="7.59673">
        <ele>1100</ele>
        <time>2012-10-21T08:27:20Z</time>
      </trkpt>
      <trkpt lat="44.09761" lon="7.59662">
        <ele>1102</ele>
        <time>2012-10-21T08:27:25Z</time>
      </trkpt>
      <trkpt lat="44.09775" lon="7.59661">
        <ele>1103</ele>
        <time>2012-10-21T08:27:30Z</time>
      </trkpt>
      <trkpt lat="44.09789" lon="7.59666">
        <ele>1104</ele>
        <time>2012-10-21T08:27:35Z</time>
      </trkpt>
      <trkpt lat="44.098" lon="7.59672">
        <ele>1105</ele>
        <time>2012-10-21T08:27:40Z</time>
      </trkpt>
      <trkpt lat="44.09808" lon="7.59679">
        <ele>1105</ele>
        <time>2012-10-21T08:27:45Z</time>
      </trkpt>
      <trkpt lat="44.09818" lon="7.59689">
        <ele>1107</ele>
        <time>2012-10-21T08:27:50Z</time>
      </trkpt>
      <trkpt lat="44.09827" lon="7.59698">
        <ele>1108</ele>
        <time>2012-10-21T08:27:55Z</time>
      </trkpt>
      <trkpt lat="44.09836" lon="7.59707">
        <ele>1108</ele>
        <time>2012-10-21T08:28:00Z</time>
      </trkpt>
      <trkpt lat="44.09847" lon="7.59713">
        <ele>1108</ele>
        <time>2012-10-21T08:28:05Z</time>
      </trkpt>
      <trkpt lat="44.09862" lon="7.59716">
        <ele>1110</ele>
        <time>2012-10-21T08:28:10Z</time>
      </trkpt>
      <trkpt lat="44.09876" lon="7.59718">
        <ele>1110</ele>
        <time>2012-10-21T08:28:15Z</time>
      </trkpt>
      <trkpt lat="44.0989" lon="7.59719">
        <ele>1110</ele>
        <time>2012-10-21T08:28:20Z</time>
      </trkpt>
      <trkpt lat="44.09901" lon="7.59716">
        <ele>1111</ele>
        <time>2012-10-21T08:28:25Z</time>
      </trkpt>
      <trkpt lat="44.09913" lon="7.59708">
        <ele>1112</ele>
        <time>2012-10-21T08:28:30Z</time>
      </trkpt>
      <trkpt lat="44.09922" lon="7.59694">
        <ele>1113</ele>
        <time>2012-10-21T08:28:35Z</time>
      </trkpt>
      <trkpt lat="44.0993" lon="7.59678">
        <ele>1114</ele>
        <time>2012-10-21T08:28:40Z</time>
      </trkpt>
      <trkpt lat="44.09937" lon="7.59659">
        <ele>1115</ele>
        <time>2012-10-21T08:28:45Z</time>
      </trkpt>
      <trkpt lat="44.09942" lon="7.59639">
        <ele>1115</ele>
        <time>2012-10-21T08:28:50Z</time>
      </trkpt>
      <trkpt lat="44.09945" lon="7.59621">
        <ele>1116</ele>
        <time>2012-10-21T08:28:55Z</time>
      </trkpt>
      <trkpt lat="44.09947" lon="7.59604">
        <ele>1117</ele>
        <time>2012-10-21T08:29:00Z</time>
      </trkpt>
      <trkpt lat="44.09953" lon="7.59586">
        <ele>1118</ele>
        <time>2012-10-21T08:29:05Z</time>
      </trkpt>
      <trkpt lat="44.09961" lon="7.5957">
        <ele>1119</ele>
        <time>2012-10-21T08:29:10Z</time>
      </trkpt>
      <trkpt lat="44.09969" lon="7.59552">
        <ele>1120</ele>
        <time>2012-10-21T08:29:15Z</time>
      </trkpt>
      <trkpt lat="44.09976" lon="7.59531">
        <ele>1121</ele>
        <time>2012-10-21T08:29:20Z</time>
      </trkpt>
      <trkpt lat="44.09977" lon="7.59511">
        <ele>1121</ele>
        <time>2012-10-21T08:29:25Z</time>
      </trkpt>
      <trkpt lat="44.09976" lon="7.59494">
        <ele>1122</ele>
        <time>2012-10-21T08:29:30Z</time>
      </trkpt>
      <trkpt lat="44.09975" lon="7.59476">
        <ele>1122</ele>
        <time>2012-10-21T08:29:35Z</time>
      </trkpt>
      <trkpt lat="44.09975" lon="7.5946">
        <ele>1122</ele>
        <time>2012-10-21T08:29:40Z</time>
      </trkpt>
      <trkpt lat="44.09975" lon="7.59446">
        <ele>1122</ele>
        <time>2012-10-21T08:29:45Z</time>
      </trkpt>
      <trkpt lat="44.09975" lon="7.59443">
        <ele>1122</ele>
        <time>2012-10-21T08:29:59Z</time>
      </trkpt>
      <trkpt lat="44.09976" lon="7.5943">
        <ele>1122</ele>
        <time>2012-10-21T08:30:04Z</time>
      </trkpt>
      <trkpt lat="44.09979" lon="7.59418">
        <ele>1122</ele>
        <time>2012-10-21T08:30:10Z</time>
      </trkpt>
      <trkpt lat="44.0998" lon="7.59417">
        <ele>1122</ele>
        <time>2012-10-21T08:30:19Z</time>
      </trkpt>
      <trkpt lat="44.09982" lon="7.59414">
        <ele>1122</ele>
        <time>2012-10-21T08:30:25Z</time>
      </trkpt>
      <trkpt lat="44.09983" lon="7.59415">
        <ele>1122</ele>
        <time>2012-10-21T08:30:31Z</time>
      </trkpt>
      <trkpt lat="44.09982" lon="7.59415">
        <ele>1122</ele>
        <time>2012-10-21T08:30:41Z</time>
      </trkpt>
      <trkpt lat="44.09985" lon="7.59414">
        <ele>1122</ele>
        <time>2012-10-21T08:30:46Z</time>
      </trkpt>
      <trkpt lat="44.0999" lon="7.59417">
        <ele>1122</ele>
        <time>2012-10-21T08:30:52Z</time>
      </trkpt>
      <trkpt lat="44.09994" lon="7.59418">
        <ele>1122</ele>
        <time>2012-10-21T08:31:01Z</time>
      </trkpt>
      <trkpt lat="44.09991" lon="7.59419">
        <ele>1122</ele>
        <time>2012-10-21T08:31:06Z</time>
      </trkpt>
      <trkpt lat="44.09989" lon="7.59417">
        <ele>1122</ele>
        <time>2012-10-21T08:31:14Z</time>
      </trkpt>
      <trkpt lat="44.09987" lon="7.59415">
        <ele>1122</ele>
        <time>2012-10-21T08:31:21Z</time>
      </trkpt>
      <trkpt lat="44.09984" lon="7.59422">
        <ele>1122</ele>
        <time>2012-10-21T08:31:27Z</time>
      </trkpt>
      <trkpt lat="44.09981" lon="7.5943">
        <ele>1122</ele>
        <time>2012-10-21T08:31:32Z</time>
      </trkpt>
      <trkpt lat="44.09981" lon="7.59437">
        <ele>1122</ele>
        <time>2012-10-21T08:31:37Z</time>
      </trkpt>
      <trkpt lat="44.09981" lon="7.59443">
        <ele>1121</ele>
        <time>2012-10-21T08:31:43Z</time>
      </trkpt>
      <trkpt lat="44.09978" lon="7.59442">
        <ele>1121</ele>
        <time>2012-10-21T08:31:48Z</time>
      </trkpt>
      <trkpt lat="44.0998" lon="7.59443">
        <ele>1121</ele>
        <time>2012-10-21T08:31:56Z</time>
      </trkpt>
      <trkpt lat="44.0998" lon="7.59442">
        <ele>1121</ele>
        <time>2012-10-21T08:32:17Z</time>
      </trkpt>
      <trkpt lat="44.0998" lon="7.59437">
        <ele>1121</ele>
        <time>2012-10-21T08:32:22Z</time>
      </trkpt>
      <trkpt lat="44.0998" lon="7.5943">
        <ele>1121</ele>
        <time>2012-10-21T08:32:33Z</time>
      </trkpt>
      <trkpt lat="44.09982" lon="7.59423">
        <ele>1121</ele>
        <time>2012-10-21T08:32:39Z</time>
      </trkpt>
      <trkpt lat="44.09984" lon="7.5942">
        <ele>1121</ele>
        <time>2012-10-21T08:32:46Z</time>
      </trkpt>
      <trkpt lat="44.09985" lon="7.59419">
        <ele>1121</ele>
        <time>2012-10-21T08:32:55Z</time>
      </trkpt>
      <trkpt lat="44.09985" lon="7.59417">
        <ele>1121</ele>
        <time>2012-10-21T08:33:05Z</time>
      </trkpt>
      <trkpt lat="44.09988" lon="7.59419">
        <ele>1121</ele>
        <time>2012-10-21T08:33:15Z</time>
      </trkpt>
      <trkpt lat="44.09986" lon="7.59418">
        <ele>1121</ele>
        <time>2012-10-21T08:33:20Z</time>
      </trkpt>
      <trkpt lat="44.09986" lon="7.59417">
        <ele>1121</ele>
        <time>2012-10-21T08:33:34Z</time>
      </trkpt>
      <trkpt lat="44.09985" lon="7.59415">
        <ele>1123</ele>
        <time>2012-10-21T08:33:50Z</time>
      </trkpt>
      <trkpt lat="44.09987" lon="7.59411">
        <ele>1123</ele>
        <time>2012-10-21T08:33:56Z</time>
      </trkpt>
      <trkpt lat="44.09988" lon="7.5941">
        <ele>1124</ele>
        <time>2012-10-21T08:34:01Z</time>
      </trkpt>
      <trkpt lat="44.0999" lon="7.59413">
        <ele>1124</ele>
        <time>2012-10-21T08:34:06Z</time>
      </trkpt>
      <trkpt lat="44.09987" lon="7.59418">
        <ele>1124</ele>
        <time>2012-10-21T08:34:13Z</time>
      </trkpt>
      <trkpt lat="44.09987" lon="7.5942">
        <ele>1124</ele>
        <time>2012-10-21T08:34:21Z</time>
      </trkpt>
      <trkpt lat="44.09985" lon="7.5942">
        <ele>1124</ele>
        <time>2012-10-21T08:34:26Z</time>
      </trkpt>
      <trkpt lat="44.09986" lon="7.59419">
        <ele>1124</ele>
        <time>2012-10-21T08:34:33Z</time>
      </trkpt>
      <trkpt lat="44.09985" lon="7.59418">
        <ele>1124</ele>
        <time>2012-10-21T08:34:43Z</time>
      </trkpt>
      <trkpt lat="44.09986" lon="7.59419">
        <ele>1124</ele>
        <time>2012-10-21T08:34:49Z</time>
      </trkpt>
      <trkpt lat="44.09986" lon="7.59417">
        <ele>1124</ele>
        <time>2012-10-21T08:35:23Z</time>
      </trkpt>
      <trkpt lat="44.09988" lon="7.59418">
        <ele>1124</ele>
        <time>2012-10-21T08:35:33Z</time>
      </trkpt>
      <trkpt lat="44.09992" lon="7.59418">
        <ele>1124</ele>
        <time>2012-10-21T08:35:39Z</time>
      </trkpt>
      <trkpt lat="44.09994" lon="7.59417">
        <ele>1124</ele>
        <time>2012-10-21T08:35:44Z</time>
      </trkpt>
      <trkpt lat="44.09995" lon="7.59417">
        <ele>1124</ele>
        <time>2012-10-21T08:36:04Z</time>
      </trkpt>
      <trkpt lat="44.09998" lon="7.59418">
        <ele>1124</ele>
        <time>2012-10-21T08:36:12Z</time>
      </trkpt>
      <trkpt lat="44.10001" lon="7.59418">
        <ele>1124</ele>
        <time>2012-10-21T08:36:18Z</time>
      </trkpt>
      <trkpt lat="44.1" lon="7.59419">
        <ele>1126</ele>
        <time>2012-10-21T08:36:28Z</time>
      </trkpt>
      <trkpt lat="44.1" lon="7.59421">
        <ele>1126</ele>
        <time>2012-10-21T08:36:37Z</time>
      </trkpt>
      <trkpt lat="44.10004" lon="7.59422">
        <ele>1126</ele>
        <time>2012-10-21T08:36:44Z</time>
      </trkpt>
      <trkpt lat="44.1" lon="7.59419">
        <ele>1125</ele>
        <time>2012-10-21T08:36:51Z</time>
      </trkpt>
      <trkpt lat="44.09997" lon="7.59419">
        <ele>1125</ele>
        <time>2012-10-21T08:37:03Z</time>
      </trkpt>
      <trkpt lat="44.09998" lon="7.5942">
        <ele>1125</ele>
        <time>2012-10-21T08:37:24Z</time>
      </trkpt>
      <trkpt lat="44.1" lon="7.59421">
        <ele>1125</ele>
        <time>2012-10-21T08:37:34Z</time>
      </trkpt>
      <trkpt lat="44.09999" lon="7.59421">
        <ele>1125</ele>
        <time>2012-10-21T08:37:41Z</time>
      </trkpt>
      <trkpt lat="44.09996" lon="7.5942">
        <ele>1125</ele>
        <time>2012-10-21T08:37:52Z</time>
      </trkpt>
      <trkpt lat="44.09995" lon="7.59422">
        <ele>1125</ele>
        <time>2012-10-21T08:37:58Z</time>
      </trkpt>
      <trkpt lat="44.09997" lon="7.59425">
        <ele>1125</ele>
        <time>2012-10-21T08:38:03Z</time>
      </trkpt>
      <trkpt lat="44.1" lon="7.59427">
        <ele>1125</ele>
        <time>2012-10-21T08:38:08Z</time>
      </trkpt>
      <trkpt lat="44.10003" lon="7.59429">
        <ele>1125</ele>
        <time>2012-10-21T08:38:13Z</time>
      </trkpt>
      <trkpt lat="44.10005" lon="7.59432">
        <ele>1125</ele>
        <time>2012-10-21T08:38:19Z</time>
      </trkpt>
      <trkpt lat="44.10009" lon="7.59437">
        <ele>1125</ele>
        <time>2012-10-21T08:38:25Z</time>
      </trkpt>
      <trkpt lat="44.10014" lon="7.59441">
        <ele>1125</ele>
        <time>2012-10-21T08:38:32Z</time>
      </trkpt>
      <trkpt lat="44.10017" lon="7.59444">
        <ele>1125</ele>
        <time>2012-10-21T08:38:37Z</time>
      </trkpt>
      <trkpt lat="44.10017" lon="7.59449">
        <ele>1125</ele>
        <time>2012-10-21T08:38:42Z</time>
      </trkpt>
      <trkpt lat="44.10015" lon="7.59455">
        <ele>1127</ele>
        <time>2012-10-21T08:38:48Z</time>
      </trkpt>
      <trkpt lat="44.10013" lon="7.59458">
        <ele>1128</ele>
        <time>2012-10-21T08:38:54Z</time>
      </trkpt>
      <trkpt lat="44.10012" lon="7.59463">
        <ele>1128</ele>
        <time>2012-10-21T08:39:00Z</time>
      </trkpt>
      <trkpt lat="44.10012" lon="7.59467">
        <ele>1128</ele>
        <time>2012-10-21T08:39:06Z</time>
      </trkpt>
      <trkpt lat="44.10011" lon="7.59472">
        <ele>1128</ele>
        <time>2012-10-21T08:39:12Z</time>
      </trkpt>
      <trkpt lat="44.10011" lon="7.59477">
        <ele>1128</ele>
        <time>2012-10-21T08:39:21Z</time>
      </trkpt>
      <trkpt lat="44.10011" lon="7.5948">
        <ele>1128</ele>
        <time>2012-10-21T08:39:27Z</time>
      </trkpt>
      <trkpt lat="44.10012" lon="7.59483">
        <ele>1128</ele>
        <time>2012-10-21T08:39:32Z</time>
      </trkpt>
      <trkpt lat="44.10011" lon="7.59486">
        <ele>1132</ele>
        <time>2012-10-21T08:40:28Z</time>
      </trkpt>
      <trkpt lat="44.10011" lon="7.59488">
        <ele>1132</ele>
        <time>2012-10-21T08:40:35Z</time>
      </trkpt>
      <trkpt lat="44.10014" lon="7.59488">
        <ele>1132</ele>
        <time>2012-10-21T08:40:40Z</time>
      </trkpt>
      <trkpt lat="44.10017" lon="7.59489">
        <ele>1132</ele>
        <time>2012-10-21T08:40:45Z</time>
      </trkpt>
      <trkpt lat="44.10019" lon="7.59491">
        <ele>1132</ele>
        <time>2012-10-21T08:40:50Z</time>
      </trkpt>
      <trkpt lat="44.10013" lon="7.5949">
        <ele>1131</ele>
        <time>2012-10-21T08:40:55Z</time>
      </trkpt>
      <trkpt lat="44.10011" lon="7.59487">
        <ele>1131</ele>
        <time>2012-10-21T08:41:04Z</time>
      </trkpt>
      <trkpt lat="44.10011" lon="7.59485">
        <ele>1131</ele>
        <time>2012-10-21T08:41:10Z</time>
      </trkpt>
      <trkpt lat="44.1001" lon="7.59487">
        <ele>1131</ele>
        <time>2012-10-21T08:41:21Z</time>
      </trkpt>
      <trkpt lat="44.10011" lon="7.59485">
        <ele>1131</ele>
        <time>2012-10-21T08:41:48Z</time>
      </trkpt>
      <trkpt lat="44.10009" lon="7.59484">
        <ele>1130</ele>
        <time>2012-10-21T08:42:21Z</time>
      </trkpt>
      <trkpt lat="44.10007" lon="7.59481">
        <ele>1130</ele>
        <time>2012-10-21T08:42:29Z</time>
      </trkpt>
      <trkpt lat="44.10006" lon="7.59481">
        <ele>1130</ele>
        <time>2012-10-21T08:42:34Z</time>
      </trkpt>
      <trkpt lat="44.10005" lon="7.59481">
        <ele>1130</ele>
        <time>2012-10-21T08:42:46Z</time>
      </trkpt>
      <trkpt lat="44.10005" lon="7.5948">
        <ele>1133</ele>
        <time>2012-10-21T08:44:57Z</time>
      </trkpt>
      <trkpt lat="44.10005" lon="7.59481">
        <ele>1134</ele>
        <time>2012-10-21T08:45:07Z</time>
      </trkpt>
      <trkpt lat="44.10005" lon="7.5948">
        <ele>1134</ele>
        <time>2012-10-21T08:45:20Z</time>
      </trkpt>
      <trkpt lat="44.10004" lon="7.5948">
        <ele>1134</ele>
        <time>2012-10-21T08:45:42Z</time>
      </trkpt>
      <trkpt lat="44.10003" lon="7.59479">
        <ele>1134</ele>
        <time>2012-10-21T08:46:15Z</time>
      </trkpt>
      <trkpt lat="44.0999" lon="7.5947">
        <ele>1134</ele>
        <time>2012-10-21T08:46:20Z</time>
      </trkpt>
      <trkpt lat="44.09978" lon="7.59442">
        <ele>1134</ele>
        <time>2012-10-21T08:46:25Z</time>
      </trkpt>
      <trkpt lat="44.09965" lon="7.59467">
        <ele>1129</ele>
        <time>2012-10-21T08:46:30Z</time>
      </trkpt>
      <trkpt lat="44.09959" lon="7.59519">
        <ele>1124</ele>
        <time>2012-10-21T08:46:35Z</time>
      </trkpt>
      <trkpt lat="44.09939" lon="7.59558">
        <ele>1116</ele>
        <time>2012-10-21T08:46:40Z</time>
      </trkpt>
      <trkpt lat="44.09914" lon="7.59588">
        <ele>1109</ele>
        <time>2012-10-21T08:46:45Z</time>
      </trkpt>
      <trkpt lat="44.09895" lon="7.5962">
        <ele>1104</ele>
        <time>2012-10-21T08:46:50Z</time>
      </trkpt>
      <trkpt lat="44.0988" lon="7.59638">
        <ele>1097</ele>
        <time>2012-10-21T08:46:55Z</time>
      </trkpt>
      <trkpt lat="44.09856" lon="7.59642">
        <ele>1091</ele>
        <time>2012-10-21T08:47:00Z</time>
      </trkpt>
      <trkpt lat="44.09832" lon="7.59639">
        <ele>1086</ele>
        <time>2012-10-21T08:47:05Z</time>
      </trkpt>
      <trkpt lat="44.0982" lon="7.5964">
        <ele>1084</ele>
        <time>2012-10-21T08:47:10Z</time>
      </trkpt>
      <trkpt lat="44.09814" lon="7.59639">
        <ele>1084</ele>
        <time>2012-10-21T08:47:15Z</time>
      </trkpt>
      <trkpt lat="44.09805" lon="7.59639">
        <ele>1084</ele>
        <time>2012-10-21T08:47:20Z</time>
      </trkpt>
      <trkpt lat="44.09798" lon="7.59641">
        <ele>1087</ele>
        <time>2012-10-21T08:47:25Z</time>
      </trkpt>
      <trkpt lat="44.0979" lon="7.59642">
        <ele>1092</ele>
        <time>2012-10-21T08:47:30Z</time>
      </trkpt>
      <trkpt lat="44.09782" lon="7.59642">
        <ele>1095</ele>
        <time>2012-10-21T08:47:35Z</time>
      </trkpt>
      <trkpt lat="44.09774" lon="7.59644">
        <ele>1098</ele>
        <time>2012-10-21T08:47:40Z</time>
      </trkpt>
      <trkpt lat="44.09767" lon="7.59646">
        <ele>1100</ele>
        <time>2012-10-21T08:47:45Z</time>
      </trkpt>
      <trkpt lat="44.09755" lon="7.5965">
        <ele>1101</ele>
        <time>2012-10-21T08:47:50Z</time>
      </trkpt>
      <trkpt lat="44.09737" lon="7.59649">
        <ele>1101</ele>
        <time>2012-10-21T08:47:55Z</time>
      </trkpt>
      <trkpt lat="44.09719" lon="7.59648">
        <ele>1101</ele>
        <time>2012-10-21T08:48:00Z</time>
      </trkpt>
      <trkpt lat="44.09719" lon="7.59629">
        <ele>1098</ele>
        <time>2012-10-21T08:48:05Z</time>
      </trkpt>
      <trkpt lat="44.0971" lon="7.59625">
        <ele>1092</ele>
        <time>2012-10-21T08:48:11Z</time>
      </trkpt>
      <trkpt lat="44.09709" lon="7.59627">
        <ele>1086</ele>
        <time>2012-10-21T08:48:18Z</time>
      </trkpt>
      <trkpt lat="44.09697" lon="7.59631">
        <ele>1082</ele>
        <time>2012-10-21T08:48:23Z</time>
      </trkpt>
      <trkpt lat="44.09696" lon="7.59616">
        <ele>1078</ele>
        <time>2012-10-21T08:48:29Z</time>
      </trkpt>
      <trkpt lat="44.09689" lon="7.59619">
        <ele>1075</ele>
        <time>2012-10-21T08:48:34Z</time>
      </trkpt>
      <trkpt lat="44.09684" lon="7.59617">
        <ele>1070</ele>
        <time>2012-10-21T08:48:39Z</time>
      </trkpt>
      <trkpt lat="44.09675" lon="7.59612">
        <ele>1068</ele>
        <time>2012-10-21T08:48:44Z</time>
      </trkpt>
      <trkpt lat="44.0967" lon="7.59605">
        <ele>1065</ele>
        <time>2012-10-21T08:48:49Z</time>
      </trkpt>
      <trkpt lat="44.09666" lon="7.59602">
        <ele>1062</ele>
        <time>2012-10-21T08:48:54Z</time>
      </trkpt>
      <trkpt lat="44.0966" lon="7.59597">
        <ele>1058</ele>
        <time>2012-10-21T08:48:59Z</time>
      </trkpt>
      <trkpt lat="44.09647" lon="7.596">
        <ele>1054</ele>
        <time>2012-10-21T08:49:04Z</time>
      </trkpt>
      <trkpt lat="44.09639" lon="7.59592">
        <ele>1050</ele>
        <time>2012-10-21T08:49:09Z</time>
      </trkpt>
      <trkpt lat="44.09642" lon="7.59575">
        <ele>1045</ele>
        <time>2012-10-21T08:49:14Z</time>
      </trkpt>
      <trkpt lat="44.09635" lon="7.5958">
        <ele>1042</ele>
        <time>2012-10-21T08:49:19Z</time>
      </trkpt>
      <trkpt lat="44.09619" lon="7.59597">
        <ele>1040</ele>
        <time>2012-10-21T08:49:24Z</time>
      </trkpt>
      <trkpt lat="44.09622" lon="7.59584">
        <ele>1036</ele>
        <time>2012-10-21T08:49:29Z</time>
      </trkpt>
      <trkpt lat="44.09603" lon="7.59592">
        <ele>1033</ele>
        <time>2012-10-21T08:49:34Z</time>
      </trkpt>
      <trkpt lat="44.09575" lon="7.59589">
        <ele>1028</ele>
        <time>2012-10-21T08:49:39Z</time>
      </trkpt>
      <trkpt lat="44.09552" lon="7.59559">
        <ele>1024</ele>
        <time>2012-10-21T08:49:44Z</time>
      </trkpt>
      <trkpt lat="44.09524" lon="7.59544">
        <ele>1020</ele>
        <time>2012-10-21T08:49:49Z</time>
      </trkpt>
      <trkpt lat="44.0951" lon="7.59519">
        <ele>1015</ele>
        <time>2012-10-21T08:49:54Z</time>
      </trkpt>
      <trkpt lat="44.09489" lon="7.59507">
        <ele>1010</ele>
        <time>2012-10-21T08:49:59Z</time>
      </trkpt>
      <trkpt lat="44.0948" lon="7.59496">
        <ele>1005</ele>
        <time>2012-10-21T08:50:04Z</time>
      </trkpt>
      <trkpt lat="44.09474" lon="7.59477">
        <ele>999</ele>
        <time>2012-10-21T08:50:10Z</time>
      </trkpt>
      <trkpt lat="44.09471" lon="7.59484">
        <ele>997</ele>
        <time>2012-10-21T08:50:15Z</time>
      </trkpt>
      <trkpt lat="44.09464" lon="7.59477">
        <ele>994</ele>
        <time>2012-10-21T08:50:20Z</time>
      </trkpt>
      <trkpt lat="44.0946" lon="7.59485">
        <ele>990</ele>
        <time>2012-10-21T08:50:25Z</time>
      </trkpt>
      <trkpt lat="44.09462" lon="7.59471">
        <ele>988</ele>
        <time>2012-10-21T08:50:30Z</time>
      </trkpt>
      <trkpt lat="44.09471" lon="7.59457">
        <ele>986</ele>
        <time>2012-10-21T08:50:35Z</time>
      </trkpt>
      <trkpt lat="44.09463" lon="7.59455">
        <ele>983</ele>
        <time>2012-10-21T08:50:40Z</time>
      </trkpt>
      <trkpt lat="44.09443" lon="7.5947">
        <ele>981</ele>
        <time>2012-10-21T08:50:45Z</time>
      </trkpt>
      <trkpt lat="44.09438" lon="7.59507">
        <ele>981</ele>
        <time>2012-10-21T08:50:50Z</time>
      </trkpt>
      <trkpt lat="44.0943" lon="7.59532">
        <ele>980</ele>
        <time>2012-10-21T08:50:55Z</time>
      </trkpt>
      <trkpt lat="44.09427" lon="7.59543">
        <ele>975</ele>
        <time>2012-10-21T08:51:00Z</time>
      </trkpt>
      <trkpt lat="44.09426" lon="7.59545">
        <ele>968</ele>
        <time>2012-10-21T08:51:07Z</time>
      </trkpt>
      <trkpt lat="44.09418" lon="7.5956">
        <ele>965</ele>
        <time>2012-10-21T08:51:12Z</time>
      </trkpt>
      <trkpt lat="44.09411" lon="7.59578">
        <ele>960</ele>
        <time>2012-10-21T08:51:17Z</time>
      </trkpt>
      <trkpt lat="44.0941" lon="7.59585">
        <ele>955</ele>
        <time>2012-10-21T08:51:22Z</time>
      </trkpt>
      <trkpt lat="44.094" lon="7.59586">
        <ele>950</ele>
        <time>2012-10-21T08:51:27Z</time>
      </trkpt>
      <trkpt lat="44.09383" lon="7.59571">
        <ele>947</ele>
        <time>2012-10-21T08:51:32Z</time>
      </trkpt>
      <trkpt lat="44.09368" lon="7.59569">
        <ele>943</ele>
        <time>2012-10-21T08:51:37Z</time>
      </trkpt>
      <trkpt lat="44.09353" lon="7.59565">
        <ele>938</ele>
        <time>2012-10-21T08:51:42Z</time>
      </trkpt>
      <trkpt lat="44.09333" lon="7.59568">
        <ele>933</ele>
        <time>2012-10-21T08:51:47Z</time>
      </trkpt>
      <trkpt lat="44.09321" lon="7.59581">
        <ele>928</ele>
        <time>2012-10-21T08:51:52Z</time>
      </trkpt>
      <trkpt lat="44.0932" lon="7.59578">
        <ele>922</ele>
        <time>2012-10-21T08:51:58Z</time>
      </trkpt>
      <trkpt lat="44.09318" lon="7.59579">
        <ele>920</ele>
        <time>2012-10-21T08:52:03Z</time>
      </trkpt>
      <trkpt lat="44.09317" lon="7.59562">
        <ele>919</ele>
        <time>2012-10-21T08:52:08Z</time>
      </trkpt>
      <trkpt lat="44.09305" lon="7.59584">
        <ele>917</ele>
        <time>2012-10-21T08:52:13Z</time>
      </trkpt>
      <trkpt lat="44.09296" lon="7.59618">
        <ele>915</ele>
        <time>2012-10-21T08:52:18Z</time>
      </trkpt>
      <trkpt lat="44.09292" lon="7.59644">
        <ele>911</ele>
        <time>2012-10-21T08:52:23Z</time>
      </trkpt>
      <trkpt lat="44.09296" lon="7.5965">
        <ele>906</ele>
        <time>2012-10-21T08:52:28Z</time>
      </trkpt>
      <trkpt lat="44.09283" lon="7.59656">
        <ele>904</ele>
        <time>2012-10-21T08:52:33Z</time>
      </trkpt>
      <trkpt lat="44.09261" lon="7.59645">
        <ele>900</ele>
        <time>2012-10-21T08:52:38Z</time>
      </trkpt>
      <trkpt lat="44.09241" lon="7.59628">
        <ele>895</ele>
        <time>2012-10-21T08:52:43Z</time>
      </trkpt>
      <trkpt lat="44.09223" lon="7.59595">
        <ele>890</ele>
        <time>2012-10-21T08:52:48Z</time>
      </trkpt>
      <trkpt lat="44.09215" lon="7.59582">
        <ele>886</ele>
        <time>2012-10-21T08:52:53Z</time>
      </trkpt>
      <trkpt lat="44.09211" lon="7.59586">
        <ele>883</ele>
        <time>2012-10-21T08:52:58Z</time>
      </trkpt>
      <trkpt lat="44.0921" lon="7.59596">
        <ele>880</ele>
        <time>2012-10-21T08:53:03Z</time>
      </trkpt>
      <trkpt lat="44.09214" lon="7.59613">
        <ele>880</ele>
        <time>2012-10-21T08:53:08Z</time>
      </trkpt>
      <trkpt lat="44.0922" lon="7.59643">
        <ele>880</ele>
        <time>2012-10-21T08:53:13Z</time>
      </trkpt>
      <trkpt lat="44.09233" lon="7.59665">
        <ele>880</ele>
        <time>2012-10-21T08:53:18Z</time>
      </trkpt>
      <trkpt lat="44.09239" lon="7.59678">
        <ele>880</ele>
        <time>2012-10-21T08:53:23Z</time>
      </trkpt>
      <trkpt lat="44.09249" lon="7.59686">
        <ele>880</ele>
        <time>2012-10-21T08:53:28Z</time>
      </trkpt>
      <trkpt lat="44.09261" lon="7.59691">
        <ele>880</ele>
        <time>2012-10-21T08:53:33Z</time>
      </trkpt>
      <trkpt lat="44.09275" lon="7.59721">
        <ele>880</ele>
        <time>2012-10-21T08:53:38Z</time>
      </trkpt>
      <trkpt lat="44.0929" lon="7.59742">
        <ele>880</ele>
        <time>2012-10-21T08:53:43Z</time>
      </trkpt>
      <trkpt lat="44.09271" lon="7.59746">
        <ele>880</ele>
        <time>2012-10-21T08:53:48Z</time>
      </trkpt>
      <trkpt lat="44.0925" lon="7.59714">
        <ele>876</ele>
        <time>2012-10-21T08:53:53Z</time>
      </trkpt>
      <trkpt lat="44.0922" lon="7.59698">
        <ele>871</ele>
        <time>2012-10-21T08:53:58Z</time>
      </trkpt>
      <trkpt lat="44.092" lon="7.59676">
        <ele>866</ele>
        <time>2012-10-21T08:54:03Z</time>
      </trkpt>
      <trkpt lat="44.09188" lon="7.5965">
        <ele>862</ele>
        <time>2012-10-21T08:54:08Z</time>
      </trkpt>
      <trkpt lat="44.0918" lon="7.59624">
        <ele>861</ele>
        <time>2012-10-21T08:54:13Z</time>
      </trkpt>
      <trkpt lat="44.09177" lon="7.59634">
        <ele>859</ele>
        <time>2012-10-21T08:54:18Z</time>
      </trkpt>
      <trkpt lat="44.09185" lon="7.59667">
        <ele>858</ele>
        <time>2012-10-21T08:54:23Z</time>
      </trkpt>
      <trkpt lat="44.09171" lon="7.59651">
        <ele>856</ele>
        <time>2012-10-21T08:54:28Z</time>
      </trkpt>
      <trkpt lat="44.0916" lon="7.59621">
        <ele>854</ele>
        <time>2012-10-21T08:54:33Z</time>
      </trkpt>
      <trkpt lat="44.09149" lon="7.59607">
        <ele>852</ele>
        <time>2012-10-21T08:54:38Z</time>
      </trkpt>
      <trkpt lat="44.0914" lon="7.59611">
        <ele>847</ele>
        <time>2012-10-21T08:54:43Z</time>
      </trkpt>
      <trkpt lat="44.09134" lon="7.59612">
        <ele>843</ele>
        <time>2012-10-21T08:54:49Z</time>
      </trkpt>
      <trkpt lat="44.09131" lon="7.59625">
        <ele>842</ele>
        <time>2012-10-21T08:54:54Z</time>
      </trkpt>
      <trkpt lat="44.09122" lon="7.59624">
        <ele>838</ele>
        <time>2012-10-21T08:54:59Z</time>
      </trkpt>
      <trkpt lat="44.09115" lon="7.5962">
        <ele>834</ele>
        <time>2012-10-21T08:55:04Z</time>
      </trkpt>
      <trkpt lat="44.09102" lon="7.59628">
        <ele>829</ele>
        <time>2012-10-21T08:55:09Z</time>
      </trkpt>
      <trkpt lat="44.09088" lon="7.59622">
        <ele>824</ele>
        <time>2012-10-21T08:55:14Z</time>
      </trkpt>
      <trkpt lat="44.09075" lon="7.59618">
        <ele>818</ele>
        <time>2012-10-21T08:55:20Z</time>
      </trkpt>
      <trkpt lat="44.09077" lon="7.59617">
        <ele>818</ele>
        <time>2012-10-21T08:55:25Z</time>
      </trkpt>
      <trkpt lat="44.09076" lon="7.59616">
        <ele>818</ele>
        <time>2012-10-21T08:55:34Z</time>
      </trkpt>
      <trkpt lat="44.09075" lon="7.59616">
        <ele>818</ele>
        <time>2012-10-21T08:55:40Z</time>
      </trkpt>
      <trkpt lat="44.09076" lon="7.59616">
        <ele>820</ele>
        <time>2012-10-21T08:56:00Z</time>
      </trkpt>
      <trkpt lat="44.09075" lon="7.59615">
        <ele>820</ele>
        <time>2012-10-21T08:56:15Z</time>
      </trkpt>
      <trkpt lat="44.09075" lon="7.59614">
        <ele>820</ele>
        <time>2012-10-21T08:56:30Z</time>
      </trkpt>
      <trkpt lat="44.09073" lon="7.59608">
        <ele>820</ele>
        <time>2012-10-21T08:56:35Z</time>
      </trkpt>
      <trkpt lat="44.09067" lon="7.59593">
        <ele>820</ele>
        <time>2012-10-21T08:56:40Z</time>
      </trkpt>
      <trkpt lat="44.09061" lon="7.5958">
        <ele>820</ele>
        <time>2012-10-21T08:56:45Z</time>
      </trkpt>
      <trkpt lat="44.09051" lon="7.59567">
        <ele>820</ele>
        <time>2012-10-21T08:56:50Z</time>
      </trkpt>
      <trkpt lat="44.09039" lon="7.59559">
        <ele>820</ele>
        <time>2012-10-21T08:56:55Z</time>
      </trkpt>
      <trkpt lat="44.09024" lon="7.59557">
        <ele>822</ele>
        <time>2012-10-21T08:57:00Z</time>
      </trkpt>
      <trkpt lat="44.09009" lon="7.59557">
        <ele>826</ele>
        <time>2012-10-21T08:57:05Z</time>
      </trkpt>
      <trkpt lat="44.08994" lon="7.59556">
        <ele>831</ele>
        <time>2012-10-21T08:57:10Z</time>
      </trkpt>
      <trkpt lat="44.08978" lon="7.59555">
        <ele>840</ele>
        <time>2012-10-21T08:57:15Z</time>
      </trkpt>
      <trkpt lat="44.08966" lon="7.59552">
        <ele>850</ele>
        <time>2012-10-21T08:57:20Z</time>
      </trkpt>
      <trkpt lat="44.08952" lon="7.59548">
        <ele>853</ele>
        <time>2012-10-21T08:57:25Z</time>
      </trkpt>
      <trkpt lat="44.08944" lon="7.59536">
        <ele>850</ele>
        <time>2012-10-21T08:57:30Z</time>
      </trkpt>
      <trkpt lat="44.08936" lon="7.59526">
        <ele>840</ele>
        <time>2012-10-21T08:57:35Z</time>
      </trkpt>
      <trkpt lat="44.08932" lon="7.59514">
        <ele>834</ele>
        <time>2012-10-21T08:57:40Z</time>
      </trkpt>
      <trkpt lat="44.08915" lon="7.59494">
        <ele>829</ele>
        <time>2012-10-21T08:57:49Z</time>
      </trkpt>
      <trkpt lat="44.08912" lon="7.59472">
        <ele>829</ele>
        <time>2012-10-21T08:57:54Z</time>
      </trkpt>
      <trkpt lat="44.08917" lon="7.59458">
        <ele>829</ele>
        <time>2012-10-21T08:57:59Z</time>
      </trkpt>
      <trkpt lat="44.08925" lon="7.59445">
        <ele>829</ele>
        <time>2012-10-21T08:58:04Z</time>
      </trkpt>
      <trkpt lat="44.08934" lon="7.59433">
        <ele>829</ele>
        <time>2012-10-21T08:58:09Z</time>
      </trkpt>
      <trkpt lat="44.08943" lon="7.59418">
        <ele>829</ele>
        <time>2012-10-21T08:58:14Z</time>
      </trkpt>
      <trkpt lat="44.08949" lon="7.59402">
        <ele>829</ele>
        <time>2012-10-21T08:58:19Z</time>
      </trkpt>
      <trkpt lat="44.08948" lon="7.59382">
        <ele>829</ele>
        <time>2012-10-21T08:58:24Z</time>
      </trkpt>
      <trkpt lat="44.08944" lon="7.59363">
        <ele>831</ele>
        <time>2012-10-21T08:58:29Z</time>
      </trkpt>
      <trkpt lat="44.08939" lon="7.59343">
        <ele>835</ele>
        <time>2012-10-21T08:58:34Z</time>
      </trkpt>
      <trkpt lat="44.08935" lon="7.59327">
        <ele>840</ele>
        <time>2012-10-21T08:58:39Z</time>
      </trkpt>
      <trkpt lat="44.08935" lon="7.59314">
        <ele>845</ele>
        <time>2012-10-21T08:58:44Z</time>
      </trkpt>
      <trkpt lat="44.0893" lon="7.59307">
        <ele>845</ele>
        <time>2012-10-21T08:58:49Z</time>
      </trkpt>
      <trkpt lat="44.08912" lon="7.59319">
        <ele>845</ele>
        <time>2012-10-21T08:58:54Z</time>
      </trkpt>
      <trkpt lat="44.0889" lon="7.59324">
        <ele>848</ele>
        <time>2012-10-21T08:58:59Z</time>
      </trkpt>
      <trkpt lat="44.08867" lon="7.59334">
        <ele>848</ele>
        <time>2012-10-21T08:59:04Z</time>
      </trkpt>
      <trkpt lat="44.08841" lon="7.59346">
        <ele>845</ele>
        <time>2012-10-21T08:59:09Z</time>
      </trkpt>
      <trkpt lat="44.08814" lon="7.59357">
        <ele>840</ele>
        <time>2012-10-21T08:59:14Z</time>
      </trkpt>
      <trkpt lat="44.08783" lon="7.59369">
        <ele>835</ele>
        <time>2012-10-21T08:59:19Z</time>
      </trkpt>
      <trkpt lat="44.08752" lon="7.5937">
        <ele>832</ele>
        <time>2012-10-21T08:59:24Z</time>
      </trkpt>
      <trkpt lat="44.08723" lon="7.59375">
        <ele>828</ele>
        <time>2012-10-21T08:59:29Z</time>
      </trkpt>
      <trkpt lat="44.08687" lon="7.59368">
        <ele>826</ele>
        <time>2012-10-21T08:59:34Z</time>
      </trkpt>
      <trkpt lat="44.08648" lon="7.5936">
        <ele>826</ele>
        <time>2012-10-21T08:59:39Z</time>
      </trkpt>
      <trkpt lat="44.08612" lon="7.59372">
        <ele>829</ele>
        <time>2012-10-21T08:59:44Z</time>
      </trkpt>
      <trkpt lat="44.08574" lon="7.59384">
        <ele>829</ele>
        <time>2012-10-21T08:59:49Z</time>
      </trkpt>
      <trkpt lat="44.0853" lon="7.59385">
        <ele>829</ele>
        <time>2012-10-21T08:59:54Z</time>
      </trkpt>
      <trkpt lat="44.08491" lon="7.59375">
        <ele>829</ele>
        <time>2012-10-21T08:59:59Z</time>
      </trkpt>
      <trkpt lat="44.08456" lon="7.59355">
        <ele>829</ele>
        <time>2012-10-21T09:00:05Z</time>
      </trkpt>
      <trkpt lat="44.08416" lon="7.59352">
        <ele>824</ele>
        <time>2012-10-21T09:00:10Z</time>
      </trkpt>
      <trkpt lat="44.08379" lon="7.59355">
        <ele>819</ele>
        <time>2012-10-21T09:00:15Z</time>
      </trkpt>
      <trkpt lat="44.08359" lon="7.59332">
        <ele>816</ele>
        <time>2012-10-21T09:00:20Z</time>
      </trkpt>
      <trkpt lat="44.08339" lon="7.59321">
        <ele>813</ele>
        <time>2012-10-21T09:00:25Z</time>
      </trkpt>
      <trkpt lat="44.08324" lon="7.59326">
        <ele>813</ele>
        <time>2012-10-21T09:00:30Z</time>
      </trkpt>
      <trkpt lat="44.08315" lon="7.59333">
        <ele>809</ele>
        <time>2012-10-21T09:00:35Z</time>
      </trkpt>
      <trkpt lat="44.08308" lon="7.59339">
        <ele>804</ele>
        <time>2012-10-21T09:00:40Z</time>
      </trkpt>
      <trkpt lat="44.08298" lon="7.59345">
        <ele>801</ele>
        <time>2012-10-21T09:00:45Z</time>
      </trkpt>
      <trkpt lat="44.08289" lon="7.59347">
        <ele>801</ele>
        <time>2012-10-21T09:00:50Z</time>
      </trkpt>
      <trkpt lat="44.0828" lon="7.59347">
        <ele>801</ele>
        <time>2012-10-21T09:00:55Z</time>
      </trkpt>
      <trkpt lat="44.08271" lon="7.59348">
        <ele>802</ele>
        <time>2012-10-21T09:01:00Z</time>
      </trkpt>
      <trkpt lat="44.0826" lon="7.59346">
        <ele>802</ele>
        <time>2012-10-21T09:01:07Z</time>
      </trkpt>
      <trkpt lat="44.08252" lon="7.59346">
        <ele>803</ele>
        <time>2012-10-21T09:01:12Z</time>
      </trkpt>
      <trkpt lat="44.08247" lon="7.59342">
        <ele>805</ele>
        <time>2012-10-21T09:01:17Z</time>
      </trkpt>
      <trkpt lat="44.08247" lon="7.59342">
        <ele>799</ele>
        <time>2012-10-21T09:01:32Z</time>
      </trkpt>
      <trkpt lat="44.08249" lon="7.59343">
        <ele>797</ele>
        <time>2012-10-21T09:01:40Z</time>
      </trkpt>
      <trkpt lat="44.08247" lon="7.59346">
        <ele>794</ele>
        <time>2012-10-21T09:01:45Z</time>
      </trkpt>
      <trkpt lat="44.08241" lon="7.5935">
        <ele>793</ele>
        <time>2012-10-21T09:01:50Z</time>
      </trkpt>
      <trkpt lat="44.08231" lon="7.59358">
        <ele>793</ele>
        <time>2012-10-21T09:01:55Z</time>
      </trkpt>
      <trkpt lat="44.08225" lon="7.59364">
        <ele>798</ele>
        <time>2012-10-21T09:02:00Z</time>
      </trkpt>
      <trkpt lat="44.08222" lon="7.59378">
        <ele>799</ele>
        <time>2012-10-21T09:02:05Z</time>
      </trkpt>
      <trkpt lat="44.08216" lon="7.59389">
        <ele>798</ele>
        <time>2012-10-21T09:02:10Z</time>
      </trkpt>
      <trkpt lat="44.08209" lon="7.59399">
        <ele>796</ele>
        <time>2012-10-21T09:02:15Z</time>
      </trkpt>
      <trkpt lat="44.08202" lon="7.59408">
        <ele>796</ele>
        <time>2012-10-21T09:02:20Z</time>
      </trkpt>
      <trkpt lat="44.08196" lon="7.59416">
        <ele>800</ele>
        <time>2012-10-21T09:02:25Z</time>
      </trkpt>
      <trkpt lat="44.0819" lon="7.59426">
        <ele>804</ele>
        <time>2012-10-21T09:02:30Z</time>
      </trkpt>
      <trkpt lat="44.08185" lon="7.59435">
        <ele>806</ele>
        <time>2012-10-21T09:02:35Z</time>
      </trkpt>
      <trkpt lat="44.0818" lon="7.59443">
        <ele>809</ele>
        <time>2012-10-21T09:02:40Z</time>
      </trkpt>
      <trkpt lat="44.08176" lon="7.59453">
        <ele>810</ele>
        <time>2012-10-21T09:02:45Z</time>
      </trkpt>
      <trkpt lat="44.08172" lon="7.59462">
        <ele>810</ele>
        <time>2012-10-21T09:02:50Z</time>
      </trkpt>
      <trkpt lat="44.08167" lon="7.59471">
        <ele>810</ele>
        <time>2012-10-21T09:02:55Z</time>
      </trkpt>
      <trkpt lat="44.08161" lon="7.5948">
        <ele>811</ele>
        <time>2012-10-21T09:03:00Z</time>
      </trkpt>
      <trkpt lat="44.08155" lon="7.59488">
        <ele>812</ele>
        <time>2012-10-21T09:03:05Z</time>
      </trkpt>
      <trkpt lat="44.08149" lon="7.59497">
        <ele>813</ele>
        <time>2012-10-21T09:03:10Z</time>
      </trkpt>
      <trkpt lat="44.08143" lon="7.59506">
        <ele>814</ele>
        <time>2012-10-21T09:03:15Z</time>
      </trkpt>
      <trkpt lat="44.08135" lon="7.59516">
        <ele>818</ele>
        <time>2012-10-21T09:03:20Z</time>
      </trkpt>
      <trkpt lat="44.08127" lon="7.59526">
        <ele>818</ele>
        <time>2012-10-21T09:03:25Z</time>
      </trkpt>
      <trkpt lat="44.08118" lon="7.59535">
        <ele>823</ele>
        <time>2012-10-21T09:03:30Z</time>
      </trkpt>
      <trkpt lat="44.0811" lon="7.59542">
        <ele>828</ele>
        <time>2012-10-21T09:03:35Z</time>
      </trkpt>
      <trkpt lat="44.08103" lon="7.59546">
        <ele>830</ele>
        <time>2012-10-21T09:03:40Z</time>
      </trkpt>
      <trkpt lat="44.08102" lon="7.59539">
        <ele>830</ele>
        <time>2012-10-21T09:03:45Z</time>
      </trkpt>
      <trkpt lat="44.0811" lon="7.59533">
        <ele>830</ele>
        <time>2012-10-21T09:03:50Z</time>
      </trkpt>
      <trkpt lat="44.08116" lon="7.59527">
        <ele>830</ele>
        <time>2012-10-21T09:03:55Z</time>
      </trkpt>
      <trkpt lat="44.08122" lon="7.5952">
        <ele>830</ele>
        <time>2012-10-21T09:04:01Z</time>
      </trkpt>
      <trkpt lat="44.08126" lon="7.59512">
        <ele>830</ele>
        <time>2012-10-21T09:04:06Z</time>
      </trkpt>
      <trkpt lat="44.0813" lon="7.59503">
        <ele>830</ele>
        <time>2012-10-21T09:04:11Z</time>
      </trkpt>
      <trkpt lat="44.08135" lon="7.59495">
        <ele>830</ele>
        <time>2012-10-21T09:04:16Z</time>
      </trkpt>
      <trkpt lat="44.08139" lon="7.59485">
        <ele>833</ele>
        <time>2012-10-21T09:04:22Z</time>
      </trkpt>
      <trkpt lat="44.08143" lon="7.59477">
        <ele>834</ele>
        <time>2012-10-21T09:04:27Z</time>
      </trkpt>
      <trkpt lat="44.08146" lon="7.59468">
        <ele>835</ele>
        <time>2012-10-21T09:04:32Z</time>
      </trkpt>
      <trkpt lat="44.08149" lon="7.5946">
        <ele>836</ele>
        <time>2012-10-21T09:04:37Z</time>
      </trkpt>
      <trkpt lat="44.08151" lon="7.5945">
        <ele>837</ele>
        <time>2012-10-21T09:04:42Z</time>
      </trkpt>
      <trkpt lat="44.08152" lon="7.59441">
        <ele>839</ele>
        <time>2012-10-21T09:04:47Z</time>
      </trkpt>
      <trkpt lat="44.08153" lon="7.59432">
        <ele>841</ele>
        <time>2012-10-21T09:04:52Z</time>
      </trkpt>
      <trkpt lat="44.08154" lon="7.59423">
        <ele>844</ele>
        <time>2012-10-21T09:04:57Z</time>
      </trkpt>
      <trkpt lat="44.08155" lon="7.59414">
        <ele>845</ele>
        <time>2012-10-21T09:05:02Z</time>
      </trkpt>
      <trkpt lat="44.08156" lon="7.59406">
        <ele>846</ele>
        <time>2012-10-21T09:05:07Z</time>
      </trkpt>
      <trkpt lat="44.08157" lon="7.59398">
        <ele>846</ele>
        <time>2012-10-21T09:05:12Z</time>
      </trkpt>
      <trkpt lat="44.08159" lon="7.5939">
        <ele>846</ele>
        <time>2012-10-21T09:05:17Z</time>
      </trkpt>
      <trkpt lat="44.08161" lon="7.59382">
        <ele>847</ele>
        <time>2012-10-21T09:05:22Z</time>
      </trkpt>
      <trkpt lat="44.08164" lon="7.59374">
        <ele>848</ele>
        <time>2012-10-21T09:05:27Z</time>
      </trkpt>
      <trkpt lat="44.08167" lon="7.59366">
        <ele>848</ele>
        <time>2012-10-21T09:05:32Z</time>
      </trkpt>
      <trkpt lat="44.08169" lon="7.59358">
        <ele>850</ele>
        <time>2012-10-21T09:05:37Z</time>
      </trkpt>
      <trkpt lat="44.08171" lon="7.5935">
        <ele>850</ele>
        <time>2012-10-21T09:05:42Z</time>
      </trkpt>
      <trkpt lat="44.08174" lon="7.59343">
        <ele>851</ele>
        <time>2012-10-21T09:05:47Z</time>
      </trkpt>
      <trkpt lat="44.08177" lon="7.59335">
        <ele>852</ele>
        <time>2012-10-21T09:05:52Z</time>
      </trkpt>
      <trkpt lat="44.08181" lon="7.59327">
        <ele>853</ele>
        <time>2012-10-21T09:05:58Z</time>
      </trkpt>
      <trkpt lat="44.08181" lon="7.59319">
        <ele>853</ele>
        <time>2012-10-21T09:06:03Z</time>
      </trkpt>
      <trkpt lat="44.08175" lon="7.59318">
        <ele>853</ele>
        <time>2012-10-21T09:06:08Z</time>
      </trkpt>
      <trkpt lat="44.08171" lon="7.59327">
        <ele>853</ele>
        <time>2012-10-21T09:06:13Z</time>
      </trkpt>
      <trkpt lat="44.08167" lon="7.59335">
        <ele>853</ele>
        <time>2012-10-21T09:06:18Z</time>
      </trkpt>
      <trkpt lat="44.08164" lon="7.59343">
        <ele>853</ele>
        <time>2012-10-21T09:06:23Z</time>
      </trkpt>
      <trkpt lat="44.0816" lon="7.5935">
        <ele>853</ele>
        <time>2012-10-21T09:06:28Z</time>
      </trkpt>
      <trkpt lat="44.08157" lon="7.59357">
        <ele>853</ele>
        <time>2012-10-21T09:06:33Z</time>
      </trkpt>
      <trkpt lat="44.08153" lon="7.59365">
        <ele>853</ele>
        <time>2012-10-21T09:06:38Z</time>
      </trkpt>
      <trkpt lat="44.0815" lon="7.59373">
        <ele>853</ele>
        <time>2012-10-21T09:06:43Z</time>
      </trkpt>
      <trkpt lat="44.08146" lon="7.59382">
        <ele>853</ele>
        <time>2012-10-21T09:06:48Z</time>
      </trkpt>
      <trkpt lat="44.08141" lon="7.59391">
        <ele>855</ele>
        <time>2012-10-21T09:06:53Z</time>
      </trkpt>
      <trkpt lat="44.08136" lon="7.59398">
        <ele>858</ele>
        <time>2012-10-21T09:06:58Z</time>
      </trkpt>
      <trkpt lat="44.08131" lon="7.59401">
        <ele>861</ele>
        <time>2012-10-21T09:07:03Z</time>
      </trkpt>
      <trkpt lat="44.08124" lon="7.59403">
        <ele>862</ele>
        <time>2012-10-21T09:07:08Z</time>
      </trkpt>
      <trkpt lat="44.08118" lon="7.59402">
        <ele>862</ele>
        <time>2012-10-21T09:07:13Z</time>
      </trkpt>
      <trkpt lat="44.08112" lon="7.59404">
        <ele>862</ele>
        <time>2012-10-21T09:07:18Z</time>
      </trkpt>
      <trkpt lat="44.08105" lon="7.59403">
        <ele>862</ele>
        <time>2012-10-21T09:07:24Z</time>
      </trkpt>
      <trkpt lat="44.08099" lon="7.59404">
        <ele>862</ele>
        <time>2012-10-21T09:07:29Z</time>
      </trkpt>
      <trkpt lat="44.08093" lon="7.59404">
        <ele>862</ele>
        <time>2012-10-21T09:07:34Z</time>
      </trkpt>
      <trkpt lat="44.08087" lon="7.59404">
        <ele>863</ele>
        <time>2012-10-21T09:07:39Z</time>
      </trkpt>
      <trkpt lat="44.0808" lon="7.59406">
        <ele>865</ele>
        <time>2012-10-21T09:07:44Z</time>
      </trkpt>
      <trkpt lat="44.08074" lon="7.59409">
        <ele>868</ele>
        <time>2012-10-21T09:07:49Z</time>
      </trkpt>
      <trkpt lat="44.08068" lon="7.59411">
        <ele>869</ele>
        <time>2012-10-21T09:07:54Z</time>
      </trkpt>
      <trkpt lat="44.08062" lon="7.5941">
        <ele>869</ele>
        <time>2012-10-21T09:07:59Z</time>
      </trkpt>
      <trkpt lat="44.08062" lon="7.59401">
        <ele>869</ele>
        <time>2012-10-21T09:08:04Z</time>
      </trkpt>
      <trkpt lat="44.08069" lon="7.59392">
        <ele>869</ele>
        <time>2012-10-21T09:08:09Z</time>
      </trkpt>
      <trkpt lat="44.08077" lon="7.59383">
        <ele>870</ele>
        <time>2012-10-21T09:08:14Z</time>
      </trkpt>
      <trkpt lat="44.08083" lon="7.59377">
        <ele>870</ele>
        <time>2012-10-21T09:08:19Z</time>
      </trkpt>
      <trkpt lat="44.0809" lon="7.5937">
        <ele>870</ele>
        <time>2012-10-21T09:08:24Z</time>
      </trkpt>
      <trkpt lat="44.08095" lon="7.59362">
        <ele>870</ele>
        <time>2012-10-21T09:08:29Z</time>
      </trkpt>
      <trkpt lat="44.08102" lon="7.59356">
        <ele>871</ele>
        <time>2012-10-21T09:08:34Z</time>
      </trkpt>
      <trkpt lat="44.08107" lon="7.5935">
        <ele>872</ele>
        <time>2012-10-21T09:08:39Z</time>
      </trkpt>
      <trkpt lat="44.08113" lon="7.59343">
        <ele>872</ele>
        <time>2012-10-21T09:08:44Z</time>
      </trkpt>
      <trkpt lat="44.0812" lon="7.59337">
        <ele>872</ele>
        <time>2012-10-21T09:08:49Z</time>
      </trkpt>
      <trkpt lat="44.08127" lon="7.59332">
        <ele>874</ele>
        <time>2012-10-21T09:08:54Z</time>
      </trkpt>
      <trkpt lat="44.08131" lon="7.59324">
        <ele>875</ele>
        <time>2012-10-21T09:08:59Z</time>
      </trkpt>
      <trkpt lat="44.08125" lon="7.59319">
        <ele>876</ele>
        <time>2012-10-21T09:09:04Z</time>
      </trkpt>
      <trkpt lat="44.08118" lon="7.59323">
        <ele>876</ele>
        <time>2012-10-21T09:09:09Z</time>
      </trkpt>
      <trkpt lat="44.08113" lon="7.59329">
        <ele>876</ele>
        <time>2012-10-21T09:09:15Z</time>
      </trkpt>
      <trkpt lat="44.08107" lon="7.59333">
        <ele>876</ele>
        <time>2012-10-21T09:09:20Z</time>
      </trkpt>
      <trkpt lat="44.08101" lon="7.59337">
        <ele>878</ele>
        <time>2012-10-21T09:09:25Z</time>
      </trkpt>
      <trkpt lat="44.08093" lon="7.59339">
        <ele>881</ele>
        <time>2012-10-21T09:09:30Z</time>
      </trkpt>
      <trkpt lat="44.08086" lon="7.59341">
        <ele>883</ele>
        <time>2012-10-21T09:09:35Z</time>
      </trkpt>
      <trkpt lat="44.08079" lon="7.59343">
        <ele>883</ele>
        <time>2012-10-21T09:09:40Z</time>
      </trkpt>
      <trkpt lat="44.08073" lon="7.59348">
        <ele>883</ele>
        <time>2012-10-21T09:09:45Z</time>
      </trkpt>
      <trkpt lat="44.08066" lon="7.59354">
        <ele>883</ele>
        <time>2012-10-21T09:09:50Z</time>
      </trkpt>
      <trkpt lat="44.08059" lon="7.5936">
        <ele>883</ele>
        <time>2012-10-21T09:09:55Z</time>
      </trkpt>
      <trkpt lat="44.08052" lon="7.59365">
        <ele>883</ele>
        <time>2012-10-21T09:10:00Z</time>
      </trkpt>
      <trkpt lat="44.08046" lon="7.59369">
        <ele>883</ele>
        <time>2012-10-21T09:10:05Z</time>
      </trkpt>
      <trkpt lat="44.08039" lon="7.59373">
        <ele>884</ele>
        <time>2012-10-21T09:10:10Z</time>
      </trkpt>
      <trkpt lat="44.08032" lon="7.59377">
        <ele>884</ele>
        <time>2012-10-21T09:10:15Z</time>
      </trkpt>
      <trkpt lat="44.08026" lon="7.59381">
        <ele>884</ele>
        <time>2012-10-21T09:10:20Z</time>
      </trkpt>
      <trkpt lat="44.08019" lon="7.59386">
        <ele>884</ele>
        <time>2012-10-21T09:10:25Z</time>
      </trkpt>
      <trkpt lat="44.08012" lon="7.5939">
        <ele>884</ele>
        <time>2012-10-21T09:10:30Z</time>
      </trkpt>
      <trkpt lat="44.08006" lon="7.59394">
        <ele>884</ele>
        <time>2012-10-21T09:10:35Z</time>
      </trkpt>
      <trkpt lat="44.07999" lon="7.59398">
        <ele>885</ele>
        <time>2012-10-21T09:10:40Z</time>
      </trkpt>
      <trkpt lat="44.07993" lon="7.59404">
        <ele>885</ele>
        <time>2012-10-21T09:10:45Z</time>
      </trkpt>
      <trkpt lat="44.07986" lon="7.5941">
        <ele>885</ele>
        <time>2012-10-21T09:10:50Z</time>
      </trkpt>
      <trkpt lat="44.0798" lon="7.59415">
        <ele>887</ele>
        <time>2012-10-21T09:10:55Z</time>
      </trkpt>
      <trkpt lat="44.07975" lon="7.59423">
        <ele>887</ele>
        <time>2012-10-21T09:11:00Z</time>
      </trkpt>
      <trkpt lat="44.07971" lon="7.59432">
        <ele>888</ele>
        <time>2012-10-21T09:11:05Z</time>
      </trkpt>
      <trkpt lat="44.07967" lon="7.59442">
        <ele>888</ele>
        <time>2012-10-21T09:11:10Z</time>
      </trkpt>
      <trkpt lat="44.07963" lon="7.59451">
        <ele>888</ele>
        <time>2012-10-21T09:11:15Z</time>
      </trkpt>
      <trkpt lat="44.07959" lon="7.59459">
        <ele>889</ele>
        <time>2012-10-21T09:11:20Z</time>
      </trkpt>
      <trkpt lat="44.07954" lon="7.59465">
        <ele>889</ele>
        <time>2012-10-21T09:11:25Z</time>
      </trkpt>
      <trkpt lat="44.07947" lon="7.59471">
        <ele>892</ele>
        <time>2012-10-21T09:11:30Z</time>
      </trkpt>
      <trkpt lat="44.07941" lon="7.59476">
        <ele>893</ele>
        <time>2012-10-21T09:11:35Z</time>
      </trkpt>
      <trkpt lat="44.07935" lon="7.59483">
        <ele>894</ele>
        <time>2012-10-21T09:11:40Z</time>
      </trkpt>
      <trkpt lat="44.07929" lon="7.59489">
        <ele>898</ele>
        <time>2012-10-21T09:11:45Z</time>
      </trkpt>
      <trkpt lat="44.07923" lon="7.59495">
        <ele>898</ele>
        <time>2012-10-21T09:11:50Z</time>
      </trkpt>
      <trkpt lat="44.07918" lon="7.59501">
        <ele>898</ele>
        <time>2012-10-21T09:11:55Z</time>
      </trkpt>
      <trkpt lat="44.07913" lon="7.59508">
        <ele>900</ele>
        <time>2012-10-21T09:12:00Z</time>
      </trkpt>
      <trkpt lat="44.07906" lon="7.59513">
        <ele>901</ele>
        <time>2012-10-21T09:12:05Z</time>
      </trkpt>
      <trkpt lat="44.07904" lon="7.59506">
        <ele>902</ele>
        <time>2012-10-21T09:12:10Z</time>
      </trkpt>
      <trkpt lat="44.07907" lon="7.59497">
        <ele>902</ele>
        <time>2012-10-21T09:12:15Z</time>
      </trkpt>
      <trkpt lat="44.07912" lon="7.59488">
        <ele>902</ele>
        <time>2012-10-21T09:12:20Z</time>
      </trkpt>
      <trkpt lat="44.07917" lon="7.5948">
        <ele>903</ele>
        <time>2012-10-21T09:12:25Z</time>
      </trkpt>
      <trkpt lat="44.07922" lon="7.59472">
        <ele>905</ele>
        <time>2012-10-21T09:12:30Z</time>
      </trkpt>
      <trkpt lat="44.07927" lon="7.59464">
        <ele>907</ele>
        <time>2012-10-21T09:12:35Z</time>
      </trkpt>
      <trkpt lat="44.07931" lon="7.59456">
        <ele>908</ele>
        <time>2012-10-21T09:12:40Z</time>
      </trkpt>
      <trkpt lat="44.07935" lon="7.59448">
        <ele>909</ele>
        <time>2012-10-21T09:12:45Z</time>
      </trkpt>
      <trkpt lat="44.07936" lon="7.59439">
        <ele>910</ele>
        <time>2012-10-21T09:12:50Z</time>
      </trkpt>
      <trkpt lat="44.07928" lon="7.59441">
        <ele>913</ele>
        <time>2012-10-21T09:12:55Z</time>
      </trkpt>
      <trkpt lat="44.07922" lon="7.59449">
        <ele>913</ele>
        <time>2012-10-21T09:13:00Z</time>
      </trkpt>
      <trkpt lat="44.07915" lon="7.59456">
        <ele>913</ele>
        <time>2012-10-21T09:13:05Z</time>
      </trkpt>
      <trkpt lat="44.07909" lon="7.59463">
        <ele>913</ele>
        <time>2012-10-21T09:13:10Z</time>
      </trkpt>
      <trkpt lat="44.07902" lon="7.59469">
        <ele>913</ele>
        <time>2012-10-21T09:13:15Z</time>
      </trkpt>
      <trkpt lat="44.07895" lon="7.59474">
        <ele>913</ele>
        <time>2012-10-21T09:13:20Z</time>
      </trkpt>
      <trkpt lat="44.07889" lon="7.59481">
        <ele>913</ele>
        <time>2012-10-21T09:13:25Z</time>
      </trkpt>
      <trkpt lat="44.07883" lon="7.59486">
        <ele>913</ele>
        <time>2012-10-21T09:13:30Z</time>
      </trkpt>
      <trkpt lat="44.07876" lon="7.59492">
        <ele>913</ele>
        <time>2012-10-21T09:13:36Z</time>
      </trkpt>
      <trkpt lat="44.0787" lon="7.59497">
        <ele>913</ele>
        <time>2012-10-21T09:13:41Z</time>
      </trkpt>
      <trkpt lat="44.07863" lon="7.59503">
        <ele>913</ele>
        <time>2012-10-21T09:13:47Z</time>
      </trkpt>
      <trkpt lat="44.07856" lon="7.59507">
        <ele>913</ele>
        <time>2012-10-21T09:13:52Z</time>
      </trkpt>
      <trkpt lat="44.07849" lon="7.59508">
        <ele>915</ele>
        <time>2012-10-21T09:13:57Z</time>
      </trkpt>
      <trkpt lat="44.07842" lon="7.5951">
        <ele>915</ele>
        <time>2012-10-21T09:14:02Z</time>
      </trkpt>
      <trkpt lat="44.07835" lon="7.59511">
        <ele>915</ele>
        <time>2012-10-21T09:14:07Z</time>
      </trkpt>
      <trkpt lat="44.07828" lon="7.59512">
        <ele>915</ele>
        <time>2012-10-21T09:14:12Z</time>
      </trkpt>
      <trkpt lat="44.07821" lon="7.59511">
        <ele>915</ele>
        <time>2012-10-21T09:14:17Z</time>
      </trkpt>
      <trkpt lat="44.07813" lon="7.59507">
        <ele>916</ele>
        <time>2012-10-21T09:14:22Z</time>
      </trkpt>
      <trkpt lat="44.07806" lon="7.59501">
        <ele>917</ele>
        <time>2012-10-21T09:14:27Z</time>
      </trkpt>
      <trkpt lat="44.07801" lon="7.59495">
        <ele>919</ele>
        <time>2012-10-21T09:14:32Z</time>
      </trkpt>
      <trkpt lat="44.07794" lon="7.59489">
        <ele>920</ele>
        <time>2012-10-21T09:14:38Z</time>
      </trkpt>
      <trkpt lat="44.07788" lon="7.59484">
        <ele>920</ele>
        <time>2012-10-21T09:14:43Z</time>
      </trkpt>
      <trkpt lat="44.07782" lon="7.59479">
        <ele>921</ele>
        <time>2012-10-21T09:14:48Z</time>
      </trkpt>
      <trkpt lat="44.07775" lon="7.59474">
        <ele>922</ele>
        <time>2012-10-21T09:14:53Z</time>
      </trkpt>
      <trkpt lat="44.07769" lon="7.59468">
        <ele>923</ele>
        <time>2012-10-21T09:14:58Z</time>
      </trkpt>
      <trkpt lat="44.07763" lon="7.59462">
        <ele>924</ele>
        <time>2012-10-21T09:15:03Z</time>
      </trkpt>
      <trkpt lat="44.07757" lon="7.59458">
        <ele>925</ele>
        <time>2012-10-21T09:15:08Z</time>
      </trkpt>
      <trkpt lat="44.07751" lon="7.59453">
        <ele>925</ele>
        <time>2012-10-21T09:15:13Z</time>
      </trkpt>
      <trkpt lat="44.07744" lon="7.59447">
        <ele>925</ele>
        <time>2012-10-21T09:15:18Z</time>
      </trkpt>
      <trkpt lat="44.07737" lon="7.59443">
        <ele>925</ele>
        <time>2012-10-21T09:15:23Z</time>
      </trkpt>
      <trkpt lat="44.07731" lon="7.59438">
        <ele>925</ele>
        <time>2012-10-21T09:15:28Z</time>
      </trkpt>
      <trkpt lat="44.07725" lon="7.59435">
        <ele>925</ele>
        <time>2012-10-21T09:15:33Z</time>
      </trkpt>
      <trkpt lat="44.07719" lon="7.59431">
        <ele>925</ele>
        <time>2012-10-21T09:15:38Z</time>
      </trkpt>
      <trkpt lat="44.07713" lon="7.59428">
        <ele>926</ele>
        <time>2012-10-21T09:15:43Z</time>
      </trkpt>
      <trkpt lat="44.07712" lon="7.59427">
        <ele>923</ele>
        <time>2012-10-21T09:15:52Z</time>
      </trkpt>
      <trkpt lat="44.07705" lon="7.59427">
        <ele>921</ele>
        <time>2012-10-21T09:15:57Z</time>
      </trkpt>
      <trkpt lat="44.07698" lon="7.59425">
        <ele>921</ele>
        <time>2012-10-21T09:16:02Z</time>
      </trkpt>
      <trkpt lat="44.07689" lon="7.59425">
        <ele>921</ele>
        <time>2012-10-21T09:16:07Z</time>
      </trkpt>
      <trkpt lat="44.07681" lon="7.59425">
        <ele>921</ele>
        <time>2012-10-21T09:16:12Z</time>
      </trkpt>
      <trkpt lat="44.07673" lon="7.59426">
        <ele>921</ele>
        <time>2012-10-21T09:16:17Z</time>
      </trkpt>
      <trkpt lat="44.07665" lon="7.59426">
        <ele>921</ele>
        <time>2012-10-21T09:16:22Z</time>
      </trkpt>
      <trkpt lat="44.07657" lon="7.59425">
        <ele>923</ele>
        <time>2012-10-21T09:16:27Z</time>
      </trkpt>
      <trkpt lat="44.0765" lon="7.59424">
        <ele>925</ele>
        <time>2012-10-21T09:16:32Z</time>
      </trkpt>
      <trkpt lat="44.07644" lon="7.59424">
        <ele>926</ele>
        <time>2012-10-21T09:16:37Z</time>
      </trkpt>
      <trkpt lat="44.07637" lon="7.59424">
        <ele>928</ele>
        <time>2012-10-21T09:16:42Z</time>
      </trkpt>
      <trkpt lat="44.07631" lon="7.59422">
        <ele>928</ele>
        <time>2012-10-21T09:16:47Z</time>
      </trkpt>
      <trkpt lat="44.07624" lon="7.5942">
        <ele>929</ele>
        <time>2012-10-21T09:16:52Z</time>
      </trkpt>
      <trkpt lat="44.07617" lon="7.5942">
        <ele>929</ele>
        <time>2012-10-21T09:16:57Z</time>
      </trkpt>
      <trkpt lat="44.07611" lon="7.59422">
        <ele>929</ele>
        <time>2012-10-21T09:17:02Z</time>
      </trkpt>
      <trkpt lat="44.07604" lon="7.59424">
        <ele>930</ele>
        <time>2012-10-21T09:17:07Z</time>
      </trkpt>
      <trkpt lat="44.07598" lon="7.59426">
        <ele>932</ele>
        <time>2012-10-21T09:17:12Z</time>
      </trkpt>
      <trkpt lat="44.07591" lon="7.59431">
        <ele>934</ele>
        <time>2012-10-21T09:17:17Z</time>
      </trkpt>
      <trkpt lat="44.07584" lon="7.59434">
        <ele>936</ele>
        <time>2012-10-21T09:17:22Z</time>
      </trkpt>
      <trkpt lat="44.07577" lon="7.59436">
        <ele>936</ele>
        <time>2012-10-21T09:17:27Z</time>
      </trkpt>
      <trkpt lat="44.0757" lon="7.59437">
        <ele>937</ele>
        <time>2012-10-21T09:17:32Z</time>
      </trkpt>
      <trkpt lat="44.07564" lon="7.59441">
        <ele>938</ele>
        <time>2012-10-21T09:17:37Z</time>
      </trkpt>
      <trkpt lat="44.07558" lon="7.59444">
        <ele>940</ele>
        <time>2012-10-21T09:17:42Z</time>
      </trkpt>
      <trkpt lat="44.07552" lon="7.59446">
        <ele>941</ele>
        <time>2012-10-21T09:17:47Z</time>
      </trkpt>
      <trkpt lat="44.07545" lon="7.5945">
        <ele>945</ele>
        <time>2012-10-21T09:17:52Z</time>
      </trkpt>
      <trkpt lat="44.0754" lon="7.59451">
        <ele>949</ele>
        <time>2012-10-21T09:17:57Z</time>
      </trkpt>
      <trkpt lat="44.07537" lon="7.59442">
        <ele>954</ele>
        <time>2012-10-21T09:18:02Z</time>
      </trkpt>
      <trkpt lat="44.07544" lon="7.59436">
        <ele>956</ele>
        <time>2012-10-21T09:18:07Z</time>
      </trkpt>
      <trkpt lat="44.07552" lon="7.59433">
        <ele>957</ele>
        <time>2012-10-21T09:18:12Z</time>
      </trkpt>
      <trkpt lat="44.07559" lon="7.59425">
        <ele>962</ele>
        <time>2012-10-21T09:18:17Z</time>
      </trkpt>
      <trkpt lat="44.07566" lon="7.5942">
        <ele>963</ele>
        <time>2012-10-21T09:18:22Z</time>
      </trkpt>
      <trkpt lat="44.07571" lon="7.59414">
        <ele>963</ele>
        <time>2012-10-21T09:18:27Z</time>
      </trkpt>
      <trkpt lat="44.07578" lon="7.59408">
        <ele>963</ele>
        <time>2012-10-21T09:18:32Z</time>
      </trkpt>
      <trkpt lat="44.07584" lon="7.59402">
        <ele>963</ele>
        <time>2012-10-21T09:18:37Z</time>
      </trkpt>
      <trkpt lat="44.0759" lon="7.59397">
        <ele>962</ele>
        <time>2012-10-21T09:18:42Z</time>
      </trkpt>
      <trkpt lat="44.07597" lon="7.59394">
        <ele>958</ele>
        <time>2012-10-21T09:18:47Z</time>
      </trkpt>
      <trkpt lat="44.07603" lon="7.59391">
        <ele>957</ele>
        <time>2012-10-21T09:18:52Z</time>
      </trkpt>
      <trkpt lat="44.07609" lon="7.59387">
        <ele>957</ele>
        <time>2012-10-21T09:18:57Z</time>
      </trkpt>
      <trkpt lat="44.07611" lon="7.59379">
        <ele>957</ele>
        <time>2012-10-21T09:19:02Z</time>
      </trkpt>
      <trkpt lat="44.07605" lon="7.59376">
        <ele>957</ele>
        <time>2012-10-21T09:19:07Z</time>
      </trkpt>
      <trkpt lat="44.07598" lon="7.5938">
        <ele>957</ele>
        <time>2012-10-21T09:19:12Z</time>
      </trkpt>
      <trkpt lat="44.07591" lon="7.59384">
        <ele>957</ele>
        <time>2012-10-21T09:19:17Z</time>
      </trkpt>
      <trkpt lat="44.07585" lon="7.59387">
        <ele>955</ele>
        <time>2012-10-21T09:19:22Z</time>
      </trkpt>
      <trkpt lat="44.07579" lon="7.59392">
        <ele>953</ele>
        <time>2012-10-21T09:19:27Z</time>
      </trkpt>
      <trkpt lat="44.07571" lon="7.59398">
        <ele>953</ele>
        <time>2012-10-21T09:19:32Z</time>
      </trkpt>
      <trkpt lat="44.07564" lon="7.59402">
        <ele>953</ele>
        <time>2012-10-21T09:19:37Z</time>
      </trkpt>
      <trkpt lat="44.07556" lon="7.59407">
        <ele>955</ele>
        <time>2012-10-21T09:19:43Z</time>
      </trkpt>
      <trkpt lat="44.0755" lon="7.5941">
        <ele>957</ele>
        <time>2012-10-21T09:19:48Z</time>
      </trkpt>
      <trkpt lat="44.07543" lon="7.59412">
        <ele>959</ele>
        <time>2012-10-21T09:19:53Z</time>
      </trkpt>
      <trkpt lat="44.07536" lon="7.59411">
        <ele>961</ele>
        <time>2012-10-21T09:19:58Z</time>
      </trkpt>
      <trkpt lat="44.07529" lon="7.59411">
        <ele>962</ele>
        <time>2012-10-21T09:20:05Z</time>
      </trkpt>
      <trkpt lat="44.07528" lon="7.5941">
        <ele>962</ele>
        <time>2012-10-21T09:20:11Z</time>
      </trkpt>
      <trkpt lat="44.07524" lon="7.59406">
        <ele>962</ele>
        <time>2012-10-21T09:20:16Z</time>
      </trkpt>
      <trkpt lat="44.07518" lon="7.59402">
        <ele>962</ele>
        <time>2012-10-21T09:20:21Z</time>
      </trkpt>
      <trkpt lat="44.07512" lon="7.59396">
        <ele>962</ele>
        <time>2012-10-21T09:20:26Z</time>
      </trkpt>
      <trkpt lat="44.07508" lon="7.59388">
        <ele>962</ele>
        <time>2012-10-21T09:20:31Z</time>
      </trkpt>
      <trkpt lat="44.07504" lon="7.59378">
        <ele>963</ele>
        <time>2012-10-21T09:20:36Z</time>
      </trkpt>
      <trkpt lat="44.07501" lon="7.59368">
        <ele>965</ele>
        <time>2012-10-21T09:20:41Z</time>
      </trkpt>
      <trkpt lat="44.07499" lon="7.59358">
        <ele>967</ele>
        <time>2012-10-21T09:20:46Z</time>
      </trkpt>
      <trkpt lat="44.07497" lon="7.59347">
        <ele>970</ele>
        <time>2012-10-21T09:20:51Z</time>
      </trkpt>
      <trkpt lat="44.07494" lon="7.59338">
        <ele>971</ele>
        <time>2012-10-21T09:20:56Z</time>
      </trkpt>
      <trkpt lat="44.07491" lon="7.59329">
        <ele>973</ele>
        <time>2012-10-21T09:21:01Z</time>
      </trkpt>
      <trkpt lat="44.07488" lon="7.59318">
        <ele>974</ele>
        <time>2012-10-21T09:21:06Z</time>
      </trkpt>
      <trkpt lat="44.07489" lon="7.59312">
        <ele>978</ele>
        <time>2012-10-21T09:21:13Z</time>
      </trkpt>
      <trkpt lat="44.0749" lon="7.59312">
        <ele>979</ele>
        <time>2012-10-21T09:21:19Z</time>
      </trkpt>
      <trkpt lat="44.07491" lon="7.59313">
        <ele>979</ele>
        <time>2012-10-21T09:21:28Z</time>
      </trkpt>
      <trkpt lat="44.07491" lon="7.59315">
        <ele>977</ele>
        <time>2012-10-21T09:21:50Z</time>
      </trkpt>
      <trkpt lat="44.0749" lon="7.59315">
        <ele>976</ele>
        <time>2012-10-21T09:21:55Z</time>
      </trkpt>
      <trkpt lat="44.07489" lon="7.59315">
        <ele>979</ele>
        <time>2012-10-21T09:22:39Z</time>
      </trkpt>
      <trkpt lat="44.0749" lon="7.59314">
        <ele>979</ele>
        <time>2012-10-21T09:22:52Z</time>
      </trkpt>
      <trkpt lat="44.0749" lon="7.59316">
        <ele>979</ele>
        <time>2012-10-21T09:23:03Z</time>
      </trkpt>
      <trkpt lat="44.07491" lon="7.59315">
        <ele>979</ele>
        <time>2012-10-21T09:23:08Z</time>
      </trkpt>
      <trkpt lat="44.07497" lon="7.59321">
        <ele>979</ele>
        <time>2012-10-21T09:23:13Z</time>
      </trkpt>
      <trkpt lat="44.07502" lon="7.59331">
        <ele>979</ele>
        <time>2012-10-21T09:23:18Z</time>
      </trkpt>
      <trkpt lat="44.07506" lon="7.59341">
        <ele>979</ele>
        <time>2012-10-21T09:23:23Z</time>
      </trkpt>
      <trkpt lat="44.0751" lon="7.59351">
        <ele>978</ele>
        <time>2012-10-21T09:23:28Z</time>
      </trkpt>
      <trkpt lat="44.07514" lon="7.5936">
        <ele>978</ele>
        <time>2012-10-21T09:23:33Z</time>
      </trkpt>
      <trkpt lat="44.07517" lon="7.59369">
        <ele>978</ele>
        <time>2012-10-21T09:23:38Z</time>
      </trkpt>
      <trkpt lat="44.07523" lon="7.59378">
        <ele>978</ele>
        <time>2012-10-21T09:23:44Z</time>
      </trkpt>
      <trkpt lat="44.07528" lon="7.59372">
        <ele>978</ele>
        <time>2012-10-21T09:23:49Z</time>
      </trkpt>
      <trkpt lat="44.07524" lon="7.59363">
        <ele>978</ele>
        <time>2012-10-21T09:23:54Z</time>
      </trkpt>
      <trkpt lat="44.0752" lon="7.59352">
        <ele>978</ele>
        <time>2012-10-21T09:23:59Z</time>
      </trkpt>
      <trkpt lat="44.07515" lon="7.59342">
        <ele>978</ele>
        <time>2012-10-21T09:24:04Z</time>
      </trkpt>
      <trkpt lat="44.07512" lon="7.59332">
        <ele>978</ele>
        <time>2012-10-21T09:24:09Z</time>
      </trkpt>
      <trkpt lat="44.07511" lon="7.59321">
        <ele>978</ele>
        <time>2012-10-21T09:24:14Z</time>
      </trkpt>
      <trkpt lat="44.0751" lon="7.59311">
        <ele>978</ele>
        <time>2012-10-21T09:24:19Z</time>
      </trkpt>
      <trkpt lat="44.07508" lon="7.59302">
        <ele>980</ele>
        <time>2012-10-21T09:24:24Z</time>
      </trkpt>
      <trkpt lat="44.07505" lon="7.59293">
        <ele>982</ele>
        <time>2012-10-21T09:24:29Z</time>
      </trkpt>
      <trkpt lat="44.07502" lon="7.59285">
        <ele>982</ele>
        <time>2012-10-21T09:24:34Z</time>
      </trkpt>
      <trkpt lat="44.075" lon="7.59275">
        <ele>982</ele>
        <time>2012-10-21T09:24:39Z</time>
      </trkpt>
      <trkpt lat="44.07499" lon="7.59265">
        <ele>983</ele>
        <time>2012-10-21T09:24:44Z</time>
      </trkpt>
      <trkpt lat="44.07495" lon="7.59257">
        <ele>984</ele>
        <time>2012-10-21T09:24:49Z</time>
      </trkpt>
      <trkpt lat="44.07493" lon="7.59249">
        <ele>985</ele>
        <time>2012-10-21T09:24:54Z</time>
      </trkpt>
      <trkpt lat="44.0749" lon="7.59239">
        <ele>986</ele>
        <time>2012-10-21T09:24:59Z</time>
      </trkpt>
      <trkpt lat="44.07487" lon="7.59231">
        <ele>986</ele>
        <time>2012-10-21T09:25:04Z</time>
      </trkpt>
      <trkpt lat="44.07486" lon="7.59221">
        <ele>987</ele>
        <time>2012-10-21T09:25:09Z</time>
      </trkpt>
      <trkpt lat="44.07485" lon="7.59211">
        <ele>987</ele>
        <time>2012-10-21T09:25:14Z</time>
      </trkpt>
      <trkpt lat="44.07485" lon="7.59201">
        <ele>987</ele>
        <time>2012-10-21T09:25:19Z</time>
      </trkpt>
      <trkpt lat="44.07486" lon="7.59193">
        <ele>990</ele>
        <time>2012-10-21T09:25:24Z</time>
      </trkpt>
      <trkpt lat="44.07486" lon="7.59184">
        <ele>992</ele>
        <time>2012-10-21T09:25:29Z</time>
      </trkpt>
      <trkpt lat="44.07485" lon="7.59175">
        <ele>994</ele>
        <time>2012-10-21T09:25:34Z</time>
      </trkpt>
      <trkpt lat="44.07485" lon="7.59166">
        <ele>998</ele>
        <time>2012-10-21T09:25:39Z</time>
      </trkpt>
      <trkpt lat="44.07485" lon="7.59157">
        <ele>1000</ele>
        <time>2012-10-21T09:25:44Z</time>
      </trkpt>
      <trkpt lat="44.07485" lon="7.59147">
        <ele>1001</ele>
        <time>2012-10-21T09:25:49Z</time>
      </trkpt>
      <trkpt lat="44.07485" lon="7.59138">
        <ele>1001</ele>
        <time>2012-10-21T09:25:54Z</time>
      </trkpt>
      <trkpt lat="44.07484" lon="7.59128">
        <ele>1001</ele>
        <time>2012-10-21T09:25:59Z</time>
      </trkpt>
      <trkpt lat="44.07482" lon="7.59119">
        <ele>1003</ele>
        <time>2012-10-21T09:26:04Z</time>
      </trkpt>
      <trkpt lat="44.07479" lon="7.5911">
        <ele>1004</ele>
        <time>2012-10-21T09:26:09Z</time>
      </trkpt>
      <trkpt lat="44.07476" lon="7.59102">
        <ele>1004</ele>
        <time>2012-10-21T09:26:14Z</time>
      </trkpt>
      <trkpt lat="44.07472" lon="7.59094">
        <ele>1005</ele>
        <time>2012-10-21T09:26:19Z</time>
      </trkpt>
      <trkpt lat="44.07467" lon="7.59088">
        <ele>1005</ele>
        <time>2012-10-21T09:26:24Z</time>
      </trkpt>
      <trkpt lat="44.07462" lon="7.5908">
        <ele>1005</ele>
        <time>2012-10-21T09:26:30Z</time>
      </trkpt>
      <trkpt lat="44.07456" lon="7.59073">
        <ele>1005</ele>
        <time>2012-10-21T09:26:35Z</time>
      </trkpt>
      <trkpt lat="44.07455" lon="7.59064">
        <ele>1005</ele>
        <time>2012-10-21T09:26:40Z</time>
      </trkpt>
      <trkpt lat="44.07462" lon="7.59063">
        <ele>1006</ele>
        <time>2012-10-21T09:26:45Z</time>
      </trkpt>
      <trkpt lat="44.07468" lon="7.59072">
        <ele>1006</ele>
        <time>2012-10-21T09:26:50Z</time>
      </trkpt>
      <trkpt lat="44.07473" lon="7.5908">
        <ele>1006</ele>
        <time>2012-10-21T09:26:55Z</time>
      </trkpt>
      <trkpt lat="44.07478" lon="7.59088">
        <ele>1006</ele>
        <time>2012-10-21T09:27:00Z</time>
      </trkpt>
      <trkpt lat="44.07483" lon="7.59095">
        <ele>1006</ele>
        <time>2012-10-21T09:27:05Z</time>
      </trkpt>
      <trkpt lat="44.07489" lon="7.59092">
        <ele>1006</ele>
        <time>2012-10-21T09:27:10Z</time>
      </trkpt>
      <trkpt lat="44.07486" lon="7.59081">
        <ele>1006</ele>
        <time>2012-10-21T09:27:15Z</time>
      </trkpt>
      <trkpt lat="44.07481" lon="7.59071">
        <ele>1006</ele>
        <time>2012-10-21T09:27:20Z</time>
      </trkpt>
      <trkpt lat="44.07479" lon="7.59068">
        <ele>1006</ele>
        <time>2012-10-21T09:27:29Z</time>
      </trkpt>
      <trkpt lat="44.07478" lon="7.59066">
        <ele>1006</ele>
        <time>2012-10-21T09:27:58Z</time>
      </trkpt>
      <trkpt lat="44.07478" lon="7.59067">
        <ele>1006</ele>
        <time>2012-10-21T09:28:25Z</time>
      </trkpt>
      <trkpt lat="44.07478" lon="7.59069">
        <ele>1006</ele>
        <time>2012-10-21T09:28:31Z</time>
      </trkpt>
      <trkpt lat="44.07477" lon="7.5907">
        <ele>1008</ele>
        <time>2012-10-21T09:28:46Z</time>
      </trkpt>
      <trkpt lat="44.07478" lon="7.5907">
        <ele>1010</ele>
        <time>2012-10-21T09:29:11Z</time>
      </trkpt>
      <trkpt lat="44.07479" lon="7.59071">
        <ele>1010</ele>
        <time>2012-10-21T09:29:20Z</time>
      </trkpt>
      <trkpt lat="44.07477" lon="7.59067">
        <ele>1010</ele>
        <time>2012-10-21T09:29:25Z</time>
      </trkpt>
      <trkpt lat="44.07473" lon="7.59059">
        <ele>1010</ele>
        <time>2012-10-21T09:29:30Z</time>
      </trkpt>
      <trkpt lat="44.07468" lon="7.59049">
        <ele>1010</ele>
        <time>2012-10-21T09:29:36Z</time>
      </trkpt>
      <trkpt lat="44.07464" lon="7.59039">
        <ele>1010</ele>
        <time>2012-10-21T09:29:41Z</time>
      </trkpt>
      <trkpt lat="44.07458" lon="7.59031">
        <ele>1010</ele>
        <time>2012-10-21T09:29:46Z</time>
      </trkpt>
      <trkpt lat="44.07453" lon="7.59023">
        <ele>1010</ele>
        <time>2012-10-21T09:29:51Z</time>
      </trkpt>
      <trkpt lat="44.07449" lon="7.59015">
        <ele>1010</ele>
        <time>2012-10-21T09:29:56Z</time>
      </trkpt>
      <trkpt lat="44.07446" lon="7.59007">
        <ele>1010</ele>
        <time>2012-10-21T09:30:01Z</time>
      </trkpt>
      <trkpt lat="44.07443" lon="7.58998">
        <ele>1010</ele>
        <time>2012-10-21T09:30:06Z</time>
      </trkpt>
      <trkpt lat="44.07439" lon="7.5899">
        <ele>1010</ele>
        <time>2012-10-21T09:30:11Z</time>
      </trkpt>
      <trkpt lat="44.07436" lon="7.58981">
        <ele>1011</ele>
        <time>2012-10-21T09:30:16Z</time>
      </trkpt>
      <trkpt lat="44.07432" lon="7.58973">
        <ele>1012</ele>
        <time>2012-10-21T09:30:21Z</time>
      </trkpt>
      <trkpt lat="44.0743" lon="7.58964">
        <ele>1012</ele>
        <time>2012-10-21T09:30:26Z</time>
      </trkpt>
      <trkpt lat="44.07426" lon="7.58956">
        <ele>1013</ele>
        <time>2012-10-21T09:30:31Z</time>
      </trkpt>
      <trkpt lat="44.07423" lon="7.58946">
        <ele>1014</ele>
        <time>2012-10-21T09:30:36Z</time>
      </trkpt>
      <trkpt lat="44.07421" lon="7.58937">
        <ele>1015</ele>
        <time>2012-10-21T09:30:41Z</time>
      </trkpt>
      <trkpt lat="44.07419" lon="7.58927">
        <ele>1015</ele>
        <time>2012-10-21T09:30:46Z</time>
      </trkpt>
      <trkpt lat="44.07418" lon="7.58918">
        <ele>1015</ele>
        <time>2012-10-21T09:30:51Z</time>
      </trkpt>
      <trkpt lat="44.07417" lon="7.58909">
        <ele>1015</ele>
        <time>2012-10-21T09:30:56Z</time>
      </trkpt>
      <trkpt lat="44.07418" lon="7.58901">
        <ele>1023</ele>
        <time>2012-10-21T09:31:18Z</time>
      </trkpt>
      <trkpt lat="44.07419" lon="7.58889">
        <ele>1023</ele>
        <time>2012-10-21T09:31:24Z</time>
      </trkpt>
      <trkpt lat="44.0742" lon="7.58879">
        <ele>1023</ele>
        <time>2012-10-21T09:31:29Z</time>
      </trkpt>
      <trkpt lat="44.07419" lon="7.58868">
        <ele>1023</ele>
        <time>2012-10-21T09:31:34Z</time>
      </trkpt>
      <trkpt lat="44.07419" lon="7.58858">
        <ele>1023</ele>
        <time>2012-10-21T09:31:39Z</time>
      </trkpt>
      <trkpt lat="44.07418" lon="7.58848">
        <ele>1023</ele>
        <time>2012-10-21T09:31:44Z</time>
      </trkpt>
      <trkpt lat="44.07421" lon="7.58841">
        <ele>1023</ele>
        <time>2012-10-21T09:31:49Z</time>
      </trkpt>
      <trkpt lat="44.07426" lon="7.58849">
        <ele>1025</ele>
        <time>2012-10-21T09:31:54Z</time>
      </trkpt>
      <trkpt lat="44.07426" lon="7.5886">
        <ele>1026</ele>
        <time>2012-10-21T09:31:59Z</time>
      </trkpt>
      <trkpt lat="44.07427" lon="7.58871">
        <ele>1028</ele>
        <time>2012-10-21T09:32:04Z</time>
      </trkpt>
      <trkpt lat="44.07429" lon="7.58881">
        <ele>1030</ele>
        <time>2012-10-21T09:32:09Z</time>
      </trkpt>
      <trkpt lat="44.07431" lon="7.58891">
        <ele>1032</ele>
        <time>2012-10-21T09:32:14Z</time>
      </trkpt>
      <trkpt lat="44.07432" lon="7.589">
        <ele>1032</ele>
        <time>2012-10-21T09:32:19Z</time>
      </trkpt>
      <trkpt lat="44.07432" lon="7.58911">
        <ele>1033</ele>
        <time>2012-10-21T09:32:24Z</time>
      </trkpt>
      <trkpt lat="44.0744" lon="7.58911">
        <ele>1034</ele>
        <time>2012-10-21T09:32:30Z</time>
      </trkpt>
      <trkpt lat="44.07441" lon="7.589">
        <ele>1034</ele>
        <time>2012-10-21T09:32:35Z</time>
      </trkpt>
      <trkpt lat="44.0744" lon="7.58889">
        <ele>1034</ele>
        <time>2012-10-21T09:32:40Z</time>
      </trkpt>
      <trkpt lat="44.07439" lon="7.58879">
        <ele>1034</ele>
        <time>2012-10-21T09:32:45Z</time>
      </trkpt>
      <trkpt lat="44.07439" lon="7.58871">
        <ele>1034</ele>
        <time>2012-10-21T09:32:50Z</time>
      </trkpt>
      <trkpt lat="44.07438" lon="7.5886">
        <ele>1034</ele>
        <time>2012-10-21T09:32:55Z</time>
      </trkpt>
      <trkpt lat="44.07438" lon="7.5885">
        <ele>1034</ele>
        <time>2012-10-21T09:33:01Z</time>
      </trkpt>
      <trkpt lat="44.07438" lon="7.58839">
        <ele>1034</ele>
        <time>2012-10-21T09:33:06Z</time>
      </trkpt>
      <trkpt lat="44.0744" lon="7.58827">
        <ele>1034</ele>
        <time>2012-10-21T09:33:12Z</time>
      </trkpt>
      <trkpt lat="44.0744" lon="7.58816">
        <ele>1034</ele>
        <time>2012-10-21T09:33:18Z</time>
      </trkpt>
      <trkpt lat="44.07441" lon="7.58805">
        <ele>1038</ele>
        <time>2012-10-21T09:33:24Z</time>
      </trkpt>
      <trkpt lat="44.07447" lon="7.58806">
        <ele>1039</ele>
        <time>2012-10-21T09:33:29Z</time>
      </trkpt>
      <trkpt lat="44.07448" lon="7.58816">
        <ele>1040</ele>
        <time>2012-10-21T09:33:34Z</time>
      </trkpt>
      <trkpt lat="44.07449" lon="7.58825">
        <ele>1042</ele>
        <time>2012-10-21T09:33:39Z</time>
      </trkpt>
      <trkpt lat="44.07447" lon="7.58838">
        <ele>1043</ele>
        <time>2012-10-21T09:33:45Z</time>
      </trkpt>
      <trkpt lat="44.07447" lon="7.58846">
        <ele>1044</ele>
        <time>2012-10-21T09:33:50Z</time>
      </trkpt>
      <trkpt lat="44.07446" lon="7.58855">
        <ele>1044</ele>
        <time>2012-10-21T09:33:55Z</time>
      </trkpt>
      <trkpt lat="44.07454" lon="7.58855">
        <ele>1045</ele>
        <time>2012-10-21T09:34:02Z</time>
      </trkpt>
      <trkpt lat="44.07453" lon="7.58842">
        <ele>1045</ele>
        <time>2012-10-21T09:34:08Z</time>
      </trkpt>
      <trkpt lat="44.07454" lon="7.58829">
        <ele>1045</ele>
        <time>2012-10-21T09:34:13Z</time>
      </trkpt>
      <trkpt lat="44.07454" lon="7.58817">
        <ele>1045</ele>
        <time>2012-10-21T09:34:19Z</time>
      </trkpt>
      <trkpt lat="44.07455" lon="7.58805">
        <ele>1045</ele>
        <time>2012-10-21T09:34:24Z</time>
      </trkpt>
      <trkpt lat="44.07455" lon="7.58794">
        <ele>1045</ele>
        <time>2012-10-21T09:34:29Z</time>
      </trkpt>
      <trkpt lat="44.07455" lon="7.58784">
        <ele>1046</ele>
        <time>2012-10-21T09:34:34Z</time>
      </trkpt>
      <trkpt lat="44.07455" lon="7.58773">
        <ele>1048</ele>
        <time>2012-10-21T09:34:39Z</time>
      </trkpt>
      <trkpt lat="44.07458" lon="7.58763">
        <ele>1048</ele>
        <time>2012-10-21T09:34:44Z</time>
      </trkpt>
      <trkpt lat="44.07462" lon="7.58754">
        <ele>1048</ele>
        <time>2012-10-21T09:34:49Z</time>
      </trkpt>
      <trkpt lat="44.07468" lon="7.58748">
        <ele>1048</ele>
        <time>2012-10-21T09:34:54Z</time>
      </trkpt>
      <trkpt lat="44.07475" lon="7.58741">
        <ele>1048</ele>
        <time>2012-10-21T09:35:00Z</time>
      </trkpt>
      <trkpt lat="44.07481" lon="7.58736">
        <ele>1048</ele>
        <time>2012-10-21T09:35:05Z</time>
      </trkpt>
      <trkpt lat="44.07486" lon="7.5873">
        <ele>1048</ele>
        <time>2012-10-21T09:35:10Z</time>
      </trkpt>
      <trkpt lat="44.07491" lon="7.5872">
        <ele>1050</ele>
        <time>2012-10-21T09:35:16Z</time>
      </trkpt>
      <trkpt lat="44.07495" lon="7.58709">
        <ele>1056</ele>
        <time>2012-10-21T09:35:22Z</time>
      </trkpt>
      <trkpt lat="44.07498" lon="7.587">
        <ele>1057</ele>
        <time>2012-10-21T09:35:27Z</time>
      </trkpt>
      <trkpt lat="44.07501" lon="7.58691">
        <ele>1060</ele>
        <time>2012-10-21T09:35:32Z</time>
      </trkpt>
      <trkpt lat="44.07502" lon="7.58679">
        <ele>1060</ele>
        <time>2012-10-21T09:35:38Z</time>
      </trkpt>
      <trkpt lat="44.07505" lon="7.58668">
        <ele>1060</ele>
        <time>2012-10-21T09:35:44Z</time>
      </trkpt>
      <trkpt lat="44.07504" lon="7.58659">
        <ele>1060</ele>
        <time>2012-10-21T09:35:49Z</time>
      </trkpt>
      <trkpt lat="44.07502" lon="7.58648">
        <ele>1060</ele>
        <time>2012-10-21T09:35:54Z</time>
      </trkpt>
      <trkpt lat="44.07497" lon="7.58635">
        <ele>1060</ele>
        <time>2012-10-21T09:36:00Z</time>
      </trkpt>
      <trkpt lat="44.07492" lon="7.58627">
        <ele>1061</ele>
        <time>2012-10-21T09:36:05Z</time>
      </trkpt>
      <trkpt lat="44.07487" lon="7.58616">
        <ele>1061</ele>
        <time>2012-10-21T09:36:10Z</time>
      </trkpt>
      <trkpt lat="44.07482" lon="7.58607">
        <ele>1062</ele>
        <time>2012-10-21T09:36:15Z</time>
      </trkpt>
      <trkpt lat="44.07478" lon="7.58595">
        <ele>1062</ele>
        <time>2012-10-21T09:36:21Z</time>
      </trkpt>
      <trkpt lat="44.07475" lon="7.58584">
        <ele>1064</ele>
        <time>2012-10-21T09:36:27Z</time>
      </trkpt>
      <trkpt lat="44.07473" lon="7.58574">
        <ele>1067</ele>
        <time>2012-10-21T09:36:32Z</time>
      </trkpt>
      <trkpt lat="44.0747" lon="7.58565">
        <ele>1069</ele>
        <time>2012-10-21T09:36:37Z</time>
      </trkpt>
      <trkpt lat="44.0747" lon="7.58556">
        <ele>1073</ele>
        <time>2012-10-21T09:36:42Z</time>
      </trkpt>
      <trkpt lat="44.07469" lon="7.58548">
        <ele>1076</ele>
        <time>2012-10-21T09:36:47Z</time>
      </trkpt>
      <trkpt lat="44.0747" lon="7.58538">
        <ele>1077</ele>
        <time>2012-10-21T09:36:53Z</time>
      </trkpt>
      <trkpt lat="44.07469" lon="7.58526">
        <ele>1074</ele>
        <time>2012-10-21T09:36:59Z</time>
      </trkpt>
      <trkpt lat="44.07474" lon="7.5852">
        <ele>1074</ele>
        <time>2012-10-21T09:37:25Z</time>
      </trkpt>
      <trkpt lat="44.07478" lon="7.58527">
        <ele>1072</ele>
        <time>2012-10-21T09:37:31Z</time>
      </trkpt>
      <trkpt lat="44.07482" lon="7.58536">
        <ele>1072</ele>
        <time>2012-10-21T09:37:36Z</time>
      </trkpt>
      <trkpt lat="44.07483" lon="7.58545">
        <ele>1072</ele>
        <time>2012-10-21T09:37:41Z</time>
      </trkpt>
      <trkpt lat="44.07484" lon="7.58558">
        <ele>1072</ele>
        <time>2012-10-21T09:37:47Z</time>
      </trkpt>
      <trkpt lat="44.07484" lon="7.5857">
        <ele>1073</ele>
        <time>2012-10-21T09:37:52Z</time>
      </trkpt>
      <trkpt lat="44.07488" lon="7.58578">
        <ele>1074</ele>
        <time>2012-10-21T09:37:57Z</time>
      </trkpt>
      <trkpt lat="44.07494" lon="7.58579">
        <ele>1075</ele>
        <time>2012-10-21T09:38:03Z</time>
      </trkpt>
      <trkpt lat="44.07493" lon="7.5857">
        <ele>1075</ele>
        <time>2012-10-21T09:38:08Z</time>
      </trkpt>
      <trkpt lat="44.0749" lon="7.5856">
        <ele>1077</ele>
        <time>2012-10-21T09:38:14Z</time>
      </trkpt>
      <trkpt lat="44.07489" lon="7.58553">
        <ele>1079</ele>
        <time>2012-10-21T09:38:19Z</time>
      </trkpt>
      <trkpt lat="44.07487" lon="7.58542">
        <ele>1083</ele>
        <time>2012-10-21T09:38:28Z</time>
      </trkpt>
      <trkpt lat="44.07487" lon="7.58538">
        <ele>1084</ele>
        <time>2012-10-21T09:38:34Z</time>
      </trkpt>
      <trkpt lat="44.07487" lon="7.58529">
        <ele>1084</ele>
        <time>2012-10-21T09:38:39Z</time>
      </trkpt>
      <trkpt lat="44.07487" lon="7.58518">
        <ele>1084</ele>
        <time>2012-10-21T09:38:45Z</time>
      </trkpt>
      <trkpt lat="44.07487" lon="7.58508">
        <ele>1085</ele>
        <time>2012-10-21T09:38:50Z</time>
      </trkpt>
      <trkpt lat="44.07488" lon="7.58498">
        <ele>1086</ele>
        <time>2012-10-21T09:38:55Z</time>
      </trkpt>
      <trkpt lat="44.07489" lon="7.58487">
        <ele>1086</ele>
        <time>2012-10-21T09:39:01Z</time>
      </trkpt>
      <trkpt lat="44.0749" lon="7.58476">
        <ele>1086</ele>
        <time>2012-10-21T09:39:06Z</time>
      </trkpt>
      <trkpt lat="44.07491" lon="7.58467">
        <ele>1086</ele>
        <time>2012-10-21T09:39:11Z</time>
      </trkpt>
      <trkpt lat="44.0749" lon="7.58456">
        <ele>1086</ele>
        <time>2012-10-21T09:39:17Z</time>
      </trkpt>
      <trkpt lat="44.07489" lon="7.58446">
        <ele>1088</ele>
        <time>2012-10-21T09:39:23Z</time>
      </trkpt>
      <trkpt lat="44.07491" lon="7.58437">
        <ele>1089</ele>
        <time>2012-10-21T09:39:28Z</time>
      </trkpt>
      <trkpt lat="44.07497" lon="7.58438">
        <ele>1089</ele>
        <time>2012-10-21T09:39:34Z</time>
      </trkpt>
      <trkpt lat="44.07499" lon="7.58446">
        <ele>1089</ele>
        <time>2012-10-21T09:39:39Z</time>
      </trkpt>
      <trkpt lat="44.075" lon="7.58456">
        <ele>1092</ele>
        <time>2012-10-21T09:39:44Z</time>
      </trkpt>
      <trkpt lat="44.07499" lon="7.58466">
        <ele>1092</ele>
        <time>2012-10-21T09:39:50Z</time>
      </trkpt>
      <trkpt lat="44.07499" lon="7.58476">
        <ele>1092</ele>
        <time>2012-10-21T09:39:55Z</time>
      </trkpt>
      <trkpt lat="44.07499" lon="7.58487">
        <ele>1092</ele>
        <time>2012-10-21T09:40:00Z</time>
      </trkpt>
      <trkpt lat="44.07499" lon="7.58493">
        <ele>1093</ele>
        <time>2012-10-21T09:40:05Z</time>
      </trkpt>
      <trkpt lat="44.07498" lon="7.58503">
        <ele>1093</ele>
        <time>2012-10-21T09:40:10Z</time>
      </trkpt>
      <trkpt lat="44.07503" lon="7.58509">
        <ele>1095</ele>
        <time>2012-10-21T09:40:16Z</time>
      </trkpt>
      <trkpt lat="44.07505" lon="7.58499">
        <ele>1096</ele>
        <time>2012-10-21T09:40:22Z</time>
      </trkpt>
      <trkpt lat="44.07505" lon="7.58489">
        <ele>1096</ele>
        <time>2012-10-21T09:40:27Z</time>
      </trkpt>
      <trkpt lat="44.07505" lon="7.58482">
        <ele>1096</ele>
        <time>2012-10-21T09:40:32Z</time>
      </trkpt>
      <trkpt lat="44.07506" lon="7.58474">
        <ele>1096</ele>
        <time>2012-10-21T09:40:38Z</time>
      </trkpt>
      <trkpt lat="44.07507" lon="7.58466">
        <ele>1096</ele>
        <time>2012-10-21T09:40:43Z</time>
      </trkpt>
      <trkpt lat="44.07509" lon="7.58454">
        <ele>1096</ele>
        <time>2012-10-21T09:40:49Z</time>
      </trkpt>
      <trkpt lat="44.07509" lon="7.58444">
        <ele>1097</ele>
        <time>2012-10-21T09:40:54Z</time>
      </trkpt>
      <trkpt lat="44.07508" lon="7.58436">
        <ele>1101</ele>
        <time>2012-10-21T09:41:00Z</time>
      </trkpt>
      <trkpt lat="44.07508" lon="7.58427">
        <ele>1103</ele>
        <time>2012-10-21T09:41:05Z</time>
      </trkpt>
      <trkpt lat="44.07509" lon="7.58415">
        <ele>1103</ele>
        <time>2012-10-21T09:41:11Z</time>
      </trkpt>
      <trkpt lat="44.0751" lon="7.58405">
        <ele>1103</ele>
        <time>2012-10-21T09:41:17Z</time>
      </trkpt>
      <trkpt lat="44.0751" lon="7.58394">
        <ele>1103</ele>
        <time>2012-10-21T09:41:22Z</time>
      </trkpt>
      <trkpt lat="44.07505" lon="7.58382">
        <ele>1103</ele>
        <time>2012-10-21T09:41:28Z</time>
      </trkpt>
      <trkpt lat="44.07501" lon="7.58378">
        <ele>1103</ele>
        <time>2012-10-21T09:41:34Z</time>
      </trkpt>
      <trkpt lat="44.07494" lon="7.58372">
        <ele>1104</ele>
        <time>2012-10-21T09:41:39Z</time>
      </trkpt>
      <trkpt lat="44.07489" lon="7.58365">
        <ele>1105</ele>
        <time>2012-10-21T09:41:45Z</time>
      </trkpt>
      <trkpt lat="44.07485" lon="7.58357">
        <ele>1106</ele>
        <time>2012-10-21T09:41:50Z</time>
      </trkpt>
      <trkpt lat="44.07482" lon="7.58348">
        <ele>1106</ele>
        <time>2012-10-21T09:41:56Z</time>
      </trkpt>
      <trkpt lat="44.07479" lon="7.58338">
        <ele>1106</ele>
        <time>2012-10-21T09:42:02Z</time>
      </trkpt>
      <trkpt lat="44.07477" lon="7.58327">
        <ele>1106</ele>
        <time>2012-10-21T09:42:08Z</time>
      </trkpt>
      <trkpt lat="44.07474" lon="7.58319">
        <ele>1108</ele>
        <time>2012-10-21T09:42:14Z</time>
      </trkpt>
      <trkpt lat="44.07468" lon="7.58315">
        <ele>1109</ele>
        <time>2012-10-21T09:42:19Z</time>
      </trkpt>
      <trkpt lat="44.07463" lon="7.58317">
        <ele>1110</ele>
        <time>2012-10-21T09:42:24Z</time>
      </trkpt>
      <trkpt lat="44.07457" lon="7.5832">
        <ele>1113</ele>
        <time>2012-10-21T09:42:29Z</time>
      </trkpt>
      <trkpt lat="44.07449" lon="7.58321">
        <ele>1114</ele>
        <time>2012-10-21T09:42:35Z</time>
      </trkpt>
      <trkpt lat="44.07443" lon="7.5832">
        <ele>1114</ele>
        <time>2012-10-21T09:42:40Z</time>
      </trkpt>
      <trkpt lat="44.07435" lon="7.58319">
        <ele>1114</ele>
        <time>2012-10-21T09:42:46Z</time>
      </trkpt>
      <trkpt lat="44.07428" lon="7.58316">
        <ele>1115</ele>
        <time>2012-10-21T09:42:51Z</time>
      </trkpt>
      <trkpt lat="44.07423" lon="7.58313">
        <ele>1115</ele>
        <time>2012-10-21T09:42:56Z</time>
      </trkpt>
      <trkpt lat="44.07416" lon="7.5831">
        <ele>1115</ele>
        <time>2012-10-21T09:43:01Z</time>
      </trkpt>
      <trkpt lat="44.0741" lon="7.58308">
        <ele>1115</ele>
        <time>2012-10-21T09:43:06Z</time>
      </trkpt>
      <trkpt lat="44.07402" lon="7.58304">
        <ele>1116</ele>
        <time>2012-10-21T09:43:13Z</time>
      </trkpt>
      <trkpt lat="44.07397" lon="7.583">
        <ele>1116</ele>
        <time>2012-10-21T09:43:18Z</time>
      </trkpt>
      <trkpt lat="44.07389" lon="7.58297">
        <ele>1117</ele>
        <time>2012-10-21T09:43:24Z</time>
      </trkpt>
      <trkpt lat="44.07384" lon="7.58294">
        <ele>1119</ele>
        <time>2012-10-21T09:43:29Z</time>
      </trkpt>
      <trkpt lat="44.07378" lon="7.58291">
        <ele>1119</ele>
        <time>2012-10-21T09:43:34Z</time>
      </trkpt>
      <trkpt lat="44.07373" lon="7.58287">
        <ele>1120</ele>
        <time>2012-10-21T09:43:40Z</time>
      </trkpt>
      <trkpt lat="44.07367" lon="7.58283">
        <ele>1120</ele>
        <time>2012-10-21T09:43:45Z</time>
      </trkpt>
      <trkpt lat="44.07361" lon="7.58281">
        <ele>1120</ele>
        <time>2012-10-21T09:43:51Z</time>
      </trkpt>
      <trkpt lat="44.07358" lon="7.58275">
        <ele>1120</ele>
        <time>2012-10-21T09:43:56Z</time>
      </trkpt>
      <trkpt lat="44.07361" lon="7.58272">
        <ele>1120</ele>
        <time>2012-10-21T09:44:01Z</time>
      </trkpt>
      <trkpt lat="44.07366" lon="7.58275">
        <ele>1120</ele>
        <time>2012-10-21T09:44:07Z</time>
      </trkpt>
      <trkpt lat="44.07372" lon="7.58277">
        <ele>1120</ele>
        <time>2012-10-21T09:44:12Z</time>
      </trkpt>
      <trkpt lat="44.07379" lon="7.5828">
        <ele>1122</ele>
        <time>2012-10-21T09:44:17Z</time>
      </trkpt>
      <trkpt lat="44.07385" lon="7.58281">
        <ele>1124</ele>
        <time>2012-10-21T09:44:22Z</time>
      </trkpt>
      <trkpt lat="44.07392" lon="7.58283">
        <ele>1125</ele>
        <time>2012-10-21T09:44:28Z</time>
      </trkpt>
      <trkpt lat="44.07399" lon="7.58286">
        <ele>1126</ele>
        <time>2012-10-21T09:44:34Z</time>
      </trkpt>
      <trkpt lat="44.07407" lon="7.58286">
        <ele>1126</ele>
        <time>2012-10-21T09:44:41Z</time>
      </trkpt>
      <trkpt lat="44.07416" lon="7.58286">
        <ele>1126</ele>
        <time>2012-10-21T09:44:48Z</time>
      </trkpt>
      <trkpt lat="44.07423" lon="7.58287">
        <ele>1127</ele>
        <time>2012-10-21T09:44:54Z</time>
      </trkpt>
      <trkpt lat="44.07429" lon="7.58286">
        <ele>1127</ele>
        <time>2012-10-21T09:44:59Z</time>
      </trkpt>
      <trkpt lat="44.07436" lon="7.58285">
        <ele>1129</ele>
        <time>2012-10-21T09:45:05Z</time>
      </trkpt>
      <trkpt lat="44.07442" lon="7.58285">
        <ele>1130</ele>
        <time>2012-10-21T09:45:10Z</time>
      </trkpt>
      <trkpt lat="44.07449" lon="7.58283">
        <ele>1130</ele>
        <time>2012-10-21T09:45:16Z</time>
      </trkpt>
      <trkpt lat="44.07456" lon="7.58283">
        <ele>1131</ele>
        <time>2012-10-21T09:45:21Z</time>
      </trkpt>
      <trkpt lat="44.07461" lon="7.58282">
        <ele>1131</ele>
        <time>2012-10-21T09:45:26Z</time>
      </trkpt>
      <trkpt lat="44.07464" lon="7.58274">
        <ele>1133</ele>
        <time>2012-10-21T09:45:32Z</time>
      </trkpt>
      <trkpt lat="44.07459" lon="7.58272">
        <ele>1133</ele>
        <time>2012-10-21T09:45:37Z</time>
      </trkpt>
      <trkpt lat="44.07453" lon="7.58275">
        <ele>1135</ele>
        <time>2012-10-21T09:45:42Z</time>
      </trkpt>
      <trkpt lat="44.07446" lon="7.58275">
        <ele>1137</ele>
        <time>2012-10-21T09:45:48Z</time>
      </trkpt>
      <trkpt lat="44.07441" lon="7.58274">
        <ele>1137</ele>
        <time>2012-10-21T09:45:54Z</time>
      </trkpt>
      <trkpt lat="44.07433" lon="7.58272">
        <ele>1137</ele>
        <time>2012-10-21T09:46:00Z</time>
      </trkpt>
      <trkpt lat="44.07428" lon="7.58269">
        <ele>1137</ele>
        <time>2012-10-21T09:46:05Z</time>
      </trkpt>
      <trkpt lat="44.07421" lon="7.58265">
        <ele>1137</ele>
        <time>2012-10-21T09:46:10Z</time>
      </trkpt>
      <trkpt lat="44.07414" lon="7.5826">
        <ele>1138</ele>
        <time>2012-10-21T09:46:16Z</time>
      </trkpt>
      <trkpt lat="44.07409" lon="7.58256">
        <ele>1138</ele>
        <time>2012-10-21T09:46:22Z</time>
      </trkpt>
      <trkpt lat="44.07402" lon="7.58252">
        <ele>1139</ele>
        <time>2012-10-21T09:46:28Z</time>
      </trkpt>
      <trkpt lat="44.07398" lon="7.58249">
        <ele>1140</ele>
        <time>2012-10-21T09:46:33Z</time>
      </trkpt>
      <trkpt lat="44.07392" lon="7.58246">
        <ele>1140</ele>
        <time>2012-10-21T09:46:38Z</time>
      </trkpt>
      <trkpt lat="44.07387" lon="7.58246">
        <ele>1143</ele>
        <time>2012-10-21T09:46:47Z</time>
      </trkpt>
      <trkpt lat="44.07383" lon="7.58247">
        <ele>1145</ele>
        <time>2012-10-21T09:46:53Z</time>
      </trkpt>
      <trkpt lat="44.07378" lon="7.58241">
        <ele>1146</ele>
        <time>2012-10-21T09:46:59Z</time>
      </trkpt>
      <trkpt lat="44.07372" lon="7.58238">
        <ele>1146</ele>
        <time>2012-10-21T09:47:05Z</time>
      </trkpt>
      <trkpt lat="44.07365" lon="7.58236">
        <ele>1146</ele>
        <time>2012-10-21T09:47:11Z</time>
      </trkpt>
      <trkpt lat="44.07359" lon="7.58235">
        <ele>1147</ele>
        <time>2012-10-21T09:47:16Z</time>
      </trkpt>
      <trkpt lat="44.07354" lon="7.58234">
        <ele>1148</ele>
        <time>2012-10-21T09:47:21Z</time>
      </trkpt>
      <trkpt lat="44.07347" lon="7.58231">
        <ele>1149</ele>
        <time>2012-10-21T09:47:26Z</time>
      </trkpt>
      <trkpt lat="44.0734" lon="7.58228">
        <ele>1151</ele>
        <time>2012-10-21T09:47:31Z</time>
      </trkpt>
      <trkpt lat="44.07333" lon="7.58223">
        <ele>1153</ele>
        <time>2012-10-21T09:47:36Z</time>
      </trkpt>
      <trkpt lat="44.07325" lon="7.58217">
        <ele>1154</ele>
        <time>2012-10-21T09:47:41Z</time>
      </trkpt>
      <trkpt lat="44.07315" lon="7.58216">
        <ele>1155</ele>
        <time>2012-10-21T09:47:46Z</time>
      </trkpt>
      <trkpt lat="44.07303" lon="7.58217">
        <ele>1155</ele>
        <time>2012-10-21T09:47:51Z</time>
      </trkpt>
      <trkpt lat="44.0729" lon="7.58225">
        <ele>1157</ele>
        <time>2012-10-21T09:47:57Z</time>
      </trkpt>
      <trkpt lat="44.07274" lon="7.58229">
        <ele>1158</ele>
        <time>2012-10-21T09:48:03Z</time>
      </trkpt>
      <trkpt lat="44.07262" lon="7.58232">
        <ele>1158</ele>
        <time>2012-10-21T09:48:08Z</time>
      </trkpt>
      <trkpt lat="44.07249" lon="7.58239">
        <ele>1159</ele>
        <time>2012-10-21T09:48:13Z</time>
      </trkpt>
      <trkpt lat="44.07233" lon="7.5824">
        <ele>1159</ele>
        <time>2012-10-21T09:48:18Z</time>
      </trkpt>
      <trkpt lat="44.07215" lon="7.58236">
        <ele>1159</ele>
        <time>2012-10-21T09:48:24Z</time>
      </trkpt>
      <trkpt lat="44.07198" lon="7.58226">
        <ele>1159</ele>
        <time>2012-10-21T09:48:30Z</time>
      </trkpt>
      <trkpt lat="44.07185" lon="7.58214">
        <ele>1159</ele>
        <time>2012-10-21T09:48:36Z</time>
      </trkpt>
      <trkpt lat="44.07173" lon="7.58203">
        <ele>1159</ele>
        <time>2012-10-21T09:48:42Z</time>
      </trkpt>
      <trkpt lat="44.07165" lon="7.58195">
        <ele>1159</ele>
        <time>2012-10-21T09:48:47Z</time>
      </trkpt>
      <trkpt lat="44.07156" lon="7.58189">
        <ele>1159</ele>
        <time>2012-10-21T09:48:52Z</time>
      </trkpt>
      <trkpt lat="44.07147" lon="7.58182">
        <ele>1159</ele>
        <time>2012-10-21T09:48:58Z</time>
      </trkpt>
      <trkpt lat="44.07141" lon="7.58181">
        <ele>1161</ele>
        <time>2012-10-21T09:49:03Z</time>
      </trkpt>
      <trkpt lat="44.07133" lon="7.58174">
        <ele>1163</ele>
        <time>2012-10-21T09:49:08Z</time>
      </trkpt>
      <trkpt lat="44.07124" lon="7.58165">
        <ele>1163</ele>
        <time>2012-10-21T09:49:14Z</time>
      </trkpt>
      <trkpt lat="44.07117" lon="7.58157">
        <ele>1163</ele>
        <time>2012-10-21T09:49:19Z</time>
      </trkpt>
      <trkpt lat="44.0711" lon="7.5815">
        <ele>1163</ele>
        <time>2012-10-21T09:49:24Z</time>
      </trkpt>
      <trkpt lat="44.07102" lon="7.58139">
        <ele>1163</ele>
        <time>2012-10-21T09:49:30Z</time>
      </trkpt>
      <trkpt lat="44.07095" lon="7.58132">
        <ele>1163</ele>
        <time>2012-10-21T09:49:35Z</time>
      </trkpt>
      <trkpt lat="44.07089" lon="7.58124">
        <ele>1163</ele>
        <time>2012-10-21T09:49:40Z</time>
      </trkpt>
      <trkpt lat="44.07084" lon="7.58117">
        <ele>1164</ele>
        <time>2012-10-21T09:49:45Z</time>
      </trkpt>
      <trkpt lat="44.07079" lon="7.5811">
        <ele>1164</ele>
        <time>2012-10-21T09:49:51Z</time>
      </trkpt>
      <trkpt lat="44.07077" lon="7.58102">
        <ele>1164</ele>
        <time>2012-10-21T09:49:56Z</time>
      </trkpt>
      <trkpt lat="44.07074" lon="7.5809">
        <ele>1164</ele>
        <time>2012-10-21T09:50:02Z</time>
      </trkpt>
      <trkpt lat="44.07072" lon="7.58082">
        <ele>1164</ele>
        <time>2012-10-21T09:50:07Z</time>
      </trkpt>
      <trkpt lat="44.07071" lon="7.58074">
        <ele>1164</ele>
        <time>2012-10-21T09:50:12Z</time>
      </trkpt>
      <trkpt lat="44.0707" lon="7.58066">
        <ele>1165</ele>
        <time>2012-10-21T09:50:17Z</time>
      </trkpt>
      <trkpt lat="44.07069" lon="7.58057">
        <ele>1166</ele>
        <time>2012-10-21T09:50:22Z</time>
      </trkpt>
      <trkpt lat="44.07067" lon="7.58048">
        <ele>1167</ele>
        <time>2012-10-21T09:50:27Z</time>
      </trkpt>
      <trkpt lat="44.07066" lon="7.58041">
        <ele>1168</ele>
        <time>2012-10-21T09:50:33Z</time>
      </trkpt>
      <trkpt lat="44.07065" lon="7.58032">
        <ele>1169</ele>
        <time>2012-10-21T09:50:38Z</time>
      </trkpt>
      <trkpt lat="44.07064" lon="7.58022">
        <ele>1170</ele>
        <time>2012-10-21T09:50:43Z</time>
      </trkpt>
      <trkpt lat="44.07062" lon="7.58012">
        <ele>1171</ele>
        <time>2012-10-21T09:50:48Z</time>
      </trkpt>
      <trkpt lat="44.0706" lon="7.58001">
        <ele>1172</ele>
        <time>2012-10-21T09:50:53Z</time>
      </trkpt>
      <trkpt lat="44.07059" lon="7.5799">
        <ele>1172</ele>
        <time>2012-10-21T09:50:58Z</time>
      </trkpt>
      <trkpt lat="44.07057" lon="7.57979">
        <ele>1173</ele>
        <time>2012-10-21T09:51:03Z</time>
      </trkpt>
      <trkpt lat="44.07056" lon="7.57968">
        <ele>1173</ele>
        <time>2012-10-21T09:51:08Z</time>
      </trkpt>
      <trkpt lat="44.07055" lon="7.57955">
        <ele>1174</ele>
        <time>2012-10-21T09:51:13Z</time>
      </trkpt>
      <trkpt lat="44.07054" lon="7.57941">
        <ele>1175</ele>
        <time>2012-10-21T09:51:18Z</time>
      </trkpt>
      <trkpt lat="44.07053" lon="7.57921">
        <ele>1176</ele>
        <time>2012-10-21T09:51:24Z</time>
      </trkpt>
      <trkpt lat="44.0705" lon="7.57906">
        <ele>1176</ele>
        <time>2012-10-21T09:51:29Z</time>
      </trkpt>
      <trkpt lat="44.07049" lon="7.5789">
        <ele>1176</ele>
        <time>2012-10-21T09:51:34Z</time>
      </trkpt>
      <trkpt lat="44.07047" lon="7.57872">
        <ele>1176</ele>
        <time>2012-10-21T09:51:39Z</time>
      </trkpt>
      <trkpt lat="44.07046" lon="7.57854">
        <ele>1176</ele>
        <time>2012-10-21T09:51:44Z</time>
      </trkpt>
      <trkpt lat="44.07047" lon="7.57833">
        <ele>1176</ele>
        <time>2012-10-21T09:51:49Z</time>
      </trkpt>
      <trkpt lat="44.07052" lon="7.57811">
        <ele>1176</ele>
        <time>2012-10-21T09:51:54Z</time>
      </trkpt>
      <trkpt lat="44.07059" lon="7.57792">
        <ele>1176</ele>
        <time>2012-10-21T09:51:59Z</time>
      </trkpt>
      <trkpt lat="44.07071" lon="7.5777">
        <ele>1176</ele>
        <time>2012-10-21T09:52:05Z</time>
      </trkpt>
      <trkpt lat="44.07082" lon="7.57753">
        <ele>1176</ele>
        <time>2012-10-21T09:52:10Z</time>
      </trkpt>
      <trkpt lat="44.07092" lon="7.57739">
        <ele>1176</ele>
        <time>2012-10-21T09:52:15Z</time>
      </trkpt>
      <trkpt lat="44.07104" lon="7.57729">
        <ele>1177</ele>
        <time>2012-10-21T09:52:20Z</time>
      </trkpt>
      <trkpt lat="44.07117" lon="7.57727">
        <ele>1177</ele>
        <time>2012-10-21T09:52:25Z</time>
      </trkpt>
      <trkpt lat="44.07131" lon="7.57727">
        <ele>1178</ele>
        <time>2012-10-21T09:52:30Z</time>
      </trkpt>
      <trkpt lat="44.07141" lon="7.57725">
        <ele>1179</ele>
        <time>2012-10-21T09:52:35Z</time>
      </trkpt>
      <trkpt lat="44.07153" lon="7.5772">
        <ele>1182</ele>
        <time>2012-10-21T09:52:40Z</time>
      </trkpt>
      <trkpt lat="44.07163" lon="7.57707">
        <ele>1185</ele>
        <time>2012-10-21T09:52:45Z</time>
      </trkpt>
      <trkpt lat="44.07171" lon="7.57693">
        <ele>1186</ele>
        <time>2012-10-21T09:52:50Z</time>
      </trkpt>
      <trkpt lat="44.07179" lon="7.57678">
        <ele>1186</ele>
        <time>2012-10-21T09:52:55Z</time>
      </trkpt>
      <trkpt lat="44.07183" lon="7.57662">
        <ele>1186</ele>
        <time>2012-10-21T09:53:00Z</time>
      </trkpt>
      <trkpt lat="44.0717" lon="7.57644">
        <ele>1186</ele>
        <time>2012-10-21T09:53:05Z</time>
      </trkpt>
      <trkpt lat="44.07157" lon="7.57645">
        <ele>1185</ele>
        <time>2012-10-21T09:53:10Z</time>
      </trkpt>
      <trkpt lat="44.07153" lon="7.57649">
        <ele>1185</ele>
        <time>2012-10-21T09:53:16Z</time>
      </trkpt>
      <trkpt lat="44.07145" lon="7.57652">
        <ele>1185</ele>
        <time>2012-10-21T09:53:22Z</time>
      </trkpt>
      <trkpt lat="44.07139" lon="7.57651">
        <ele>1185</ele>
        <time>2012-10-21T09:53:27Z</time>
      </trkpt>
      <trkpt lat="44.07132" lon="7.57649">
        <ele>1186</ele>
        <time>2012-10-21T09:53:32Z</time>
      </trkpt>
      <trkpt lat="44.07126" lon="7.57648">
        <ele>1187</ele>
        <time>2012-10-21T09:53:37Z</time>
      </trkpt>
      <trkpt lat="44.07119" lon="7.57646">
        <ele>1188</ele>
        <time>2012-10-21T09:53:42Z</time>
      </trkpt>
      <trkpt lat="44.07113" lon="7.57643">
        <ele>1189</ele>
        <time>2012-10-21T09:53:47Z</time>
      </trkpt>
      <trkpt lat="44.07106" lon="7.57641">
        <ele>1189</ele>
        <time>2012-10-21T09:53:52Z</time>
      </trkpt>
      <trkpt lat="44.07099" lon="7.57639">
        <ele>1190</ele>
        <time>2012-10-21T09:53:57Z</time>
      </trkpt>
      <trkpt lat="44.07092" lon="7.57638">
        <ele>1191</ele>
        <time>2012-10-21T09:54:02Z</time>
      </trkpt>
      <trkpt lat="44.07085" lon="7.57639">
        <ele>1193</ele>
        <time>2012-10-21T09:54:07Z</time>
      </trkpt>
      <trkpt lat="44.07078" lon="7.57638">
        <ele>1194</ele>
        <time>2012-10-21T09:54:12Z</time>
      </trkpt>
      <trkpt lat="44.0707" lon="7.57639">
        <ele>1194</ele>
        <time>2012-10-21T09:54:18Z</time>
      </trkpt>
      <trkpt lat="44.07063" lon="7.57644">
        <ele>1197</ele>
        <time>2012-10-21T09:54:23Z</time>
      </trkpt>
      <trkpt lat="44.07056" lon="7.57648">
        <ele>1200</ele>
        <time>2012-10-21T09:54:28Z</time>
      </trkpt>
      <trkpt lat="44.0705" lon="7.57648">
        <ele>1203</ele>
        <time>2012-10-21T09:54:33Z</time>
      </trkpt>
      <trkpt lat="44.07042" lon="7.57649">
        <ele>1203</ele>
        <time>2012-10-21T09:54:39Z</time>
      </trkpt>
      <trkpt lat="44.07036" lon="7.57651">
        <ele>1204</ele>
        <time>2012-10-21T09:54:44Z</time>
      </trkpt>
      <trkpt lat="44.0703" lon="7.57649">
        <ele>1204</ele>
        <time>2012-10-21T09:54:49Z</time>
      </trkpt>
      <trkpt lat="44.07024" lon="7.5765">
        <ele>1204</ele>
        <time>2012-10-21T09:54:54Z</time>
      </trkpt>
      <trkpt lat="44.07016" lon="7.57653">
        <ele>1204</ele>
        <time>2012-10-21T09:55:00Z</time>
      </trkpt>
      <trkpt lat="44.07011" lon="7.57653">
        <ele>1204</ele>
        <time>2012-10-21T09:55:05Z</time>
      </trkpt>
      <trkpt lat="44.07005" lon="7.57653">
        <ele>1204</ele>
        <time>2012-10-21T09:55:10Z</time>
      </trkpt>
      <trkpt lat="44.06999" lon="7.57653">
        <ele>1204</ele>
        <time>2012-10-21T09:55:15Z</time>
      </trkpt>
      <trkpt lat="44.06991" lon="7.57649">
        <ele>1204</ele>
        <time>2012-10-21T09:55:21Z</time>
      </trkpt>
      <trkpt lat="44.06984" lon="7.57646">
        <ele>1204</ele>
        <time>2012-10-21T09:55:26Z</time>
      </trkpt>
      <trkpt lat="44.06977" lon="7.57639">
        <ele>1204</ele>
        <time>2012-10-21T09:55:32Z</time>
      </trkpt>
      <trkpt lat="44.06973" lon="7.57632">
        <ele>1204</ele>
        <time>2012-10-21T09:55:37Z</time>
      </trkpt>
      <trkpt lat="44.06967" lon="7.57625">
        <ele>1204</ele>
        <time>2012-10-21T09:55:43Z</time>
      </trkpt>
      <trkpt lat="44.06961" lon="7.5762">
        <ele>1204</ele>
        <time>2012-10-21T09:55:49Z</time>
      </trkpt>
      <trkpt lat="44.06954" lon="7.57619">
        <ele>1204</ele>
        <time>2012-10-21T09:55:54Z</time>
      </trkpt>
      <trkpt lat="44.06948" lon="7.57621">
        <ele>1204</ele>
        <time>2012-10-21T09:55:59Z</time>
      </trkpt>
      <trkpt lat="44.06944" lon="7.57628">
        <ele>1204</ele>
        <time>2012-10-21T09:56:04Z</time>
      </trkpt>
      <trkpt lat="44.0694" lon="7.57637">
        <ele>1204</ele>
        <time>2012-10-21T09:56:09Z</time>
      </trkpt>
      <trkpt lat="44.06934" lon="7.57646">
        <ele>1204</ele>
        <time>2012-10-21T09:56:15Z</time>
      </trkpt>
      <trkpt lat="44.06927" lon="7.57654">
        <ele>1204</ele>
        <time>2012-10-21T09:56:20Z</time>
      </trkpt>
      <trkpt lat="44.06921" lon="7.5766">
        <ele>1204</ele>
        <time>2012-10-21T09:56:25Z</time>
      </trkpt>
      <trkpt lat="44.06915" lon="7.57668">
        <ele>1204</ele>
        <time>2012-10-21T09:56:30Z</time>
      </trkpt>
      <trkpt lat="44.0691" lon="7.57673">
        <ele>1207</ele>
        <time>2012-10-21T09:56:35Z</time>
      </trkpt>
      <trkpt lat="44.06905" lon="7.57679">
        <ele>1207</ele>
        <time>2012-10-21T09:56:41Z</time>
      </trkpt>
      <trkpt lat="44.06899" lon="7.57688">
        <ele>1209</ele>
        <time>2012-10-21T09:56:46Z</time>
      </trkpt>
      <trkpt lat="44.06893" lon="7.57693">
        <ele>1212</ele>
        <time>2012-10-21T09:56:52Z</time>
      </trkpt>
      <trkpt lat="44.06888" lon="7.57698">
        <ele>1212</ele>
        <time>2012-10-21T09:56:58Z</time>
      </trkpt>
      <trkpt lat="44.06884" lon="7.57704">
        <ele>1212</ele>
        <time>2012-10-21T09:57:03Z</time>
      </trkpt>
      <trkpt lat="44.06878" lon="7.57709">
        <ele>1212</ele>
        <time>2012-10-21T09:57:09Z</time>
      </trkpt>
      <trkpt lat="44.06874" lon="7.57716">
        <ele>1212</ele>
        <time>2012-10-21T09:57:14Z</time>
      </trkpt>
      <trkpt lat="44.06867" lon="7.57724">
        <ele>1213</ele>
        <time>2012-10-21T09:57:20Z</time>
      </trkpt>
      <trkpt lat="44.06862" lon="7.57727">
        <ele>1214</ele>
        <time>2012-10-21T09:57:25Z</time>
      </trkpt>
      <trkpt lat="44.06855" lon="7.5773">
        <ele>1215</ele>
        <time>2012-10-21T09:57:31Z</time>
      </trkpt>
      <trkpt lat="44.06849" lon="7.57732">
        <ele>1215</ele>
        <time>2012-10-21T09:57:37Z</time>
      </trkpt>
      <trkpt lat="44.06843" lon="7.57735">
        <ele>1217</ele>
        <time>2012-10-21T09:57:43Z</time>
      </trkpt>
      <trkpt lat="44.06835" lon="7.5774">
        <ele>1218</ele>
        <time>2012-10-21T09:57:48Z</time>
      </trkpt>
      <trkpt lat="44.06829" lon="7.57742">
        <ele>1218</ele>
        <time>2012-10-21T09:57:53Z</time>
      </trkpt>
      <trkpt lat="44.06823" lon="7.5774">
        <ele>1218</ele>
        <time>2012-10-21T09:57:58Z</time>
      </trkpt>
      <trkpt lat="44.06815" lon="7.57741">
        <ele>1220</ele>
        <time>2012-10-21T09:58:05Z</time>
      </trkpt>
      <trkpt lat="44.0681" lon="7.57743">
        <ele>1222</ele>
        <time>2012-10-21T09:58:10Z</time>
      </trkpt>
      <trkpt lat="44.06802" lon="7.57748">
        <ele>1223</ele>
        <time>2012-10-21T09:58:15Z</time>
      </trkpt>
      <trkpt lat="44.06796" lon="7.57754">
        <ele>1223</ele>
        <time>2012-10-21T09:58:20Z</time>
      </trkpt>
      <trkpt lat="44.0679" lon="7.5776">
        <ele>1223</ele>
        <time>2012-10-21T09:58:25Z</time>
      </trkpt>
      <trkpt lat="44.06784" lon="7.57767">
        <ele>1223</ele>
        <time>2012-10-21T09:58:30Z</time>
      </trkpt>
      <trkpt lat="44.06779" lon="7.57773">
        <ele>1223</ele>
        <time>2012-10-21T09:58:36Z</time>
      </trkpt>
      <trkpt lat="44.06773" lon="7.57778">
        <ele>1223</ele>
        <time>2012-10-21T09:58:42Z</time>
      </trkpt>
      <trkpt lat="44.06768" lon="7.57785">
        <ele>1223</ele>
        <time>2012-10-21T09:58:47Z</time>
      </trkpt>
      <trkpt lat="44.06763" lon="7.57791">
        <ele>1224</ele>
        <time>2012-10-21T09:58:53Z</time>
      </trkpt>
      <trkpt lat="44.06757" lon="7.57797">
        <ele>1224</ele>
        <time>2012-10-21T09:58:59Z</time>
      </trkpt>
      <trkpt lat="44.06751" lon="7.57801">
        <ele>1224</ele>
        <time>2012-10-21T09:59:05Z</time>
      </trkpt>
      <trkpt lat="44.06743" lon="7.57808">
        <ele>1226</ele>
        <time>2012-10-21T09:59:11Z</time>
      </trkpt>
      <trkpt lat="44.06739" lon="7.57811">
        <ele>1226</ele>
        <time>2012-10-21T09:59:16Z</time>
      </trkpt>
      <trkpt lat="44.06733" lon="7.57814">
        <ele>1228</ele>
        <time>2012-10-21T09:59:22Z</time>
      </trkpt>
      <trkpt lat="44.06728" lon="7.57816">
        <ele>1229</ele>
        <time>2012-10-21T09:59:27Z</time>
      </trkpt>
      <trkpt lat="44.06722" lon="7.57818">
        <ele>1230</ele>
        <time>2012-10-21T09:59:33Z</time>
      </trkpt>
      <trkpt lat="44.06715" lon="7.57817">
        <ele>1230</ele>
        <time>2012-10-21T09:59:38Z</time>
      </trkpt>
      <trkpt lat="44.0671" lon="7.57812">
        <ele>1230</ele>
        <time>2012-10-21T09:59:44Z</time>
      </trkpt>
      <trkpt lat="44.06702" lon="7.57803">
        <ele>1230</ele>
        <time>2012-10-21T09:59:51Z</time>
      </trkpt>
      <trkpt lat="44.06698" lon="7.57795">
        <ele>1230</ele>
        <time>2012-10-21T09:59:57Z</time>
      </trkpt>
      <trkpt lat="44.06694" lon="7.57789">
        <ele>1231</ele>
        <time>2012-10-21T10:00:02Z</time>
      </trkpt>
      <trkpt lat="44.0669" lon="7.57782">
        <ele>1233</ele>
        <time>2012-10-21T10:00:08Z</time>
      </trkpt>
      <trkpt lat="44.06687" lon="7.57774">
        <ele>1234</ele>
        <time>2012-10-21T10:00:14Z</time>
      </trkpt>
      <trkpt lat="44.06684" lon="7.57767">
        <ele>1235</ele>
        <time>2012-10-21T10:00:19Z</time>
      </trkpt>
      <trkpt lat="44.06681" lon="7.5776">
        <ele>1236</ele>
        <time>2012-10-21T10:00:25Z</time>
      </trkpt>
      <trkpt lat="44.06678" lon="7.57752">
        <ele>1237</ele>
        <time>2012-10-21T10:00:31Z</time>
      </trkpt>
      <trkpt lat="44.06675" lon="7.57746">
        <ele>1237</ele>
        <time>2012-10-21T10:00:36Z</time>
      </trkpt>
      <trkpt lat="44.06672" lon="7.5774">
        <ele>1237</ele>
        <time>2012-10-21T10:00:41Z</time>
      </trkpt>
      <trkpt lat="44.06669" lon="7.57733">
        <ele>1237</ele>
        <time>2012-10-21T10:00:47Z</time>
      </trkpt>
      <trkpt lat="44.06665" lon="7.57726">
        <ele>1239</ele>
        <time>2012-10-21T10:00:53Z</time>
      </trkpt>
      <trkpt lat="44.06661" lon="7.57719">
        <ele>1240</ele>
        <time>2012-10-21T10:00:59Z</time>
      </trkpt>
      <trkpt lat="44.06657" lon="7.57712">
        <ele>1241</ele>
        <time>2012-10-21T10:01:05Z</time>
      </trkpt>
      <trkpt lat="44.06654" lon="7.57705">
        <ele>1241</ele>
        <time>2012-10-21T10:01:11Z</time>
      </trkpt>
      <trkpt lat="44.06651" lon="7.57699">
        <ele>1241</ele>
        <time>2012-10-21T10:01:17Z</time>
      </trkpt>
      <trkpt lat="44.06647" lon="7.57693">
        <ele>1241</ele>
        <time>2012-10-21T10:01:23Z</time>
      </trkpt>
      <trkpt lat="44.06643" lon="7.57687">
        <ele>1241</ele>
        <time>2012-10-21T10:01:29Z</time>
      </trkpt>
      <trkpt lat="44.06638" lon="7.57683">
        <ele>1241</ele>
        <time>2012-10-21T10:01:43Z</time>
      </trkpt>
      <trkpt lat="44.06632" lon="7.57679">
        <ele>1241</ele>
        <time>2012-10-21T10:01:49Z</time>
      </trkpt>
      <trkpt lat="44.06628" lon="7.57675">
        <ele>1241</ele>
        <time>2012-10-21T10:01:54Z</time>
      </trkpt>
      <trkpt lat="44.06622" lon="7.57672">
        <ele>1241</ele>
        <time>2012-10-21T10:02:00Z</time>
      </trkpt>
      <trkpt lat="44.06617" lon="7.57669">
        <ele>1241</ele>
        <time>2012-10-21T10:02:05Z</time>
      </trkpt>
      <trkpt lat="44.06611" lon="7.57668">
        <ele>1241</ele>
        <time>2012-10-21T10:02:11Z</time>
      </trkpt>
      <trkpt lat="44.06604" lon="7.57665">
        <ele>1242</ele>
        <time>2012-10-21T10:02:17Z</time>
      </trkpt>
      <trkpt lat="44.06599" lon="7.5766">
        <ele>1243</ele>
        <time>2012-10-21T10:02:23Z</time>
      </trkpt>
      <trkpt lat="44.06594" lon="7.57654">
        <ele>1243</ele>
        <time>2012-10-21T10:02:29Z</time>
      </trkpt>
      <trkpt lat="44.06588" lon="7.57648">
        <ele>1245</ele>
        <time>2012-10-21T10:02:35Z</time>
      </trkpt>
      <trkpt lat="44.06583" lon="7.57644">
        <ele>1246</ele>
        <time>2012-10-21T10:02:40Z</time>
      </trkpt>
      <trkpt lat="44.06577" lon="7.57638">
        <ele>1249</ele>
        <time>2012-10-21T10:02:46Z</time>
      </trkpt>
      <trkpt lat="44.06572" lon="7.57633">
        <ele>1250</ele>
        <time>2012-10-21T10:02:51Z</time>
      </trkpt>
      <trkpt lat="44.06571" lon="7.57632">
        <ele>1251</ele>
        <time>2012-10-21T10:02:58Z</time>
      </trkpt>
      <trkpt lat="44.06567" lon="7.57627">
        <ele>1252</ele>
        <time>2012-10-21T10:03:03Z</time>
      </trkpt>
      <trkpt lat="44.06566" lon="7.57619">
        <ele>1252</ele>
        <time>2012-10-21T10:03:08Z</time>
      </trkpt>
      <trkpt lat="44.06566" lon="7.5761">
        <ele>1253</ele>
        <time>2012-10-21T10:03:13Z</time>
      </trkpt>
      <trkpt lat="44.06564" lon="7.57604">
        <ele>1254</ele>
        <time>2012-10-21T10:03:18Z</time>
      </trkpt>
      <trkpt lat="44.06565" lon="7.57596">
        <ele>1256</ele>
        <time>2012-10-21T10:03:24Z</time>
      </trkpt>
      <trkpt lat="44.06566" lon="7.5759">
        <ele>1257</ele>
        <time>2012-10-21T10:03:38Z</time>
      </trkpt>
      <trkpt lat="44.06567" lon="7.57582">
        <ele>1257</ele>
        <time>2012-10-21T10:03:43Z</time>
      </trkpt>
      <trkpt lat="44.06569" lon="7.57576">
        <ele>1258</ele>
        <time>2012-10-21T10:03:48Z</time>
      </trkpt>
      <trkpt lat="44.0657" lon="7.57569">
        <ele>1258</ele>
        <time>2012-10-21T10:03:53Z</time>
      </trkpt>
      <trkpt lat="44.06573" lon="7.57563">
        <ele>1259</ele>
        <time>2012-10-21T10:03:58Z</time>
      </trkpt>
      <trkpt lat="44.06576" lon="7.57557">
        <ele>1259</ele>
        <time>2012-10-21T10:04:04Z</time>
      </trkpt>
      <trkpt lat="44.0658" lon="7.57552">
        <ele>1261</ele>
        <time>2012-10-21T10:04:10Z</time>
      </trkpt>
      <trkpt lat="44.06583" lon="7.57545">
        <ele>1262</ele>
        <time>2012-10-21T10:04:16Z</time>
      </trkpt>
      <trkpt lat="44.06585" lon="7.57538">
        <ele>1263</ele>
        <time>2012-10-21T10:04:22Z</time>
      </trkpt>
      <trkpt lat="44.06586" lon="7.57533">
        <ele>1265</ele>
        <time>2012-10-21T10:04:37Z</time>
      </trkpt>
      <trkpt lat="44.06588" lon="7.57526">
        <ele>1265</ele>
        <time>2012-10-21T10:04:43Z</time>
      </trkpt>
      <trkpt lat="44.0659" lon="7.5752">
        <ele>1265</ele>
        <time>2012-10-21T10:04:49Z</time>
      </trkpt>
      <trkpt lat="44.06593" lon="7.57513">
        <ele>1266</ele>
        <time>2012-10-21T10:04:55Z</time>
      </trkpt>
      <trkpt lat="44.06594" lon="7.57506">
        <ele>1266</ele>
        <time>2012-10-21T10:05:01Z</time>
      </trkpt>
      <trkpt lat="44.06595" lon="7.57497">
        <ele>1267</ele>
        <time>2012-10-21T10:05:07Z</time>
      </trkpt>
      <trkpt lat="44.06595" lon="7.5749">
        <ele>1267</ele>
        <time>2012-10-21T10:05:12Z</time>
      </trkpt>
      <trkpt lat="44.06594" lon="7.57481">
        <ele>1269</ele>
        <time>2012-10-21T10:05:18Z</time>
      </trkpt>
      <trkpt lat="44.06593" lon="7.57475">
        <ele>1271</ele>
        <time>2012-10-21T10:05:27Z</time>
      </trkpt>
      <trkpt lat="44.06593" lon="7.57469">
        <ele>1272</ele>
        <time>2012-10-21T10:05:33Z</time>
      </trkpt>
      <trkpt lat="44.06594" lon="7.5746">
        <ele>1272</ele>
        <time>2012-10-21T10:05:39Z</time>
      </trkpt>
      <trkpt lat="44.06596" lon="7.57453">
        <ele>1273</ele>
        <time>2012-10-21T10:05:45Z</time>
      </trkpt>
      <trkpt lat="44.06599" lon="7.57447">
        <ele>1273</ele>
        <time>2012-10-21T10:05:51Z</time>
      </trkpt>
      <trkpt lat="44.06602" lon="7.57439">
        <ele>1273</ele>
        <time>2012-10-21T10:05:57Z</time>
      </trkpt>
      <trkpt lat="44.06603" lon="7.57432">
        <ele>1274</ele>
        <time>2012-10-21T10:06:02Z</time>
      </trkpt>
      <trkpt lat="44.06603" lon="7.57426">
        <ele>1276</ele>
        <time>2012-10-21T10:06:07Z</time>
      </trkpt>
      <trkpt lat="44.06602" lon="7.57418">
        <ele>1277</ele>
        <time>2012-10-21T10:06:12Z</time>
      </trkpt>
      <trkpt lat="44.06602" lon="7.57411">
        <ele>1278</ele>
        <time>2012-10-21T10:06:17Z</time>
      </trkpt>
      <trkpt lat="44.06603" lon="7.57404">
        <ele>1279</ele>
        <time>2012-10-21T10:06:22Z</time>
      </trkpt>
      <trkpt lat="44.06604" lon="7.57397">
        <ele>1280</ele>
        <time>2012-10-21T10:06:27Z</time>
      </trkpt>
      <trkpt lat="44.06603" lon="7.57389">
        <ele>1282</ele>
        <time>2012-10-21T10:06:33Z</time>
      </trkpt>
      <trkpt lat="44.06601" lon="7.57381">
        <ele>1283</ele>
        <time>2012-10-21T10:06:38Z</time>
      </trkpt>
      <trkpt lat="44.06599" lon="7.57373">
        <ele>1283</ele>
        <time>2012-10-21T10:06:43Z</time>
      </trkpt>
      <trkpt lat="44.06595" lon="7.57366">
        <ele>1284</ele>
        <time>2012-10-21T10:06:48Z</time>
      </trkpt>
      <trkpt lat="44.06592" lon="7.57358">
        <ele>1284</ele>
        <time>2012-10-21T10:06:53Z</time>
      </trkpt>
      <trkpt lat="44.06588" lon="7.5735">
        <ele>1285</ele>
        <time>2012-10-21T10:06:59Z</time>
      </trkpt>
      <trkpt lat="44.06583" lon="7.57343">
        <ele>1286</ele>
        <time>2012-10-21T10:07:05Z</time>
      </trkpt>
      <trkpt lat="44.06577" lon="7.57337">
        <ele>1287</ele>
        <time>2012-10-21T10:07:11Z</time>
      </trkpt>
      <trkpt lat="44.06571" lon="7.57331">
        <ele>1288</ele>
        <time>2012-10-21T10:07:17Z</time>
      </trkpt>
      <trkpt lat="44.06566" lon="7.57325">
        <ele>1288</ele>
        <time>2012-10-21T10:07:22Z</time>
      </trkpt>
      <trkpt lat="44.06563" lon="7.57318">
        <ele>1288</ele>
        <time>2012-10-21T10:07:27Z</time>
      </trkpt>
      <trkpt lat="44.06561" lon="7.5731">
        <ele>1288</ele>
        <time>2012-10-21T10:07:32Z</time>
      </trkpt>
      <trkpt lat="44.06558" lon="7.57303">
        <ele>1289</ele>
        <time>2012-10-21T10:07:37Z</time>
      </trkpt>
      <trkpt lat="44.06557" lon="7.57295">
        <ele>1289</ele>
        <time>2012-10-21T10:07:42Z</time>
      </trkpt>
      <trkpt lat="44.06556" lon="7.57286">
        <ele>1290</ele>
        <time>2012-10-21T10:07:47Z</time>
      </trkpt>
      <trkpt lat="44.06557" lon="7.57277">
        <ele>1290</ele>
        <time>2012-10-21T10:07:52Z</time>
      </trkpt>
      <trkpt lat="44.06558" lon="7.57269">
        <ele>1291</ele>
        <time>2012-10-21T10:07:57Z</time>
      </trkpt>
      <trkpt lat="44.06559" lon="7.57262">
        <ele>1291</ele>
        <time>2012-10-21T10:08:02Z</time>
      </trkpt>
      <trkpt lat="44.06564" lon="7.57256">
        <ele>1292</ele>
        <time>2012-10-21T10:08:08Z</time>
      </trkpt>
      <trkpt lat="44.06568" lon="7.5725">
        <ele>1292</ele>
        <time>2012-10-21T10:08:14Z</time>
      </trkpt>
      <trkpt lat="44.06571" lon="7.57245">
        <ele>1293</ele>
        <time>2012-10-21T10:08:20Z</time>
      </trkpt>
      <trkpt lat="44.06575" lon="7.57238">
        <ele>1294</ele>
        <time>2012-10-21T10:08:26Z</time>
      </trkpt>
      <trkpt lat="44.06578" lon="7.57232">
        <ele>1294</ele>
        <time>2012-10-21T10:08:31Z</time>
      </trkpt>
      <trkpt lat="44.06581" lon="7.57225">
        <ele>1295</ele>
        <time>2012-10-21T10:08:37Z</time>
      </trkpt>
      <trkpt lat="44.06585" lon="7.57221">
        <ele>1296</ele>
        <time>2012-10-21T10:08:43Z</time>
      </trkpt>
      <trkpt lat="44.06589" lon="7.57215">
        <ele>1297</ele>
        <time>2012-10-21T10:08:49Z</time>
      </trkpt>
      <trkpt lat="44.06592" lon="7.57208">
        <ele>1297</ele>
        <time>2012-10-21T10:08:54Z</time>
      </trkpt>
      <trkpt lat="44.06595" lon="7.572">
        <ele>1297</ele>
        <time>2012-10-21T10:09:00Z</time>
      </trkpt>
      <trkpt lat="44.06596" lon="7.57192">
        <ele>1298</ele>
        <time>2012-10-21T10:09:05Z</time>
      </trkpt>
      <trkpt lat="44.06597" lon="7.57184">
        <ele>1299</ele>
        <time>2012-10-21T10:09:11Z</time>
      </trkpt>
      <trkpt lat="44.06599" lon="7.57176">
        <ele>1300</ele>
        <time>2012-10-21T10:09:16Z</time>
      </trkpt>
      <trkpt lat="44.06602" lon="7.57164">
        <ele>1300</ele>
        <time>2012-10-21T10:09:21Z</time>
      </trkpt>
      <trkpt lat="44.06606" lon="7.57153">
        <ele>1300</ele>
        <time>2012-10-21T10:09:26Z</time>
      </trkpt>
      <trkpt lat="44.06609" lon="7.57144">
        <ele>1301</ele>
        <time>2012-10-21T10:09:31Z</time>
      </trkpt>
      <trkpt lat="44.06612" lon="7.57133">
        <ele>1301</ele>
        <time>2012-10-21T10:09:36Z</time>
      </trkpt>
      <trkpt lat="44.06614" lon="7.5712">
        <ele>1302</ele>
        <time>2012-10-21T10:09:41Z</time>
      </trkpt>
      <trkpt lat="44.06618" lon="7.57097">
        <ele>1302</ele>
        <time>2012-10-21T10:09:46Z</time>
      </trkpt>
      <trkpt lat="44.06622" lon="7.57078">
        <ele>1302</ele>
        <time>2012-10-21T10:09:51Z</time>
      </trkpt>
      <trkpt lat="44.06625" lon="7.57055">
        <ele>1302</ele>
        <time>2012-10-21T10:09:56Z</time>
      </trkpt>
      <trkpt lat="44.06627" lon="7.57031">
        <ele>1302</ele>
        <time>2012-10-21T10:10:01Z</time>
      </trkpt>
      <trkpt lat="44.06629" lon="7.57011">
        <ele>1302</ele>
        <time>2012-10-21T10:10:06Z</time>
      </trkpt>
      <trkpt lat="44.06633" lon="7.56992">
        <ele>1302</ele>
        <time>2012-10-21T10:10:11Z</time>
      </trkpt>
      <trkpt lat="44.06638" lon="7.56973">
        <ele>1302</ele>
        <time>2012-10-21T10:10:16Z</time>
      </trkpt>
      <trkpt lat="44.06644" lon="7.56959">
        <ele>1303</ele>
        <time>2012-10-21T10:10:21Z</time>
      </trkpt>
      <trkpt lat="44.06651" lon="7.5695">
        <ele>1303</ele>
        <time>2012-10-21T10:10:26Z</time>
      </trkpt>
      <trkpt lat="44.06656" lon="7.56941">
        <ele>1303</ele>
        <time>2012-10-21T10:10:31Z</time>
      </trkpt>
      <trkpt lat="44.06659" lon="7.56933">
        <ele>1303</ele>
        <time>2012-10-21T10:10:36Z</time>
      </trkpt>
      <trkpt lat="44.0666" lon="7.56928">
        <ele>1303</ele>
        <time>2012-10-21T10:10:41Z</time>
      </trkpt>
      <trkpt lat="44.06662" lon="7.56921">
        <ele>1303</ele>
        <time>2012-10-21T10:10:47Z</time>
      </trkpt>
      <trkpt lat="44.06665" lon="7.56914">
        <ele>1303</ele>
        <time>2012-10-21T10:10:53Z</time>
      </trkpt>
      <trkpt lat="44.06667" lon="7.56908">
        <ele>1305</ele>
        <time>2012-10-21T10:10:59Z</time>
      </trkpt>
      <trkpt lat="44.06671" lon="7.56903">
        <ele>1307</ele>
        <time>2012-10-21T10:11:05Z</time>
      </trkpt>
      <trkpt lat="44.06673" lon="7.56897">
        <ele>1310</ele>
        <time>2012-10-21T10:11:10Z</time>
      </trkpt>
      <trkpt lat="44.06675" lon="7.56892">
        <ele>1311</ele>
        <time>2012-10-21T10:11:15Z</time>
      </trkpt>
      <trkpt lat="44.06676" lon="7.56887">
        <ele>1313</ele>
        <time>2012-10-21T10:11:20Z</time>
      </trkpt>
      <trkpt lat="44.06673" lon="7.56882">
        <ele>1314</ele>
        <time>2012-10-21T10:11:25Z</time>
      </trkpt>
      <trkpt lat="44.06666" lon="7.56876">
        <ele>1316</ele>
        <time>2012-10-21T10:11:31Z</time>
      </trkpt>
      <trkpt lat="44.06661" lon="7.56872">
        <ele>1316</ele>
        <time>2012-10-21T10:11:37Z</time>
      </trkpt>
      <trkpt lat="44.06657" lon="7.56867">
        <ele>1316</ele>
        <time>2012-10-21T10:11:42Z</time>
      </trkpt>
      <trkpt lat="44.06653" lon="7.56862">
        <ele>1316</ele>
        <time>2012-10-21T10:11:48Z</time>
      </trkpt>
      <trkpt lat="44.06648" lon="7.5686">
        <ele>1316</ele>
        <time>2012-10-21T10:11:53Z</time>
      </trkpt>
      <trkpt lat="44.06643" lon="7.5686">
        <ele>1316</ele>
        <time>2012-10-21T10:11:58Z</time>
      </trkpt>
      <trkpt lat="44.06637" lon="7.56858">
        <ele>1316</ele>
        <time>2012-10-21T10:12:03Z</time>
      </trkpt>
      <trkpt lat="44.0663" lon="7.56854">
        <ele>1316</ele>
        <time>2012-10-21T10:12:09Z</time>
      </trkpt>
      <trkpt lat="44.06627" lon="7.56849">
        <ele>1316</ele>
        <time>2012-10-21T10:12:14Z</time>
      </trkpt>
      <trkpt lat="44.06623" lon="7.56844">
        <ele>1316</ele>
        <time>2012-10-21T10:12:19Z</time>
      </trkpt>
      <trkpt lat="44.06618" lon="7.56839">
        <ele>1316</ele>
        <time>2012-10-21T10:12:24Z</time>
      </trkpt>
      <trkpt lat="44.06612" lon="7.56836">
        <ele>1316</ele>
        <time>2012-10-21T10:12:29Z</time>
      </trkpt>
      <trkpt lat="44.06607" lon="7.56831">
        <ele>1317</ele>
        <time>2012-10-21T10:12:35Z</time>
      </trkpt>
      <trkpt lat="44.06602" lon="7.56833">
        <ele>1318</ele>
        <time>2012-10-21T10:12:41Z</time>
      </trkpt>
      <trkpt lat="44.06598" lon="7.56836">
        <ele>1322</ele>
        <time>2012-10-21T10:12:46Z</time>
      </trkpt>
      <trkpt lat="44.06591" lon="7.5684">
        <ele>1323</ele>
        <time>2012-10-21T10:12:51Z</time>
      </trkpt>
      <trkpt lat="44.06584" lon="7.56844">
        <ele>1326</ele>
        <time>2012-10-21T10:12:57Z</time>
      </trkpt>
      <trkpt lat="44.06578" lon="7.56846">
        <ele>1326</ele>
        <time>2012-10-21T10:13:03Z</time>
      </trkpt>
      <trkpt lat="44.06572" lon="7.56849">
        <ele>1326</ele>
        <time>2012-10-21T10:13:08Z</time>
      </trkpt>
      <trkpt lat="44.06567" lon="7.56852">
        <ele>1326</ele>
        <time>2012-10-21T10:13:14Z</time>
      </trkpt>
      <trkpt lat="44.06562" lon="7.56858">
        <ele>1326</ele>
        <time>2012-10-21T10:13:20Z</time>
      </trkpt>
      <trkpt lat="44.06556" lon="7.5686">
        <ele>1326</ele>
        <time>2012-10-21T10:13:25Z</time>
      </trkpt>
      <trkpt lat="44.06552" lon="7.56859">
        <ele>1326</ele>
        <time>2012-10-21T10:13:30Z</time>
      </trkpt>
      <trkpt lat="44.06551" lon="7.56859">
        <ele>1326</ele>
        <time>2012-10-21T10:13:41Z</time>
      </trkpt>
      <trkpt lat="44.06549" lon="7.56857">
        <ele>1326</ele>
        <time>2012-10-21T10:13:54Z</time>
      </trkpt>
      <trkpt lat="44.06543" lon="7.56852">
        <ele>1328</ele>
        <time>2012-10-21T10:13:59Z</time>
      </trkpt>
      <trkpt lat="44.06541" lon="7.56847">
        <ele>1329</ele>
        <time>2012-10-21T10:14:04Z</time>
      </trkpt>
      <trkpt lat="44.06538" lon="7.5684">
        <ele>1329</ele>
        <time>2012-10-21T10:14:09Z</time>
      </trkpt>
      <trkpt lat="44.06536" lon="7.56834">
        <ele>1330</ele>
        <time>2012-10-21T10:14:14Z</time>
      </trkpt>
      <trkpt lat="44.06535" lon="7.56825">
        <ele>1331</ele>
        <time>2012-10-21T10:14:19Z</time>
      </trkpt>
      <trkpt lat="44.06531" lon="7.56816">
        <ele>1333</ele>
        <time>2012-10-21T10:14:24Z</time>
      </trkpt>
      <trkpt lat="44.06526" lon="7.56812">
        <ele>1334</ele>
        <time>2012-10-21T10:14:29Z</time>
      </trkpt>
      <trkpt lat="44.06521" lon="7.56803">
        <ele>1335</ele>
        <time>2012-10-21T10:14:35Z</time>
      </trkpt>
      <trkpt lat="44.06517" lon="7.56797">
        <ele>1335</ele>
        <time>2012-10-21T10:14:40Z</time>
      </trkpt>
      <trkpt lat="44.06512" lon="7.56792">
        <ele>1335</ele>
        <time>2012-10-21T10:14:45Z</time>
      </trkpt>
      <trkpt lat="44.06509" lon="7.56788">
        <ele>1335</ele>
        <time>2012-10-21T10:14:50Z</time>
      </trkpt>
      <trkpt lat="44.06504" lon="7.56779">
        <ele>1335</ele>
        <time>2012-10-21T10:14:55Z</time>
      </trkpt>
      <trkpt lat="44.06498" lon="7.56768">
        <ele>1336</ele>
        <time>2012-10-21T10:15:00Z</time>
      </trkpt>
      <trkpt lat="44.06494" lon="7.56756">
        <ele>1336</ele>
        <time>2012-10-21T10:15:05Z</time>
      </trkpt>
      <trkpt lat="44.06489" lon="7.56746">
        <ele>1337</ele>
        <time>2012-10-21T10:15:10Z</time>
      </trkpt>
      <trkpt lat="44.06486" lon="7.56739">
        <ele>1338</ele>
        <time>2012-10-21T10:15:15Z</time>
      </trkpt>
      <trkpt lat="44.06481" lon="7.56731">
        <ele>1339</ele>
        <time>2012-10-21T10:15:21Z</time>
      </trkpt>
      <trkpt lat="44.06477" lon="7.56728">
        <ele>1339</ele>
        <time>2012-10-21T10:15:26Z</time>
      </trkpt>
      <trkpt lat="44.06472" lon="7.5672">
        <ele>1339</ele>
        <time>2012-10-21T10:15:32Z</time>
      </trkpt>
      <trkpt lat="44.06468" lon="7.56716">
        <ele>1339</ele>
        <time>2012-10-21T10:15:38Z</time>
      </trkpt>
      <trkpt lat="44.06464" lon="7.56712">
        <ele>1341</ele>
        <time>2012-10-21T10:15:45Z</time>
      </trkpt>
      <trkpt lat="44.06461" lon="7.56708">
        <ele>1341</ele>
        <time>2012-10-21T10:15:50Z</time>
      </trkpt>
      <trkpt lat="44.06457" lon="7.56705">
        <ele>1341</ele>
        <time>2012-10-21T10:15:56Z</time>
      </trkpt>
      <trkpt lat="44.06451" lon="7.56703">
        <ele>1341</ele>
        <time>2012-10-21T10:16:01Z</time>
      </trkpt>
      <trkpt lat="44.06445" lon="7.56701">
        <ele>1341</ele>
        <time>2012-10-21T10:16:06Z</time>
      </trkpt>
      <trkpt lat="44.06438" lon="7.56698">
        <ele>1342</ele>
        <time>2012-10-21T10:16:11Z</time>
      </trkpt>
      <trkpt lat="44.06433" lon="7.56694">
        <ele>1343</ele>
        <time>2012-10-21T10:16:16Z</time>
      </trkpt>
      <trkpt lat="44.06427" lon="7.56683">
        <ele>1343</ele>
        <time>2012-10-21T10:16:21Z</time>
      </trkpt>
      <trkpt lat="44.06417" lon="7.56668">
        <ele>1344</ele>
        <time>2012-10-21T10:16:26Z</time>
      </trkpt>
      <trkpt lat="44.06405" lon="7.56651">
        <ele>1344</ele>
        <time>2012-10-21T10:16:31Z</time>
      </trkpt>
      <trkpt lat="44.06403" lon="7.56628">
        <ele>1344</ele>
        <time>2012-10-21T10:16:36Z</time>
      </trkpt>
      <trkpt lat="44.06401" lon="7.56605">
        <ele>1344</ele>
        <time>2012-10-21T10:16:41Z</time>
      </trkpt>
      <trkpt lat="44.06399" lon="7.5658">
        <ele>1344</ele>
        <time>2012-10-21T10:16:46Z</time>
      </trkpt>
      <trkpt lat="44.06402" lon="7.56554">
        <ele>1346</ele>
        <time>2012-10-21T10:16:51Z</time>
      </trkpt>
      <trkpt lat="44.06404" lon="7.56533">
        <ele>1348</ele>
        <time>2012-10-21T10:16:56Z</time>
      </trkpt>
      <trkpt lat="44.06402" lon="7.56512">
        <ele>1348</ele>
        <time>2012-10-21T10:17:01Z</time>
      </trkpt>
      <trkpt lat="44.06404" lon="7.56494">
        <ele>1349</ele>
        <time>2012-10-21T10:17:07Z</time>
      </trkpt>
      <trkpt lat="44.06404" lon="7.56492">
        <ele>1351</ele>
        <time>2012-10-21T10:17:12Z</time>
      </trkpt>
      <trkpt lat="44.06404" lon="7.56495">
        <ele>1351</ele>
        <time>2012-10-21T10:17:17Z</time>
      </trkpt>
      <trkpt lat="44.06403" lon="7.56495">
        <ele>1351</ele>
        <time>2012-10-21T10:17:28Z</time>
      </trkpt>
      <trkpt lat="44.06404" lon="7.56497">
        <ele>1351</ele>
        <time>2012-10-21T10:17:36Z</time>
      </trkpt>
      <trkpt lat="44.06404" lon="7.56495">
        <ele>1351</ele>
        <time>2012-10-21T10:17:42Z</time>
      </trkpt>
      <trkpt lat="44.06403" lon="7.56494">
        <ele>1351</ele>
        <time>2012-10-21T10:17:53Z</time>
      </trkpt>
      <trkpt lat="44.06403" lon="7.56493">
        <ele>1349</ele>
        <time>2012-10-21T10:18:10Z</time>
      </trkpt>
      <trkpt lat="44.064" lon="7.56494">
        <ele>1349</ele>
        <time>2012-10-21T10:18:15Z</time>
      </trkpt>
      <trkpt lat="44.064" lon="7.56496">
        <ele>1351</ele>
        <time>2012-10-21T10:18:21Z</time>
      </trkpt>
      <trkpt lat="44.064" lon="7.56499">
        <ele>1352</ele>
        <time>2012-10-21T10:18:28Z</time>
      </trkpt>
      <trkpt lat="44.06401" lon="7.56498">
        <ele>1353</ele>
        <time>2012-10-21T10:18:56Z</time>
      </trkpt>
      <trkpt lat="44.06402" lon="7.56497">
        <ele>1352</ele>
        <time>2012-10-21T10:19:02Z</time>
      </trkpt>
      <trkpt lat="44.06401" lon="7.56497">
        <ele>1352</ele>
        <time>2012-10-21T10:19:10Z</time>
      </trkpt>
      <trkpt lat="44.064" lon="7.56499">
        <ele>1352</ele>
        <time>2012-10-21T10:19:20Z</time>
      </trkpt>
      <trkpt lat="44.06401" lon="7.56499">
        <ele>1352</ele>
        <time>2012-10-21T10:19:34Z</time>
      </trkpt>
      <trkpt lat="44.064" lon="7.56498">
        <ele>1352</ele>
        <time>2012-10-21T10:19:44Z</time>
      </trkpt>
      <trkpt lat="44.06399" lon="7.56498">
        <ele>1352</ele>
        <time>2012-10-21T10:19:53Z</time>
      </trkpt>
      <trkpt lat="44.06401" lon="7.56497">
        <ele>1352</ele>
        <time>2012-10-21T10:19:58Z</time>
      </trkpt>
      <trkpt lat="44.06402" lon="7.56496">
        <ele>1352</ele>
        <time>2012-10-21T10:20:06Z</time>
      </trkpt>
      <trkpt lat="44.06403" lon="7.56495">
        <ele>1350</ele>
        <time>2012-10-21T10:20:13Z</time>
      </trkpt>
      <trkpt lat="44.06401" lon="7.56496">
        <ele>1348</ele>
        <time>2012-10-21T10:20:21Z</time>
      </trkpt>
      <trkpt lat="44.064" lon="7.56496">
        <ele>1348</ele>
        <time>2012-10-21T10:20:32Z</time>
      </trkpt>
      <trkpt lat="44.06402" lon="7.56495">
        <ele>1348</ele>
        <time>2012-10-21T10:20:40Z</time>
      </trkpt>
      <trkpt lat="44.06402" lon="7.56497">
        <ele>1344</ele>
        <time>2012-10-21T10:20:46Z</time>
      </trkpt>
      <trkpt lat="44.06396" lon="7.56516">
        <ele>1343</ele>
        <time>2012-10-21T10:20:51Z</time>
      </trkpt>
      <trkpt lat="44.0639" lon="7.56538">
        <ele>1342</ele>
        <time>2012-10-21T10:20:56Z</time>
      </trkpt>
      <trkpt lat="44.06381" lon="7.56557">
        <ele>1342</ele>
        <time>2012-10-21T10:21:01Z</time>
      </trkpt>
      <trkpt lat="44.06365" lon="7.56581">
        <ele>1341</ele>
        <time>2012-10-21T10:21:06Z</time>
      </trkpt>
      <trkpt lat="44.06354" lon="7.56586">
        <ele>1338</ele>
        <time>2012-10-21T10:21:11Z</time>
      </trkpt>
      <trkpt lat="44.06344" lon="7.56602">
        <ele>1334</ele>
        <time>2012-10-21T10:21:16Z</time>
      </trkpt>
      <trkpt lat="44.06342" lon="7.56633">
        <ele>1331</ele>
        <time>2012-10-21T10:21:21Z</time>
      </trkpt>
      <trkpt lat="44.06335" lon="7.56658">
        <ele>1329</ele>
        <time>2012-10-21T10:21:26Z</time>
      </trkpt>
      <trkpt lat="44.06322" lon="7.56673">
        <ele>1327</ele>
        <time>2012-10-21T10:21:31Z</time>
      </trkpt>
      <trkpt lat="44.06311" lon="7.56686">
        <ele>1321</ele>
        <time>2012-10-21T10:21:36Z</time>
      </trkpt>
      <trkpt lat="44.06299" lon="7.56681">
        <ele>1317</ele>
        <time>2012-10-21T10:21:41Z</time>
      </trkpt>
      <trkpt lat="44.06284" lon="7.56678">
        <ele>1313</ele>
        <time>2012-10-21T10:21:46Z</time>
      </trkpt>
      <trkpt lat="44.06276" lon="7.56687">
        <ele>1308</ele>
        <time>2012-10-21T10:21:51Z</time>
      </trkpt>
      <trkpt lat="44.06264" lon="7.56704">
        <ele>1300</ele>
        <time>2012-10-21T10:21:56Z</time>
      </trkpt>
      <trkpt lat="44.06263" lon="7.56734">
        <ele>1290</ele>
        <time>2012-10-21T10:22:01Z</time>
      </trkpt>
      <trkpt lat="44.06271" lon="7.56765">
        <ele>1285</ele>
        <time>2012-10-21T10:22:06Z</time>
      </trkpt>
      <trkpt lat="44.06266" lon="7.56783">
        <ele>1280</ele>
        <time>2012-10-21T10:22:11Z</time>
      </trkpt>
      <trkpt lat="44.06266" lon="7.56806">
        <ele>1276</ele>
        <time>2012-10-21T10:22:16Z</time>
      </trkpt>
      <trkpt lat="44.06274" lon="7.56833">
        <ele>1275</ele>
        <time>2012-10-21T10:22:21Z</time>
      </trkpt>
      <trkpt lat="44.06269" lon="7.56836">
        <ele>1275</ele>
        <time>2012-10-21T10:22:27Z</time>
      </trkpt>
      <trkpt lat="44.06266" lon="7.56838">
        <ele>1274</ele>
        <time>2012-10-21T10:22:32Z</time>
      </trkpt>
      <trkpt lat="44.06271" lon="7.56853">
        <ele>1274</ele>
        <time>2012-10-21T10:22:37Z</time>
      </trkpt>
      <trkpt lat="44.06272" lon="7.56872">
        <ele>1274</ele>
        <time>2012-10-21T10:22:42Z</time>
      </trkpt>
      <trkpt lat="44.06267" lon="7.5689">
        <ele>1274</ele>
        <time>2012-10-21T10:22:47Z</time>
      </trkpt>
      <trkpt lat="44.06263" lon="7.56921">
        <ele>1272</ele>
        <time>2012-10-21T10:22:52Z</time>
      </trkpt>
      <trkpt lat="44.0626" lon="7.56952">
        <ele>1270</ele>
        <time>2012-10-21T10:22:57Z</time>
      </trkpt>
      <trkpt lat="44.06264" lon="7.56977">
        <ele>1268</ele>
        <time>2012-10-21T10:23:02Z</time>
      </trkpt>
      <trkpt lat="44.06265" lon="7.57003">
        <ele>1263</ele>
        <time>2012-10-21T10:23:07Z</time>
      </trkpt>
      <trkpt lat="44.06276" lon="7.57007">
        <ele>1258</ele>
        <time>2012-10-21T10:23:14Z</time>
      </trkpt>
      <trkpt lat="44.06281" lon="7.57004">
        <ele>1257</ele>
        <time>2012-10-21T10:23:19Z</time>
      </trkpt>
      <trkpt lat="44.06286" lon="7.57006">
        <ele>1257</ele>
        <time>2012-10-21T10:23:24Z</time>
      </trkpt>
      <trkpt lat="44.06287" lon="7.57013">
        <ele>1257</ele>
        <time>2012-10-21T10:23:29Z</time>
      </trkpt>
      <trkpt lat="44.06294" lon="7.57021">
        <ele>1255</ele>
        <time>2012-10-21T10:23:34Z</time>
      </trkpt>
      <trkpt lat="44.0631" lon="7.57027">
        <ele>1250</ele>
        <time>2012-10-21T10:23:39Z</time>
      </trkpt>
      <trkpt lat="44.06335" lon="7.57029">
        <ele>1242</ele>
        <time>2012-10-21T10:23:44Z</time>
      </trkpt>
      <trkpt lat="44.06364" lon="7.57036">
        <ele>1232</ele>
        <time>2012-10-21T10:23:49Z</time>
      </trkpt>
      <trkpt lat="44.06374" lon="7.5705">
        <ele>1222</ele>
        <time>2012-10-21T10:23:54Z</time>
      </trkpt>
      <trkpt lat="44.06363" lon="7.5707">
        <ele>1212</ele>
        <time>2012-10-21T10:23:59Z</time>
      </trkpt>
      <trkpt lat="44.06364" lon="7.57084">
        <ele>1205</ele>
        <time>2012-10-21T10:24:04Z</time>
      </trkpt>
      <trkpt lat="44.06376" lon="7.57083">
        <ele>1202</ele>
        <time>2012-10-21T10:24:09Z</time>
      </trkpt>
      <trkpt lat="44.06385" lon="7.57077">
        <ele>1199</ele>
        <time>2012-10-21T10:24:15Z</time>
      </trkpt>
      <trkpt lat="44.06392" lon="7.57075">
        <ele>1199</ele>
        <time>2012-10-21T10:24:20Z</time>
      </trkpt>
      <trkpt lat="44.064" lon="7.57088">
        <ele>1199</ele>
        <time>2012-10-21T10:24:25Z</time>
      </trkpt>
      <trkpt lat="44.06403" lon="7.57108">
        <ele>1202</ele>
        <time>2012-10-21T10:24:30Z</time>
      </trkpt>
      <trkpt lat="44.06403" lon="7.57124">
        <ele>1205</ele>
        <time>2012-10-21T10:24:35Z</time>
      </trkpt>
      <trkpt lat="44.06395" lon="7.57129">
        <ele>1209</ele>
        <time>2012-10-21T10:24:40Z</time>
      </trkpt>
      <trkpt lat="44.06384" lon="7.57141">
        <ele>1209</ele>
        <time>2012-10-21T10:24:45Z</time>
      </trkpt>
      <trkpt lat="44.06366" lon="7.5716">
        <ele>1209</ele>
        <time>2012-10-21T10:24:50Z</time>
      </trkpt>
      <trkpt lat="44.06346" lon="7.57197">
        <ele>1206</ele>
        <time>2012-10-21T10:24:55Z</time>
      </trkpt>
      <trkpt lat="44.06336" lon="7.57222">
        <ele>1201</ele>
        <time>2012-10-21T10:25:00Z</time>
      </trkpt>
      <trkpt lat="44.06324" lon="7.57227">
        <ele>1196</ele>
        <time>2012-10-21T10:25:05Z</time>
      </trkpt>
      <trkpt lat="44.06323" lon="7.57228">
        <ele>1189</ele>
        <time>2012-10-21T10:25:12Z</time>
      </trkpt>
      <trkpt lat="44.06327" lon="7.57209">
        <ele>1184</ele>
        <time>2012-10-21T10:25:17Z</time>
      </trkpt>
      <trkpt lat="44.06311" lon="7.57213">
        <ele>1179</ele>
        <time>2012-10-21T10:25:22Z</time>
      </trkpt>
      <trkpt lat="44.06294" lon="7.57234">
        <ele>1174</ele>
        <time>2012-10-21T10:25:27Z</time>
      </trkpt>
      <trkpt lat="44.06286" lon="7.57247">
        <ele>1169</ele>
        <time>2012-10-21T10:25:32Z</time>
      </trkpt>
      <trkpt lat="44.06283" lon="7.57258">
        <ele>1164</ele>
        <time>2012-10-21T10:25:38Z</time>
      </trkpt>
      <trkpt lat="44.06275" lon="7.5727">
        <ele>1159</ele>
        <time>2012-10-21T10:25:43Z</time>
      </trkpt>
      <trkpt lat="44.06271" lon="7.57293">
        <ele>1154</ele>
        <time>2012-10-21T10:25:48Z</time>
      </trkpt>
      <trkpt lat="44.06252" lon="7.57312">
        <ele>1149</ele>
        <time>2012-10-21T10:25:53Z</time>
      </trkpt>
      <trkpt lat="44.06242" lon="7.5732">
        <ele>1148</ele>
        <time>2012-10-21T10:25:58Z</time>
      </trkpt>
      <trkpt lat="44.06246" lon="7.57329">
        <ele>1144</ele>
        <time>2012-10-21T10:26:03Z</time>
      </trkpt>
      <trkpt lat="44.06267" lon="7.57357">
        <ele>1139</ele>
        <time>2012-10-21T10:26:08Z</time>
      </trkpt>
      <trkpt lat="44.06285" lon="7.57386">
        <ele>1134</ele>
        <time>2012-10-21T10:26:13Z</time>
      </trkpt>
      <trkpt lat="44.06295" lon="7.57407">
        <ele>1128</ele>
        <time>2012-10-21T10:26:18Z</time>
      </trkpt>
      <trkpt lat="44.06303" lon="7.57432">
        <ele>1122</ele>
        <time>2012-10-21T10:26:23Z</time>
      </trkpt>
      <trkpt lat="44.06323" lon="7.57465">
        <ele>1117</ele>
        <time>2012-10-21T10:26:28Z</time>
      </trkpt>
      <trkpt lat="44.06342" lon="7.57478">
        <ele>1111</ele>
        <time>2012-10-21T10:26:33Z</time>
      </trkpt>
      <trkpt lat="44.0635" lon="7.57491">
        <ele>1106</ele>
        <time>2012-10-21T10:26:38Z</time>
      </trkpt>
      <trkpt lat="44.0634" lon="7.57526">
        <ele>1104</ele>
        <time>2012-10-21T10:26:43Z</time>
      </trkpt>
      <trkpt lat="44.06335" lon="7.5755">
        <ele>1104</ele>
        <time>2012-10-21T10:26:48Z</time>
      </trkpt>
      <trkpt lat="44.0633" lon="7.57568">
        <ele>1104</ele>
        <time>2012-10-21T10:26:53Z</time>
      </trkpt>
      <trkpt lat="44.06328" lon="7.57586">
        <ele>1104</ele>
        <time>2012-10-21T10:26:58Z</time>
      </trkpt>
      <trkpt lat="44.06327" lon="7.57604">
        <ele>1104</ele>
        <time>2012-10-21T10:27:03Z</time>
      </trkpt>
      <trkpt lat="44.06321" lon="7.57625">
        <ele>1108</ele>
        <time>2012-10-21T10:27:08Z</time>
      </trkpt>
      <trkpt lat="44.06313" lon="7.57645">
        <ele>1113</ele>
        <time>2012-10-21T10:27:13Z</time>
      </trkpt>
      <trkpt lat="44.06303" lon="7.57659">
        <ele>1118</ele>
        <time>2012-10-21T10:27:18Z</time>
      </trkpt>
      <trkpt lat="44.06297" lon="7.57676">
        <ele>1123</ele>
        <time>2012-10-21T10:27:23Z</time>
      </trkpt>
      <trkpt lat="44.06293" lon="7.57691">
        <ele>1124</ele>
        <time>2012-10-21T10:27:28Z</time>
      </trkpt>
      <trkpt lat="44.06288" lon="7.57704">
        <ele>1124</ele>
        <time>2012-10-21T10:27:33Z</time>
      </trkpt>
      <trkpt lat="44.06282" lon="7.57716">
        <ele>1124</ele>
        <time>2012-10-21T10:27:38Z</time>
      </trkpt>
      <trkpt lat="44.06278" lon="7.57735">
        <ele>1121</ele>
        <time>2012-10-21T10:27:43Z</time>
      </trkpt>
      <trkpt lat="44.06266" lon="7.57756">
        <ele>1116</ele>
        <time>2012-10-21T10:27:48Z</time>
      </trkpt>
      <trkpt lat="44.0627" lon="7.57779">
        <ele>1112</ele>
        <time>2012-10-21T10:27:53Z</time>
      </trkpt>
      <trkpt lat="44.06297" lon="7.57805">
        <ele>1107</ele>
        <time>2012-10-21T10:27:58Z</time>
      </trkpt>
      <trkpt lat="44.06314" lon="7.57838">
        <ele>1102</ele>
        <time>2012-10-21T10:28:03Z</time>
      </trkpt>
      <trkpt lat="44.06327" lon="7.57865">
        <ele>1099</ele>
        <time>2012-10-21T10:28:08Z</time>
      </trkpt>
      <trkpt lat="44.06355" lon="7.57891">
        <ele>1098</ele>
        <time>2012-10-21T10:28:13Z</time>
      </trkpt>
      <trkpt lat="44.06379" lon="7.57921">
        <ele>1097</ele>
        <time>2012-10-21T10:28:18Z</time>
      </trkpt>
      <trkpt lat="44.06392" lon="7.57951">
        <ele>1094</ele>
        <time>2012-10-21T10:28:23Z</time>
      </trkpt>
      <trkpt lat="44.06414" lon="7.57972">
        <ele>1091</ele>
        <time>2012-10-21T10:28:28Z</time>
      </trkpt>
      <trkpt lat="44.0644" lon="7.57966">
        <ele>1086</ele>
        <time>2012-10-21T10:28:33Z</time>
      </trkpt>
      <trkpt lat="44.06466" lon="7.57962">
        <ele>1081</ele>
        <time>2012-10-21T10:28:38Z</time>
      </trkpt>
      <trkpt lat="44.0649" lon="7.57968">
        <ele>1078</ele>
        <time>2012-10-21T10:28:43Z</time>
      </trkpt>
      <trkpt lat="44.06498" lon="7.57977">
        <ele>1077</ele>
        <time>2012-10-21T10:28:48Z</time>
      </trkpt>
      <trkpt lat="44.06503" lon="7.57997">
        <ele>1077</ele>
        <time>2012-10-21T10:28:53Z</time>
      </trkpt>
      <trkpt lat="44.06514" lon="7.58031">
        <ele>1073</ele>
        <time>2012-10-21T10:28:58Z</time>
      </trkpt>
      <trkpt lat="44.06521" lon="7.58079">
        <ele>1068</ele>
        <time>2012-10-21T10:29:03Z</time>
      </trkpt>
      <trkpt lat="44.06522" lon="7.58122">
        <ele>1063</ele>
        <time>2012-10-21T10:29:08Z</time>
      </trkpt>
      <trkpt lat="44.06518" lon="7.58168">
        <ele>1059</ele>
        <time>2012-10-21T10:29:13Z</time>
      </trkpt>
      <trkpt lat="44.0652" lon="7.58205">
        <ele>1054</ele>
        <time>2012-10-21T10:29:18Z</time>
      </trkpt>
      <trkpt lat="44.06523" lon="7.58242">
        <ele>1049</ele>
        <time>2012-10-21T10:29:23Z</time>
      </trkpt>
      <trkpt lat="44.06527" lon="7.58262">
        <ele>1044</ele>
        <time>2012-10-21T10:29:28Z</time>
      </trkpt>
      <trkpt lat="44.06542" lon="7.58295">
        <ele>1041</ele>
        <time>2012-10-21T10:29:33Z</time>
      </trkpt>
      <trkpt lat="44.06543" lon="7.58343">
        <ele>1040</ele>
        <time>2012-10-21T10:29:38Z</time>
      </trkpt>
      <trkpt lat="44.0654" lon="7.58379">
        <ele>1040</ele>
        <time>2012-10-21T10:29:43Z</time>
      </trkpt>
      <trkpt lat="44.06547" lon="7.58395">
        <ele>1040</ele>
        <time>2012-10-21T10:29:48Z</time>
      </trkpt>
      <trkpt lat="44.06576" lon="7.58397">
        <ele>1038</ele>
        <time>2012-10-21T10:29:53Z</time>
      </trkpt>
      <trkpt lat="44.06607" lon="7.58406">
        <ele>1038</ele>
        <time>2012-10-21T10:29:58Z</time>
      </trkpt>
      <trkpt lat="44.06633" lon="7.58417">
        <ele>1038</ele>
        <time>2012-10-21T10:30:03Z</time>
      </trkpt>
      <trkpt lat="44.06654" lon="7.58426">
        <ele>1038</ele>
        <time>2012-10-21T10:30:08Z</time>
      </trkpt>
      <trkpt lat="44.06671" lon="7.58418">
        <ele>1036</ele>
        <time>2012-10-21T10:30:13Z</time>
      </trkpt>
      <trkpt lat="44.06682" lon="7.58408">
        <ele>1036</ele>
        <time>2012-10-21T10:30:18Z</time>
      </trkpt>
      <trkpt lat="44.06703" lon="7.58393">
        <ele>1035</ele>
        <time>2012-10-21T10:30:23Z</time>
      </trkpt>
      <trkpt lat="44.06728" lon="7.58367">
        <ele>1035</ele>
        <time>2012-10-21T10:30:28Z</time>
      </trkpt>
      <trkpt lat="44.06748" lon="7.58353">
        <ele>1035</ele>
        <time>2012-10-21T10:30:33Z</time>
      </trkpt>
      <trkpt lat="44.0675" lon="7.58347">
        <ele>1036</ele>
        <time>2012-10-21T10:30:38Z</time>
      </trkpt>
      <trkpt lat="44.06757" lon="7.58334">
        <ele>1036</ele>
        <time>2012-10-21T10:30:43Z</time>
      </trkpt>
      <trkpt lat="44.06766" lon="7.58313">
        <ele>1034</ele>
        <time>2012-10-21T10:30:48Z</time>
      </trkpt>
      <trkpt lat="44.06789" lon="7.58294">
        <ele>1034</ele>
        <time>2012-10-21T10:30:53Z</time>
      </trkpt>
      <trkpt lat="44.06818" lon="7.58284">
        <ele>1033</ele>
        <time>2012-10-21T10:30:58Z</time>
      </trkpt>
      <trkpt lat="44.06837" lon="7.58281">
        <ele>1031</ele>
        <time>2012-10-21T10:31:04Z</time>
      </trkpt>
      <trkpt lat="44.06837" lon="7.58283">
        <ele>1031</ele>
        <time>2012-10-21T10:31:10Z</time>
      </trkpt>
      <trkpt lat="44.0684" lon="7.58281">
        <ele>1031</ele>
        <time>2012-10-21T10:31:15Z</time>
      </trkpt>
      <trkpt lat="44.06842" lon="7.58278">
        <ele>1030</ele>
        <time>2012-10-21T10:31:23Z</time>
      </trkpt>
      <trkpt lat="44.06845" lon="7.58277">
        <ele>1030</ele>
        <time>2012-10-21T10:31:32Z</time>
      </trkpt>
      <trkpt lat="44.06844" lon="7.5828">
        <ele>1030</ele>
        <time>2012-10-21T10:31:41Z</time>
      </trkpt>
      <trkpt lat="44.06846" lon="7.58281">
        <ele>1030</ele>
        <time>2012-10-21T10:31:46Z</time>
      </trkpt>
      <trkpt lat="44.06847" lon="7.5828">
        <ele>1030</ele>
        <time>2012-10-21T10:31:58Z</time>
      </trkpt>
      <trkpt lat="44.06847" lon="7.58282">
        <ele>1030</ele>
        <time>2012-10-21T10:32:07Z</time>
      </trkpt>
      <trkpt lat="44.06847" lon="7.5828">
        <ele>1030</ele>
        <time>2012-10-21T10:32:17Z</time>
      </trkpt>
      <trkpt lat="44.06848" lon="7.5828">
        <ele>1030</ele>
        <time>2012-10-21T10:32:25Z</time>
      </trkpt>
      <trkpt lat="44.06847" lon="7.58283">
        <ele>1030</ele>
        <time>2012-10-21T10:32:30Z</time>
      </trkpt>
      <trkpt lat="44.06844" lon="7.58281">
        <ele>1030</ele>
        <time>2012-10-21T10:32:35Z</time>
      </trkpt>
      <trkpt lat="44.06843" lon="7.5828">
        <ele>1030</ele>
        <time>2012-10-21T10:32:41Z</time>
      </trkpt>
      <trkpt lat="44.06847" lon="7.58281">
        <ele>1030</ele>
        <time>2012-10-21T10:32:54Z</time>
      </trkpt>
      <trkpt lat="44.0685" lon="7.58281">
        <ele>1031</ele>
        <time>2012-10-21T10:33:07Z</time>
      </trkpt>
      <trkpt lat="44.0685" lon="7.5828">
        <ele>1031</ele>
        <time>2012-10-21T10:33:17Z</time>
      </trkpt>
      <trkpt lat="44.06847" lon="7.58278">
        <ele>1031</ele>
        <time>2012-10-21T10:33:25Z</time>
      </trkpt>
      <trkpt lat="44.06845" lon="7.58278">
        <ele>1031</ele>
        <time>2012-10-21T10:33:30Z</time>
      </trkpt>
      <trkpt lat="44.06845" lon="7.58274">
        <ele>1031</ele>
        <time>2012-10-21T10:33:43Z</time>
      </trkpt>
      <trkpt lat="44.06852" lon="7.58275">
        <ele>1031</ele>
        <time>2012-10-21T10:33:48Z</time>
      </trkpt>
      <trkpt lat="44.06863" lon="7.58272">
        <ele>1031</ele>
        <time>2012-10-21T10:33:53Z</time>
      </trkpt>
      <trkpt lat="44.06877" lon="7.58263">
        <ele>1029</ele>
        <time>2012-10-21T10:33:58Z</time>
      </trkpt>
      <trkpt lat="44.06886" lon="7.58253">
        <ele>1026</ele>
        <time>2012-10-21T10:34:04Z</time>
      </trkpt>
      <trkpt lat="44.06892" lon="7.58239">
        <ele>1024</ele>
        <time>2012-10-21T10:34:09Z</time>
      </trkpt>
      <trkpt lat="44.06901" lon="7.58223">
        <ele>1022</ele>
        <time>2012-10-21T10:34:15Z</time>
      </trkpt>
      <trkpt lat="44.0691" lon="7.5822">
        <ele>1022</ele>
        <time>2012-10-21T10:34:20Z</time>
      </trkpt>
      <trkpt lat="44.06919" lon="7.58212">
        <ele>1022</ele>
        <time>2012-10-21T10:34:25Z</time>
      </trkpt>
      <trkpt lat="44.06925" lon="7.5822">
        <ele>1022</ele>
        <time>2012-10-21T10:34:30Z</time>
      </trkpt>
      <trkpt lat="44.06928" lon="7.58227">
        <ele>1021</ele>
        <time>2012-10-21T10:34:36Z</time>
      </trkpt>
      <trkpt lat="44.06932" lon="7.58233">
        <ele>1020</ele>
        <time>2012-10-21T10:34:42Z</time>
      </trkpt>
      <trkpt lat="44.06934" lon="7.58238">
        <ele>1020</ele>
        <time>2012-10-21T10:34:48Z</time>
      </trkpt>
      <trkpt lat="44.06937" lon="7.58244">
        <ele>1020</ele>
        <time>2012-10-21T10:34:54Z</time>
      </trkpt>
      <trkpt lat="44.06939" lon="7.58247">
        <ele>1020</ele>
        <time>2012-10-21T10:34:59Z</time>
      </trkpt>
      <trkpt lat="44.06942" lon="7.5825">
        <ele>1020</ele>
        <time>2012-10-21T10:35:06Z</time>
      </trkpt>
      <trkpt lat="44.06947" lon="7.58254">
        <ele>1020</ele>
        <time>2012-10-21T10:35:12Z</time>
      </trkpt>
      <trkpt lat="44.06949" lon="7.58259">
        <ele>1020</ele>
        <time>2012-10-21T10:35:18Z</time>
      </trkpt>
      <trkpt lat="44.06952" lon="7.58262">
        <ele>1020</ele>
        <time>2012-10-21T10:35:23Z</time>
      </trkpt>
      <trkpt lat="44.06954" lon="7.58268">
        <ele>1020</ele>
        <time>2012-10-21T10:35:29Z</time>
      </trkpt>
      <trkpt lat="44.06956" lon="7.58274">
        <ele>1020</ele>
        <time>2012-10-21T10:35:35Z</time>
      </trkpt>
      <trkpt lat="44.06959" lon="7.5828">
        <ele>1020</ele>
        <time>2012-10-21T10:35:41Z</time>
      </trkpt>
      <trkpt lat="44.06961" lon="7.58286">
        <ele>1020</ele>
        <time>2012-10-21T10:35:47Z</time>
      </trkpt>
      <trkpt lat="44.06963" lon="7.58293">
        <ele>1020</ele>
        <time>2012-10-21T10:35:53Z</time>
      </trkpt>
      <trkpt lat="44.06964" lon="7.58301">
        <ele>1021</ele>
        <time>2012-10-21T10:35:59Z</time>
      </trkpt>
      <trkpt lat="44.06966" lon="7.58308">
        <ele>1021</ele>
        <time>2012-10-21T10:36:04Z</time>
      </trkpt>
      <trkpt lat="44.06967" lon="7.58315">
        <ele>1021</ele>
        <time>2012-10-21T10:36:09Z</time>
      </trkpt>
      <trkpt lat="44.06968" lon="7.58321">
        <ele>1022</ele>
        <time>2012-10-21T10:36:14Z</time>
      </trkpt>
      <trkpt lat="44.06969" lon="7.58327">
        <ele>1022</ele>
        <time>2012-10-21T10:36:20Z</time>
      </trkpt>
      <trkpt lat="44.06971" lon="7.58333">
        <ele>1022</ele>
        <time>2012-10-21T10:36:26Z</time>
      </trkpt>
      <trkpt lat="44.06972" lon="7.58338">
        <ele>1024</ele>
        <time>2012-10-21T10:36:32Z</time>
      </trkpt>
      <trkpt lat="44.06973" lon="7.58343">
        <ele>1024</ele>
        <time>2012-10-21T10:36:38Z</time>
      </trkpt>
      <trkpt lat="44.06973" lon="7.58348">
        <ele>1025</ele>
        <time>2012-10-21T10:36:44Z</time>
      </trkpt>
      <trkpt lat="44.06972" lon="7.58353">
        <ele>1025</ele>
        <time>2012-10-21T10:36:49Z</time>
      </trkpt>
      <trkpt lat="44.06973" lon="7.58358">
        <ele>1027</ele>
        <time>2012-10-21T10:36:55Z</time>
      </trkpt>
      <trkpt lat="44.06974" lon="7.58361">
        <ele>1028</ele>
        <time>2012-10-21T10:37:00Z</time>
      </trkpt>
      <trkpt lat="44.06973" lon="7.58368">
        <ele>1029</ele>
        <time>2012-10-21T10:37:06Z</time>
      </trkpt>
      <trkpt lat="44.06973" lon="7.58372">
        <ele>1029</ele>
        <time>2012-10-21T10:37:12Z</time>
      </trkpt>
      <trkpt lat="44.06973" lon="7.58379">
        <ele>1030</ele>
        <time>2012-10-21T10:37:18Z</time>
      </trkpt>
      <trkpt lat="44.06975" lon="7.58385">
        <ele>1032</ele>
        <time>2012-10-21T10:37:26Z</time>
      </trkpt>
      <trkpt lat="44.06978" lon="7.58385">
        <ele>1032</ele>
        <time>2012-10-21T10:37:31Z</time>
      </trkpt>
      <trkpt lat="44.06982" lon="7.58388">
        <ele>1032</ele>
        <time>2012-10-21T10:37:37Z</time>
      </trkpt>
      <trkpt lat="44.06995" lon="7.5839">
        <ele>1032</ele>
        <time>2012-10-21T10:37:42Z</time>
      </trkpt>
      <trkpt lat="44.07008" lon="7.58392">
        <ele>1032</ele>
        <time>2012-10-21T10:37:47Z</time>
      </trkpt>
      <trkpt lat="44.07017" lon="7.58391">
        <ele>1032</ele>
        <time>2012-10-21T10:37:52Z</time>
      </trkpt>
      <trkpt lat="44.07034" lon="7.58385">
        <ele>1029</ele>
        <time>2012-10-21T10:37:57Z</time>
      </trkpt>
      <trkpt lat="44.07053" lon="7.58385">
        <ele>1026</ele>
        <time>2012-10-21T10:38:02Z</time>
      </trkpt>
      <trkpt lat="44.07063" lon="7.58386">
        <ele>1023</ele>
        <time>2012-10-21T10:38:07Z</time>
      </trkpt>
      <trkpt lat="44.07076" lon="7.58389">
        <ele>1020</ele>
        <time>2012-10-21T10:38:12Z</time>
      </trkpt>
      <trkpt lat="44.07089" lon="7.58399">
        <ele>1018</ele>
        <time>2012-10-21T10:38:17Z</time>
      </trkpt>
      <trkpt lat="44.07108" lon="7.58408">
        <ele>1016</ele>
        <time>2012-10-21T10:38:22Z</time>
      </trkpt>
      <trkpt lat="44.07123" lon="7.58432">
        <ele>1014</ele>
        <time>2012-10-21T10:38:27Z</time>
      </trkpt>
      <trkpt lat="44.07136" lon="7.5845">
        <ele>1012</ele>
        <time>2012-10-21T10:38:32Z</time>
      </trkpt>
      <trkpt lat="44.07151" lon="7.5846">
        <ele>1012</ele>
        <time>2012-10-21T10:38:37Z</time>
      </trkpt>
      <trkpt lat="44.07161" lon="7.58475">
        <ele>1012</ele>
        <time>2012-10-21T10:38:42Z</time>
      </trkpt>
      <trkpt lat="44.07174" lon="7.58489">
        <ele>1012</ele>
        <time>2012-10-21T10:38:47Z</time>
      </trkpt>
      <trkpt lat="44.07183" lon="7.58497">
        <ele>1012</ele>
        <time>2012-10-21T10:38:52Z</time>
      </trkpt>
      <trkpt lat="44.07193" lon="7.58509">
        <ele>1012</ele>
        <time>2012-10-21T10:38:57Z</time>
      </trkpt>
      <trkpt lat="44.07206" lon="7.58509">
        <ele>1011</ele>
        <time>2012-10-21T10:39:02Z</time>
      </trkpt>
      <trkpt lat="44.0722" lon="7.58511">
        <ele>1011</ele>
        <time>2012-10-21T10:39:07Z</time>
      </trkpt>
      <trkpt lat="44.07235" lon="7.58511">
        <ele>1010</ele>
        <time>2012-10-21T10:39:12Z</time>
      </trkpt>
      <trkpt lat="44.07252" lon="7.58506">
        <ele>1008</ele>
        <time>2012-10-21T10:39:17Z</time>
      </trkpt>
      <trkpt lat="44.07269" lon="7.58496">
        <ele>1007</ele>
        <time>2012-10-21T10:39:22Z</time>
      </trkpt>
      <trkpt lat="44.07284" lon="7.58494">
        <ele>1005</ele>
        <time>2012-10-21T10:39:27Z</time>
      </trkpt>
      <trkpt lat="44.07295" lon="7.58479">
        <ele>1004</ele>
        <time>2012-10-21T10:39:32Z</time>
      </trkpt>
      <trkpt lat="44.07303" lon="7.58482">
        <ele>1004</ele>
        <time>2012-10-21T10:39:37Z</time>
      </trkpt>
      <trkpt lat="44.07312" lon="7.585">
        <ele>1004</ele>
        <time>2012-10-21T10:39:42Z</time>
      </trkpt>
      <trkpt lat="44.07325" lon="7.5851">
        <ele>1004</ele>
        <time>2012-10-21T10:39:47Z</time>
      </trkpt>
      <trkpt lat="44.07343" lon="7.58512">
        <ele>1003</ele>
        <time>2012-10-21T10:39:52Z</time>
      </trkpt>
      <trkpt lat="44.07348" lon="7.58517">
        <ele>1001</ele>
        <time>2012-10-21T10:39:57Z</time>
      </trkpt>
      <trkpt lat="44.07365" lon="7.58522">
        <ele>999</ele>
        <time>2012-10-21T10:40:02Z</time>
      </trkpt>
      <trkpt lat="44.07377" lon="7.58522">
        <ele>999</ele>
        <time>2012-10-21T10:40:07Z</time>
      </trkpt>
      <trkpt lat="44.0738" lon="7.58521">
        <ele>999</ele>
        <time>2012-10-21T10:40:14Z</time>
      </trkpt>
      <trkpt lat="44.07384" lon="7.58521">
        <ele>999</ele>
        <time>2012-10-21T10:40:22Z</time>
      </trkpt>
      <trkpt lat="44.07388" lon="7.58532">
        <ele>999</ele>
        <time>2012-10-21T10:40:27Z</time>
      </trkpt>
      <trkpt lat="44.07386" lon="7.58549">
        <ele>999</ele>
        <time>2012-10-21T10:40:32Z</time>
      </trkpt>
      <trkpt lat="44.07387" lon="7.58567">
        <ele>999</ele>
        <time>2012-10-21T10:40:37Z</time>
      </trkpt>
      <trkpt lat="44.07389" lon="7.58589">
        <ele>999</ele>
        <time>2012-10-21T10:40:42Z</time>
      </trkpt>
      <trkpt lat="44.07387" lon="7.58606">
        <ele>999</ele>
        <time>2012-10-21T10:40:47Z</time>
      </trkpt>
      <trkpt lat="44.0739" lon="7.58621">
        <ele>999</ele>
        <time>2012-10-21T10:40:52Z</time>
      </trkpt>
      <trkpt lat="44.07399" lon="7.58636">
        <ele>999</ele>
        <time>2012-10-21T10:40:57Z</time>
      </trkpt>
      <trkpt lat="44.07411" lon="7.58654">
        <ele>999</ele>
        <time>2012-10-21T10:41:02Z</time>
      </trkpt>
      <trkpt lat="44.07418" lon="7.58667">
        <ele>999</ele>
        <time>2012-10-21T10:41:07Z</time>
      </trkpt>
      <trkpt lat="44.07419" lon="7.58673">
        <ele>999</ele>
        <time>2012-10-21T10:41:14Z</time>
      </trkpt>
      <trkpt lat="44.07418" lon="7.58677">
        <ele>999</ele>
        <time>2012-10-21T10:41:20Z</time>
      </trkpt>
      <trkpt lat="44.0742" lon="7.58681">
        <ele>999</ele>
        <time>2012-10-21T10:41:25Z</time>
      </trkpt>
      <trkpt lat="44.07421" lon="7.58692">
        <ele>999</ele>
        <time>2012-10-21T10:41:30Z</time>
      </trkpt>
      <trkpt lat="44.07418" lon="7.58704">
        <ele>999</ele>
        <time>2012-10-21T10:41:35Z</time>
      </trkpt>
      <trkpt lat="44.07409" lon="7.58707">
        <ele>999</ele>
        <time>2012-10-21T10:41:40Z</time>
      </trkpt>
      <trkpt lat="44.07398" lon="7.58715">
        <ele>1000</ele>
        <time>2012-10-21T10:41:45Z</time>
      </trkpt>
      <trkpt lat="44.07392" lon="7.5873">
        <ele>1000</ele>
        <time>2012-10-21T10:41:50Z</time>
      </trkpt>
      <trkpt lat="44.07391" lon="7.58742">
        <ele>1000</ele>
        <time>2012-10-21T10:41:56Z</time>
      </trkpt>
      <trkpt lat="44.07392" lon="7.5875">
        <ele>1000</ele>
        <time>2012-10-21T10:42:02Z</time>
      </trkpt>
      <trkpt lat="44.07394" lon="7.58755">
        <ele>1002</ele>
        <time>2012-10-21T10:42:09Z</time>
      </trkpt>
      <trkpt lat="44.07397" lon="7.5876">
        <ele>1003</ele>
        <time>2012-10-21T10:42:15Z</time>
      </trkpt>
      <trkpt lat="44.07398" lon="7.58768">
        <ele>1004</ele>
        <time>2012-10-21T10:42:21Z</time>
      </trkpt>
      <trkpt lat="44.074" lon="7.58776">
        <ele>1004</ele>
        <time>2012-10-21T10:42:26Z</time>
      </trkpt>
      <trkpt lat="44.074" lon="7.58783">
        <ele>1005</ele>
        <time>2012-10-21T10:42:31Z</time>
      </trkpt>
      <trkpt lat="44.074" lon="7.58789">
        <ele>1005</ele>
        <time>2012-10-21T10:42:36Z</time>
      </trkpt>
      <trkpt lat="44.074" lon="7.58791">
        <ele>1005</ele>
        <time>2012-10-21T10:42:46Z</time>
      </trkpt>
      <trkpt lat="44.07402" lon="7.58798">
        <ele>1005</ele>
        <time>2012-10-21T10:42:51Z</time>
      </trkpt>
      <trkpt lat="44.07403" lon="7.58803">
        <ele>1006</ele>
        <time>2012-10-21T10:42:58Z</time>
      </trkpt>
      <trkpt lat="44.07406" lon="7.58813">
        <ele>1007</ele>
        <time>2012-10-21T10:43:03Z</time>
      </trkpt>
      <trkpt lat="44.07403" lon="7.58825">
        <ele>1008</ele>
        <time>2012-10-21T10:43:08Z</time>
      </trkpt>
      <trkpt lat="44.07403" lon="7.58837">
        <ele>1009</ele>
        <time>2012-10-21T10:43:14Z</time>
      </trkpt>
      <trkpt lat="44.07404" lon="7.58844">
        <ele>1010</ele>
        <time>2012-10-21T10:43:20Z</time>
      </trkpt>
      <trkpt lat="44.07405" lon="7.5885">
        <ele>1010</ele>
        <time>2012-10-21T10:43:26Z</time>
      </trkpt>
      <trkpt lat="44.07407" lon="7.58857">
        <ele>1010</ele>
        <time>2012-10-21T10:43:31Z</time>
      </trkpt>
      <trkpt lat="44.07407" lon="7.58865">
        <ele>1010</ele>
        <time>2012-10-21T10:43:37Z</time>
      </trkpt>
      <trkpt lat="44.07407" lon="7.58872">
        <ele>1011</ele>
        <time>2012-10-21T10:43:43Z</time>
      </trkpt>
      <trkpt lat="44.07405" lon="7.58878">
        <ele>1013</ele>
        <time>2012-10-21T10:43:49Z</time>
      </trkpt>
      <trkpt lat="44.07405" lon="7.58887">
        <ele>1014</ele>
        <time>2012-10-21T10:43:54Z</time>
      </trkpt>
      <trkpt lat="44.07408" lon="7.58902">
        <ele>1014</ele>
        <time>2012-10-21T10:43:59Z</time>
      </trkpt>
      <trkpt lat="44.0741" lon="7.58913">
        <ele>1014</ele>
        <time>2012-10-21T10:44:04Z</time>
      </trkpt>
      <trkpt lat="44.07414" lon="7.58935">
        <ele>1014</ele>
        <time>2012-10-21T10:44:09Z</time>
      </trkpt>
      <trkpt lat="44.0742" lon="7.58954">
        <ele>1014</ele>
        <time>2012-10-21T10:44:14Z</time>
      </trkpt>
      <trkpt lat="44.0743" lon="7.58974">
        <ele>1014</ele>
        <time>2012-10-21T10:44:19Z</time>
      </trkpt>
      <trkpt lat="44.07438" lon="7.58991">
        <ele>1014</ele>
        <time>2012-10-21T10:44:24Z</time>
      </trkpt>
      <trkpt lat="44.07448" lon="7.59009">
        <ele>1014</ele>
        <time>2012-10-21T10:44:29Z</time>
      </trkpt>
      <trkpt lat="44.07457" lon="7.5902">
        <ele>1014</ele>
        <time>2012-10-21T10:44:34Z</time>
      </trkpt>
      <trkpt lat="44.07468" lon="7.59043">
        <ele>1014</ele>
        <time>2012-10-21T10:44:39Z</time>
      </trkpt>
      <trkpt lat="44.07479" lon="7.59063">
        <ele>1014</ele>
        <time>2012-10-21T10:44:44Z</time>
      </trkpt>
      <trkpt lat="44.07481" lon="7.59066">
        <ele>1014</ele>
        <time>2012-10-21T10:44:51Z</time>
      </trkpt>
      <trkpt lat="44.07481" lon="7.5907">
        <ele>1013</ele>
        <time>2012-10-21T10:44:57Z</time>
      </trkpt>
      <trkpt lat="44.0748" lon="7.59069">
        <ele>1012</ele>
        <time>2012-10-21T10:45:24Z</time>
      </trkpt>
      <trkpt lat="44.0748" lon="7.59071">
        <ele>1012</ele>
        <time>2012-10-21T10:45:41Z</time>
      </trkpt>
      <trkpt lat="44.07479" lon="7.59071">
        <ele>1012</ele>
        <time>2012-10-21T10:46:17Z</time>
      </trkpt>
      <trkpt lat="44.07479" lon="7.59069">
        <ele>1012</ele>
        <time>2012-10-21T10:46:41Z</time>
      </trkpt>
      <trkpt lat="44.07479" lon="7.59071">
        <ele>1012</ele>
        <time>2012-10-21T10:47:40Z</time>
      </trkpt>
      <trkpt lat="44.0748" lon="7.59069">
        <ele>1012</ele>
        <time>2012-10-21T10:47:46Z</time>
      </trkpt>
      <trkpt lat="44.07479" lon="7.59065">
        <ele>1012</ele>
        <time>2012-10-21T10:47:54Z</time>
      </trkpt>
      <trkpt lat="44.07477" lon="7.59062">
        <ele>1012</ele>
        <time>2012-10-21T10:48:03Z</time>
      </trkpt>
      <trkpt lat="44.07476" lon="7.59062">
        <ele>1012</ele>
        <time>2012-10-21T10:48:12Z</time>
      </trkpt>
      <trkpt lat="44.07472" lon="7.59058">
        <ele>1012</ele>
        <time>2012-10-21T10:48:28Z</time>
      </trkpt>
      <trkpt lat="44.07468" lon="7.59049">
        <ele>1012</ele>
        <time>2012-10-21T10:48:33Z</time>
      </trkpt>
      <trkpt lat="44.07464" lon="7.59039">
        <ele>1012</ele>
        <time>2012-10-21T10:48:38Z</time>
      </trkpt>
      <trkpt lat="44.07459" lon="7.5903">
        <ele>1012</ele>
        <time>2012-10-21T10:48:43Z</time>
      </trkpt>
      <trkpt lat="44.07455" lon="7.59021">
        <ele>1012</ele>
        <time>2012-10-21T10:48:48Z</time>
      </trkpt>
      <trkpt lat="44.0745" lon="7.59012">
        <ele>1013</ele>
        <time>2012-10-21T10:48:53Z</time>
      </trkpt>
      <trkpt lat="44.07446" lon="7.59002">
        <ele>1014</ele>
        <time>2012-10-21T10:48:58Z</time>
      </trkpt>
      <trkpt lat="44.07442" lon="7.58994">
        <ele>1015</ele>
        <time>2012-10-21T10:49:03Z</time>
      </trkpt>
      <trkpt lat="44.07438" lon="7.58986">
        <ele>1015</ele>
        <time>2012-10-21T10:49:08Z</time>
      </trkpt>
      <trkpt lat="44.07434" lon="7.58977">
        <ele>1016</ele>
        <time>2012-10-21T10:49:13Z</time>
      </trkpt>
      <trkpt lat="44.07431" lon="7.58968">
        <ele>1017</ele>
        <time>2012-10-21T10:49:18Z</time>
      </trkpt>
      <trkpt lat="44.07429" lon="7.58963">
        <ele>1018</ele>
        <time>2012-10-21T10:49:24Z</time>
      </trkpt>
      <trkpt lat="44.07427" lon="7.58955">
        <ele>1019</ele>
        <time>2012-10-21T10:49:30Z</time>
      </trkpt>
      <trkpt lat="44.07424" lon="7.58946">
        <ele>1020</ele>
        <time>2012-10-21T10:49:36Z</time>
      </trkpt>
      <trkpt lat="44.07422" lon="7.58937">
        <ele>1020</ele>
        <time>2012-10-21T10:49:42Z</time>
      </trkpt>
      <trkpt lat="44.07421" lon="7.58929">
        <ele>1021</ele>
        <time>2012-10-21T10:49:47Z</time>
      </trkpt>
      <trkpt lat="44.0742" lon="7.58922">
        <ele>1022</ele>
        <time>2012-10-21T10:49:52Z</time>
      </trkpt>
      <trkpt lat="44.0742" lon="7.58915">
        <ele>1023</ele>
        <time>2012-10-21T10:49:57Z</time>
      </trkpt>
      <trkpt lat="44.07421" lon="7.58909">
        <ele>1023</ele>
        <time>2012-10-21T10:50:02Z</time>
      </trkpt>
      <trkpt lat="44.07422" lon="7.58902">
        <ele>1023</ele>
        <time>2012-10-21T10:50:07Z</time>
      </trkpt>
      <trkpt lat="44.07422" lon="7.58894">
        <ele>1024</ele>
        <time>2012-10-21T10:50:12Z</time>
      </trkpt>
      <trkpt lat="44.07423" lon="7.58886">
        <ele>1025</ele>
        <time>2012-10-21T10:50:17Z</time>
      </trkpt>
      <trkpt lat="44.07424" lon="7.58879">
        <ele>1025</ele>
        <time>2012-10-21T10:50:23Z</time>
      </trkpt>
      <trkpt lat="44.07424" lon="7.58872">
        <ele>1025</ele>
        <time>2012-10-21T10:50:28Z</time>
      </trkpt>
      <trkpt lat="44.07424" lon="7.58863">
        <ele>1025</ele>
        <time>2012-10-21T10:50:33Z</time>
      </trkpt>
      <trkpt lat="44.07423" lon="7.58855">
        <ele>1026</ele>
        <time>2012-10-21T10:50:38Z</time>
      </trkpt>
      <trkpt lat="44.07425" lon="7.58847">
        <ele>1027</ele>
        <time>2012-10-21T10:50:44Z</time>
      </trkpt>
      <trkpt lat="44.0743" lon="7.58852">
        <ele>1028</ele>
        <time>2012-10-21T10:50:50Z</time>
      </trkpt>
      <trkpt lat="44.0743" lon="7.58861">
        <ele>1028</ele>
        <time>2012-10-21T10:50:55Z</time>
      </trkpt>
      <trkpt lat="44.07431" lon="7.5887">
        <ele>1028</ele>
        <time>2012-10-21T10:51:00Z</time>
      </trkpt>
      <trkpt lat="44.07432" lon="7.58879">
        <ele>1028</ele>
        <time>2012-10-21T10:51:06Z</time>
      </trkpt>
      <trkpt lat="44.07434" lon="7.58886">
        <ele>1028</ele>
        <time>2012-10-21T10:51:11Z</time>
      </trkpt>
      <trkpt lat="44.07434" lon="7.58894">
        <ele>1029</ele>
        <time>2012-10-21T10:51:17Z</time>
      </trkpt>
      <trkpt lat="44.07434" lon="7.58904">
        <ele>1030</ele>
        <time>2012-10-21T10:51:22Z</time>
      </trkpt>
      <trkpt lat="44.07437" lon="7.58911">
        <ele>1031</ele>
        <time>2012-10-21T10:51:27Z</time>
      </trkpt>
      <trkpt lat="44.07441" lon="7.58909">
        <ele>1032</ele>
        <time>2012-10-21T10:51:33Z</time>
      </trkpt>
      <trkpt lat="44.07441" lon="7.589">
        <ele>1032</ele>
        <time>2012-10-21T10:51:39Z</time>
      </trkpt>
      <trkpt lat="44.0744" lon="7.58891">
        <ele>1034</ele>
        <time>2012-10-21T10:51:44Z</time>
      </trkpt>
      <trkpt lat="44.07439" lon="7.58883">
        <ele>1035</ele>
        <time>2012-10-21T10:51:49Z</time>
      </trkpt>
      <trkpt lat="44.07437" lon="7.58872">
        <ele>1037</ele>
        <time>2012-10-21T10:51:55Z</time>
      </trkpt>
      <trkpt lat="44.07438" lon="7.58863">
        <ele>1038</ele>
        <time>2012-10-21T10:52:01Z</time>
      </trkpt>
      <trkpt lat="44.07438" lon="7.58854">
        <ele>1038</ele>
        <time>2012-10-21T10:52:06Z</time>
      </trkpt>
      <trkpt lat="44.07439" lon="7.58845">
        <ele>1038</ele>
        <time>2012-10-21T10:52:12Z</time>
      </trkpt>
      <trkpt lat="44.0744" lon="7.58836">
        <ele>1039</ele>
        <time>2012-10-21T10:52:17Z</time>
      </trkpt>
      <trkpt lat="44.07441" lon="7.58826">
        <ele>1040</ele>
        <time>2012-10-21T10:52:23Z</time>
      </trkpt>
      <trkpt lat="44.07442" lon="7.58818">
        <ele>1041</ele>
        <time>2012-10-21T10:52:28Z</time>
      </trkpt>
      <trkpt lat="44.07443" lon="7.58812">
        <ele>1042</ele>
        <time>2012-10-21T10:52:33Z</time>
      </trkpt>
      <trkpt lat="44.07446" lon="7.58806">
        <ele>1042</ele>
        <time>2012-10-21T10:52:38Z</time>
      </trkpt>
      <trkpt lat="44.07449" lon="7.58811">
        <ele>1042</ele>
        <time>2012-10-21T10:52:43Z</time>
      </trkpt>
      <trkpt lat="44.07449" lon="7.58818">
        <ele>1042</ele>
        <time>2012-10-21T10:52:49Z</time>
      </trkpt>
      <trkpt lat="44.07449" lon="7.58826">
        <ele>1042</ele>
        <time>2012-10-21T10:52:54Z</time>
      </trkpt>
      <trkpt lat="44.07449" lon="7.58835">
        <ele>1042</ele>
        <time>2012-10-21T10:52:59Z</time>
      </trkpt>
      <trkpt lat="44.07448" lon="7.58843">
        <ele>1042</ele>
        <time>2012-10-21T10:53:05Z</time>
      </trkpt>
      <trkpt lat="44.07447" lon="7.58844">
        <ele>1042</ele>
        <time>2012-10-21T10:53:17Z</time>
      </trkpt>
      <trkpt lat="44.07445" lon="7.58846">
        <ele>1046</ele>
        <time>2012-10-21T10:53:23Z</time>
      </trkpt>
      <trkpt lat="44.07446" lon="7.58854">
        <ele>1048</ele>
        <time>2012-10-21T10:53:28Z</time>
      </trkpt>
      <trkpt lat="44.07452" lon="7.58857">
        <ele>1048</ele>
        <time>2012-10-21T10:53:33Z</time>
      </trkpt>
      <trkpt lat="44.07453" lon="7.5885">
        <ele>1048</ele>
        <time>2012-10-21T10:53:38Z</time>
      </trkpt>
      <trkpt lat="44.07454" lon="7.58842">
        <ele>1049</ele>
        <time>2012-10-21T10:53:43Z</time>
      </trkpt>
      <trkpt lat="44.07455" lon="7.58833">
        <ele>1049</ele>
        <time>2012-10-21T10:53:48Z</time>
      </trkpt>
      <trkpt lat="44.07457" lon="7.58825">
        <ele>1049</ele>
        <time>2012-10-21T10:53:54Z</time>
      </trkpt>
      <trkpt lat="44.07458" lon="7.58818">
        <ele>1049</ele>
        <time>2012-10-21T10:53:59Z</time>
      </trkpt>
      <trkpt lat="44.0746" lon="7.5881">
        <ele>1049</ele>
        <time>2012-10-21T10:54:05Z</time>
      </trkpt>
      <trkpt lat="44.0746" lon="7.58801">
        <ele>1049</ele>
        <time>2012-10-21T10:54:10Z</time>
      </trkpt>
      <trkpt lat="44.07459" lon="7.58793">
        <ele>1050</ele>
        <time>2012-10-21T10:54:15Z</time>
      </trkpt>
      <trkpt lat="44.07458" lon="7.58784">
        <ele>1051</ele>
        <time>2012-10-21T10:54:20Z</time>
      </trkpt>
      <trkpt lat="44.07459" lon="7.58776">
        <ele>1052</ele>
        <time>2012-10-21T10:54:25Z</time>
      </trkpt>
      <trkpt lat="44.07461" lon="7.58768">
        <ele>1053</ele>
        <time>2012-10-21T10:54:30Z</time>
      </trkpt>
      <trkpt lat="44.07465" lon="7.58761">
        <ele>1054</ele>
        <time>2012-10-21T10:54:35Z</time>
      </trkpt>
      <trkpt lat="44.0747" lon="7.58754">
        <ele>1055</ele>
        <time>2012-10-21T10:54:41Z</time>
      </trkpt>
      <trkpt lat="44.07475" lon="7.5875">
        <ele>1055</ele>
        <time>2012-10-21T10:54:46Z</time>
      </trkpt>
      <trkpt lat="44.07481" lon="7.58745">
        <ele>1055</ele>
        <time>2012-10-21T10:54:52Z</time>
      </trkpt>
      <trkpt lat="44.07486" lon="7.5874">
        <ele>1055</ele>
        <time>2012-10-21T10:54:58Z</time>
      </trkpt>
      <trkpt lat="44.07491" lon="7.58732">
        <ele>1055</ele>
        <time>2012-10-21T10:55:04Z</time>
      </trkpt>
      <trkpt lat="44.07495" lon="7.58724">
        <ele>1056</ele>
        <time>2012-10-21T10:55:10Z</time>
      </trkpt>
      <trkpt lat="44.07497" lon="7.58717">
        <ele>1058</ele>
        <time>2012-10-21T10:55:15Z</time>
      </trkpt>
      <trkpt lat="44.07499" lon="7.58709">
        <ele>1059</ele>
        <time>2012-10-21T10:55:20Z</time>
      </trkpt>
      <trkpt lat="44.075" lon="7.58701">
        <ele>1061</ele>
        <time>2012-10-21T10:55:25Z</time>
      </trkpt>
      <trkpt lat="44.07502" lon="7.58691">
        <ele>1061</ele>
        <time>2012-10-21T10:55:31Z</time>
      </trkpt>
      <trkpt lat="44.07505" lon="7.58682">
        <ele>1063</ele>
        <time>2012-10-21T10:55:37Z</time>
      </trkpt>
      <trkpt lat="44.07507" lon="7.58673">
        <ele>1064</ele>
        <time>2012-10-21T10:55:43Z</time>
      </trkpt>
      <trkpt lat="44.07507" lon="7.58663">
        <ele>1066</ele>
        <time>2012-10-21T10:55:49Z</time>
      </trkpt>
      <trkpt lat="44.07505" lon="7.58655">
        <ele>1068</ele>
        <time>2012-10-21T10:55:54Z</time>
      </trkpt>
      <trkpt lat="44.07503" lon="7.58647">
        <ele>1068</ele>
        <time>2012-10-21T10:55:59Z</time>
      </trkpt>
      <trkpt lat="44.07498" lon="7.58638">
        <ele>1069</ele>
        <time>2012-10-21T10:56:05Z</time>
      </trkpt>
      <trkpt lat="44.07494" lon="7.5863">
        <ele>1070</ele>
        <time>2012-10-21T10:56:10Z</time>
      </trkpt>
      <trkpt lat="44.07491" lon="7.58623">
        <ele>1070</ele>
        <time>2012-10-21T10:56:15Z</time>
      </trkpt>
      <trkpt lat="44.07488" lon="7.58616">
        <ele>1070</ele>
        <time>2012-10-21T10:56:20Z</time>
      </trkpt>
      <trkpt lat="44.07484" lon="7.58609">
        <ele>1070</ele>
        <time>2012-10-21T10:56:25Z</time>
      </trkpt>
      <trkpt lat="44.07481" lon="7.586">
        <ele>1070</ele>
        <time>2012-10-21T10:56:31Z</time>
      </trkpt>
      <trkpt lat="44.07478" lon="7.58589">
        <ele>1070</ele>
        <time>2012-10-21T10:56:38Z</time>
      </trkpt>
      <trkpt lat="44.07477" lon="7.5858">
        <ele>1070</ele>
        <time>2012-10-21T10:56:44Z</time>
      </trkpt>
      <trkpt lat="44.07475" lon="7.5857">
        <ele>1070</ele>
        <time>2012-10-21T10:56:50Z</time>
      </trkpt>
      <trkpt lat="44.07474" lon="7.58562">
        <ele>1070</ele>
        <time>2012-10-21T10:56:55Z</time>
      </trkpt>
      <trkpt lat="44.07473" lon="7.58554">
        <ele>1070</ele>
        <time>2012-10-21T10:57:00Z</time>
      </trkpt>
      <trkpt lat="44.07473" lon="7.58546">
        <ele>1071</ele>
        <time>2012-10-21T10:57:06Z</time>
      </trkpt>
      <trkpt lat="44.07472" lon="7.58539">
        <ele>1071</ele>
        <time>2012-10-21T10:57:11Z</time>
      </trkpt>
      <trkpt lat="44.07472" lon="7.58531">
        <ele>1072</ele>
        <time>2012-10-21T10:57:16Z</time>
      </trkpt>
      <trkpt lat="44.07474" lon="7.58525">
        <ele>1073</ele>
        <time>2012-10-21T10:57:21Z</time>
      </trkpt>
      <trkpt lat="44.07478" lon="7.58531">
        <ele>1073</ele>
        <time>2012-10-21T10:57:27Z</time>
      </trkpt>
      <trkpt lat="44.07481" lon="7.5854">
        <ele>1073</ele>
        <time>2012-10-21T10:57:34Z</time>
      </trkpt>
      <trkpt lat="44.07482" lon="7.58551">
        <ele>1073</ele>
        <time>2012-10-21T10:57:40Z</time>
      </trkpt>
      <trkpt lat="44.07485" lon="7.58558">
        <ele>1073</ele>
        <time>2012-10-21T10:57:45Z</time>
      </trkpt>
      <trkpt lat="44.07486" lon="7.58566">
        <ele>1074</ele>
        <time>2012-10-21T10:57:50Z</time>
      </trkpt>
      <trkpt lat="44.07487" lon="7.58574">
        <ele>1074</ele>
        <time>2012-10-21T10:57:56Z</time>
      </trkpt>
      <trkpt lat="44.07493" lon="7.5858">
        <ele>1075</ele>
        <time>2012-10-21T10:58:02Z</time>
      </trkpt>
      <trkpt lat="44.07495" lon="7.58578">
        <ele>1076</ele>
        <time>2012-10-21T10:58:07Z</time>
      </trkpt>
      <trkpt lat="44.07494" lon="7.5857">
        <ele>1077</ele>
        <time>2012-10-21T10:58:12Z</time>
      </trkpt>
      <trkpt lat="44.07492" lon="7.5856">
        <ele>1079</ele>
        <time>2012-10-21T10:58:19Z</time>
      </trkpt>
      <trkpt lat="44.0749" lon="7.58552">
        <ele>1082</ele>
        <time>2012-10-21T10:58:25Z</time>
      </trkpt>
      <trkpt lat="44.0749" lon="7.58544">
        <ele>1082</ele>
        <time>2012-10-21T10:58:30Z</time>
      </trkpt>
      <trkpt lat="44.07491" lon="7.58535">
        <ele>1082</ele>
        <time>2012-10-21T10:58:36Z</time>
      </trkpt>
      <trkpt lat="44.07492" lon="7.58527">
        <ele>1082</ele>
        <time>2012-10-21T10:58:42Z</time>
      </trkpt>
      <trkpt lat="44.07492" lon="7.58516">
        <ele>1082</ele>
        <time>2012-10-21T10:58:48Z</time>
      </trkpt>
      <trkpt lat="44.07491" lon="7.58506">
        <ele>1082</ele>
        <time>2012-10-21T10:58:53Z</time>
      </trkpt>
      <trkpt lat="44.07492" lon="7.58497">
        <ele>1084</ele>
        <time>2012-10-21T10:58:59Z</time>
      </trkpt>
      <trkpt lat="44.07492" lon="7.5849">
        <ele>1085</ele>
        <time>2012-10-21T10:59:04Z</time>
      </trkpt>
      <trkpt lat="44.07492" lon="7.5848">
        <ele>1087</ele>
        <time>2012-10-21T10:59:10Z</time>
      </trkpt>
      <trkpt lat="44.07492" lon="7.58473">
        <ele>1088</ele>
        <time>2012-10-21T10:59:15Z</time>
      </trkpt>
      <trkpt lat="44.07492" lon="7.58463">
        <ele>1090</ele>
        <time>2012-10-21T10:59:21Z</time>
      </trkpt>
      <trkpt lat="44.07492" lon="7.58454">
        <ele>1091</ele>
        <time>2012-10-21T10:59:27Z</time>
      </trkpt>
      <trkpt lat="44.07492" lon="7.58446">
        <ele>1092</ele>
        <time>2012-10-21T10:59:32Z</time>
      </trkpt>
      <trkpt lat="44.07495" lon="7.58438">
        <ele>1094</ele>
        <time>2012-10-21T10:59:39Z</time>
      </trkpt>
      <trkpt lat="44.07499" lon="7.58443">
        <ele>1094</ele>
        <time>2012-10-21T10:59:44Z</time>
      </trkpt>
      <trkpt lat="44.07499" lon="7.58452">
        <ele>1095</ele>
        <time>2012-10-21T10:59:49Z</time>
      </trkpt>
      <trkpt lat="44.07498" lon="7.58459">
        <ele>1095</ele>
        <time>2012-10-21T10:59:54Z</time>
      </trkpt>
      <trkpt lat="44.07499" lon="7.58467">
        <ele>1095</ele>
        <time>2012-10-21T10:59:59Z</time>
      </trkpt>
      <trkpt lat="44.075" lon="7.58475">
        <ele>1095</ele>
        <time>2012-10-21T11:00:04Z</time>
      </trkpt>
      <trkpt lat="44.075" lon="7.58486">
        <ele>1095</ele>
        <time>2012-10-21T11:00:10Z</time>
      </trkpt>
      <trkpt lat="44.075" lon="7.58494">
        <ele>1095</ele>
        <time>2012-10-21T11:00:15Z</time>
      </trkpt>
      <trkpt lat="44.07499" lon="7.58503">
        <ele>1096</ele>
        <time>2012-10-21T11:00:21Z</time>
      </trkpt>
      <trkpt lat="44.07501" lon="7.58514">
        <ele>1097</ele>
        <time>2012-10-21T11:00:28Z</time>
      </trkpt>
      <trkpt lat="44.07507" lon="7.5851">
        <ele>1098</ele>
        <time>2012-10-21T11:00:34Z</time>
      </trkpt>
      <trkpt lat="44.07509" lon="7.58504">
        <ele>1098</ele>
        <time>2012-10-21T11:00:39Z</time>
      </trkpt>
      <trkpt lat="44.0751" lon="7.58496">
        <ele>1098</ele>
        <time>2012-10-21T11:00:44Z</time>
      </trkpt>
      <trkpt lat="44.0751" lon="7.58486">
        <ele>1099</ele>
        <time>2012-10-21T11:00:50Z</time>
      </trkpt>
      <trkpt lat="44.0751" lon="7.58478">
        <ele>1100</ele>
        <time>2012-10-21T11:00:55Z</time>
      </trkpt>
      <trkpt lat="44.0751" lon="7.58467">
        <ele>1103</ele>
        <time>2012-10-21T11:01:01Z</time>
      </trkpt>
      <trkpt lat="44.07511" lon="7.58459">
        <ele>1104</ele>
        <time>2012-10-21T11:01:06Z</time>
      </trkpt>
      <trkpt lat="44.07512" lon="7.5845">
        <ele>1104</ele>
        <time>2012-10-21T11:01:12Z</time>
      </trkpt>
      <trkpt lat="44.07512" lon="7.58441">
        <ele>1104</ele>
        <time>2012-10-21T11:01:18Z</time>
      </trkpt>
      <trkpt lat="44.07513" lon="7.58434">
        <ele>1104</ele>
        <time>2012-10-21T11:01:23Z</time>
      </trkpt>
      <trkpt lat="44.07513" lon="7.58426">
        <ele>1104</ele>
        <time>2012-10-21T11:01:28Z</time>
      </trkpt>
      <trkpt lat="44.07513" lon="7.58419">
        <ele>1107</ele>
        <time>2012-10-21T11:01:33Z</time>
      </trkpt>
      <trkpt lat="44.07513" lon="7.58409">
        <ele>1109</ele>
        <time>2012-10-21T11:01:39Z</time>
      </trkpt>
      <trkpt lat="44.07513" lon="7.584">
        <ele>1109</ele>
        <time>2012-10-21T11:01:44Z</time>
      </trkpt>
      <trkpt lat="44.0751" lon="7.58392">
        <ele>1109</ele>
        <time>2012-10-21T11:01:49Z</time>
      </trkpt>
      <trkpt lat="44.07506" lon="7.58385">
        <ele>1110</ele>
        <time>2012-10-21T11:01:54Z</time>
      </trkpt>
      <trkpt lat="44.075" lon="7.58379">
        <ele>1111</ele>
        <time>2012-10-21T11:01:59Z</time>
      </trkpt>
      <trkpt lat="44.07494" lon="7.58372">
        <ele>1111</ele>
        <time>2012-10-21T11:02:05Z</time>
      </trkpt>
      <trkpt lat="44.07489" lon="7.58366">
        <ele>1112</ele>
        <time>2012-10-21T11:02:11Z</time>
      </trkpt>
      <trkpt lat="44.07485" lon="7.58358">
        <ele>1113</ele>
        <time>2012-10-21T11:02:16Z</time>
      </trkpt>
      <trkpt lat="44.07483" lon="7.5835">
        <ele>1114</ele>
        <time>2012-10-21T11:02:21Z</time>
      </trkpt>
      <trkpt lat="44.07481" lon="7.58341">
        <ele>1115</ele>
        <time>2012-10-21T11:02:27Z</time>
      </trkpt>
      <trkpt lat="44.07479" lon="7.58333">
        <ele>1117</ele>
        <time>2012-10-21T11:02:32Z</time>
      </trkpt>
      <trkpt lat="44.07478" lon="7.58324">
        <ele>1118</ele>
        <time>2012-10-21T11:02:38Z</time>
      </trkpt>
      <trkpt lat="44.07472" lon="7.5832">
        <ele>1119</ele>
        <time>2012-10-21T11:02:44Z</time>
      </trkpt>
      <trkpt lat="44.07465" lon="7.58318">
        <ele>1120</ele>
        <time>2012-10-21T11:02:49Z</time>
      </trkpt>
      <trkpt lat="44.07459" lon="7.58321">
        <ele>1120</ele>
        <time>2012-10-21T11:02:55Z</time>
      </trkpt>
      <trkpt lat="44.07454" lon="7.58322">
        <ele>1120</ele>
        <time>2012-10-21T11:03:00Z</time>
      </trkpt>
      <trkpt lat="44.07448" lon="7.58322">
        <ele>1120</ele>
        <time>2012-10-21T11:03:05Z</time>
      </trkpt>
      <trkpt lat="44.07441" lon="7.58322">
        <ele>1120</ele>
        <time>2012-10-21T11:03:11Z</time>
      </trkpt>
      <trkpt lat="44.07434" lon="7.5832">
        <ele>1120</ele>
        <time>2012-10-21T11:03:16Z</time>
      </trkpt>
      <trkpt lat="44.07428" lon="7.58318">
        <ele>1122</ele>
        <time>2012-10-21T11:03:21Z</time>
      </trkpt>
      <trkpt lat="44.07421" lon="7.58316">
        <ele>1123</ele>
        <time>2012-10-21T11:03:27Z</time>
      </trkpt>
      <trkpt lat="44.07414" lon="7.58313">
        <ele>1124</ele>
        <time>2012-10-21T11:03:33Z</time>
      </trkpt>
      <trkpt lat="44.07409" lon="7.5831">
        <ele>1125</ele>
        <time>2012-10-21T11:03:38Z</time>
      </trkpt>
      <trkpt lat="44.07404" lon="7.58307">
        <ele>1125</ele>
        <time>2012-10-21T11:03:43Z</time>
      </trkpt>
      <trkpt lat="44.07398" lon="7.58305">
        <ele>1125</ele>
        <time>2012-10-21T11:03:48Z</time>
      </trkpt>
      <trkpt lat="44.07391" lon="7.583">
        <ele>1126</ele>
        <time>2012-10-21T11:03:54Z</time>
      </trkpt>
      <trkpt lat="44.07385" lon="7.58296">
        <ele>1126</ele>
        <time>2012-10-21T11:04:00Z</time>
      </trkpt>
      <trkpt lat="44.0738" lon="7.58293">
        <ele>1126</ele>
        <time>2012-10-21T11:04:05Z</time>
      </trkpt>
      <trkpt lat="44.07374" lon="7.5829">
        <ele>1127</ele>
        <time>2012-10-21T11:04:10Z</time>
      </trkpt>
      <trkpt lat="44.07369" lon="7.58287">
        <ele>1127</ele>
        <time>2012-10-21T11:04:15Z</time>
      </trkpt>
      <trkpt lat="44.07364" lon="7.58285">
        <ele>1127</ele>
        <time>2012-10-21T11:04:20Z</time>
      </trkpt>
      <trkpt lat="44.07358" lon="7.58282">
        <ele>1128</ele>
        <time>2012-10-21T11:04:26Z</time>
      </trkpt>
      <trkpt lat="44.07357" lon="7.58274">
        <ele>1130</ele>
        <time>2012-10-21T11:04:31Z</time>
      </trkpt>
      <trkpt lat="44.07362" lon="7.58274">
        <ele>1131</ele>
        <time>2012-10-21T11:04:36Z</time>
      </trkpt>
      <trkpt lat="44.07369" lon="7.58276">
        <ele>1131</ele>
        <time>2012-10-21T11:04:42Z</time>
      </trkpt>
      <trkpt lat="44.07375" lon="7.58277">
        <ele>1131</ele>
        <time>2012-10-21T11:04:47Z</time>
      </trkpt>
      <trkpt lat="44.07381" lon="7.58279">
        <ele>1131</ele>
        <time>2012-10-21T11:04:52Z</time>
      </trkpt>
      <trkpt lat="44.07388" lon="7.5828">
        <ele>1132</ele>
        <time>2012-10-21T11:04:58Z</time>
      </trkpt>
      <trkpt lat="44.07394" lon="7.58281">
        <ele>1132</ele>
        <time>2012-10-21T11:05:03Z</time>
      </trkpt>
      <trkpt lat="44.07399" lon="7.58282">
        <ele>1133</ele>
        <time>2012-10-21T11:05:08Z</time>
      </trkpt>
      <trkpt lat="44.07406" lon="7.58283">
        <ele>1133</ele>
        <time>2012-10-21T11:05:13Z</time>
      </trkpt>
      <trkpt lat="44.07413" lon="7.58284">
        <ele>1133</ele>
        <time>2012-10-21T11:05:19Z</time>
      </trkpt>
      <trkpt lat="44.07419" lon="7.58286">
        <ele>1133</ele>
        <time>2012-10-21T11:05:25Z</time>
      </trkpt>
      <trkpt lat="44.07425" lon="7.58287">
        <ele>1134</ele>
        <time>2012-10-21T11:05:30Z</time>
      </trkpt>
      <trkpt lat="44.07432" lon="7.58286">
        <ele>1135</ele>
        <time>2012-10-21T11:05:35Z</time>
      </trkpt>
      <trkpt lat="44.07438" lon="7.58286">
        <ele>1135</ele>
        <time>2012-10-21T11:05:40Z</time>
      </trkpt>
      <trkpt lat="44.07445" lon="7.58284">
        <ele>1135</ele>
        <time>2012-10-21T11:05:45Z</time>
      </trkpt>
      <trkpt lat="44.07452" lon="7.58283">
        <ele>1136</ele>
        <time>2012-10-21T11:05:50Z</time>
      </trkpt>
      <trkpt lat="44.0746" lon="7.58283">
        <ele>1138</ele>
        <time>2012-10-21T11:05:56Z</time>
      </trkpt>
      <trkpt lat="44.07466" lon="7.58281">
        <ele>1140</ele>
        <time>2012-10-21T11:06:01Z</time>
      </trkpt>
      <trkpt lat="44.07467" lon="7.58275">
        <ele>1141</ele>
        <time>2012-10-21T11:06:07Z</time>
      </trkpt>
      <trkpt lat="44.07461" lon="7.58272">
        <ele>1141</ele>
        <time>2012-10-21T11:06:12Z</time>
      </trkpt>
      <trkpt lat="44.07455" lon="7.58273">
        <ele>1141</ele>
        <time>2012-10-21T11:06:17Z</time>
      </trkpt>
      <trkpt lat="44.07449" lon="7.58273">
        <ele>1141</ele>
        <time>2012-10-21T11:06:22Z</time>
      </trkpt>
      <trkpt lat="44.07441" lon="7.58274">
        <ele>1142</ele>
        <time>2012-10-21T11:06:27Z</time>
      </trkpt>
      <trkpt lat="44.07435" lon="7.58275">
        <ele>1146</ele>
        <time>2012-10-21T11:06:32Z</time>
      </trkpt>
      <trkpt lat="44.07428" lon="7.58273">
        <ele>1147</ele>
        <time>2012-10-21T11:06:37Z</time>
      </trkpt>
      <trkpt lat="44.07423" lon="7.5827">
        <ele>1148</ele>
        <time>2012-10-21T11:06:42Z</time>
      </trkpt>
      <trkpt lat="44.07417" lon="7.58265">
        <ele>1148</ele>
        <time>2012-10-21T11:06:47Z</time>
      </trkpt>
      <trkpt lat="44.07412" lon="7.58262">
        <ele>1148</ele>
        <time>2012-10-21T11:06:52Z</time>
      </trkpt>
      <trkpt lat="44.07406" lon="7.58259">
        <ele>1148</ele>
        <time>2012-10-21T11:06:57Z</time>
      </trkpt>
      <trkpt lat="44.07399" lon="7.58253">
        <ele>1149</ele>
        <time>2012-10-21T11:07:03Z</time>
      </trkpt>
      <trkpt lat="44.07395" lon="7.58252">
        <ele>1149</ele>
        <time>2012-10-21T11:07:09Z</time>
      </trkpt>
      <trkpt lat="44.0739" lon="7.58249">
        <ele>1150</ele>
        <time>2012-10-21T11:07:14Z</time>
      </trkpt>
      <trkpt lat="44.07385" lon="7.58247">
        <ele>1151</ele>
        <time>2012-10-21T11:07:19Z</time>
      </trkpt>
      <trkpt lat="44.07378" lon="7.58247">
        <ele>1154</ele>
        <time>2012-10-21T11:07:24Z</time>
      </trkpt>
      <trkpt lat="44.07373" lon="7.58243">
        <ele>1155</ele>
        <time>2012-10-21T11:07:29Z</time>
      </trkpt>
      <trkpt lat="44.07367" lon="7.58239">
        <ele>1155</ele>
        <time>2012-10-21T11:07:35Z</time>
      </trkpt>
      <trkpt lat="44.0736" lon="7.58237">
        <ele>1155</ele>
        <time>2012-10-21T11:07:41Z</time>
      </trkpt>
      <trkpt lat="44.07354" lon="7.58236">
        <ele>1155</ele>
        <time>2012-10-21T11:07:47Z</time>
      </trkpt>
      <trkpt lat="44.07348" lon="7.58235">
        <ele>1156</ele>
        <time>2012-10-21T11:07:52Z</time>
      </trkpt>
      <trkpt lat="44.07342" lon="7.58234">
        <ele>1159</ele>
        <time>2012-10-21T11:07:57Z</time>
      </trkpt>
      <trkpt lat="44.07336" lon="7.5823">
        <ele>1160</ele>
        <time>2012-10-21T11:08:02Z</time>
      </trkpt>
      <trkpt lat="44.07331" lon="7.58225">
        <ele>1160</ele>
        <time>2012-10-21T11:08:07Z</time>
      </trkpt>
      <trkpt lat="44.07328" lon="7.58222">
        <ele>1160</ele>
        <time>2012-10-21T11:08:13Z</time>
      </trkpt>
      <trkpt lat="44.07321" lon="7.58216">
        <ele>1160</ele>
        <time>2012-10-21T11:08:18Z</time>
      </trkpt>
      <trkpt lat="44.0731" lon="7.58215">
        <ele>1160</ele>
        <time>2012-10-21T11:08:23Z</time>
      </trkpt>
      <trkpt lat="44.07298" lon="7.58218">
        <ele>1160</ele>
        <time>2012-10-21T11:08:28Z</time>
      </trkpt>
      <trkpt lat="44.07285" lon="7.58222">
        <ele>1160</ele>
        <time>2012-10-21T11:08:33Z</time>
      </trkpt>
      <trkpt lat="44.07268" lon="7.58227">
        <ele>1160</ele>
        <time>2012-10-21T11:08:38Z</time>
      </trkpt>
      <trkpt lat="44.07251" lon="7.58232">
        <ele>1160</ele>
        <time>2012-10-21T11:08:43Z</time>
      </trkpt>
      <trkpt lat="44.07232" lon="7.58234">
        <ele>1160</ele>
        <time>2012-10-21T11:08:48Z</time>
      </trkpt>
      <trkpt lat="44.07214" lon="7.58231">
        <ele>1160</ele>
        <time>2012-10-21T11:08:53Z</time>
      </trkpt>
      <trkpt lat="44.07197" lon="7.58221">
        <ele>1160</ele>
        <time>2012-10-21T11:08:58Z</time>
      </trkpt>
      <trkpt lat="44.07185" lon="7.58211">
        <ele>1160</ele>
        <time>2012-10-21T11:09:03Z</time>
      </trkpt>
      <trkpt lat="44.07179" lon="7.58206">
        <ele>1160</ele>
        <time>2012-10-21T11:09:09Z</time>
      </trkpt>
      <trkpt lat="44.07173" lon="7.58202">
        <ele>1160</ele>
        <time>2012-10-21T11:09:14Z</time>
      </trkpt>
      <trkpt lat="44.07167" lon="7.58196">
        <ele>1160</ele>
        <time>2012-10-21T11:09:19Z</time>
      </trkpt>
      <trkpt lat="44.07161" lon="7.58192">
        <ele>1160</ele>
        <time>2012-10-21T11:09:24Z</time>
      </trkpt>
      <trkpt lat="44.07154" lon="7.58188">
        <ele>1160</ele>
        <time>2012-10-21T11:09:30Z</time>
      </trkpt>
      <trkpt lat="44.07148" lon="7.58184">
        <ele>1161</ele>
        <time>2012-10-21T11:09:35Z</time>
      </trkpt>
      <trkpt lat="44.07142" lon="7.5818">
        <ele>1162</ele>
        <time>2012-10-21T11:09:41Z</time>
      </trkpt>
      <trkpt lat="44.07137" lon="7.58175">
        <ele>1162</ele>
        <time>2012-10-21T11:09:46Z</time>
      </trkpt>
      <trkpt lat="44.07132" lon="7.5817">
        <ele>1162</ele>
        <time>2012-10-21T11:09:51Z</time>
      </trkpt>
      <trkpt lat="44.07127" lon="7.58165">
        <ele>1162</ele>
        <time>2012-10-21T11:09:56Z</time>
      </trkpt>
      <trkpt lat="44.07121" lon="7.58161">
        <ele>1162</ele>
        <time>2012-10-21T11:10:01Z</time>
      </trkpt>
      <trkpt lat="44.07116" lon="7.58156">
        <ele>1162</ele>
        <time>2012-10-21T11:10:06Z</time>
      </trkpt>
      <trkpt lat="44.07111" lon="7.5815">
        <ele>1163</ele>
        <time>2012-10-21T11:10:11Z</time>
      </trkpt>
      <trkpt lat="44.07105" lon="7.58143">
        <ele>1164</ele>
        <time>2012-10-21T11:10:16Z</time>
      </trkpt>
      <trkpt lat="44.071" lon="7.58137">
        <ele>1164</ele>
        <time>2012-10-21T11:10:21Z</time>
      </trkpt>
      <trkpt lat="44.07094" lon="7.58129">
        <ele>1165</ele>
        <time>2012-10-21T11:10:27Z</time>
      </trkpt>
      <trkpt lat="44.0709" lon="7.58122">
        <ele>1165</ele>
        <time>2012-10-21T11:10:32Z</time>
      </trkpt>
      <trkpt lat="44.07084" lon="7.58113">
        <ele>1165</ele>
        <time>2012-10-21T11:10:38Z</time>
      </trkpt>
      <trkpt lat="44.07081" lon="7.58105">
        <ele>1166</ele>
        <time>2012-10-21T11:10:43Z</time>
      </trkpt>
      <trkpt lat="44.07079" lon="7.58101">
        <ele>1168</ele>
        <time>2012-10-21T11:10:51Z</time>
      </trkpt>
      <trkpt lat="44.07079" lon="7.58099">
        <ele>1168</ele>
        <time>2012-10-21T11:10:57Z</time>
      </trkpt>
      <trkpt lat="44.07077" lon="7.58091">
        <ele>1168</ele>
        <time>2012-10-21T11:11:02Z</time>
      </trkpt>
      <trkpt lat="44.07075" lon="7.58083">
        <ele>1169</ele>
        <time>2012-10-21T11:11:07Z</time>
      </trkpt>
      <trkpt lat="44.07074" lon="7.58075">
        <ele>1170</ele>
        <time>2012-10-21T11:11:12Z</time>
      </trkpt>
      <trkpt lat="44.07072" lon="7.58067">
        <ele>1171</ele>
        <time>2012-10-21T11:11:17Z</time>
      </trkpt>
      <trkpt lat="44.07071" lon="7.58059">
        <ele>1172</ele>
        <time>2012-10-21T11:11:22Z</time>
      </trkpt>
      <trkpt lat="44.0707" lon="7.58051">
        <ele>1173</ele>
        <time>2012-10-21T11:11:27Z</time>
      </trkpt>
      <trkpt lat="44.07069" lon="7.58044">
        <ele>1173</ele>
        <time>2012-10-21T11:11:32Z</time>
      </trkpt>
      <trkpt lat="44.07068" lon="7.58036">
        <ele>1174</ele>
        <time>2012-10-21T11:11:37Z</time>
      </trkpt>
      <trkpt lat="44.07068" lon="7.58029">
        <ele>1174</ele>
        <time>2012-10-21T11:11:42Z</time>
      </trkpt>
      <trkpt lat="44.07066" lon="7.58019">
        <ele>1175</ele>
        <time>2012-10-21T11:11:47Z</time>
      </trkpt>
      <trkpt lat="44.07064" lon="7.5801">
        <ele>1177</ele>
        <time>2012-10-21T11:11:52Z</time>
      </trkpt>
      <trkpt lat="44.07064" lon="7.58002">
        <ele>1178</ele>
        <time>2012-10-21T11:11:57Z</time>
      </trkpt>
      <trkpt lat="44.07063" lon="7.57994">
        <ele>1178</ele>
        <time>2012-10-21T11:12:02Z</time>
      </trkpt>
      <trkpt lat="44.07063" lon="7.57986">
        <ele>1178</ele>
        <time>2012-10-21T11:12:07Z</time>
      </trkpt>
      <trkpt lat="44.07062" lon="7.57977">
        <ele>1179</ele>
        <time>2012-10-21T11:12:13Z</time>
      </trkpt>
      <trkpt lat="44.0706" lon="7.57966">
        <ele>1180</ele>
        <time>2012-10-21T11:12:18Z</time>
      </trkpt>
      <trkpt lat="44.07058" lon="7.57951">
        <ele>1181</ele>
        <time>2012-10-21T11:12:23Z</time>
      </trkpt>
      <trkpt lat="44.07058" lon="7.57934">
        <ele>1182</ele>
        <time>2012-10-21T11:12:28Z</time>
      </trkpt>
      <trkpt lat="44.07055" lon="7.57914">
        <ele>1182</ele>
        <time>2012-10-21T11:12:33Z</time>
      </trkpt>
      <trkpt lat="44.07053" lon="7.57895">
        <ele>1182</ele>
        <time>2012-10-21T11:12:38Z</time>
      </trkpt>
      <trkpt lat="44.07051" lon="7.57875">
        <ele>1182</ele>
        <time>2012-10-21T11:12:43Z</time>
      </trkpt>
      <trkpt lat="44.07049" lon="7.57852">
        <ele>1182</ele>
        <time>2012-10-21T11:12:48Z</time>
      </trkpt>
      <trkpt lat="44.0705" lon="7.57829">
        <ele>1182</ele>
        <time>2012-10-21T11:12:53Z</time>
      </trkpt>
      <trkpt lat="44.07054" lon="7.57806">
        <ele>1182</ele>
        <time>2012-10-21T11:12:58Z</time>
      </trkpt>
      <trkpt lat="44.07061" lon="7.57788">
        <ele>1182</ele>
        <time>2012-10-21T11:13:03Z</time>
      </trkpt>
      <trkpt lat="44.07071" lon="7.5777">
        <ele>1182</ele>
        <time>2012-10-21T11:13:08Z</time>
      </trkpt>
      <trkpt lat="44.07082" lon="7.57754">
        <ele>1182</ele>
        <time>2012-10-21T11:13:13Z</time>
      </trkpt>
      <trkpt lat="44.07092" lon="7.57737">
        <ele>1182</ele>
        <time>2012-10-21T11:13:18Z</time>
      </trkpt>
      <trkpt lat="44.07105" lon="7.57729">
        <ele>1182</ele>
        <time>2012-10-21T11:13:23Z</time>
      </trkpt>
      <trkpt lat="44.07122" lon="7.57728">
        <ele>1182</ele>
        <time>2012-10-21T11:13:28Z</time>
      </trkpt>
      <trkpt lat="44.07138" lon="7.57728">
        <ele>1186</ele>
        <time>2012-10-21T11:13:33Z</time>
      </trkpt>
      <trkpt lat="44.07153" lon="7.57726">
        <ele>1190</ele>
        <time>2012-10-21T11:13:38Z</time>
      </trkpt>
      <trkpt lat="44.07165" lon="7.57716">
        <ele>1191</ele>
        <time>2012-10-21T11:13:43Z</time>
      </trkpt>
      <trkpt lat="44.07172" lon="7.57703">
        <ele>1191</ele>
        <time>2012-10-21T11:13:48Z</time>
      </trkpt>
      <trkpt lat="44.07178" lon="7.57686">
        <ele>1191</ele>
        <time>2012-10-21T11:13:53Z</time>
      </trkpt>
      <trkpt lat="44.07183" lon="7.57667">
        <ele>1191</ele>
        <time>2012-10-21T11:13:58Z</time>
      </trkpt>
      <trkpt lat="44.07177" lon="7.57647">
        <ele>1191</ele>
        <time>2012-10-21T11:14:03Z</time>
      </trkpt>
      <trkpt lat="44.07161" lon="7.57642">
        <ele>1192</ele>
        <time>2012-10-21T11:14:08Z</time>
      </trkpt>
      <trkpt lat="44.07157" lon="7.57645">
        <ele>1192</ele>
        <time>2012-10-21T11:14:13Z</time>
      </trkpt>
      <trkpt lat="44.0715" lon="7.57649">
        <ele>1192</ele>
        <time>2012-10-21T11:14:19Z</time>
      </trkpt>
      <trkpt lat="44.07143" lon="7.5765">
        <ele>1192</ele>
        <time>2012-10-21T11:14:24Z</time>
      </trkpt>
      <trkpt lat="44.07137" lon="7.57649">
        <ele>1192</ele>
        <time>2012-10-21T11:14:29Z</time>
      </trkpt>
      <trkpt lat="44.0713" lon="7.57648">
        <ele>1193</ele>
        <time>2012-10-21T11:14:34Z</time>
      </trkpt>
      <trkpt lat="44.07124" lon="7.57647">
        <ele>1194</ele>
        <time>2012-10-21T11:14:39Z</time>
      </trkpt>
      <trkpt lat="44.07117" lon="7.57647">
        <ele>1197</ele>
        <time>2012-10-21T11:14:44Z</time>
      </trkpt>
      <trkpt lat="44.0711" lon="7.57646">
        <ele>1199</ele>
        <time>2012-10-21T11:14:49Z</time>
      </trkpt>
      <trkpt lat="44.07104" lon="7.57643">
        <ele>1200</ele>
        <time>2012-10-21T11:14:55Z</time>
      </trkpt>
      <trkpt lat="44.07098" lon="7.57641">
        <ele>1200</ele>
        <time>2012-10-21T11:15:01Z</time>
      </trkpt>
      <trkpt lat="44.07092" lon="7.57641">
        <ele>1200</ele>
        <time>2012-10-21T11:15:06Z</time>
      </trkpt>
      <trkpt lat="44.07086" lon="7.5764">
        <ele>1200</ele>
        <time>2012-10-21T11:15:11Z</time>
      </trkpt>
      <trkpt lat="44.0708" lon="7.57639">
        <ele>1200</ele>
        <time>2012-10-21T11:15:16Z</time>
      </trkpt>
      <trkpt lat="44.07074" lon="7.57638">
        <ele>1200</ele>
        <time>2012-10-21T11:15:21Z</time>
      </trkpt>
      <trkpt lat="44.07068" lon="7.57638">
        <ele>1200</ele>
        <time>2012-10-21T11:15:26Z</time>
      </trkpt>
      <trkpt lat="44.07061" lon="7.57639">
        <ele>1200</ele>
        <time>2012-10-21T11:15:32Z</time>
      </trkpt>
      <trkpt lat="44.07054" lon="7.57643">
        <ele>1202</ele>
        <time>2012-10-21T11:15:38Z</time>
      </trkpt>
      <trkpt lat="44.07047" lon="7.57644">
        <ele>1203</ele>
        <time>2012-10-21T11:15:44Z</time>
      </trkpt>
      <trkpt lat="44.07042" lon="7.57645">
        <ele>1203</ele>
        <time>2012-10-21T11:15:49Z</time>
      </trkpt>
      <trkpt lat="44.07035" lon="7.57648">
        <ele>1203</ele>
        <time>2012-10-21T11:15:55Z</time>
      </trkpt>
      <trkpt lat="44.07029" lon="7.57647">
        <ele>1203</ele>
        <time>2012-10-21T11:16:00Z</time>
      </trkpt>
      <trkpt lat="44.07024" lon="7.57647">
        <ele>1203</ele>
        <time>2012-10-21T11:16:05Z</time>
      </trkpt>
      <trkpt lat="44.07017" lon="7.57649">
        <ele>1204</ele>
        <time>2012-10-21T11:16:11Z</time>
      </trkpt>
      <trkpt lat="44.07012" lon="7.57649">
        <ele>1204</ele>
        <time>2012-10-21T11:16:16Z</time>
      </trkpt>
      <trkpt lat="44.07006" lon="7.5765">
        <ele>1204</ele>
        <time>2012-10-21T11:16:21Z</time>
      </trkpt>
      <trkpt lat="44.06999" lon="7.57652">
        <ele>1205</ele>
        <time>2012-10-21T11:16:26Z</time>
      </trkpt>
      <trkpt lat="44.06992" lon="7.5765">
        <ele>1206</ele>
        <time>2012-10-21T11:16:31Z</time>
      </trkpt>
      <trkpt lat="44.06986" lon="7.57647">
        <ele>1207</ele>
        <time>2012-10-21T11:16:36Z</time>
      </trkpt>
      <trkpt lat="44.06981" lon="7.57643">
        <ele>1208</ele>
        <time>2012-10-21T11:16:41Z</time>
      </trkpt>
      <trkpt lat="44.06975" lon="7.57637">
        <ele>1209</ele>
        <time>2012-10-21T11:16:47Z</time>
      </trkpt>
      <trkpt lat="44.0697" lon="7.5763">
        <ele>1209</ele>
        <time>2012-10-21T11:16:52Z</time>
      </trkpt>
      <trkpt lat="44.06965" lon="7.57624">
        <ele>1209</ele>
        <time>2012-10-21T11:16:58Z</time>
      </trkpt>
      <trkpt lat="44.06959" lon="7.57621">
        <ele>1209</ele>
        <time>2012-10-21T11:17:04Z</time>
      </trkpt>
      <trkpt lat="44.06951" lon="7.57622">
        <ele>1209</ele>
        <time>2012-10-21T11:17:09Z</time>
      </trkpt>
      <trkpt lat="44.06942" lon="7.57632">
        <ele>1210</ele>
        <time>2012-10-21T11:17:14Z</time>
      </trkpt>
      <trkpt lat="44.06936" lon="7.57644">
        <ele>1211</ele>
        <time>2012-10-21T11:17:19Z</time>
      </trkpt>
      <trkpt lat="44.06929" lon="7.57653">
        <ele>1211</ele>
        <time>2012-10-21T11:17:24Z</time>
      </trkpt>
      <trkpt lat="44.06923" lon="7.5766">
        <ele>1211</ele>
        <time>2012-10-21T11:17:29Z</time>
      </trkpt>
      <trkpt lat="44.06917" lon="7.57663">
        <ele>1212</ele>
        <time>2012-10-21T11:17:36Z</time>
      </trkpt>
      <trkpt lat="44.06916" lon="7.57666">
        <ele>1212</ele>
        <time>2012-10-21T11:17:41Z</time>
      </trkpt>
      <trkpt lat="44.06916" lon="7.5767">
        <ele>1212</ele>
        <time>2012-10-21T11:17:47Z</time>
      </trkpt>
      <trkpt lat="44.06915" lon="7.57671">
        <ele>1216</ele>
        <time>2012-10-21T11:17:52Z</time>
      </trkpt>
      <trkpt lat="44.06916" lon="7.5767">
        <ele>1218</ele>
        <time>2012-10-21T11:18:02Z</time>
      </trkpt>
      <trkpt lat="44.0691" lon="7.57678">
        <ele>1218</ele>
        <time>2012-10-21T11:18:07Z</time>
      </trkpt>
      <trkpt lat="44.06906" lon="7.57682">
        <ele>1222</ele>
        <time>2012-10-21T11:18:20Z</time>
      </trkpt>
      <trkpt lat="44.06903" lon="7.57682">
        <ele>1222</ele>
        <time>2012-10-21T11:18:25Z</time>
      </trkpt>
      <trkpt lat="44.06898" lon="7.57687">
        <ele>1223</ele>
        <time>2012-10-21T11:18:31Z</time>
      </trkpt>
      <trkpt lat="44.06894" lon="7.57691">
        <ele>1223</ele>
        <time>2012-10-21T11:18:36Z</time>
      </trkpt>
      <trkpt lat="44.06889" lon="7.57698">
        <ele>1223</ele>
        <time>2012-10-21T11:18:41Z</time>
      </trkpt>
      <trkpt lat="44.06884" lon="7.57706">
        <ele>1225</ele>
        <time>2012-10-21T11:18:47Z</time>
      </trkpt>
      <trkpt lat="44.06878" lon="7.57712">
        <ele>1225</ele>
        <time>2012-10-21T11:18:53Z</time>
      </trkpt>
      <trkpt lat="44.06873" lon="7.57716">
        <ele>1225</ele>
        <time>2012-10-21T11:18:58Z</time>
      </trkpt>
      <trkpt lat="44.06869" lon="7.57722">
        <ele>1225</ele>
        <time>2012-10-21T11:19:03Z</time>
      </trkpt>
      <trkpt lat="44.06865" lon="7.57727">
        <ele>1225</ele>
        <time>2012-10-21T11:19:09Z</time>
      </trkpt>
      <trkpt lat="44.06859" lon="7.57731">
        <ele>1225</ele>
        <time>2012-10-21T11:19:15Z</time>
      </trkpt>
      <trkpt lat="44.06853" lon="7.57732">
        <ele>1224</ele>
        <time>2012-10-21T11:19:20Z</time>
      </trkpt>
      <trkpt lat="44.06848" lon="7.57735">
        <ele>1224</ele>
        <time>2012-10-21T11:19:25Z</time>
      </trkpt>
      <trkpt lat="44.06842" lon="7.57738">
        <ele>1224</ele>
        <time>2012-10-21T11:19:30Z</time>
      </trkpt>
      <trkpt lat="44.06835" lon="7.5774">
        <ele>1224</ele>
        <time>2012-10-21T11:19:35Z</time>
      </trkpt>
      <trkpt lat="44.06829" lon="7.57741">
        <ele>1224</ele>
        <time>2012-10-21T11:19:40Z</time>
      </trkpt>
      <trkpt lat="44.06823" lon="7.5774">
        <ele>1224</ele>
        <time>2012-10-21T11:19:45Z</time>
      </trkpt>
      <trkpt lat="44.06816" lon="7.5774">
        <ele>1224</ele>
        <time>2012-10-21T11:19:51Z</time>
      </trkpt>
      <trkpt lat="44.06807" lon="7.57742">
        <ele>1224</ele>
        <time>2012-10-21T11:19:56Z</time>
      </trkpt>
      <trkpt lat="44.06799" lon="7.57749">
        <ele>1226</ele>
        <time>2012-10-21T11:20:01Z</time>
      </trkpt>
      <trkpt lat="44.06792" lon="7.57756">
        <ele>1229</ele>
        <time>2012-10-21T11:20:06Z</time>
      </trkpt>
      <trkpt lat="44.06786" lon="7.57766">
        <ele>1230</ele>
        <time>2012-10-21T11:20:11Z</time>
      </trkpt>
      <trkpt lat="44.06781" lon="7.57774">
        <ele>1230</ele>
        <time>2012-10-21T11:20:16Z</time>
      </trkpt>
      <trkpt lat="44.06774" lon="7.57781">
        <ele>1231</ele>
        <time>2012-10-21T11:20:21Z</time>
      </trkpt>
      <trkpt lat="44.06767" lon="7.57788">
        <ele>1231</ele>
        <time>2012-10-21T11:20:26Z</time>
      </trkpt>
      <trkpt lat="44.06761" lon="7.57792">
        <ele>1231</ele>
        <time>2012-10-21T11:20:31Z</time>
      </trkpt>
      <trkpt lat="44.06757" lon="7.57799">
        <ele>1232</ele>
        <time>2012-10-21T11:20:36Z</time>
      </trkpt>
      <trkpt lat="44.06753" lon="7.57803">
        <ele>1232</ele>
        <time>2012-10-21T11:20:42Z</time>
      </trkpt>
      <trkpt lat="44.06748" lon="7.57808">
        <ele>1232</ele>
        <time>2012-10-21T11:20:47Z</time>
      </trkpt>
      <trkpt lat="44.06744" lon="7.57812">
        <ele>1232</ele>
        <time>2012-10-21T11:20:52Z</time>
      </trkpt>
      <trkpt lat="44.06738" lon="7.57815">
        <ele>1232</ele>
        <time>2012-10-21T11:20:58Z</time>
      </trkpt>
      <trkpt lat="44.06733" lon="7.57817">
        <ele>1232</ele>
        <time>2012-10-21T11:21:03Z</time>
      </trkpt>
      <trkpt lat="44.06728" lon="7.57818">
        <ele>1232</ele>
        <time>2012-10-21T11:21:08Z</time>
      </trkpt>
      <trkpt lat="44.06721" lon="7.57818">
        <ele>1232</ele>
        <time>2012-10-21T11:21:13Z</time>
      </trkpt>
      <trkpt lat="44.06715" lon="7.57818">
        <ele>1232</ele>
        <time>2012-10-21T11:21:18Z</time>
      </trkpt>
      <trkpt lat="44.06708" lon="7.57813">
        <ele>1233</ele>
        <time>2012-10-21T11:21:24Z</time>
      </trkpt>
      <trkpt lat="44.06703" lon="7.57806">
        <ele>1234</ele>
        <time>2012-10-21T11:21:29Z</time>
      </trkpt>
      <trkpt lat="44.06699" lon="7.57801">
        <ele>1236</ele>
        <time>2012-10-21T11:21:34Z</time>
      </trkpt>
      <trkpt lat="44.06696" lon="7.57794">
        <ele>1237</ele>
        <time>2012-10-21T11:21:39Z</time>
      </trkpt>
      <trkpt lat="44.06693" lon="7.57788">
        <ele>1239</ele>
        <time>2012-10-21T11:21:44Z</time>
      </trkpt>
      <trkpt lat="44.0669" lon="7.57782">
        <ele>1240</ele>
        <time>2012-10-21T11:21:49Z</time>
      </trkpt>
      <trkpt lat="44.06687" lon="7.57776">
        <ele>1242</ele>
        <time>2012-10-21T11:21:55Z</time>
      </trkpt>
      <trkpt lat="44.06684" lon="7.57769">
        <ele>1243</ele>
        <time>2012-10-21T11:22:00Z</time>
      </trkpt>
      <trkpt lat="44.06681" lon="7.57761">
        <ele>1244</ele>
        <time>2012-10-21T11:22:06Z</time>
      </trkpt>
      <trkpt lat="44.06677" lon="7.57755">
        <ele>1244</ele>
        <time>2012-10-21T11:22:11Z</time>
      </trkpt>
      <trkpt lat="44.06674" lon="7.57747">
        <ele>1244</ele>
        <time>2012-10-21T11:22:17Z</time>
      </trkpt>
      <trkpt lat="44.06671" lon="7.5774">
        <ele>1245</ele>
        <time>2012-10-21T11:22:23Z</time>
      </trkpt>
      <trkpt lat="44.06668" lon="7.57734">
        <ele>1246</ele>
        <time>2012-10-21T11:22:28Z</time>
      </trkpt>
      <trkpt lat="44.06664" lon="7.57727">
        <ele>1247</ele>
        <time>2012-10-21T11:22:34Z</time>
      </trkpt>
      <trkpt lat="44.06661" lon="7.57721">
        <ele>1247</ele>
        <time>2012-10-21T11:22:40Z</time>
      </trkpt>
      <trkpt lat="44.06658" lon="7.57715">
        <ele>1247</ele>
        <time>2012-10-21T11:22:45Z</time>
      </trkpt>
      <trkpt lat="44.06655" lon="7.57709">
        <ele>1248</ele>
        <time>2012-10-21T11:22:50Z</time>
      </trkpt>
      <trkpt lat="44.06652" lon="7.57702">
        <ele>1248</ele>
        <time>2012-10-21T11:22:56Z</time>
      </trkpt>
      <trkpt lat="44.06648" lon="7.57695">
        <ele>1249</ele>
        <time>2012-10-21T11:23:02Z</time>
      </trkpt>
      <trkpt lat="44.06643" lon="7.57689">
        <ele>1249</ele>
        <time>2012-10-21T11:23:08Z</time>
      </trkpt>
      <trkpt lat="44.06637" lon="7.57683">
        <ele>1249</ele>
        <time>2012-10-21T11:23:14Z</time>
      </trkpt>
      <trkpt lat="44.06631" lon="7.57679">
        <ele>1250</ele>
        <time>2012-10-21T11:23:20Z</time>
      </trkpt>
      <trkpt lat="44.06625" lon="7.57676">
        <ele>1251</ele>
        <time>2012-10-21T11:23:26Z</time>
      </trkpt>
      <trkpt lat="44.06619" lon="7.57673">
        <ele>1252</ele>
        <time>2012-10-21T11:23:32Z</time>
      </trkpt>
      <trkpt lat="44.06614" lon="7.5767">
        <ele>1252</ele>
        <time>2012-10-21T11:23:37Z</time>
      </trkpt>
      <trkpt lat="44.06608" lon="7.5767">
        <ele>1253</ele>
        <time>2012-10-21T11:23:42Z</time>
      </trkpt>
      <trkpt lat="44.06602" lon="7.57667">
        <ele>1254</ele>
        <time>2012-10-21T11:23:48Z</time>
      </trkpt>
      <trkpt lat="44.06597" lon="7.57662">
        <ele>1255</ele>
        <time>2012-10-21T11:23:54Z</time>
      </trkpt>
      <trkpt lat="44.06592" lon="7.57656">
        <ele>1256</ele>
        <time>2012-10-21T11:24:00Z</time>
      </trkpt>
      <trkpt lat="44.06586" lon="7.57651">
        <ele>1257</ele>
        <time>2012-10-21T11:24:06Z</time>
      </trkpt>
      <trkpt lat="44.06581" lon="7.57645">
        <ele>1258</ele>
        <time>2012-10-21T11:24:12Z</time>
      </trkpt>
      <trkpt lat="44.06576" lon="7.57639">
        <ele>1258</ele>
        <time>2012-10-21T11:24:18Z</time>
      </trkpt>
      <trkpt lat="44.06571" lon="7.57634">
        <ele>1259</ele>
        <time>2012-10-21T11:24:24Z</time>
      </trkpt>
      <trkpt lat="44.06568" lon="7.57628">
        <ele>1259</ele>
        <time>2012-10-21T11:24:29Z</time>
      </trkpt>
      <trkpt lat="44.06566" lon="7.57621">
        <ele>1260</ele>
        <time>2012-10-21T11:24:34Z</time>
      </trkpt>
      <trkpt lat="44.06566" lon="7.57613">
        <ele>1260</ele>
        <time>2012-10-21T11:24:39Z</time>
      </trkpt>
      <trkpt lat="44.06567" lon="7.57606">
        <ele>1261</ele>
        <time>2012-10-21T11:24:45Z</time>
      </trkpt>
      <trkpt lat="44.06566" lon="7.57607">
        <ele>1262</ele>
        <time>2012-10-21T11:24:51Z</time>
      </trkpt>
      <trkpt lat="44.06567" lon="7.57603">
        <ele>1263</ele>
        <time>2012-10-21T11:25:05Z</time>
      </trkpt>
      <trkpt lat="44.06568" lon="7.57596">
        <ele>1263</ele>
        <time>2012-10-21T11:25:12Z</time>
      </trkpt>
      <trkpt lat="44.0657" lon="7.57587">
        <ele>1264</ele>
        <time>2012-10-21T11:25:20Z</time>
      </trkpt>
      <trkpt lat="44.06571" lon="7.57574">
        <ele>1265</ele>
        <time>2012-10-21T11:25:25Z</time>
      </trkpt>
      <trkpt lat="44.06573" lon="7.57566">
        <ele>1266</ele>
        <time>2012-10-21T11:25:31Z</time>
      </trkpt>
      <trkpt lat="44.06576" lon="7.57559">
        <ele>1267</ele>
        <time>2012-10-21T11:25:37Z</time>
      </trkpt>
      <trkpt lat="44.0658" lon="7.57555">
        <ele>1268</ele>
        <time>2012-10-21T11:25:45Z</time>
      </trkpt>
      <trkpt lat="44.06583" lon="7.57549">
        <ele>1269</ele>
        <time>2012-10-21T11:25:51Z</time>
      </trkpt>
      <trkpt lat="44.06585" lon="7.57546">
        <ele>1271</ele>
        <time>2012-10-21T11:26:07Z</time>
      </trkpt>
      <trkpt lat="44.06587" lon="7.57538">
        <ele>1271</ele>
        <time>2012-10-21T11:26:13Z</time>
      </trkpt>
      <trkpt lat="44.06591" lon="7.57529">
        <ele>1271</ele>
        <time>2012-10-21T11:26:19Z</time>
      </trkpt>
      <trkpt lat="44.06592" lon="7.57523">
        <ele>1272</ele>
        <time>2012-10-21T11:26:26Z</time>
      </trkpt>
      <trkpt lat="44.06595" lon="7.57516">
        <ele>1273</ele>
        <time>2012-10-21T11:26:33Z</time>
      </trkpt>
      <trkpt lat="44.066" lon="7.57506">
        <ele>1273</ele>
        <time>2012-10-21T11:26:41Z</time>
      </trkpt>
      <trkpt lat="44.066" lon="7.575">
        <ele>1273</ele>
        <time>2012-10-21T11:26:48Z</time>
      </trkpt>
      <trkpt lat="44.06598" lon="7.57488">
        <ele>1274</ele>
        <time>2012-10-21T11:26:54Z</time>
      </trkpt>
      <trkpt lat="44.06596" lon="7.57481">
        <ele>1275</ele>
        <time>2012-10-21T11:27:00Z</time>
      </trkpt>
      <trkpt lat="44.06596" lon="7.57478">
        <ele>1277</ele>
        <time>2012-10-21T11:27:16Z</time>
      </trkpt>
      <trkpt lat="44.06596" lon="7.57466">
        <ele>1278</ele>
        <time>2012-10-21T11:27:24Z</time>
      </trkpt>
      <trkpt lat="44.06597" lon="7.5746">
        <ele>1279</ele>
        <time>2012-10-21T11:27:31Z</time>
      </trkpt>
      <trkpt lat="44.06601" lon="7.57452">
        <ele>1280</ele>
        <time>2012-10-21T11:27:38Z</time>
      </trkpt>
      <trkpt lat="44.06603" lon="7.57444">
        <ele>1281</ele>
        <time>2012-10-21T11:27:44Z</time>
      </trkpt>
      <trkpt lat="44.06604" lon="7.57432">
        <ele>1282</ele>
        <time>2012-10-21T11:27:50Z</time>
      </trkpt>
      <trkpt lat="44.06605" lon="7.57425">
        <ele>1284</ele>
        <time>2012-10-21T11:27:58Z</time>
      </trkpt>
      <trkpt lat="44.06605" lon="7.57418">
        <ele>1285</ele>
        <time>2012-10-21T11:28:04Z</time>
      </trkpt>
      <trkpt lat="44.06605" lon="7.57408">
        <ele>1286</ele>
        <time>2012-10-21T11:28:10Z</time>
      </trkpt>
      <trkpt lat="44.06607" lon="7.57399">
        <ele>1289</ele>
        <time>2012-10-21T11:28:16Z</time>
      </trkpt>
      <trkpt lat="44.06606" lon="7.57388">
        <ele>1291</ele>
        <time>2012-10-21T11:28:25Z</time>
      </trkpt>
      <trkpt lat="44.06602" lon="7.57379">
        <ele>1292</ele>
        <time>2012-10-21T11:28:31Z</time>
      </trkpt>
      <trkpt lat="44.06599" lon="7.5737">
        <ele>1292</ele>
        <time>2012-10-21T11:28:37Z</time>
      </trkpt>
      <trkpt lat="44.06594" lon="7.57361">
        <ele>1293</ele>
        <time>2012-10-21T11:28:43Z</time>
      </trkpt>
      <trkpt lat="44.0659" lon="7.57352">
        <ele>1293</ele>
        <time>2012-10-21T11:28:49Z</time>
      </trkpt>
      <trkpt lat="44.06584" lon="7.57344">
        <ele>1293</ele>
        <time>2012-10-21T11:28:55Z</time>
      </trkpt>
      <trkpt lat="44.06577" lon="7.57337">
        <ele>1293</ele>
        <time>2012-10-21T11:29:02Z</time>
      </trkpt>
      <trkpt lat="44.06569" lon="7.57328">
        <ele>1293</ele>
        <time>2012-10-21T11:29:08Z</time>
      </trkpt>
      <trkpt lat="44.06564" lon="7.5732">
        <ele>1293</ele>
        <time>2012-10-21T11:29:14Z</time>
      </trkpt>
      <trkpt lat="44.06561" lon="7.57308">
        <ele>1293</ele>
        <time>2012-10-21T11:29:22Z</time>
      </trkpt>
      <trkpt lat="44.06559" lon="7.57303">
        <ele>1294</ele>
        <time>2012-10-21T11:29:28Z</time>
      </trkpt>
      <trkpt lat="44.06558" lon="7.57291">
        <ele>1294</ele>
        <time>2012-10-21T11:29:34Z</time>
      </trkpt>
      <trkpt lat="44.06558" lon="7.57281">
        <ele>1294</ele>
        <time>2012-10-21T11:29:41Z</time>
      </trkpt>
      <trkpt lat="44.06559" lon="7.57272">
        <ele>1294</ele>
        <time>2012-10-21T11:29:47Z</time>
      </trkpt>
      <trkpt lat="44.0656" lon="7.5727">
        <ele>1295</ele>
        <time>2012-10-21T11:29:55Z</time>
      </trkpt>
      <trkpt lat="44.06561" lon="7.57263">
        <ele>1295</ele>
        <time>2012-10-21T11:30:02Z</time>
      </trkpt>
      <trkpt lat="44.06567" lon="7.57254">
        <ele>1296</ele>
        <time>2012-10-21T11:30:09Z</time>
      </trkpt>
      <trkpt lat="44.06572" lon="7.57246">
        <ele>1297</ele>
        <time>2012-10-21T11:30:15Z</time>
      </trkpt>
      <trkpt lat="44.06576" lon="7.57238">
        <ele>1299</ele>
        <time>2012-10-21T11:30:23Z</time>
      </trkpt>
      <trkpt lat="44.06579" lon="7.57232">
        <ele>1300</ele>
        <time>2012-10-21T11:30:29Z</time>
      </trkpt>
      <trkpt lat="44.06585" lon="7.57226">
        <ele>1301</ele>
        <time>2012-10-21T11:30:36Z</time>
      </trkpt>
      <trkpt lat="44.06588" lon="7.5722">
        <ele>1301</ele>
        <time>2012-10-21T11:30:43Z</time>
      </trkpt>
      <trkpt lat="44.06593" lon="7.57213">
        <ele>1301</ele>
        <time>2012-10-21T11:30:50Z</time>
      </trkpt>
      <trkpt lat="44.06597" lon="7.57205">
        <ele>1301</ele>
        <time>2012-10-21T11:30:56Z</time>
      </trkpt>
      <trkpt lat="44.06598" lon="7.57188">
        <ele>1301</ele>
        <time>2012-10-21T11:31:03Z</time>
      </trkpt>
      <trkpt lat="44.06599" lon="7.57182">
        <ele>1303</ele>
        <time>2012-10-21T11:31:09Z</time>
      </trkpt>
      <trkpt lat="44.066" lon="7.5718">
        <ele>1305</ele>
        <time>2012-10-21T11:31:18Z</time>
      </trkpt>
      <trkpt lat="44.06606" lon="7.57166">
        <ele>1305</ele>
        <time>2012-10-21T11:31:24Z</time>
      </trkpt>
      <trkpt lat="44.06611" lon="7.57144">
        <ele>1306</ele>
        <time>2012-10-21T11:31:30Z</time>
      </trkpt>
      <trkpt lat="44.06615" lon="7.57128">
        <ele>1306</ele>
        <time>2012-10-21T11:31:36Z</time>
      </trkpt>
      <trkpt lat="44.06619" lon="7.57104">
        <ele>1306</ele>
        <time>2012-10-21T11:31:42Z</time>
      </trkpt>
      <trkpt lat="44.06622" lon="7.57087">
        <ele>1307</ele>
        <time>2012-10-21T11:31:48Z</time>
      </trkpt>
      <trkpt lat="44.06626" lon="7.57057">
        <ele>1307</ele>
        <time>2012-10-21T11:31:54Z</time>
      </trkpt>
      <trkpt lat="44.06628" lon="7.57029">
        <ele>1308</ele>
        <time>2012-10-21T11:32:01Z</time>
      </trkpt>
      <trkpt lat="44.06631" lon="7.57007">
        <ele>1308</ele>
        <time>2012-10-21T11:32:07Z</time>
      </trkpt>
      <trkpt lat="44.06635" lon="7.56981">
        <ele>1309</ele>
        <time>2012-10-21T11:32:13Z</time>
      </trkpt>
      <trkpt lat="44.06643" lon="7.56961">
        <ele>1310</ele>
        <time>2012-10-21T11:32:19Z</time>
      </trkpt>
      <trkpt lat="44.06646" lon="7.56956">
        <ele>1310</ele>
        <time>2012-10-21T11:32:25Z</time>
      </trkpt>
      <trkpt lat="44.06651" lon="7.56948">
        <ele>1310</ele>
        <time>2012-10-21T11:32:31Z</time>
      </trkpt>
      <trkpt lat="44.06656" lon="7.56941">
        <ele>1311</ele>
        <time>2012-10-21T11:32:38Z</time>
      </trkpt>
      <trkpt lat="44.06659" lon="7.56934">
        <ele>1311</ele>
        <time>2012-10-21T11:32:44Z</time>
      </trkpt>
      <trkpt lat="44.06661" lon="7.56922">
        <ele>1312</ele>
        <time>2012-10-21T11:32:51Z</time>
      </trkpt>
      <trkpt lat="44.06665" lon="7.56909">
        <ele>1313</ele>
        <time>2012-10-21T11:32:57Z</time>
      </trkpt>
      <trkpt lat="44.06666" lon="7.56908">
        <ele>1314</ele>
        <time>2012-10-21T11:33:03Z</time>
      </trkpt>
      <trkpt lat="44.06667" lon="7.56905">
        <ele>1316</ele>
        <time>2012-10-21T11:33:13Z</time>
      </trkpt>
      <trkpt lat="44.0667" lon="7.56902">
        <ele>1317</ele>
        <time>2012-10-21T11:33:21Z</time>
      </trkpt>
      <trkpt lat="44.06673" lon="7.56892">
        <ele>1318</ele>
        <time>2012-10-21T11:33:28Z</time>
      </trkpt>
      <trkpt lat="44.06677" lon="7.56884">
        <ele>1318</ele>
        <time>2012-10-21T11:33:37Z</time>
      </trkpt>
      <trkpt lat="44.06673" lon="7.56877">
        <ele>1318</ele>
        <time>2012-10-21T11:33:44Z</time>
      </trkpt>
      <trkpt lat="44.06665" lon="7.56874">
        <ele>1318</ele>
        <time>2012-10-21T11:33:51Z</time>
      </trkpt>
      <trkpt lat="44.06659" lon="7.5687">
        <ele>1318</ele>
        <time>2012-10-21T11:33:57Z</time>
      </trkpt>
      <trkpt lat="44.06654" lon="7.56864">
        <ele>1318</ele>
        <time>2012-10-21T11:34:03Z</time>
      </trkpt>
      <trkpt lat="44.06647" lon="7.56863">
        <ele>1318</ele>
        <time>2012-10-21T11:34:12Z</time>
      </trkpt>
      <trkpt lat="44.06643" lon="7.56862">
        <ele>1318</ele>
        <time>2012-10-21T11:34:19Z</time>
      </trkpt>
      <trkpt lat="44.06637" lon="7.5686">
        <ele>1318</ele>
        <time>2012-10-21T11:34:25Z</time>
      </trkpt>
      <trkpt lat="44.06628" lon="7.56851">
        <ele>1319</ele>
        <time>2012-10-21T11:34:32Z</time>
      </trkpt>
      <trkpt lat="44.06623" lon="7.56846">
        <ele>1320</ele>
        <time>2012-10-21T11:34:41Z</time>
      </trkpt>
      <trkpt lat="44.06617" lon="7.5684">
        <ele>1320</ele>
        <time>2012-10-21T11:34:46Z</time>
      </trkpt>
      <trkpt lat="44.06611" lon="7.56835">
        <ele>1320</ele>
        <time>2012-10-21T11:34:52Z</time>
      </trkpt>
      <trkpt lat="44.06603" lon="7.56833">
        <ele>1321</ele>
        <time>2012-10-21T11:35:00Z</time>
      </trkpt>
      <trkpt lat="44.06603" lon="7.56836">
        <ele>1322</ele>
        <time>2012-10-21T11:35:08Z</time>
      </trkpt>
      <trkpt lat="44.06596" lon="7.56837">
        <ele>1326</ele>
        <time>2012-10-21T11:35:16Z</time>
      </trkpt>
      <trkpt lat="44.06593" lon="7.56838">
        <ele>1326</ele>
        <time>2012-10-21T11:35:23Z</time>
      </trkpt>
      <trkpt lat="44.06588" lon="7.56839">
        <ele>1326</ele>
        <time>2012-10-21T11:35:29Z</time>
      </trkpt>
      <trkpt lat="44.06581" lon="7.56843">
        <ele>1326</ele>
        <time>2012-10-21T11:35:37Z</time>
      </trkpt>
      <trkpt lat="44.06575" lon="7.56846">
        <ele>1326</ele>
        <time>2012-10-21T11:35:43Z</time>
      </trkpt>
      <trkpt lat="44.06568" lon="7.5685">
        <ele>1327</ele>
        <time>2012-10-21T11:35:49Z</time>
      </trkpt>
      <trkpt lat="44.06562" lon="7.56854">
        <ele>1328</ele>
        <time>2012-10-21T11:35:55Z</time>
      </trkpt>
      <trkpt lat="44.06556" lon="7.56857">
        <ele>1328</ele>
        <time>2012-10-21T11:36:02Z</time>
      </trkpt>
      <trkpt lat="44.06548" lon="7.56857">
        <ele>1329</ele>
        <time>2012-10-21T11:36:09Z</time>
      </trkpt>
      <trkpt lat="44.06544" lon="7.56848">
        <ele>1330</ele>
        <time>2012-10-21T11:36:17Z</time>
      </trkpt>
      <trkpt lat="44.06543" lon="7.56841">
        <ele>1331</ele>
        <time>2012-10-21T11:36:24Z</time>
      </trkpt>
      <trkpt lat="44.06539" lon="7.56827">
        <ele>1331</ele>
        <time>2012-10-21T11:36:31Z</time>
      </trkpt>
      <trkpt lat="44.06534" lon="7.56819">
        <ele>1331</ele>
        <time>2012-10-21T11:36:37Z</time>
      </trkpt>
      <trkpt lat="44.06529" lon="7.56815">
        <ele>1332</ele>
        <time>2012-10-21T11:36:43Z</time>
      </trkpt>
      <trkpt lat="44.06526" lon="7.56813">
        <ele>1333</ele>
        <time>2012-10-21T11:36:51Z</time>
      </trkpt>
      <trkpt lat="44.06522" lon="7.56803">
        <ele>1334</ele>
        <time>2012-10-21T11:36:58Z</time>
      </trkpt>
      <trkpt lat="44.06517" lon="7.56797">
        <ele>1336</ele>
        <time>2012-10-21T11:37:04Z</time>
      </trkpt>
      <trkpt lat="44.06513" lon="7.56791">
        <ele>1337</ele>
        <time>2012-10-21T11:37:10Z</time>
      </trkpt>
      <trkpt lat="44.06507" lon="7.5678">
        <ele>1337</ele>
        <time>2012-10-21T11:37:16Z</time>
      </trkpt>
      <trkpt lat="44.06503" lon="7.56772">
        <ele>1337</ele>
        <time>2012-10-21T11:37:22Z</time>
      </trkpt>
      <trkpt lat="44.06501" lon="7.56767">
        <ele>1338</ele>
        <time>2012-10-21T11:37:28Z</time>
      </trkpt>
      <trkpt lat="44.06497" lon="7.56756">
        <ele>1338</ele>
        <time>2012-10-21T11:37:34Z</time>
      </trkpt>
      <trkpt lat="44.06493" lon="7.56749">
        <ele>1338</ele>
        <time>2012-10-21T11:37:40Z</time>
      </trkpt>
      <trkpt lat="44.0649" lon="7.56741">
        <ele>1338</ele>
        <time>2012-10-21T11:37:48Z</time>
      </trkpt>
      <trkpt lat="44.06484" lon="7.56733">
        <ele>1339</ele>
        <time>2012-10-21T11:37:54Z</time>
      </trkpt>
      <trkpt lat="44.06474" lon="7.56721">
        <ele>1340</ele>
        <time>2012-10-21T11:38:02Z</time>
      </trkpt>
      <trkpt lat="44.06472" lon="7.56718">
        <ele>1340</ele>
        <time>2012-10-21T11:38:08Z</time>
      </trkpt>
      <trkpt lat="44.06466" lon="7.56712">
        <ele>1342</ele>
        <time>2012-10-21T11:38:14Z</time>
      </trkpt>
      <trkpt lat="44.06459" lon="7.56707">
        <ele>1343</ele>
        <time>2012-10-21T11:38:22Z</time>
      </trkpt>
      <trkpt lat="44.06451" lon="7.56705">
        <ele>1346</ele>
        <time>2012-10-21T11:38:30Z</time>
      </trkpt>
      <trkpt lat="44.06443" lon="7.56702">
        <ele>1348</ele>
        <time>2012-10-21T11:38:36Z</time>
      </trkpt>
      <trkpt lat="44.06436" lon="7.56699">
        <ele>1349</ele>
        <time>2012-10-21T11:38:43Z</time>
      </trkpt>
      <trkpt lat="44.06431" lon="7.56693">
        <ele>1349</ele>
        <time>2012-10-21T11:38:50Z</time>
      </trkpt>
      <trkpt lat="44.06423" lon="7.56679">
        <ele>1349</ele>
        <time>2012-10-21T11:38:56Z</time>
      </trkpt>
      <trkpt lat="44.06413" lon="7.56666">
        <ele>1349</ele>
        <time>2012-10-21T11:39:02Z</time>
      </trkpt>
      <trkpt lat="44.06405" lon="7.56643">
        <ele>1349</ele>
        <time>2012-10-21T11:39:10Z</time>
      </trkpt>
      <trkpt lat="44.06406" lon="7.56623">
        <ele>1349</ele>
        <time>2012-10-21T11:39:17Z</time>
      </trkpt>
      <trkpt lat="44.06405" lon="7.56601">
        <ele>1349</ele>
        <time>2012-10-21T11:39:23Z</time>
      </trkpt>
      <trkpt lat="44.06403" lon="7.56572">
        <ele>1349</ele>
        <time>2012-10-21T11:39:29Z</time>
      </trkpt>
      <trkpt lat="44.06401" lon="7.56536">
        <ele>1349</ele>
        <time>2012-10-21T11:39:35Z</time>
      </trkpt>
      <trkpt lat="44.06406" lon="7.56507">
        <ele>1349</ele>
        <time>2012-10-21T11:39:41Z</time>
      </trkpt>
      <trkpt lat="44.06409" lon="7.56488">
        <ele>1352</ele>
        <time>2012-10-21T11:39:48Z</time>
      </trkpt>
      <trkpt lat="44.0641" lon="7.56467">
        <ele>1355</ele>
        <time>2012-10-21T11:39:55Z</time>
      </trkpt>
      <trkpt lat="44.0641" lon="7.56463">
        <ele>1360</ele>
        <time>2012-10-21T11:40:04Z</time>
      </trkpt>
      <trkpt lat="44.06408" lon="7.5646">
        <ele>1360</ele>
        <time>2012-10-21T11:40:10Z</time>
      </trkpt>
      <trkpt lat="44.06406" lon="7.56459">
        <ele>1362</ele>
        <time>2012-10-21T11:40:20Z</time>
      </trkpt>
      <trkpt lat="44.06405" lon="7.56456">
        <ele>1362</ele>
        <time>2012-10-21T11:40:26Z</time>
      </trkpt>
      <trkpt lat="44.06406" lon="7.56452">
        <ele>1362</ele>
        <time>2012-10-21T11:40:33Z</time>
      </trkpt>
      <trkpt lat="44.06405" lon="7.56447">
        <ele>1361</ele>
        <time>2012-10-21T11:40:41Z</time>
      </trkpt>
      <trkpt lat="44.06404" lon="7.56445">
        <ele>1361</ele>
        <time>2012-10-21T11:40:49Z</time>
      </trkpt>
      <trkpt lat="44.06405" lon="7.56444">
        <ele>1360</ele>
        <time>2012-10-21T11:40:56Z</time>
      </trkpt>
      <trkpt lat="44.06407" lon="7.56444">
        <ele>1360</ele>
        <time>2012-10-21T11:41:12Z</time>
      </trkpt>
      <trkpt lat="44.06408" lon="7.56444">
        <ele>1360</ele>
        <time>2012-10-21T11:41:20Z</time>
      </trkpt>
      <trkpt lat="44.06407" lon="7.56445">
        <ele>1359</ele>
        <time>2012-10-21T11:41:28Z</time>
      </trkpt>
      <trkpt lat="44.06406" lon="7.56444">
        <ele>1359</ele>
        <time>2012-10-21T11:41:38Z</time>
      </trkpt>
      <trkpt lat="44.06406" lon="7.56447">
        <ele>1358</ele>
        <time>2012-10-21T11:42:03Z</time>
      </trkpt>
      <trkpt lat="44.06405" lon="7.56452">
        <ele>1358</ele>
        <time>2012-10-21T11:42:10Z</time>
      </trkpt>
      <trkpt lat="44.06406" lon="7.56455">
        <ele>1358</ele>
        <time>2012-10-21T11:42:18Z</time>
      </trkpt>
      <trkpt lat="44.06408" lon="7.56458">
        <ele>1358</ele>
        <time>2012-10-21T11:42:25Z</time>
      </trkpt>
      <trkpt lat="44.06411" lon="7.56456">
        <ele>1357</ele>
        <time>2012-10-21T11:42:33Z</time>
      </trkpt>
      <trkpt lat="44.06409" lon="7.56455">
        <ele>1349</ele>
        <time>2012-10-21T11:42:44Z</time>
      </trkpt>
      <trkpt lat="44.06408" lon="7.56455">
        <ele>1347</ele>
        <time>2012-10-21T11:42:53Z</time>
      </trkpt>
      <trkpt lat="44.06409" lon="7.56455">
        <ele>1347</ele>
        <time>2012-10-21T11:42:59Z</time>
      </trkpt>
      <trkpt lat="44.06412" lon="7.56454">
        <ele>1347</ele>
        <time>2012-10-21T11:43:05Z</time>
      </trkpt>
      <trkpt lat="44.06411" lon="7.56455">
        <ele>1347</ele>
        <time>2012-10-21T11:43:13Z</time>
      </trkpt>
      <trkpt lat="44.06411" lon="7.56456">
        <ele>1347</ele>
        <time>2012-10-21T11:43:23Z</time>
      </trkpt>
      <trkpt lat="44.06409" lon="7.56458">
        <ele>1355</ele>
        <time>2012-10-21T11:43:39Z</time>
      </trkpt>
      <trkpt lat="44.06406" lon="7.56462">
        <ele>1356</ele>
        <time>2012-10-21T11:43:45Z</time>
      </trkpt>
      <trkpt lat="44.06403" lon="7.56456">
        <ele>1356</ele>
        <time>2012-10-21T11:43:51Z</time>
      </trkpt>
      <trkpt lat="44.06403" lon="7.56451">
        <ele>1356</ele>
        <time>2012-10-21T11:43:58Z</time>
      </trkpt>
      <trkpt lat="44.06404" lon="7.56448">
        <ele>1356</ele>
        <time>2012-10-21T11:44:04Z</time>
      </trkpt>
      <trkpt lat="44.06405" lon="7.5645">
        <ele>1356</ele>
        <time>2012-10-21T11:44:11Z</time>
      </trkpt>
      <trkpt lat="44.06407" lon="7.56452">
        <ele>1356</ele>
        <time>2012-10-21T11:44:16Z</time>
      </trkpt>
      <trkpt lat="44.06407" lon="7.56458">
        <ele>1355</ele>
        <time>2012-10-21T11:44:22Z</time>
      </trkpt>
      <trkpt lat="44.06408" lon="7.56462">
        <ele>1353</ele>
        <time>2012-10-21T11:44:29Z</time>
      </trkpt>
      <trkpt lat="44.06408" lon="7.56466">
        <ele>1353</ele>
        <time>2012-10-21T11:44:36Z</time>
      </trkpt>
      <trkpt lat="44.06408" lon="7.56469">
        <ele>1353</ele>
        <time>2012-10-21T11:44:47Z</time>
      </trkpt>
      <trkpt lat="44.06408" lon="7.56471">
        <ele>1353</ele>
        <time>2012-10-21T11:44:52Z</time>
      </trkpt>
      <trkpt lat="44.06409" lon="7.56474">
        <ele>1357</ele>
        <time>2012-10-21T11:44:58Z</time>
      </trkpt>
      <trkpt lat="44.0641" lon="7.56478">
        <ele>1357</ele>
        <time>2012-10-21T11:45:03Z</time>
      </trkpt>
      <trkpt lat="44.0641" lon="7.5648">
        <ele>1357</ele>
        <time>2012-10-21T11:45:13Z</time>
      </trkpt>
      <trkpt lat="44.06405" lon="7.56478">
        <ele>1357</ele>
        <time>2012-10-21T11:45:19Z</time>
      </trkpt>
      <trkpt lat="44.06405" lon="7.56475">
        <ele>1357</ele>
        <time>2012-10-21T11:45:24Z</time>
      </trkpt>
      <trkpt lat="44.06406" lon="7.56471">
        <ele>1357</ele>
        <time>2012-10-21T11:45:32Z</time>
      </trkpt>
      <trkpt lat="44.06406" lon="7.56469">
        <ele>1357</ele>
        <time>2012-10-21T11:45:37Z</time>
      </trkpt>
      <trkpt lat="44.06405" lon="7.56466">
        <ele>1357</ele>
        <time>2012-10-21T11:45:42Z</time>
      </trkpt>
      <trkpt lat="44.06403" lon="7.56463">
        <ele>1357</ele>
        <time>2012-10-21T11:45:50Z</time>
      </trkpt>
      <trkpt lat="44.06402" lon="7.5646">
        <ele>1357</ele>
        <time>2012-10-21T11:45:55Z</time>
      </trkpt>
      <trkpt lat="44.06401" lon="7.56456">
        <ele>1357</ele>
        <time>2012-10-21T11:46:00Z</time>
      </trkpt>
      <trkpt lat="44.06401" lon="7.56452">
        <ele>1357</ele>
        <time>2012-10-21T11:46:05Z</time>
      </trkpt>
      <trkpt lat="44.06401" lon="7.56447">
        <ele>1357</ele>
        <time>2012-10-21T11:46:11Z</time>
      </trkpt>
      <trkpt lat="44.06404" lon="7.56445">
        <ele>1357</ele>
        <time>2012-10-21T11:46:18Z</time>
      </trkpt>
      <trkpt lat="44.06403" lon="7.56443">
        <ele>1358</ele>
        <time>2012-10-21T11:46:25Z</time>
      </trkpt>
      <trkpt lat="44.06404" lon="7.56442">
        <ele>1358</ele>
        <time>2012-10-21T11:46:36Z</time>
      </trkpt>
      <trkpt lat="44.06406" lon="7.56445">
        <ele>1358</ele>
        <time>2012-10-21T11:46:41Z</time>
      </trkpt>
      <trkpt lat="44.06406" lon="7.56448">
        <ele>1360</ele>
        <time>2012-10-21T11:46:47Z</time>
      </trkpt>
      <trkpt lat="44.06406" lon="7.56452">
        <ele>1360</ele>
        <time>2012-10-21T11:46:53Z</time>
      </trkpt>
      <trkpt lat="44.06408" lon="7.56455">
        <ele>1360</ele>
        <time>2012-10-21T11:46:58Z</time>
      </trkpt>
      <trkpt lat="44.06409" lon="7.5646">
        <ele>1360</ele>
        <time>2012-10-21T11:47:05Z</time>
      </trkpt>
      <trkpt lat="44.06411" lon="7.56464">
        <ele>1360</ele>
        <time>2012-10-21T11:47:10Z</time>
      </trkpt>
      <trkpt lat="44.0641" lon="7.56467">
        <ele>1359</ele>
        <time>2012-10-21T11:47:16Z</time>
      </trkpt>
      <trkpt lat="44.06411" lon="7.5647">
        <ele>1357</ele>
        <time>2012-10-21T11:47:23Z</time>
      </trkpt>
      <trkpt lat="44.06413" lon="7.56473">
        <ele>1354</ele>
        <time>2012-10-21T11:47:28Z</time>
      </trkpt>
      <trkpt lat="44.06413" lon="7.56474">
        <ele>1348</ele>
        <time>2012-10-21T11:47:40Z</time>
      </trkpt>
      <trkpt lat="44.06413" lon="7.56471">
        <ele>1348</ele>
        <time>2012-10-21T11:47:48Z</time>
      </trkpt>
      <trkpt lat="44.0641" lon="7.56469">
        <ele>1348</ele>
        <time>2012-10-21T11:47:53Z</time>
      </trkpt>
      <trkpt lat="44.06407" lon="7.56467">
        <ele>1348</ele>
        <time>2012-10-21T11:48:00Z</time>
      </trkpt>
      <trkpt lat="44.06406" lon="7.56463">
        <ele>1348</ele>
        <time>2012-10-21T11:48:06Z</time>
      </trkpt>
      <trkpt lat="44.06404" lon="7.56457">
        <ele>1348</ele>
        <time>2012-10-21T11:48:12Z</time>
      </trkpt>
      <trkpt lat="44.06403" lon="7.56453">
        <ele>1349</ele>
        <time>2012-10-21T11:48:22Z</time>
      </trkpt>
      <trkpt lat="44.06403" lon="7.56455">
        <ele>1353</ele>
        <time>2012-10-21T11:48:31Z</time>
      </trkpt>
      <trkpt lat="44.06401" lon="7.56458">
        <ele>1359</ele>
        <time>2012-10-21T11:48:38Z</time>
      </trkpt>
      <trkpt lat="44.06402" lon="7.56461">
        <ele>1362</ele>
        <time>2012-10-21T11:48:45Z</time>
      </trkpt>
      <trkpt lat="44.06404" lon="7.56464">
        <ele>1362</ele>
        <time>2012-10-21T11:48:51Z</time>
      </trkpt>
      <trkpt lat="44.06402" lon="7.56462">
        <ele>1362</ele>
        <time>2012-10-21T11:49:07Z</time>
      </trkpt>
      <trkpt lat="44.06401" lon="7.56461">
        <ele>1362</ele>
        <time>2012-10-21T11:49:15Z</time>
      </trkpt>
      <trkpt lat="44.064" lon="7.5646">
        <ele>1363</ele>
        <time>2012-10-21T11:49:21Z</time>
      </trkpt>
      <trkpt lat="44.06399" lon="7.56455">
        <ele>1364</ele>
        <time>2012-10-21T11:49:27Z</time>
      </trkpt>
      <trkpt lat="44.06398" lon="7.56454">
        <ele>1364</ele>
        <time>2012-10-21T11:49:35Z</time>
      </trkpt>
      <trkpt lat="44.064" lon="7.56454">
        <ele>1364</ele>
        <time>2012-10-21T11:49:42Z</time>
      </trkpt>
      <trkpt lat="44.06402" lon="7.56457">
        <ele>1364</ele>
        <time>2012-10-21T11:49:47Z</time>
      </trkpt>
      <trkpt lat="44.06401" lon="7.56458">
        <ele>1364</ele>
        <time>2012-10-21T11:49:52Z</time>
      </trkpt>
      <trkpt lat="44.064" lon="7.56459">
        <ele>1364</ele>
        <time>2012-10-21T11:49:57Z</time>
      </trkpt>
      <trkpt lat="44.06399" lon="7.5646">
        <ele>1358</ele>
        <time>2012-10-21T11:50:10Z</time>
      </trkpt>
      <trkpt lat="44.06403" lon="7.56463">
        <ele>1354</ele>
        <time>2012-10-21T11:50:18Z</time>
      </trkpt>
      <trkpt lat="44.06404" lon="7.56462">
        <ele>1353</ele>
        <time>2012-10-21T11:50:23Z</time>
      </trkpt>
      <trkpt lat="44.06405" lon="7.56461">
        <ele>1352</ele>
        <time>2012-10-21T11:50:28Z</time>
      </trkpt>
      <trkpt lat="44.06407" lon="7.5646">
        <ele>1352</ele>
        <time>2012-10-21T11:50:38Z</time>
      </trkpt>
      <trkpt lat="44.06408" lon="7.56459">
        <ele>1353</ele>
        <time>2012-10-21T11:50:47Z</time>
      </trkpt>
      <trkpt lat="44.06407" lon="7.56459">
        <ele>1360</ele>
        <time>2012-10-21T11:51:15Z</time>
      </trkpt>
      <trkpt lat="44.06406" lon="7.56459">
        <ele>1364</ele>
        <time>2012-10-21T11:51:40Z</time>
      </trkpt>
      <trkpt lat="44.06408" lon="7.5646">
        <ele>1358</ele>
        <time>2012-10-21T11:52:14Z</time>
      </trkpt>
      <trkpt lat="44.06408" lon="7.56463">
        <ele>1357</ele>
        <time>2012-10-21T11:52:20Z</time>
      </trkpt>
      <trkpt lat="44.06411" lon="7.56464">
        <ele>1360</ele>
        <time>2012-10-21T11:52:25Z</time>
      </trkpt>
      <trkpt lat="44.06409" lon="7.56464">
        <ele>1364</ele>
        <time>2012-10-21T11:52:36Z</time>
      </trkpt>
      <trkpt lat="44.06407" lon="7.56463">
        <ele>1365</ele>
        <time>2012-10-21T11:52:46Z</time>
      </trkpt>
      <trkpt lat="44.06406" lon="7.56461">
        <ele>1367</ele>
        <time>2012-10-21T11:52:53Z</time>
      </trkpt>
      <trkpt lat="44.06406" lon="7.56459">
        <ele>1367</ele>
        <time>2012-10-21T11:52:59Z</time>
      </trkpt>
      <trkpt lat="44.06406" lon="7.56458">
        <ele>1363</ele>
        <time>2012-10-21T11:53:09Z</time>
      </trkpt>
      <trkpt lat="44.06407" lon="7.56459">
        <ele>1350</ele>
        <time>2012-10-21T11:53:53Z</time>
      </trkpt>
      <trkpt lat="44.06407" lon="7.56461">
        <ele>1350</ele>
        <time>2012-10-21T11:54:01Z</time>
      </trkpt>
      <trkpt lat="44.06406" lon="7.56459">
        <ele>1350</ele>
        <time>2012-10-21T11:54:15Z</time>
      </trkpt>
      <trkpt lat="44.06405" lon="7.5646">
        <ele>1352</ele>
        <time>2012-10-21T11:54:25Z</time>
      </trkpt>
      <trkpt lat="44.06405" lon="7.56455">
        <ele>1352</ele>
        <time>2012-10-21T11:54:31Z</time>
      </trkpt>
      <trkpt lat="44.06405" lon="7.56451">
        <ele>1352</ele>
        <time>2012-10-21T11:54:37Z</time>
      </trkpt>
      <trkpt lat="44.06404" lon="7.56449">
        <ele>1352</ele>
        <time>2012-10-21T11:54:42Z</time>
      </trkpt>
      <trkpt lat="44.06402" lon="7.56445">
        <ele>1352</ele>
        <time>2012-10-21T11:54:48Z</time>
      </trkpt>
      <trkpt lat="44.064" lon="7.56441">
        <ele>1352</ele>
        <time>2012-10-21T11:54:53Z</time>
      </trkpt>
      <trkpt lat="44.06398" lon="7.56436">
        <ele>1352</ele>
        <time>2012-10-21T11:54:58Z</time>
      </trkpt>
      <trkpt lat="44.06395" lon="7.56433">
        <ele>1352</ele>
        <time>2012-10-21T11:55:04Z</time>
      </trkpt>
      <trkpt lat="44.06393" lon="7.56429">
        <ele>1352</ele>
        <time>2012-10-21T11:55:10Z</time>
      </trkpt>
      <trkpt lat="44.06394" lon="7.56425">
        <ele>1350</ele>
        <time>2012-10-21T11:55:15Z</time>
      </trkpt>
      <trkpt lat="44.06393" lon="7.5642">
        <ele>1350</ele>
        <time>2012-10-21T11:55:21Z</time>
      </trkpt>
      <trkpt lat="44.06392" lon="7.56417">
        <ele>1350</ele>
        <time>2012-10-21T11:55:28Z</time>
      </trkpt>
      <trkpt lat="44.06385" lon="7.56414">
        <ele>1350</ele>
        <time>2012-10-21T11:55:38Z</time>
      </trkpt>
      <trkpt lat="44.06387" lon="7.56414">
        <ele>1350</ele>
        <time>2012-10-21T11:55:55Z</time>
      </trkpt>
      <trkpt lat="44.0639" lon="7.56411">
        <ele>1348</ele>
        <time>2012-10-21T11:56:01Z</time>
      </trkpt>
      <trkpt lat="44.06396" lon="7.56412">
        <ele>1347</ele>
        <time>2012-10-21T11:56:06Z</time>
      </trkpt>
      <trkpt lat="44.06396" lon="7.56417">
        <ele>1347</ele>
        <time>2012-10-21T11:56:12Z</time>
      </trkpt>
      <trkpt lat="44.06396" lon="7.5642">
        <ele>1347</ele>
        <time>2012-10-21T11:56:18Z</time>
      </trkpt>
      <trkpt lat="44.06396" lon="7.56422">
        <ele>1345</ele>
        <time>2012-10-21T11:56:26Z</time>
      </trkpt>
      <trkpt lat="44.06397" lon="7.56426">
        <ele>1344</ele>
        <time>2012-10-21T11:56:31Z</time>
      </trkpt>
      <trkpt lat="44.06397" lon="7.56429">
        <ele>1344</ele>
        <time>2012-10-21T11:56:36Z</time>
      </trkpt>
      <trkpt lat="44.06399" lon="7.56433">
        <ele>1340</ele>
        <time>2012-10-21T11:56:42Z</time>
      </trkpt>
      <trkpt lat="44.06398" lon="7.56437">
        <ele>1340</ele>
        <time>2012-10-21T11:56:50Z</time>
      </trkpt>
      <trkpt lat="44.064" lon="7.5644">
        <ele>1344</ele>
        <time>2012-10-21T11:56:59Z</time>
      </trkpt>
      <trkpt lat="44.064" lon="7.5644">
        <ele>1349</ele>
        <time>2012-10-21T11:57:13Z</time>
      </trkpt>
      <trkpt lat="44.06399" lon="7.56442">
        <ele>1350</ele>
        <time>2012-10-21T11:57:21Z</time>
      </trkpt>
      <trkpt lat="44.06402" lon="7.56439">
        <ele>1350</ele>
        <time>2012-10-21T11:57:27Z</time>
      </trkpt>
      <trkpt lat="44.06401" lon="7.56439">
        <ele>1350</ele>
        <time>2012-10-21T11:57:35Z</time>
      </trkpt>
      <trkpt lat="44.06399" lon="7.56443">
        <ele>1350</ele>
        <time>2012-10-21T11:57:41Z</time>
      </trkpt>
      <trkpt lat="44.06398" lon="7.56447">
        <ele>1356</ele>
        <time>2012-10-21T11:57:47Z</time>
      </trkpt>
      <trkpt lat="44.06398" lon="7.56449">
        <ele>1361</ele>
        <time>2012-10-21T11:57:52Z</time>
      </trkpt>
      <trkpt lat="44.06398" lon="7.56447">
        <ele>1366</ele>
        <time>2012-10-21T11:57:57Z</time>
      </trkpt>
      <trkpt lat="44.06396" lon="7.56444">
        <ele>1367</ele>
        <time>2012-10-21T11:58:02Z</time>
      </trkpt>
      <trkpt lat="44.06394" lon="7.5644">
        <ele>1372</ele>
        <time>2012-10-21T11:58:10Z</time>
      </trkpt>
      <trkpt lat="44.06395" lon="7.56439">
        <ele>1373</ele>
        <time>2012-10-21T11:58:20Z</time>
      </trkpt>
      <trkpt lat="44.06394" lon="7.56438">
        <ele>1371</ele>
        <time>2012-10-21T11:58:25Z</time>
      </trkpt>
      <trkpt lat="44.06394" lon="7.56438">
        <ele>1368</ele>
        <time>2012-10-21T11:58:36Z</time>
      </trkpt>
      <trkpt lat="44.06397" lon="7.56441">
        <ele>1368</ele>
        <time>2012-10-21T11:58:43Z</time>
      </trkpt>
      <trkpt lat="44.06399" lon="7.56445">
        <ele>1368</ele>
        <time>2012-10-21T11:58:51Z</time>
      </trkpt>
      <trkpt lat="44.06401" lon="7.56445">
        <ele>1362</ele>
        <time>2012-10-21T11:58:58Z</time>
      </trkpt>
      <trkpt lat="44.06404" lon="7.56445">
        <ele>1357</ele>
        <time>2012-10-21T11:59:07Z</time>
      </trkpt>
      <trkpt lat="44.06403" lon="7.56446">
        <ele>1353</ele>
        <time>2012-10-21T11:59:17Z</time>
      </trkpt>
      <trkpt lat="44.06403" lon="7.56448">
        <ele>1353</ele>
        <time>2012-10-21T11:59:41Z</time>
      </trkpt>
      <trkpt lat="44.06402" lon="7.56448">
        <ele>1353</ele>
        <time>2012-10-21T11:59:47Z</time>
      </trkpt>
      <trkpt lat="44.06402" lon="7.56452">
        <ele>1353</ele>
        <time>2012-10-21T11:59:53Z</time>
      </trkpt>
      <trkpt lat="44.06404" lon="7.56458">
        <ele>1353</ele>
        <time>2012-10-21T11:59:59Z</time>
      </trkpt>
      <trkpt lat="44.06405" lon="7.56461">
        <ele>1353</ele>
        <time>2012-10-21T12:00:06Z</time>
      </trkpt>
      <trkpt lat="44.06407" lon="7.56463">
        <ele>1352</ele>
        <time>2012-10-21T12:00:15Z</time>
      </trkpt>
      <trkpt lat="44.06409" lon="7.56462">
        <ele>1352</ele>
        <time>2012-10-21T12:00:22Z</time>
      </trkpt>
      <trkpt lat="44.06408" lon="7.5646">
        <ele>1352</ele>
        <time>2012-10-21T12:00:32Z</time>
      </trkpt>
      <trkpt lat="44.06405" lon="7.56458">
        <ele>1350</ele>
        <time>2012-10-21T12:00:37Z</time>
      </trkpt>
      <trkpt lat="44.06405" lon="7.56456">
        <ele>1349</ele>
        <time>2012-10-21T12:00:48Z</time>
      </trkpt>
      <trkpt lat="44.06404" lon="7.56453">
        <ele>1349</ele>
        <time>2012-10-21T12:00:53Z</time>
      </trkpt>
      <trkpt lat="44.06405" lon="7.5645">
        <ele>1349</ele>
        <time>2012-10-21T12:00:59Z</time>
      </trkpt>
      <trkpt lat="44.06403" lon="7.56445">
        <ele>1349</ele>
        <time>2012-10-21T12:01:04Z</time>
      </trkpt>
      <trkpt lat="44.06401" lon="7.56444">
        <ele>1355</ele>
        <time>2012-10-21T12:01:12Z</time>
      </trkpt>
      <trkpt lat="44.064" lon="7.56444">
        <ele>1357</ele>
        <time>2012-10-21T12:01:18Z</time>
      </trkpt>
      <trkpt lat="44.06399" lon="7.56444">
        <ele>1362</ele>
        <time>2012-10-21T12:01:26Z</time>
      </trkpt>
      <trkpt lat="44.064" lon="7.5644">
        <ele>1362</ele>
        <time>2012-10-21T12:01:31Z</time>
      </trkpt>
      <trkpt lat="44.064" lon="7.56435">
        <ele>1361</ele>
        <time>2012-10-21T12:01:37Z</time>
      </trkpt>
      <trkpt lat="44.064" lon="7.5643">
        <ele>1359</ele>
        <time>2012-10-21T12:01:43Z</time>
      </trkpt>
      <trkpt lat="44.064" lon="7.56431">
        <ele>1356</ele>
        <time>2012-10-21T12:01:51Z</time>
      </trkpt>
      <trkpt lat="44.06399" lon="7.56431">
        <ele>1354</ele>
        <time>2012-10-21T12:01:59Z</time>
      </trkpt>
      <trkpt lat="44.06398" lon="7.5643">
        <ele>1354</ele>
        <time>2012-10-21T12:02:30Z</time>
      </trkpt>
      <trkpt lat="44.06394" lon="7.56423">
        <ele>1354</ele>
        <time>2012-10-21T12:02:36Z</time>
      </trkpt>
      <trkpt lat="44.06395" lon="7.56417">
        <ele>1354</ele>
        <time>2012-10-21T12:02:41Z</time>
      </trkpt>
      <trkpt lat="44.06397" lon="7.56411">
        <ele>1351</ele>
        <time>2012-10-21T12:02:46Z</time>
      </trkpt>
      <trkpt lat="44.06402" lon="7.56409">
        <ele>1350</ele>
        <time>2012-10-21T12:02:52Z</time>
      </trkpt>
      <trkpt lat="44.06401" lon="7.56406">
        <ele>1350</ele>
        <time>2012-10-21T12:02:59Z</time>
      </trkpt>
      <trkpt lat="44.06402" lon="7.56406">
        <ele>1353</ele>
        <time>2012-10-21T12:03:06Z</time>
      </trkpt>
      <trkpt lat="44.064" lon="7.56405">
        <ele>1354</ele>
        <time>2012-10-21T12:03:13Z</time>
      </trkpt>
      <trkpt lat="44.06398" lon="7.5641">
        <ele>1353</ele>
        <time>2012-10-21T12:03:18Z</time>
      </trkpt>
      <trkpt lat="44.06394" lon="7.56415">
        <ele>1352</ele>
        <time>2012-10-21T12:03:24Z</time>
      </trkpt>
      <trkpt lat="44.06394" lon="7.56421">
        <ele>1352</ele>
        <time>2012-10-21T12:03:30Z</time>
      </trkpt>
      <trkpt lat="44.06393" lon="7.56424">
        <ele>1352</ele>
        <time>2012-10-21T12:03:36Z</time>
      </trkpt>
      <trkpt lat="44.06393" lon="7.56426">
        <ele>1352</ele>
        <time>2012-10-21T12:03:41Z</time>
      </trkpt>
      <trkpt lat="44.06395" lon="7.56428">
        <ele>1352</ele>
        <time>2012-10-21T12:03:46Z</time>
      </trkpt>
      <trkpt lat="44.06399" lon="7.56432">
        <ele>1352</ele>
        <time>2012-10-21T12:03:54Z</time>
      </trkpt>
      <trkpt lat="44.06401" lon="7.56434">
        <ele>1352</ele>
        <time>2012-10-21T12:03:59Z</time>
      </trkpt>
      <trkpt lat="44.064" lon="7.56432">
        <ele>1351</ele>
        <time>2012-10-21T12:04:06Z</time>
      </trkpt>
      <trkpt lat="44.06398" lon="7.56429">
        <ele>1350</ele>
        <time>2012-10-21T12:04:12Z</time>
      </trkpt>
      <trkpt lat="44.06397" lon="7.56429">
        <ele>1350</ele>
        <time>2012-10-21T12:04:29Z</time>
      </trkpt>
      <trkpt lat="44.06395" lon="7.5643">
        <ele>1347</ele>
        <time>2012-10-21T12:04:36Z</time>
      </trkpt>
      <trkpt lat="44.06393" lon="7.56429">
        <ele>1353</ele>
        <time>2012-10-21T12:04:52Z</time>
      </trkpt>
      <trkpt lat="44.06394" lon="7.56427">
        <ele>1353</ele>
        <time>2012-10-21T12:04:59Z</time>
      </trkpt>
      <trkpt lat="44.06395" lon="7.56428">
        <ele>1353</ele>
        <time>2012-10-21T12:05:09Z</time>
      </trkpt>
      <trkpt lat="44.06394" lon="7.56426">
        <ele>1355</ele>
        <time>2012-10-21T12:05:44Z</time>
      </trkpt>
      <trkpt lat="44.06393" lon="7.56426">
        <ele>1353</ele>
        <time>2012-10-21T12:05:52Z</time>
      </trkpt>
      <trkpt lat="44.06392" lon="7.56426">
        <ele>1350</ele>
        <time>2012-10-21T12:06:16Z</time>
      </trkpt>
      <trkpt lat="44.06389" lon="7.56424">
        <ele>1350</ele>
        <time>2012-10-21T12:06:24Z</time>
      </trkpt>
      <trkpt lat="44.06388" lon="7.56421">
        <ele>1350</ele>
        <time>2012-10-21T12:06:41Z</time>
      </trkpt>
      <trkpt lat="44.06388" lon="7.56419">
        <ele>1348</ele>
        <time>2012-10-21T12:06:54Z</time>
      </trkpt>
      <trkpt lat="44.06388" lon="7.56417">
        <ele>1348</ele>
        <time>2012-10-21T12:07:00Z</time>
      </trkpt>
      <trkpt lat="44.06388" lon="7.56416">
        <ele>1347</ele>
        <time>2012-10-21T12:07:07Z</time>
      </trkpt>
      <trkpt lat="44.06387" lon="7.56414">
        <ele>1345</ele>
        <time>2012-10-21T12:07:27Z</time>
      </trkpt>
      <trkpt lat="44.06387" lon="7.56416">
        <ele>1345</ele>
        <time>2012-10-21T12:07:34Z</time>
      </trkpt>
      <trkpt lat="44.06388" lon="7.56418">
        <ele>1353</ele>
        <time>2012-10-21T12:07:58Z</time>
      </trkpt>
      <trkpt lat="44.06389" lon="7.5642">
        <ele>1353</ele>
        <time>2012-10-21T12:08:03Z</time>
      </trkpt>
      <trkpt lat="44.0639" lon="7.56421">
        <ele>1353</ele>
        <time>2012-10-21T12:08:23Z</time>
      </trkpt>
      <trkpt lat="44.0639" lon="7.56423">
        <ele>1353</ele>
        <time>2012-10-21T12:08:30Z</time>
      </trkpt>
      <trkpt lat="44.06389" lon="7.56424">
        <ele>1353</ele>
        <time>2012-10-21T12:08:39Z</time>
      </trkpt>
      <trkpt lat="44.06388" lon="7.56426">
        <ele>1356</ele>
        <time>2012-10-21T12:08:52Z</time>
      </trkpt>
      <trkpt lat="44.06387" lon="7.56425">
        <ele>1357</ele>
        <time>2012-10-21T12:09:01Z</time>
      </trkpt>
      <trkpt lat="44.06387" lon="7.56423">
        <ele>1358</ele>
        <time>2012-10-21T12:09:09Z</time>
      </trkpt>
      <trkpt lat="44.06388" lon="7.56423">
        <ele>1358</ele>
        <time>2012-10-21T12:09:23Z</time>
      </trkpt>
      <trkpt lat="44.06389" lon="7.56421">
        <ele>1358</ele>
        <time>2012-10-21T12:09:38Z</time>
      </trkpt>
      <trkpt lat="44.06389" lon="7.5642">
        <ele>1358</ele>
        <time>2012-10-21T12:09:45Z</time>
      </trkpt>
      <trkpt lat="44.06388" lon="7.56421">
        <ele>1358</ele>
        <time>2012-10-21T12:10:06Z</time>
      </trkpt>
      <trkpt lat="44.06387" lon="7.56419">
        <ele>1359</ele>
        <time>2012-10-21T12:10:17Z</time>
      </trkpt>
      <trkpt lat="44.06386" lon="7.56419">
        <ele>1358</ele>
        <time>2012-10-21T12:10:32Z</time>
      </trkpt>
      <trkpt lat="44.06387" lon="7.56418">
        <ele>1358</ele>
        <time>2012-10-21T12:10:37Z</time>
      </trkpt>
      <trkpt lat="44.06386" lon="7.56417">
        <ele>1359</ele>
        <time>2012-10-21T12:10:43Z</time>
      </trkpt>
      <trkpt lat="44.06387" lon="7.56422">
        <ele>1367</ele>
        <time>2012-10-21T12:10:48Z</time>
      </trkpt>
      <trkpt lat="44.06389" lon="7.56425">
        <ele>1373</ele>
        <time>2012-10-21T12:10:53Z</time>
      </trkpt>
      <trkpt lat="44.06386" lon="7.56424">
        <ele>1373</ele>
        <time>2012-10-21T12:11:01Z</time>
      </trkpt>
      <trkpt lat="44.06385" lon="7.56421">
        <ele>1373</ele>
        <time>2012-10-21T12:11:06Z</time>
      </trkpt>
      <trkpt lat="44.06386" lon="7.56421">
        <ele>1372</ele>
        <time>2012-10-21T12:11:13Z</time>
      </trkpt>
      <trkpt lat="44.06376" lon="7.56416">
        <ele>1367</ele>
        <time>2012-10-21T12:11:18Z</time>
      </trkpt>
      <trkpt lat="44.06354" lon="7.56411">
        <ele>1357</ele>
        <time>2012-10-21T12:11:23Z</time>
      </trkpt>
      <trkpt lat="44.06336" lon="7.564">
        <ele>1349</ele>
        <time>2012-10-21T12:11:28Z</time>
      </trkpt>
      <trkpt lat="44.06334" lon="7.56435">
        <ele>1340</ele>
        <time>2012-10-21T12:11:33Z</time>
      </trkpt>
      <trkpt lat="44.06334" lon="7.56465">
        <ele>1331</ele>
        <time>2012-10-21T12:11:38Z</time>
      </trkpt>
      <trkpt lat="44.06321" lon="7.56449">
        <ele>1324</ele>
        <time>2012-10-21T12:11:43Z</time>
      </trkpt>
      <trkpt lat="44.06325" lon="7.56468">
        <ele>1319</ele>
        <time>2012-10-21T12:11:48Z</time>
      </trkpt>
      <trkpt lat="44.06321" lon="7.56502">
        <ele>1314</ele>
        <time>2012-10-21T12:11:53Z</time>
      </trkpt>
      <trkpt lat="44.06309" lon="7.56511">
        <ele>1310</ele>
        <time>2012-10-21T12:11:58Z</time>
      </trkpt>
      <trkpt lat="44.06305" lon="7.565">
        <ele>1307</ele>
        <time>2012-10-21T12:12:03Z</time>
      </trkpt>
      <trkpt lat="44.063" lon="7.56492">
        <ele>1302</ele>
        <time>2012-10-21T12:12:08Z</time>
      </trkpt>
      <trkpt lat="44.06285" lon="7.56511">
        <ele>1297</ele>
        <time>2012-10-21T12:12:13Z</time>
      </trkpt>
      <trkpt lat="44.06266" lon="7.56536">
        <ele>1293</ele>
        <time>2012-10-21T12:12:18Z</time>
      </trkpt>
      <trkpt lat="44.06249" lon="7.5657">
        <ele>1288</ele>
        <time>2012-10-21T12:12:23Z</time>
      </trkpt>
      <trkpt lat="44.06235" lon="7.56615">
        <ele>1282</ele>
        <time>2012-10-21T12:12:28Z</time>
      </trkpt>
      <trkpt lat="44.06224" lon="7.56643">
        <ele>1277</ele>
        <time>2012-10-21T12:12:33Z</time>
      </trkpt>
      <trkpt lat="44.06208" lon="7.56671">
        <ele>1273</ele>
        <time>2012-10-21T12:12:38Z</time>
      </trkpt>
      <trkpt lat="44.06198" lon="7.567">
        <ele>1273</ele>
        <time>2012-10-21T12:12:43Z</time>
      </trkpt>
      <trkpt lat="44.06189" lon="7.56732">
        <ele>1270</ele>
        <time>2012-10-21T12:12:48Z</time>
      </trkpt>
      <trkpt lat="44.06179" lon="7.56764">
        <ele>1265</ele>
        <time>2012-10-21T12:12:53Z</time>
      </trkpt>
      <trkpt lat="44.06187" lon="7.56807">
        <ele>1260</ele>
        <time>2012-10-21T12:12:58Z</time>
      </trkpt>
      <trkpt lat="44.06192" lon="7.56843">
        <ele>1255</ele>
        <time>2012-10-21T12:13:03Z</time>
      </trkpt>
      <trkpt lat="44.06204" lon="7.56881">
        <ele>1249</ele>
        <time>2012-10-21T12:13:08Z</time>
      </trkpt>
      <trkpt lat="44.06201" lon="7.5691">
        <ele>1241</ele>
        <time>2012-10-21T12:13:13Z</time>
      </trkpt>
      <trkpt lat="44.06185" lon="7.56933">
        <ele>1233</ele>
        <time>2012-10-21T12:13:18Z</time>
      </trkpt>
      <trkpt lat="44.06176" lon="7.56941">
        <ele>1230</ele>
        <time>2012-10-21T12:13:23Z</time>
      </trkpt>
      <trkpt lat="44.06175" lon="7.56946">
        <ele>1228</ele>
        <time>2012-10-21T12:13:28Z</time>
      </trkpt>
      <trkpt lat="44.06177" lon="7.56951">
        <ele>1227</ele>
        <time>2012-10-21T12:13:33Z</time>
      </trkpt>
      <trkpt lat="44.06179" lon="7.56956">
        <ele>1227</ele>
        <time>2012-10-21T12:13:39Z</time>
      </trkpt>
      <trkpt lat="44.06176" lon="7.56972">
        <ele>1227</ele>
        <time>2012-10-21T12:13:44Z</time>
      </trkpt>
      <trkpt lat="44.06171" lon="7.56995">
        <ele>1227</ele>
        <time>2012-10-21T12:13:49Z</time>
      </trkpt>
      <trkpt lat="44.06165" lon="7.57026">
        <ele>1227</ele>
        <time>2012-10-21T12:13:54Z</time>
      </trkpt>
      <trkpt lat="44.06153" lon="7.57057">
        <ele>1227</ele>
        <time>2012-10-21T12:13:59Z</time>
      </trkpt>
      <trkpt lat="44.06142" lon="7.57067">
        <ele>1227</ele>
        <time>2012-10-21T12:14:05Z</time>
      </trkpt>
      <trkpt lat="44.06132" lon="7.57088">
        <ele>1227</ele>
        <time>2012-10-21T12:14:10Z</time>
      </trkpt>
      <trkpt lat="44.06111" lon="7.57099">
        <ele>1225</ele>
        <time>2012-10-21T12:14:15Z</time>
      </trkpt>
      <trkpt lat="44.06099" lon="7.57118">
        <ele>1220</ele>
        <time>2012-10-21T12:14:20Z</time>
      </trkpt>
      <trkpt lat="44.06089" lon="7.57126">
        <ele>1217</ele>
        <time>2012-10-21T12:14:25Z</time>
      </trkpt>
      <trkpt lat="44.06101" lon="7.57143">
        <ele>1212</ele>
        <time>2012-10-21T12:14:30Z</time>
      </trkpt>
      <trkpt lat="44.06121" lon="7.57167">
        <ele>1202</ele>
        <time>2012-10-21T12:14:35Z</time>
      </trkpt>
      <trkpt lat="44.06141" lon="7.57182">
        <ele>1192</ele>
        <time>2012-10-21T12:14:40Z</time>
      </trkpt>
      <trkpt lat="44.06134" lon="7.57195">
        <ele>1182</ele>
        <time>2012-10-21T12:14:45Z</time>
      </trkpt>
      <trkpt lat="44.0611" lon="7.57196">
        <ele>1172</ele>
        <time>2012-10-21T12:14:50Z</time>
      </trkpt>
      <trkpt lat="44.06049" lon="7.57152">
        <ele>1168</ele>
        <time>2012-10-21T12:15:40Z</time>
      </trkpt>
      <trkpt lat="44.06038" lon="7.57179">
        <ele>1152</ele>
        <time>2012-10-21T12:15:45Z</time>
      </trkpt>
      <trkpt lat="44.06025" lon="7.57181">
        <ele>1156</ele>
        <time>2012-10-21T12:15:50Z</time>
      </trkpt>
      <trkpt lat="44.06027" lon="7.57197">
        <ele>1161</ele>
        <time>2012-10-21T12:15:55Z</time>
      </trkpt>
      <trkpt lat="44.06025" lon="7.57211">
        <ele>1163</ele>
        <time>2012-10-21T12:16:00Z</time>
      </trkpt>
      <trkpt lat="44.06005" lon="7.57212">
        <ele>1163</ele>
        <time>2012-10-21T12:16:05Z</time>
      </trkpt>
      <trkpt lat="44.05995" lon="7.5722">
        <ele>1160</ele>
        <time>2012-10-21T12:16:10Z</time>
      </trkpt>
      <trkpt lat="44.06005" lon="7.57238">
        <ele>1155</ele>
        <time>2012-10-21T12:16:15Z</time>
      </trkpt>
      <trkpt lat="44.06028" lon="7.57252">
        <ele>1150</ele>
        <time>2012-10-21T12:16:20Z</time>
      </trkpt>
      <trkpt lat="44.06066" lon="7.57246">
        <ele>1145</ele>
        <time>2012-10-21T12:16:25Z</time>
      </trkpt>
      <trkpt lat="44.06094" lon="7.57254">
        <ele>1142</ele>
        <time>2012-10-21T12:16:30Z</time>
      </trkpt>
      <trkpt lat="44.06112" lon="7.57265">
        <ele>1142</ele>
        <time>2012-10-21T12:16:35Z</time>
      </trkpt>
      <trkpt lat="44.06132" lon="7.57262">
        <ele>1143</ele>
        <time>2012-10-21T12:16:40Z</time>
      </trkpt>
      <trkpt lat="44.06161" lon="7.57259">
        <ele>1143</ele>
        <time>2012-10-21T12:16:45Z</time>
      </trkpt>
      <trkpt lat="44.06189" lon="7.57256">
        <ele>1145</ele>
        <time>2012-10-21T12:16:50Z</time>
      </trkpt>
      <trkpt lat="44.06208" lon="7.57258">
        <ele>1148</ele>
        <time>2012-10-21T12:16:55Z</time>
      </trkpt>
      <trkpt lat="44.0622" lon="7.57266">
        <ele>1148</ele>
        <time>2012-10-21T12:17:00Z</time>
      </trkpt>
      <trkpt lat="44.06229" lon="7.57282">
        <ele>1148</ele>
        <time>2012-10-21T12:17:05Z</time>
      </trkpt>
      <trkpt lat="44.06233" lon="7.57297">
        <ele>1148</ele>
        <time>2012-10-21T12:17:10Z</time>
      </trkpt>
      <trkpt lat="44.0624" lon="7.5731">
        <ele>1145</ele>
        <time>2012-10-21T12:17:15Z</time>
      </trkpt>
      <trkpt lat="44.06237" lon="7.57324">
        <ele>1140</ele>
        <time>2012-10-21T12:17:20Z</time>
      </trkpt>
      <trkpt lat="44.06252" lon="7.5734">
        <ele>1135</ele>
        <time>2012-10-21T12:17:25Z</time>
      </trkpt>
      <trkpt lat="44.06276" lon="7.57366">
        <ele>1128</ele>
        <time>2012-10-21T12:17:30Z</time>
      </trkpt>
      <trkpt lat="44.06287" lon="7.57384">
        <ele>1123</ele>
        <time>2012-10-21T12:17:35Z</time>
      </trkpt>
      <trkpt lat="44.06293" lon="7.57403">
        <ele>1118</ele>
        <time>2012-10-21T12:17:40Z</time>
      </trkpt>
      <trkpt lat="44.06301" lon="7.5742">
        <ele>1113</ele>
        <time>2012-10-21T12:17:45Z</time>
      </trkpt>
      <trkpt lat="44.06315" lon="7.57452">
        <ele>1108</ele>
        <time>2012-10-21T12:17:50Z</time>
      </trkpt>
      <trkpt lat="44.06331" lon="7.5747">
        <ele>1103</ele>
        <time>2012-10-21T12:17:55Z</time>
      </trkpt>
      <trkpt lat="44.06346" lon="7.57486">
        <ele>1098</ele>
        <time>2012-10-21T12:18:00Z</time>
      </trkpt>
      <trkpt lat="44.06342" lon="7.57514">
        <ele>1096</ele>
        <time>2012-10-21T12:18:05Z</time>
      </trkpt>
      <trkpt lat="44.06343" lon="7.57545">
        <ele>1096</ele>
        <time>2012-10-21T12:18:10Z</time>
      </trkpt>
      <trkpt lat="44.0633" lon="7.57564">
        <ele>1096</ele>
        <time>2012-10-21T12:18:15Z</time>
      </trkpt>
      <trkpt lat="44.06316" lon="7.57587">
        <ele>1096</ele>
        <time>2012-10-21T12:18:20Z</time>
      </trkpt>
      <trkpt lat="44.06308" lon="7.57609">
        <ele>1096</ele>
        <time>2012-10-21T12:18:25Z</time>
      </trkpt>
      <trkpt lat="44.06301" lon="7.57615">
        <ele>1093</ele>
        <time>2012-10-21T12:18:31Z</time>
      </trkpt>
      <trkpt lat="44.06298" lon="7.57607">
        <ele>1088</ele>
        <time>2012-10-21T12:18:36Z</time>
      </trkpt>
      <trkpt lat="44.06289" lon="7.57625">
        <ele>1082</ele>
        <time>2012-10-21T12:18:41Z</time>
      </trkpt>
      <trkpt lat="44.06268" lon="7.5765">
        <ele>1076</ele>
        <time>2012-10-21T12:18:46Z</time>
      </trkpt>
      <trkpt lat="44.06239" lon="7.57677">
        <ele>1074</ele>
        <time>2012-10-21T12:18:51Z</time>
      </trkpt>
      <trkpt lat="44.06243" lon="7.57655">
        <ele>1070</ele>
        <time>2012-10-21T12:18:56Z</time>
      </trkpt>
      <trkpt lat="44.06229" lon="7.57649">
        <ele>1063</ele>
        <time>2012-10-21T12:19:01Z</time>
      </trkpt>
      <trkpt lat="44.06228" lon="7.57638">
        <ele>1058</ele>
        <time>2012-10-21T12:19:06Z</time>
      </trkpt>
      <trkpt lat="44.06221" lon="7.57637">
        <ele>1053</ele>
        <time>2012-10-21T12:19:11Z</time>
      </trkpt>
      <trkpt lat="44.06204" lon="7.57647">
        <ele>1048</ele>
        <time>2012-10-21T12:19:16Z</time>
      </trkpt>
      <trkpt lat="44.0621" lon="7.57633">
        <ele>1041</ele>
        <time>2012-10-21T12:19:21Z</time>
      </trkpt>
      <trkpt lat="44.06207" lon="7.57626">
        <ele>1032</ele>
        <time>2012-10-21T12:19:26Z</time>
      </trkpt>
      <trkpt lat="44.06182" lon="7.57622">
        <ele>1023</ele>
        <time>2012-10-21T12:19:31Z</time>
      </trkpt>
      <trkpt lat="44.0616" lon="7.57633">
        <ele>1013</ele>
        <time>2012-10-21T12:19:36Z</time>
      </trkpt>
      <trkpt lat="44.0615" lon="7.57654">
        <ele>1005</ele>
        <time>2012-10-21T12:19:41Z</time>
      </trkpt>
      <trkpt lat="44.06137" lon="7.57661">
        <ele>1004</ele>
        <time>2012-10-21T12:19:46Z</time>
      </trkpt>
      <trkpt lat="44.06138" lon="7.57636">
        <ele>1005</ele>
        <time>2012-10-21T12:19:51Z</time>
      </trkpt>
      <trkpt lat="44.06132" lon="7.57638">
        <ele>1005</ele>
        <time>2012-10-21T12:19:56Z</time>
      </trkpt>
      <trkpt lat="44.06129" lon="7.57637">
        <ele>1005</ele>
        <time>2012-10-21T12:20:02Z</time>
      </trkpt>
      <trkpt lat="44.06126" lon="7.57638">
        <ele>1005</ele>
        <time>2012-10-21T12:20:07Z</time>
      </trkpt>
      <trkpt lat="44.06123" lon="7.57636">
        <ele>1003</ele>
        <time>2012-10-21T12:20:13Z</time>
      </trkpt>
      <trkpt lat="44.06124" lon="7.57622">
        <ele>1002</ele>
        <time>2012-10-21T12:20:18Z</time>
      </trkpt>
      <trkpt lat="44.06115" lon="7.57616">
        <ele>1002</ele>
        <time>2012-10-21T12:20:23Z</time>
      </trkpt>
      <trkpt lat="44.06103" lon="7.57645">
        <ele>1000</ele>
        <time>2012-10-21T12:20:28Z</time>
      </trkpt>
      <trkpt lat="44.06087" lon="7.57672">
        <ele>997</ele>
        <time>2012-10-21T12:20:33Z</time>
      </trkpt>
      <trkpt lat="44.06088" lon="7.5766">
        <ele>994</ele>
        <time>2012-10-21T12:20:38Z</time>
      </trkpt>
      <trkpt lat="44.06088" lon="7.5766">
        <ele>988</ele>
        <time>2012-10-21T12:20:44Z</time>
      </trkpt>
      <trkpt lat="44.06082" lon="7.57671">
        <ele>983</ele>
        <time>2012-10-21T12:20:49Z</time>
      </trkpt>
      <trkpt lat="44.06066" lon="7.57683">
        <ele>979</ele>
        <time>2012-10-21T12:20:54Z</time>
      </trkpt>
      <trkpt lat="44.0605" lon="7.57694">
        <ele>977</ele>
        <time>2012-10-21T12:20:59Z</time>
      </trkpt>
      <trkpt lat="44.06052" lon="7.57689">
        <ele>973</ele>
        <time>2012-10-21T12:21:04Z</time>
      </trkpt>
      <trkpt lat="44.06054" lon="7.57686">
        <ele>967</ele>
        <time>2012-10-21T12:21:10Z</time>
      </trkpt>
      <trkpt lat="44.06052" lon="7.5769">
        <ele>961</ele>
        <time>2012-10-21T12:21:16Z</time>
      </trkpt>
      <trkpt lat="44.06031" lon="7.577">
        <ele>960</ele>
        <time>2012-10-21T12:21:21Z</time>
      </trkpt>
      <trkpt lat="44.0601" lon="7.57716">
        <ele>957</ele>
        <time>2012-10-21T12:21:26Z</time>
      </trkpt>
      <trkpt lat="44.05986" lon="7.57731">
        <ele>952</ele>
        <time>2012-10-21T12:21:31Z</time>
      </trkpt>
      <trkpt lat="44.05969" lon="7.57771">
        <ele>947</ele>
        <time>2012-10-21T12:21:36Z</time>
      </trkpt>
      <trkpt lat="44.0595" lon="7.57789">
        <ele>944</ele>
        <time>2012-10-21T12:21:41Z</time>
      </trkpt>
      <trkpt lat="44.05932" lon="7.57796">
        <ele>941</ele>
        <time>2012-10-21T12:21:46Z</time>
      </trkpt>
      <trkpt lat="44.05935" lon="7.57793">
        <ele>938</ele>
        <time>2012-10-21T12:21:51Z</time>
      </trkpt>
      <trkpt lat="44.05936" lon="7.57785">
        <ele>933</ele>
        <time>2012-10-21T12:21:56Z</time>
      </trkpt>
      <trkpt lat="44.05943" lon="7.57779">
        <ele>930</ele>
        <time>2012-10-21T12:22:01Z</time>
      </trkpt>
      <trkpt lat="44.05948" lon="7.57765">
        <ele>927</ele>
        <time>2012-10-21T12:22:06Z</time>
      </trkpt>
      <trkpt lat="44.05958" lon="7.57747">
        <ele>922</ele>
        <time>2012-10-21T12:22:11Z</time>
      </trkpt>
      <trkpt lat="44.05951" lon="7.57742">
        <ele>918</ele>
        <time>2012-10-21T12:22:16Z</time>
      </trkpt>
      <trkpt lat="44.05935" lon="7.57747">
        <ele>917</ele>
        <time>2012-10-21T12:22:21Z</time>
      </trkpt>
      <trkpt lat="44.05934" lon="7.57735">
        <ele>915</ele>
        <time>2012-10-21T12:22:26Z</time>
      </trkpt>
      <trkpt lat="44.05935" lon="7.57725">
        <ele>910</ele>
        <time>2012-10-21T12:22:31Z</time>
      </trkpt>
      <trkpt lat="44.05925" lon="7.57729">
        <ele>905</ele>
        <time>2012-10-21T12:22:36Z</time>
      </trkpt>
      <trkpt lat="44.05922" lon="7.57724">
        <ele>900</ele>
        <time>2012-10-21T12:22:41Z</time>
      </trkpt>
      <trkpt lat="44.0592" lon="7.57721">
        <ele>897</ele>
        <time>2012-10-21T12:22:47Z</time>
      </trkpt>
      <trkpt lat="44.05917" lon="7.57716">
        <ele>897</ele>
        <time>2012-10-21T12:22:53Z</time>
      </trkpt>
      <trkpt lat="44.05904" lon="7.57716">
        <ele>897</ele>
        <time>2012-10-21T12:22:58Z</time>
      </trkpt>
      <trkpt lat="44.05884" lon="7.5772">
        <ele>892</ele>
        <time>2012-10-21T12:23:03Z</time>
      </trkpt>
      <trkpt lat="44.05857" lon="7.5772">
        <ele>888</ele>
        <time>2012-10-21T12:23:08Z</time>
      </trkpt>
      <trkpt lat="44.0584" lon="7.57713">
        <ele>888</ele>
        <time>2012-10-21T12:23:13Z</time>
      </trkpt>
      <trkpt lat="44.0583" lon="7.57698">
        <ele>885</ele>
        <time>2012-10-21T12:23:18Z</time>
      </trkpt>
      <trkpt lat="44.0583" lon="7.57716">
        <ele>882</ele>
        <time>2012-10-21T12:23:23Z</time>
      </trkpt>
      <trkpt lat="44.05824" lon="7.57708">
        <ele>879</ele>
        <time>2012-10-21T12:23:28Z</time>
      </trkpt>
      <trkpt lat="44.0581" lon="7.57688">
        <ele>876</ele>
        <time>2012-10-21T12:23:33Z</time>
      </trkpt>
      <trkpt lat="44.05796" lon="7.57664">
        <ele>872</ele>
        <time>2012-10-21T12:23:38Z</time>
      </trkpt>
      <trkpt lat="44.05795" lon="7.57668">
        <ele>868</ele>
        <time>2012-10-21T12:23:43Z</time>
      </trkpt>
      <trkpt lat="44.05787" lon="7.5767">
        <ele>863</ele>
        <time>2012-10-21T12:23:48Z</time>
      </trkpt>
      <trkpt lat="44.05777" lon="7.57656">
        <ele>858</ele>
        <time>2012-10-21T12:23:53Z</time>
      </trkpt>
      <trkpt lat="44.05772" lon="7.57656">
        <ele>855</ele>
        <time>2012-10-21T12:23:58Z</time>
      </trkpt>
      <trkpt lat="44.05772" lon="7.57675">
        <ele>853</ele>
        <time>2012-10-21T12:24:03Z</time>
      </trkpt>
      <trkpt lat="44.05773" lon="7.57685">
        <ele>848</ele>
        <time>2012-10-21T12:24:08Z</time>
      </trkpt>
      <trkpt lat="44.05774" lon="7.57692">
        <ele>843</ele>
        <time>2012-10-21T12:24:13Z</time>
      </trkpt>
      <trkpt lat="44.05769" lon="7.57695">
        <ele>839</ele>
        <time>2012-10-21T12:24:18Z</time>
      </trkpt>
      <trkpt lat="44.05758" lon="7.57684">
        <ele>835</ele>
        <time>2012-10-21T12:24:23Z</time>
      </trkpt>
      <trkpt lat="44.0575" lon="7.57671">
        <ele>830</ele>
        <time>2012-10-21T12:24:28Z</time>
      </trkpt>
      <trkpt lat="44.05744" lon="7.57669">
        <ele>828</ele>
        <time>2012-10-21T12:24:33Z</time>
      </trkpt>
      <trkpt lat="44.0574" lon="7.57679">
        <ele>828</ele>
        <time>2012-10-21T12:24:38Z</time>
      </trkpt>
      <trkpt lat="44.05738" lon="7.57688">
        <ele>827</ele>
        <time>2012-10-21T12:24:43Z</time>
      </trkpt>
      <trkpt lat="44.0573" lon="7.5768">
        <ele>825</ele>
        <time>2012-10-21T12:24:48Z</time>
      </trkpt>
      <trkpt lat="44.05725" lon="7.57678">
        <ele>821</ele>
        <time>2012-10-21T12:24:54Z</time>
      </trkpt>
      <trkpt lat="44.05727" lon="7.57691">
        <ele>820</ele>
        <time>2012-10-21T12:24:59Z</time>
      </trkpt>
      <trkpt lat="44.05722" lon="7.577">
        <ele>815</ele>
        <time>2012-10-21T12:25:04Z</time>
      </trkpt>
      <trkpt lat="44.05716" lon="7.57697">
        <ele>810</ele>
        <time>2012-10-21T12:25:10Z</time>
      </trkpt>
      <trkpt lat="44.05711" lon="7.57717">
        <ele>808</ele>
        <time>2012-10-21T12:25:15Z</time>
      </trkpt>
      <trkpt lat="44.05706" lon="7.57716">
        <ele>804</ele>
        <time>2012-10-21T12:25:20Z</time>
      </trkpt>
      <trkpt lat="44.05698" lon="7.57702">
        <ele>801</ele>
        <time>2012-10-21T12:25:25Z</time>
      </trkpt>
      <trkpt lat="44.05694" lon="7.57712">
        <ele>796</ele>
        <time>2012-10-21T12:25:30Z</time>
      </trkpt>
      <trkpt lat="44.05697" lon="7.57737">
        <ele>791</ele>
        <time>2012-10-21T12:25:35Z</time>
      </trkpt>
      <trkpt lat="44.05695" lon="7.57747">
        <ele>787</ele>
        <time>2012-10-21T12:25:40Z</time>
      </trkpt>
      <trkpt lat="44.05692" lon="7.57751">
        <ele>784</ele>
        <time>2012-10-21T12:25:45Z</time>
      </trkpt>
      <trkpt lat="44.05687" lon="7.57757">
        <ele>779</ele>
        <time>2012-10-21T12:25:50Z</time>
      </trkpt>
      <trkpt lat="44.0568" lon="7.57761">
        <ele>774</ele>
        <time>2012-10-21T12:25:55Z</time>
      </trkpt>
      <trkpt lat="44.05676" lon="7.57761">
        <ele>772</ele>
        <time>2012-10-21T12:26:00Z</time>
      </trkpt>
      <trkpt lat="44.05668" lon="7.57764">
        <ele>772</ele>
        <time>2012-10-21T12:26:05Z</time>
      </trkpt>
      <trkpt lat="44.0566" lon="7.5776">
        <ele>771</ele>
        <time>2012-10-21T12:26:10Z</time>
      </trkpt>
      <trkpt lat="44.05645" lon="7.57751">
        <ele>766</ele>
        <time>2012-10-21T12:26:15Z</time>
      </trkpt>
      <trkpt lat="44.05626" lon="7.5774">
        <ele>761</ele>
        <time>2012-10-21T12:26:20Z</time>
      </trkpt>
      <trkpt lat="44.05599" lon="7.57721">
        <ele>756</ele>
        <time>2012-10-21T12:26:25Z</time>
      </trkpt>
      <trkpt lat="44.05579" lon="7.57705">
        <ele>751</ele>
        <time>2012-10-21T12:26:30Z</time>
      </trkpt>
      <trkpt lat="44.05574" lon="7.57733">
        <ele>747</ele>
        <time>2012-10-21T12:26:35Z</time>
      </trkpt>
      <trkpt lat="44.0557" lon="7.57781">
        <ele>745</ele>
        <time>2012-10-21T12:26:40Z</time>
      </trkpt>
      <trkpt lat="44.05563" lon="7.57815">
        <ele>741</ele>
        <time>2012-10-21T12:26:45Z</time>
      </trkpt>
      <trkpt lat="44.05544" lon="7.57824">
        <ele>736</ele>
        <time>2012-10-21T12:26:50Z</time>
      </trkpt>
      <trkpt lat="44.05539" lon="7.57839">
        <ele>731</ele>
        <time>2012-10-21T12:26:55Z</time>
      </trkpt>
      <trkpt lat="44.05536" lon="7.57838">
        <ele>727</ele>
        <time>2012-10-21T12:27:00Z</time>
      </trkpt>
      <trkpt lat="44.05531" lon="7.57838">
        <ele>727</ele>
        <time>2012-10-21T12:27:05Z</time>
      </trkpt>
      <trkpt lat="44.05527" lon="7.57847">
        <ele>727</ele>
        <time>2012-10-21T12:27:10Z</time>
      </trkpt>
      <trkpt lat="44.05525" lon="7.57868">
        <ele>727</ele>
        <time>2012-10-21T12:27:15Z</time>
      </trkpt>
      <trkpt lat="44.05519" lon="7.579">
        <ele>726</ele>
        <time>2012-10-21T12:27:20Z</time>
      </trkpt>
      <trkpt lat="44.05523" lon="7.57902">
        <ele>725</ele>
        <time>2012-10-21T12:27:26Z</time>
      </trkpt>
      <trkpt lat="44.05527" lon="7.57907">
        <ele>725</ele>
        <time>2012-10-21T12:27:32Z</time>
      </trkpt>
      <trkpt lat="44.0553" lon="7.57911">
        <ele>725</ele>
        <time>2012-10-21T12:27:37Z</time>
      </trkpt>
      <trkpt lat="44.05531" lon="7.5791">
        <ele>725</ele>
        <time>2012-10-21T12:27:42Z</time>
      </trkpt>
      <trkpt lat="44.05534" lon="7.57913">
        <ele>725</ele>
        <time>2012-10-21T12:27:47Z</time>
      </trkpt>
      <trkpt lat="44.05532" lon="7.57911">
        <ele>725</ele>
        <time>2012-10-21T12:27:58Z</time>
      </trkpt>
      <trkpt lat="44.05533" lon="7.5791">
        <ele>725</ele>
        <time>2012-10-21T12:28:05Z</time>
      </trkpt>
      <trkpt lat="44.05531" lon="7.57908">
        <ele>722</ele>
        <time>2012-10-21T12:28:19Z</time>
      </trkpt>
      <trkpt lat="44.05529" lon="7.57906">
        <ele>722</ele>
        <time>2012-10-21T12:28:26Z</time>
      </trkpt>
      <trkpt lat="44.05529" lon="7.57908">
        <ele>722</ele>
        <time>2012-10-21T12:28:32Z</time>
      </trkpt>
      <trkpt lat="44.05529" lon="7.57909">
        <ele>722</ele>
        <time>2012-10-21T12:28:39Z</time>
      </trkpt>
      <trkpt lat="44.05532" lon="7.5791">
        <ele>724</ele>
        <time>2012-10-21T12:28:57Z</time>
      </trkpt>
      <trkpt lat="44.05532" lon="7.57909">
        <ele>724</ele>
        <time>2012-10-21T12:29:11Z</time>
      </trkpt>
      <trkpt lat="44.05528" lon="7.57905">
        <ele>724</ele>
        <time>2012-10-21T12:29:17Z</time>
      </trkpt>
      <trkpt lat="44.05527" lon="7.57899">
        <ele>724</ele>
        <time>2012-10-21T12:29:23Z</time>
      </trkpt>
      <trkpt lat="44.05525" lon="7.57893">
        <ele>724</ele>
        <time>2012-10-21T12:29:29Z</time>
      </trkpt>
      <trkpt lat="44.05525" lon="7.57887">
        <ele>724</ele>
        <time>2012-10-21T12:29:36Z</time>
      </trkpt>
      <trkpt lat="44.05525" lon="7.57885">
        <ele>724</ele>
        <time>2012-10-21T12:29:49Z</time>
      </trkpt>
      <trkpt lat="44.05526" lon="7.57885">
        <ele>726</ele>
        <time>2012-10-21T12:30:09Z</time>
      </trkpt>
      <trkpt lat="44.05527" lon="7.57887">
        <ele>726</ele>
        <time>2012-10-21T12:30:15Z</time>
      </trkpt>
      <trkpt lat="44.05526" lon="7.57886">
        <ele>726</ele>
        <time>2012-10-21T12:30:20Z</time>
      </trkpt>
      <trkpt lat="44.05526" lon="7.57884">
        <ele>726</ele>
        <time>2012-10-21T12:30:25Z</time>
      </trkpt>
      <trkpt lat="44.05527" lon="7.57885">
        <ele>726</ele>
        <time>2012-10-21T12:30:46Z</time>
      </trkpt>
      <trkpt lat="44.05529" lon="7.57889">
        <ele>726</ele>
        <time>2012-10-21T12:30:52Z</time>
      </trkpt>
      <trkpt lat="44.05531" lon="7.57893">
        <ele>726</ele>
        <time>2012-10-21T12:30:57Z</time>
      </trkpt>
      <trkpt lat="44.05531" lon="7.57899">
        <ele>726</ele>
        <time>2012-10-21T12:31:03Z</time>
      </trkpt>
      <trkpt lat="44.05533" lon="7.57906">
        <ele>726</ele>
        <time>2012-10-21T12:31:09Z</time>
      </trkpt>
      <trkpt lat="44.05533" lon="7.57907">
        <ele>726</ele>
        <time>2012-10-21T12:31:17Z</time>
      </trkpt>
      <trkpt lat="44.05533" lon="7.5791">
        <ele>726</ele>
        <time>2012-10-21T12:31:33Z</time>
      </trkpt>
      <trkpt lat="44.05532" lon="7.57912">
        <ele>726</ele>
        <time>2012-10-21T12:31:49Z</time>
      </trkpt>
      <trkpt lat="44.05532" lon="7.5791">
        <ele>726</ele>
        <time>2012-10-21T12:32:10Z</time>
      </trkpt>
      <trkpt lat="44.05534" lon="7.57911">
        <ele>726</ele>
        <time>2012-10-21T12:32:24Z</time>
      </trkpt>
      <trkpt lat="44.05537" lon="7.57912">
        <ele>726</ele>
        <time>2012-10-21T12:32:33Z</time>
      </trkpt>
      <trkpt lat="44.05547" lon="7.57918">
        <ele>726</ele>
        <time>2012-10-21T12:32:38Z</time>
      </trkpt>
      <trkpt lat="44.05546" lon="7.57936">
        <ele>726</ele>
        <time>2012-10-21T12:32:43Z</time>
      </trkpt>
      <trkpt lat="44.05539" lon="7.57954">
        <ele>726</ele>
        <time>2012-10-21T12:32:48Z</time>
      </trkpt>
      <trkpt lat="44.05537" lon="7.57984">
        <ele>724</ele>
        <time>2012-10-21T12:32:53Z</time>
      </trkpt>
      <trkpt lat="44.05557" lon="7.58009">
        <ele>722</ele>
        <time>2012-10-21T12:32:58Z</time>
      </trkpt>
      <trkpt lat="44.05564" lon="7.58051">
        <ele>722</ele>
        <time>2012-10-21T12:33:03Z</time>
      </trkpt>
      <trkpt lat="44.05568" lon="7.58103">
        <ele>720</ele>
        <time>2012-10-21T12:33:08Z</time>
      </trkpt>
      <trkpt lat="44.05565" lon="7.58145">
        <ele>717</ele>
        <time>2012-10-21T12:33:13Z</time>
      </trkpt>
      <trkpt lat="44.05561" lon="7.58188">
        <ele>713</ele>
        <time>2012-10-21T12:33:18Z</time>
      </trkpt>
      <trkpt lat="44.05562" lon="7.58229">
        <ele>708</ele>
        <time>2012-10-21T12:33:23Z</time>
      </trkpt>
      <trkpt lat="44.05586" lon="7.58255">
        <ele>705</ele>
        <time>2012-10-21T12:33:28Z</time>
      </trkpt>
      <trkpt lat="44.0561" lon="7.58286">
        <ele>704</ele>
        <time>2012-10-21T12:33:33Z</time>
      </trkpt>
      <trkpt lat="44.0562" lon="7.58329">
        <ele>702</ele>
        <time>2012-10-21T12:33:38Z</time>
      </trkpt>
      <trkpt lat="44.05634" lon="7.58378">
        <ele>701</ele>
        <time>2012-10-21T12:33:43Z</time>
      </trkpt>
      <trkpt lat="44.05652" lon="7.58424">
        <ele>700</ele>
        <time>2012-10-21T12:33:48Z</time>
      </trkpt>
      <trkpt lat="44.05672" lon="7.58465">
        <ele>698</ele>
        <time>2012-10-21T12:33:53Z</time>
      </trkpt>
      <trkpt lat="44.05693" lon="7.58502">
        <ele>697</ele>
        <time>2012-10-21T12:33:58Z</time>
      </trkpt>
      <trkpt lat="44.05712" lon="7.58543">
        <ele>696</ele>
        <time>2012-10-21T12:34:03Z</time>
      </trkpt>
      <trkpt lat="44.05733" lon="7.58583">
        <ele>695</ele>
        <time>2012-10-21T12:34:08Z</time>
      </trkpt>
      <trkpt lat="44.05758" lon="7.58606">
        <ele>693</ele>
        <time>2012-10-21T12:34:13Z</time>
      </trkpt>
      <trkpt lat="44.0577" lon="7.58616">
        <ele>692</ele>
        <time>2012-10-21T12:34:18Z</time>
      </trkpt>
      <trkpt lat="44.05777" lon="7.58627">
        <ele>692</ele>
        <time>2012-10-21T12:34:23Z</time>
      </trkpt>
      <trkpt lat="44.05791" lon="7.58626">
        <ele>692</ele>
        <time>2012-10-21T12:34:28Z</time>
      </trkpt>
      <trkpt lat="44.05806" lon="7.58626">
        <ele>692</ele>
        <time>2012-10-21T12:34:33Z</time>
      </trkpt>
      <trkpt lat="44.05821" lon="7.58627">
        <ele>692</ele>
        <time>2012-10-21T12:34:38Z</time>
      </trkpt>
      <trkpt lat="44.05834" lon="7.5863">
        <ele>692</ele>
        <time>2012-10-21T12:34:43Z</time>
      </trkpt>
      <trkpt lat="44.05847" lon="7.58637">
        <ele>692</ele>
        <time>2012-10-21T12:34:48Z</time>
      </trkpt>
      <trkpt lat="44.05859" lon="7.58647">
        <ele>692</ele>
        <time>2012-10-21T12:34:53Z</time>
      </trkpt>
      <trkpt lat="44.05869" lon="7.5866">
        <ele>692</ele>
        <time>2012-10-21T12:34:58Z</time>
      </trkpt>
      <trkpt lat="44.05878" lon="7.58674">
        <ele>692</ele>
        <time>2012-10-21T12:35:03Z</time>
      </trkpt>
      <trkpt lat="44.05888" lon="7.58689">
        <ele>692</ele>
        <time>2012-10-21T12:35:08Z</time>
      </trkpt>
      <trkpt lat="44.05897" lon="7.58703">
        <ele>693</ele>
        <time>2012-10-21T12:35:13Z</time>
      </trkpt>
      <trkpt lat="44.05906" lon="7.58717">
        <ele>694</ele>
        <time>2012-10-21T12:35:18Z</time>
      </trkpt>
      <trkpt lat="44.05915" lon="7.58731">
        <ele>696</ele>
        <time>2012-10-21T12:35:23Z</time>
      </trkpt>
      <trkpt lat="44.05924" lon="7.58745">
        <ele>696</ele>
        <time>2012-10-21T12:35:28Z</time>
      </trkpt>
      <trkpt lat="44.05934" lon="7.58757">
        <ele>698</ele>
        <time>2012-10-21T12:35:33Z</time>
      </trkpt>
      <trkpt lat="44.05945" lon="7.58768">
        <ele>698</ele>
        <time>2012-10-21T12:35:38Z</time>
      </trkpt>
      <trkpt lat="44.05956" lon="7.58776">
        <ele>699</ele>
        <time>2012-10-21T12:35:43Z</time>
      </trkpt>
      <trkpt lat="44.05966" lon="7.58783">
        <ele>700</ele>
        <time>2012-10-21T12:35:48Z</time>
      </trkpt>
      <trkpt lat="44.05978" lon="7.58789">
        <ele>701</ele>
        <time>2012-10-21T12:35:53Z</time>
      </trkpt>
      <trkpt lat="44.05991" lon="7.58794">
        <ele>701</ele>
        <time>2012-10-21T12:35:58Z</time>
      </trkpt>
      <trkpt lat="44.06004" lon="7.58797">
        <ele>702</ele>
        <time>2012-10-21T12:36:03Z</time>
      </trkpt>
      <trkpt lat="44.06017" lon="7.58799">
        <ele>703</ele>
        <time>2012-10-21T12:36:08Z</time>
      </trkpt>
      <trkpt lat="44.06029" lon="7.58797">
        <ele>704</ele>
        <time>2012-10-21T12:36:13Z</time>
      </trkpt>
      <trkpt lat="44.0604" lon="7.58795">
        <ele>705</ele>
        <time>2012-10-21T12:36:18Z</time>
      </trkpt>
      <trkpt lat="44.06051" lon="7.58795">
        <ele>706</ele>
        <time>2012-10-21T12:36:23Z</time>
      </trkpt>
      <trkpt lat="44.06063" lon="7.58796">
        <ele>707</ele>
        <time>2012-10-21T12:36:28Z</time>
      </trkpt>
      <trkpt lat="44.06074" lon="7.58797">
        <ele>709</ele>
        <time>2012-10-21T12:36:33Z</time>
      </trkpt>
      <trkpt lat="44.06084" lon="7.58798">
        <ele>709</ele>
        <time>2012-10-21T12:36:38Z</time>
      </trkpt>
      <trkpt lat="44.06096" lon="7.588">
        <ele>712</ele>
        <time>2012-10-21T12:36:43Z</time>
      </trkpt>
      <trkpt lat="44.06103" lon="7.58801">
        <ele>712</ele>
        <time>2012-10-21T12:36:55Z</time>
      </trkpt>
      <trkpt lat="44.06104" lon="7.58801">
        <ele>713</ele>
        <time>2012-10-21T12:37:01Z</time>
      </trkpt>
      <trkpt lat="44.06113" lon="7.58807">
        <ele>714</ele>
        <time>2012-10-21T12:37:06Z</time>
      </trkpt>
      <trkpt lat="44.06122" lon="7.58814">
        <ele>714</ele>
        <time>2012-10-21T12:37:11Z</time>
      </trkpt>
      <trkpt lat="44.06131" lon="7.58823">
        <ele>714</ele>
        <time>2012-10-21T12:37:16Z</time>
      </trkpt>
      <trkpt lat="44.06139" lon="7.5883">
        <ele>714</ele>
        <time>2012-10-21T12:37:21Z</time>
      </trkpt>
      <trkpt lat="44.06149" lon="7.5884">
        <ele>718</ele>
        <time>2012-10-21T12:37:26Z</time>
      </trkpt>
      <trkpt lat="44.06158" lon="7.58845">
        <ele>723</ele>
        <time>2012-10-21T12:37:31Z</time>
      </trkpt>
      <trkpt lat="44.06167" lon="7.58846">
        <ele>723</ele>
        <time>2012-10-21T12:37:36Z</time>
      </trkpt>
      <trkpt lat="44.06177" lon="7.58846">
        <ele>723</ele>
        <time>2012-10-21T12:37:41Z</time>
      </trkpt>
      <trkpt lat="44.06188" lon="7.58846">
        <ele>723</ele>
        <time>2012-10-21T12:37:46Z</time>
      </trkpt>
      <trkpt lat="44.06199" lon="7.58846">
        <ele>723</ele>
        <time>2012-10-21T12:37:51Z</time>
      </trkpt>
      <trkpt lat="44.06208" lon="7.58846">
        <ele>724</ele>
        <time>2012-10-21T12:37:56Z</time>
      </trkpt>
      <trkpt lat="44.06219" lon="7.58848">
        <ele>726</ele>
        <time>2012-10-21T12:38:01Z</time>
      </trkpt>
      <trkpt lat="44.06231" lon="7.58851">
        <ele>731</ele>
        <time>2012-10-21T12:38:06Z</time>
      </trkpt>
      <trkpt lat="44.06242" lon="7.58853">
        <ele>736</ele>
        <time>2012-10-21T12:38:11Z</time>
      </trkpt>
      <trkpt lat="44.06254" lon="7.58853">
        <ele>740</ele>
        <time>2012-10-21T12:38:16Z</time>
      </trkpt>
      <trkpt lat="44.06263" lon="7.58855">
        <ele>740</ele>
        <time>2012-10-21T12:38:21Z</time>
      </trkpt>
      <trkpt lat="44.06274" lon="7.58856">
        <ele>739</ele>
        <time>2012-10-21T12:38:26Z</time>
      </trkpt>
      <trkpt lat="44.06283" lon="7.58859">
        <ele>739</ele>
        <time>2012-10-21T12:38:31Z</time>
      </trkpt>
      <trkpt lat="44.06293" lon="7.58862">
        <ele>738</ele>
        <time>2012-10-21T12:38:36Z</time>
      </trkpt>
      <trkpt lat="44.06303" lon="7.58867">
        <ele>738</ele>
        <time>2012-10-21T12:38:41Z</time>
      </trkpt>
      <trkpt lat="44.06313" lon="7.58872">
        <ele>739</ele>
        <time>2012-10-21T12:38:46Z</time>
      </trkpt>
      <trkpt lat="44.06321" lon="7.5888">
        <ele>744</ele>
        <time>2012-10-21T12:38:51Z</time>
      </trkpt>
      <trkpt lat="44.06331" lon="7.58886">
        <ele>747</ele>
        <time>2012-10-21T12:38:56Z</time>
      </trkpt>
      <trkpt lat="44.06341" lon="7.58892">
        <ele>751</ele>
        <time>2012-10-21T12:39:01Z</time>
      </trkpt>
      <trkpt lat="44.06351" lon="7.58897">
        <ele>751</ele>
        <time>2012-10-21T12:39:06Z</time>
      </trkpt>
      <trkpt lat="44.06362" lon="7.58903">
        <ele>750</ele>
        <time>2012-10-21T12:39:11Z</time>
      </trkpt>
      <trkpt lat="44.06372" lon="7.58906">
        <ele>746</ele>
        <time>2012-10-21T12:39:16Z</time>
      </trkpt>
      <trkpt lat="44.06382" lon="7.58912">
        <ele>744</ele>
        <time>2012-10-21T12:39:21Z</time>
      </trkpt>
      <trkpt lat="44.06393" lon="7.58917">
        <ele>744</ele>
        <time>2012-10-21T12:39:26Z</time>
      </trkpt>
      <trkpt lat="44.06403" lon="7.58921">
        <ele>744</ele>
        <time>2012-10-21T12:39:31Z</time>
      </trkpt>
      <trkpt lat="44.06415" lon="7.58926">
        <ele>744</ele>
        <time>2012-10-21T12:39:36Z</time>
      </trkpt>
      <trkpt lat="44.06426" lon="7.58928">
        <ele>746</ele>
        <time>2012-10-21T12:39:41Z</time>
      </trkpt>
      <trkpt lat="44.06437" lon="7.58931">
        <ele>746</ele>
        <time>2012-10-21T12:39:46Z</time>
      </trkpt>
      <trkpt lat="44.06448" lon="7.58932">
        <ele>748</ele>
        <time>2012-10-21T12:39:51Z</time>
      </trkpt>
      <trkpt lat="44.06463" lon="7.58931">
        <ele>748</ele>
        <time>2012-10-21T12:39:56Z</time>
      </trkpt>
      <trkpt lat="44.06479" lon="7.58928">
        <ele>747</ele>
        <time>2012-10-21T12:40:01Z</time>
      </trkpt>
      <trkpt lat="44.06494" lon="7.58924">
        <ele>745</ele>
        <time>2012-10-21T12:40:06Z</time>
      </trkpt>
      <trkpt lat="44.06509" lon="7.58924">
        <ele>744</ele>
        <time>2012-10-21T12:40:11Z</time>
      </trkpt>
      <trkpt lat="44.06525" lon="7.58925">
        <ele>742</ele>
        <time>2012-10-21T12:40:16Z</time>
      </trkpt>
      <trkpt lat="44.0654" lon="7.58924">
        <ele>742</ele>
        <time>2012-10-21T12:40:21Z</time>
      </trkpt>
      <trkpt lat="44.06555" lon="7.58923">
        <ele>742</ele>
        <time>2012-10-21T12:40:26Z</time>
      </trkpt>
      <trkpt lat="44.06572" lon="7.58925">
        <ele>742</ele>
        <time>2012-10-21T12:40:31Z</time>
      </trkpt>
      <trkpt lat="44.06589" lon="7.58929">
        <ele>742</ele>
        <time>2012-10-21T12:40:36Z</time>
      </trkpt>
      <trkpt lat="44.06605" lon="7.58933">
        <ele>742</ele>
        <time>2012-10-21T12:40:41Z</time>
      </trkpt>
      <trkpt lat="44.06622" lon="7.58939">
        <ele>742</ele>
        <time>2012-10-21T12:40:46Z</time>
      </trkpt>
      <trkpt lat="44.06638" lon="7.58946">
        <ele>742</ele>
        <time>2012-10-21T12:40:51Z</time>
      </trkpt>
      <trkpt lat="44.06655" lon="7.58952">
        <ele>742</ele>
        <time>2012-10-21T12:40:56Z</time>
      </trkpt>
      <trkpt lat="44.06672" lon="7.58959">
        <ele>742</ele>
        <time>2012-10-21T12:41:01Z</time>
      </trkpt>
      <trkpt lat="44.06687" lon="7.58964">
        <ele>742</ele>
        <time>2012-10-21T12:41:06Z</time>
      </trkpt>
      <trkpt lat="44.06701" lon="7.58969">
        <ele>742</ele>
        <time>2012-10-21T12:41:11Z</time>
      </trkpt>
      <trkpt lat="44.06714" lon="7.58974">
        <ele>742</ele>
        <time>2012-10-21T12:41:16Z</time>
      </trkpt>
      <trkpt lat="44.06728" lon="7.5898">
        <ele>742</ele>
        <time>2012-10-21T12:41:21Z</time>
      </trkpt>
      <trkpt lat="44.06742" lon="7.58986">
        <ele>742</ele>
        <time>2012-10-21T12:41:26Z</time>
      </trkpt>
      <trkpt lat="44.06756" lon="7.5899">
        <ele>742</ele>
        <time>2012-10-21T12:41:31Z</time>
      </trkpt>
      <trkpt lat="44.06771" lon="7.58991">
        <ele>742</ele>
        <time>2012-10-21T12:41:36Z</time>
      </trkpt>
      <trkpt lat="44.06786" lon="7.58989">
        <ele>742</ele>
        <time>2012-10-21T12:41:41Z</time>
      </trkpt>
      <trkpt lat="44.06804" lon="7.58984">
        <ele>742</ele>
        <time>2012-10-21T12:41:46Z</time>
      </trkpt>
      <trkpt lat="44.0682" lon="7.58978">
        <ele>742</ele>
        <time>2012-10-21T12:41:51Z</time>
      </trkpt>
      <trkpt lat="44.06833" lon="7.58968">
        <ele>742</ele>
        <time>2012-10-21T12:41:56Z</time>
      </trkpt>
      <trkpt lat="44.06846" lon="7.58957">
        <ele>742</ele>
        <time>2012-10-21T12:42:01Z</time>
      </trkpt>
      <trkpt lat="44.06859" lon="7.58945">
        <ele>742</ele>
        <time>2012-10-21T12:42:06Z</time>
      </trkpt>
      <trkpt lat="44.06872" lon="7.58932">
        <ele>742</ele>
        <time>2012-10-21T12:42:11Z</time>
      </trkpt>
      <trkpt lat="44.06883" lon="7.58919">
        <ele>742</ele>
        <time>2012-10-21T12:42:16Z</time>
      </trkpt>
      <trkpt lat="44.06895" lon="7.58904">
        <ele>742</ele>
        <time>2012-10-21T12:42:21Z</time>
      </trkpt>
      <trkpt lat="44.06908" lon="7.58891">
        <ele>742</ele>
        <time>2012-10-21T12:42:26Z</time>
      </trkpt>
      <trkpt lat="44.0692" lon="7.58879">
        <ele>743</ele>
        <time>2012-10-21T12:42:31Z</time>
      </trkpt>
      <trkpt lat="44.06935" lon="7.5887">
        <ele>743</ele>
        <time>2012-10-21T12:42:36Z</time>
      </trkpt>
      <trkpt lat="44.0695" lon="7.58868">
        <ele>744</ele>
        <time>2012-10-21T12:42:41Z</time>
      </trkpt>
      <trkpt lat="44.06965" lon="7.58869">
        <ele>745</ele>
        <time>2012-10-21T12:42:46Z</time>
      </trkpt>
      <trkpt lat="44.06981" lon="7.5887">
        <ele>745</ele>
        <time>2012-10-21T12:42:51Z</time>
      </trkpt>
      <trkpt lat="44.06997" lon="7.58871">
        <ele>745</ele>
        <time>2012-10-21T12:42:56Z</time>
      </trkpt>
      <trkpt lat="44.07013" lon="7.58874">
        <ele>746</ele>
        <time>2012-10-21T12:43:01Z</time>
      </trkpt>
      <trkpt lat="44.07029" lon="7.58875">
        <ele>747</ele>
        <time>2012-10-21T12:43:06Z</time>
      </trkpt>
      <trkpt lat="44.07045" lon="7.58881">
        <ele>747</ele>
        <time>2012-10-21T12:43:11Z</time>
      </trkpt>
      <trkpt lat="44.07059" lon="7.58897">
        <ele>747</ele>
        <time>2012-10-21T12:43:16Z</time>
      </trkpt>
      <trkpt lat="44.07066" lon="7.58918">
        <ele>748</ele>
        <time>2012-10-21T12:43:21Z</time>
      </trkpt>
      <trkpt lat="44.07069" lon="7.58939">
        <ele>749</ele>
        <time>2012-10-21T12:43:26Z</time>
      </trkpt>
      <trkpt lat="44.07067" lon="7.58962">
        <ele>750</ele>
        <time>2012-10-21T12:43:31Z</time>
      </trkpt>
      <trkpt lat="44.07064" lon="7.58987">
        <ele>751</ele>
        <time>2012-10-21T12:43:36Z</time>
      </trkpt>
      <trkpt lat="44.07061" lon="7.59013">
        <ele>752</ele>
        <time>2012-10-21T12:43:41Z</time>
      </trkpt>
      <trkpt lat="44.07058" lon="7.59038">
        <ele>752</ele>
        <time>2012-10-21T12:43:46Z</time>
      </trkpt>
      <trkpt lat="44.07057" lon="7.59062">
        <ele>752</ele>
        <time>2012-10-21T12:43:51Z</time>
      </trkpt>
      <trkpt lat="44.07058" lon="7.59085">
        <ele>752</ele>
        <time>2012-10-21T12:43:56Z</time>
      </trkpt>
      <trkpt lat="44.0706" lon="7.59107">
        <ele>752</ele>
        <time>2012-10-21T12:44:01Z</time>
      </trkpt>
      <trkpt lat="44.07061" lon="7.59128">
        <ele>752</ele>
        <time>2012-10-21T12:44:06Z</time>
      </trkpt>
      <trkpt lat="44.07064" lon="7.5915">
        <ele>753</ele>
        <time>2012-10-21T12:44:11Z</time>
      </trkpt>
      <trkpt lat="44.07066" lon="7.59172">
        <ele>754</ele>
        <time>2012-10-21T12:44:16Z</time>
      </trkpt>
      <trkpt lat="44.07069" lon="7.59196">
        <ele>754</ele>
        <time>2012-10-21T12:44:21Z</time>
      </trkpt>
      <trkpt lat="44.07072" lon="7.59221">
        <ele>754</ele>
        <time>2012-10-21T12:44:26Z</time>
      </trkpt>
      <trkpt lat="44.07073" lon="7.59245">
        <ele>755</ele>
        <time>2012-10-21T12:44:31Z</time>
      </trkpt>
      <trkpt lat="44.07076" lon="7.59271">
        <ele>755</ele>
        <time>2012-10-21T12:44:36Z</time>
      </trkpt>
      <trkpt lat="44.07077" lon="7.59299">
        <ele>756</ele>
        <time>2012-10-21T12:44:41Z</time>
      </trkpt>
      <trkpt lat="44.07079" lon="7.59324">
        <ele>756</ele>
        <time>2012-10-21T12:44:46Z</time>
      </trkpt>
      <trkpt lat="44.0708" lon="7.59346">
        <ele>756</ele>
        <time>2012-10-21T12:44:51Z</time>
      </trkpt>
      <trkpt lat="44.07082" lon="7.5937">
        <ele>756</ele>
        <time>2012-10-21T12:44:56Z</time>
      </trkpt>
      <trkpt lat="44.07085" lon="7.59391">
        <ele>757</ele>
        <time>2012-10-21T12:45:01Z</time>
      </trkpt>
      <trkpt lat="44.07095" lon="7.59413">
        <ele>758</ele>
        <time>2012-10-21T12:45:06Z</time>
      </trkpt>
      <trkpt lat="44.0711" lon="7.5943">
        <ele>760</ele>
        <time>2012-10-21T12:45:11Z</time>
      </trkpt>
      <trkpt lat="44.07127" lon="7.59445">
        <ele>762</ele>
        <time>2012-10-21T12:45:16Z</time>
      </trkpt>
      <trkpt lat="44.07142" lon="7.59458">
        <ele>763</ele>
        <time>2012-10-21T12:45:21Z</time>
      </trkpt>
      <trkpt lat="44.07159" lon="7.59473">
        <ele>763</ele>
        <time>2012-10-21T12:45:26Z</time>
      </trkpt>
      <trkpt lat="44.07174" lon="7.59486">
        <ele>763</ele>
        <time>2012-10-21T12:45:31Z</time>
      </trkpt>
      <trkpt lat="44.0719" lon="7.595">
        <ele>764</ele>
        <time>2012-10-21T12:45:36Z</time>
      </trkpt>
      <trkpt lat="44.07205" lon="7.59515">
        <ele>764</ele>
        <time>2012-10-21T12:45:41Z</time>
      </trkpt>
      <trkpt lat="44.07218" lon="7.59532">
        <ele>764</ele>
        <time>2012-10-21T12:45:46Z</time>
      </trkpt>
      <trkpt lat="44.07231" lon="7.5955">
        <ele>764</ele>
        <time>2012-10-21T12:45:51Z</time>
      </trkpt>
      <trkpt lat="44.07245" lon="7.59567">
        <ele>764</ele>
        <time>2012-10-21T12:45:56Z</time>
      </trkpt>
      <trkpt lat="44.07259" lon="7.59585">
        <ele>765</ele>
        <time>2012-10-21T12:46:01Z</time>
      </trkpt>
      <trkpt lat="44.0727" lon="7.59605">
        <ele>765</ele>
        <time>2012-10-21T12:46:06Z</time>
      </trkpt>
      <trkpt lat="44.07281" lon="7.59625">
        <ele>766</ele>
        <time>2012-10-21T12:46:11Z</time>
      </trkpt>
      <trkpt lat="44.0729" lon="7.59644">
        <ele>767</ele>
        <time>2012-10-21T12:46:16Z</time>
      </trkpt>
      <trkpt lat="44.07295" lon="7.59665">
        <ele>769</ele>
        <time>2012-10-21T12:46:21Z</time>
      </trkpt>
      <trkpt lat="44.07299" lon="7.5969">
        <ele>769</ele>
        <time>2012-10-21T12:46:26Z</time>
      </trkpt>
      <trkpt lat="44.07305" lon="7.59717">
        <ele>769</ele>
        <time>2012-10-21T12:46:31Z</time>
      </trkpt>
      <trkpt lat="44.07311" lon="7.59741">
        <ele>769</ele>
        <time>2012-10-21T12:46:36Z</time>
      </trkpt>
      <trkpt lat="44.07318" lon="7.59766">
        <ele>769</ele>
        <time>2012-10-21T12:46:41Z</time>
      </trkpt>
      <trkpt lat="44.07325" lon="7.5979">
        <ele>769</ele>
        <time>2012-10-21T12:46:46Z</time>
      </trkpt>
      <trkpt lat="44.07331" lon="7.59813">
        <ele>769</ele>
        <time>2012-10-21T12:46:51Z</time>
      </trkpt>
      <trkpt lat="44.07338" lon="7.59836">
        <ele>769</ele>
        <time>2012-10-21T12:46:56Z</time>
      </trkpt>
      <trkpt lat="44.07348" lon="7.59857">
        <ele>769</ele>
        <time>2012-10-21T12:47:01Z</time>
      </trkpt>
      <trkpt lat="44.07363" lon="7.59866">
        <ele>770</ele>
        <time>2012-10-21T12:47:06Z</time>
      </trkpt>
      <trkpt lat="44.07382" lon="7.5987">
        <ele>770</ele>
        <time>2012-10-21T12:47:11Z</time>
      </trkpt>
      <trkpt lat="44.07402" lon="7.59874">
        <ele>770</ele>
        <time>2012-10-21T12:47:16Z</time>
      </trkpt>
      <trkpt lat="44.07422" lon="7.59878">
        <ele>770</ele>
        <time>2012-10-21T12:47:21Z</time>
      </trkpt>
      <trkpt lat="44.07439" lon="7.59882">
        <ele>770</ele>
        <time>2012-10-21T12:47:26Z</time>
      </trkpt>
      <trkpt lat="44.07457" lon="7.59886">
        <ele>771</ele>
        <time>2012-10-21T12:47:31Z</time>
      </trkpt>
      <trkpt lat="44.07475" lon="7.5989">
        <ele>771</ele>
        <time>2012-10-21T12:47:36Z</time>
      </trkpt>
      <trkpt lat="44.07493" lon="7.59893">
        <ele>771</ele>
        <time>2012-10-21T12:47:41Z</time>
      </trkpt>
      <trkpt lat="44.07513" lon="7.59897">
        <ele>772</ele>
        <time>2012-10-21T12:47:46Z</time>
      </trkpt>
      <trkpt lat="44.07528" lon="7.59902">
        <ele>772</ele>
        <time>2012-10-21T12:47:51Z</time>
      </trkpt>
      <trkpt lat="44.07547" lon="7.59907">
        <ele>772</ele>
        <time>2012-10-21T12:47:56Z</time>
      </trkpt>
      <trkpt lat="44.07566" lon="7.59913">
        <ele>772</ele>
        <time>2012-10-21T12:48:01Z</time>
      </trkpt>
      <trkpt lat="44.07587" lon="7.59918">
        <ele>773</ele>
        <time>2012-10-21T12:48:06Z</time>
      </trkpt>
      <trkpt lat="44.07607" lon="7.59921">
        <ele>775</ele>
        <time>2012-10-21T12:48:11Z</time>
      </trkpt>
      <trkpt lat="44.07627" lon="7.59924">
        <ele>776</ele>
        <time>2012-10-21T12:48:16Z</time>
      </trkpt>
      <trkpt lat="44.07647" lon="7.59922">
        <ele>777</ele>
        <time>2012-10-21T12:48:21Z</time>
      </trkpt>
      <trkpt lat="44.07667" lon="7.59915">
        <ele>777</ele>
        <time>2012-10-21T12:48:26Z</time>
      </trkpt>
      <trkpt lat="44.07685" lon="7.59907">
        <ele>777</ele>
        <time>2012-10-21T12:48:31Z</time>
      </trkpt>
      <trkpt lat="44.07703" lon="7.59899">
        <ele>777</ele>
        <time>2012-10-21T12:48:36Z</time>
      </trkpt>
      <trkpt lat="44.0772" lon="7.5989">
        <ele>777</ele>
        <time>2012-10-21T12:48:41Z</time>
      </trkpt>
      <trkpt lat="44.07737" lon="7.59882">
        <ele>777</ele>
        <time>2012-10-21T12:48:46Z</time>
      </trkpt>
      <trkpt lat="44.07756" lon="7.59878">
        <ele>777</ele>
        <time>2012-10-21T12:48:51Z</time>
      </trkpt>
      <trkpt lat="44.07775" lon="7.59875">
        <ele>777</ele>
        <time>2012-10-21T12:48:56Z</time>
      </trkpt>
      <trkpt lat="44.07793" lon="7.59875">
        <ele>777</ele>
        <time>2012-10-21T12:49:01Z</time>
      </trkpt>
      <trkpt lat="44.07813" lon="7.59877">
        <ele>777</ele>
        <time>2012-10-21T12:49:06Z</time>
      </trkpt>
      <trkpt lat="44.07832" lon="7.59879">
        <ele>777</ele>
        <time>2012-10-21T12:49:11Z</time>
      </trkpt>
      <trkpt lat="44.07851" lon="7.59881">
        <ele>777</ele>
        <time>2012-10-21T12:49:16Z</time>
      </trkpt>
      <trkpt lat="44.0787" lon="7.59884">
        <ele>777</ele>
        <time>2012-10-21T12:49:21Z</time>
      </trkpt>
      <trkpt lat="44.07892" lon="7.59884">
        <ele>777</ele>
        <time>2012-10-21T12:49:26Z</time>
      </trkpt>
      <trkpt lat="44.07917" lon="7.59871">
        <ele>777</ele>
        <time>2012-10-21T12:49:31Z</time>
      </trkpt>
      <trkpt lat="44.07939" lon="7.59855">
        <ele>778</ele>
        <time>2012-10-21T12:49:36Z</time>
      </trkpt>
      <trkpt lat="44.07959" lon="7.59838">
        <ele>778</ele>
        <time>2012-10-21T12:49:41Z</time>
      </trkpt>
      <trkpt lat="44.07979" lon="7.5982">
        <ele>778</ele>
        <time>2012-10-21T12:49:46Z</time>
      </trkpt>
      <trkpt lat="44.07999" lon="7.59801">
        <ele>778</ele>
        <time>2012-10-21T12:49:51Z</time>
      </trkpt>
      <trkpt lat="44.0802" lon="7.59783">
        <ele>778</ele>
        <time>2012-10-21T12:49:56Z</time>
      </trkpt>
      <trkpt lat="44.08041" lon="7.59765">
        <ele>778</ele>
        <time>2012-10-21T12:50:01Z</time>
      </trkpt>
      <trkpt lat="44.0806" lon="7.59747">
        <ele>778</ele>
        <time>2012-10-21T12:50:06Z</time>
      </trkpt>
      <trkpt lat="44.08079" lon="7.59728">
        <ele>778</ele>
        <time>2012-10-21T12:50:11Z</time>
      </trkpt>
      <trkpt lat="44.08099" lon="7.59712">
        <ele>778</ele>
        <time>2012-10-21T12:50:16Z</time>
      </trkpt>
      <trkpt lat="44.08117" lon="7.59695">
        <ele>778</ele>
        <time>2012-10-21T12:50:21Z</time>
      </trkpt>
      <trkpt lat="44.08135" lon="7.59678">
        <ele>778</ele>
        <time>2012-10-21T12:50:26Z</time>
      </trkpt>
      <trkpt lat="44.08154" lon="7.59661">
        <ele>779</ele>
        <time>2012-10-21T12:50:31Z</time>
      </trkpt>
      <trkpt lat="44.08171" lon="7.59644">
        <ele>780</ele>
        <time>2012-10-21T12:50:36Z</time>
      </trkpt>
      <trkpt lat="44.08188" lon="7.59623">
        <ele>782</ele>
        <time>2012-10-21T12:50:41Z</time>
      </trkpt>
      <trkpt lat="44.08206" lon="7.59606">
        <ele>783</ele>
        <time>2012-10-21T12:50:46Z</time>
      </trkpt>
      <trkpt lat="44.08223" lon="7.59588">
        <ele>783</ele>
        <time>2012-10-21T12:50:51Z</time>
      </trkpt>
      <trkpt lat="44.08239" lon="7.59571">
        <ele>783</ele>
        <time>2012-10-21T12:50:56Z</time>
      </trkpt>
      <trkpt lat="44.08255" lon="7.59554">
        <ele>784</ele>
        <time>2012-10-21T12:51:01Z</time>
      </trkpt>
      <trkpt lat="44.08271" lon="7.59536">
        <ele>784</ele>
        <time>2012-10-21T12:51:06Z</time>
      </trkpt>
      <trkpt lat="44.08287" lon="7.59518">
        <ele>785</ele>
        <time>2012-10-21T12:51:11Z</time>
      </trkpt>
      <trkpt lat="44.08303" lon="7.595">
        <ele>785</ele>
        <time>2012-10-21T12:51:16Z</time>
      </trkpt>
      <trkpt lat="44.08319" lon="7.59482">
        <ele>785</ele>
        <time>2012-10-21T12:51:21Z</time>
      </trkpt>
      <trkpt lat="44.08334" lon="7.59464">
        <ele>786</ele>
        <time>2012-10-21T12:51:26Z</time>
      </trkpt>
      <trkpt lat="44.08347" lon="7.59448">
        <ele>787</ele>
        <time>2012-10-21T12:51:31Z</time>
      </trkpt>
      <trkpt lat="44.08356" lon="7.59429">
        <ele>787</ele>
        <time>2012-10-21T12:51:36Z</time>
      </trkpt>
      <trkpt lat="44.08355" lon="7.59407">
        <ele>788</ele>
        <time>2012-10-21T12:51:41Z</time>
      </trkpt>
      <trkpt lat="44.08353" lon="7.59387">
        <ele>788</ele>
        <time>2012-10-21T12:51:46Z</time>
      </trkpt>
      <trkpt lat="44.08359" lon="7.59367">
        <ele>788</ele>
        <time>2012-10-21T12:51:51Z</time>
      </trkpt>
      <trkpt lat="44.08374" lon="7.59359">
        <ele>788</ele>
        <time>2012-10-21T12:51:56Z</time>
      </trkpt>
      <trkpt lat="44.08392" lon="7.59357">
        <ele>789</ele>
        <time>2012-10-21T12:52:01Z</time>
      </trkpt>
      <trkpt lat="44.08407" lon="7.59354">
        <ele>791</ele>
        <time>2012-10-21T12:52:06Z</time>
      </trkpt>
      <trkpt lat="44.08422" lon="7.59355">
        <ele>795</ele>
        <time>2012-10-21T12:52:11Z</time>
      </trkpt>
      <trkpt lat="44.08438" lon="7.59354">
        <ele>795</ele>
        <time>2012-10-21T12:52:16Z</time>
      </trkpt>
      <trkpt lat="44.08452" lon="7.59354">
        <ele>795</ele>
        <time>2012-10-21T12:52:21Z</time>
      </trkpt>
      <trkpt lat="44.08467" lon="7.59361">
        <ele>796</ele>
        <time>2012-10-21T12:52:26Z</time>
      </trkpt>
      <trkpt lat="44.0848" lon="7.59366">
        <ele>796</ele>
        <time>2012-10-21T12:52:31Z</time>
      </trkpt>
      <trkpt lat="44.08494" lon="7.59371">
        <ele>799</ele>
        <time>2012-10-21T12:52:36Z</time>
      </trkpt>
      <trkpt lat="44.08509" lon="7.59375">
        <ele>800</ele>
        <time>2012-10-21T12:52:41Z</time>
      </trkpt>
      <trkpt lat="44.08523" lon="7.5938">
        <ele>800</ele>
        <time>2012-10-21T12:52:46Z</time>
      </trkpt>
      <trkpt lat="44.08537" lon="7.59382">
        <ele>800</ele>
        <time>2012-10-21T12:52:51Z</time>
      </trkpt>
      <trkpt lat="44.08553" lon="7.59384">
        <ele>800</ele>
        <time>2012-10-21T12:52:56Z</time>
      </trkpt>
      <trkpt lat="44.08568" lon="7.59383">
        <ele>801</ele>
        <time>2012-10-21T12:53:01Z</time>
      </trkpt>
      <trkpt lat="44.08581" lon="7.59382">
        <ele>801</ele>
        <time>2012-10-21T12:53:06Z</time>
      </trkpt>
      <trkpt lat="44.0859" lon="7.59381">
        <ele>802</ele>
        <time>2012-10-21T12:53:11Z</time>
      </trkpt>
      <trkpt lat="44.08603" lon="7.59381">
        <ele>802</ele>
        <time>2012-10-21T12:53:16Z</time>
      </trkpt>
      <trkpt lat="44.08615" lon="7.59376">
        <ele>802</ele>
        <time>2012-10-21T12:53:21Z</time>
      </trkpt>
      <trkpt lat="44.08627" lon="7.59368">
        <ele>802</ele>
        <time>2012-10-21T12:53:26Z</time>
      </trkpt>
      <trkpt lat="44.08638" lon="7.59359">
        <ele>803</ele>
        <time>2012-10-21T12:53:31Z</time>
      </trkpt>
      <trkpt lat="44.08651" lon="7.59356">
        <ele>803</ele>
        <time>2012-10-21T12:53:36Z</time>
      </trkpt>
      <trkpt lat="44.08663" lon="7.59357">
        <ele>805</ele>
        <time>2012-10-21T12:53:41Z</time>
      </trkpt>
      <trkpt lat="44.08677" lon="7.5936">
        <ele>806</ele>
        <time>2012-10-21T12:53:46Z</time>
      </trkpt>
      <trkpt lat="44.08689" lon="7.59365">
        <ele>806</ele>
        <time>2012-10-21T12:53:51Z</time>
      </trkpt>
      <trkpt lat="44.08701" lon="7.59369">
        <ele>808</ele>
        <time>2012-10-21T12:53:56Z</time>
      </trkpt>
      <trkpt lat="44.08714" lon="7.59375">
        <ele>810</ele>
        <time>2012-10-21T12:54:01Z</time>
      </trkpt>
      <trkpt lat="44.08725" lon="7.59377">
        <ele>811</ele>
        <time>2012-10-21T12:54:06Z</time>
      </trkpt>
      <trkpt lat="44.08739" lon="7.59373">
        <ele>811</ele>
        <time>2012-10-21T12:54:11Z</time>
      </trkpt>
      <trkpt lat="44.08754" lon="7.59368">
        <ele>813</ele>
        <time>2012-10-21T12:54:16Z</time>
      </trkpt>
      <trkpt lat="44.08768" lon="7.59364">
        <ele>814</ele>
        <time>2012-10-21T12:54:21Z</time>
      </trkpt>
      <trkpt lat="44.08781" lon="7.59365">
        <ele>817</ele>
        <time>2012-10-21T12:54:26Z</time>
      </trkpt>
      <trkpt lat="44.08796" lon="7.59363">
        <ele>817</ele>
        <time>2012-10-21T12:54:31Z</time>
      </trkpt>
      <trkpt lat="44.08809" lon="7.59358">
        <ele>818</ele>
        <time>2012-10-21T12:54:36Z</time>
      </trkpt>
      <trkpt lat="44.08825" lon="7.59354">
        <ele>818</ele>
        <time>2012-10-21T12:54:41Z</time>
      </trkpt>
      <trkpt lat="44.08839" lon="7.59349">
        <ele>818</ele>
        <time>2012-10-21T12:54:46Z</time>
      </trkpt>
      <trkpt lat="44.08852" lon="7.59344">
        <ele>818</ele>
        <time>2012-10-21T12:54:51Z</time>
      </trkpt>
      <trkpt lat="44.08863" lon="7.5934">
        <ele>818</ele>
        <time>2012-10-21T12:54:56Z</time>
      </trkpt>
      <trkpt lat="44.08875" lon="7.59336">
        <ele>819</ele>
        <time>2012-10-21T12:55:01Z</time>
      </trkpt>
      <trkpt lat="44.08885" lon="7.59333">
        <ele>819</ele>
        <time>2012-10-21T12:55:06Z</time>
      </trkpt>
      <trkpt lat="44.08887" lon="7.59331">
        <ele>819</ele>
        <time>2012-10-21T12:55:24Z</time>
      </trkpt>
      <trkpt lat="44.08897" lon="7.59327">
        <ele>819</ele>
        <time>2012-10-21T12:55:29Z</time>
      </trkpt>
      <trkpt lat="44.08909" lon="7.59322">
        <ele>819</ele>
        <time>2012-10-21T12:55:34Z</time>
      </trkpt>
      <trkpt lat="44.08922" lon="7.59317">
        <ele>819</ele>
        <time>2012-10-21T12:55:39Z</time>
      </trkpt>
      <trkpt lat="44.08932" lon="7.59314">
        <ele>819</ele>
        <time>2012-10-21T12:55:50Z</time>
      </trkpt>
      <trkpt lat="44.08939" lon="7.59311">
        <ele>819</ele>
        <time>2012-10-21T12:55:55Z</time>
      </trkpt>
      <trkpt lat="44.0895" lon="7.59305">
        <ele>819</ele>
        <time>2012-10-21T12:56:00Z</time>
      </trkpt>
      <trkpt lat="44.08962" lon="7.593">
        <ele>820</ele>
        <time>2012-10-21T12:56:05Z</time>
      </trkpt>
      <trkpt lat="44.08976" lon="7.59295">
        <ele>822</ele>
        <time>2012-10-21T12:56:10Z</time>
      </trkpt>
      <trkpt lat="44.08984" lon="7.59302">
        <ele>823</ele>
        <time>2012-10-21T12:56:15Z</time>
      </trkpt>
      <trkpt lat="44.08991" lon="7.59314">
        <ele>824</ele>
        <time>2012-10-21T12:56:20Z</time>
      </trkpt>
      <trkpt lat="44.08999" lon="7.59323">
        <ele>824</ele>
        <time>2012-10-21T12:56:26Z</time>
      </trkpt>
      <trkpt lat="44.08998" lon="7.59325">
        <ele>824</ele>
        <time>2012-10-21T12:56:33Z</time>
      </trkpt>
      <trkpt lat="44.08998" lon="7.59323">
        <ele>824</ele>
        <time>2012-10-21T12:56:38Z</time>
      </trkpt>
      <trkpt lat="44.08999" lon="7.59321">
        <ele>824</ele>
        <time>2012-10-21T12:56:46Z</time>
      </trkpt>
      <trkpt lat="44.08999" lon="7.59321">
        <ele>824</ele>
        <time>2012-10-21T12:56:46Z</time>
      </trkpt>
    </trkseg>
  </trk>
</gpx>